<?xml version='1.0' encoding='UTF-8'?><gpx version="1.1" creator="JPX - https://github.com/jenetics/jpx" xmlns="http://www.topografix.com/GPX/1/1"><trk><trkseg><trkpt lat="40.72671615099989" lon="17.579213712541417"><ele>240.0</ele><time>2026-05-03T07:51:39.002Z</time></trkpt><trkpt lat="40.726733449500806" lon="17.579077111347306"><ele>240.0</ele><time>2026-05-03T07:53:17.998Z</time></trkpt><trkpt lat="40.726697467632576" lon="17.57899455055128"><ele>240.0</ele><time>2026-05-03T07:53:20.998Z</time></trkpt><trkpt lat="40.72672616121329" lon="17.578911602880655"><ele>240.0</ele><time>2026-05-03T07:53:28.998Z</time></trkpt><trkpt lat="40.726784336091576" lon="17.57884014053981"><ele>240.0</ele><time>2026-05-03T07:53:42.998Z</time></trkpt><trkpt lat="40.72681856037731" lon="17.578737028750037"><ele>240.0</ele><time>2026-05-03T07:53:46Z</time></trkpt><trkpt lat="40.726861932009975" lon="17.578636544638584"><ele>240.14285714285717</ele><time>2026-05-03T07:53:49Z</time></trkpt><trkpt lat="40.7269055806974" lon="17.57857030199012"><ele>240.28571428571428</ele><time>2026-05-03T07:53:51Z</time></trkpt><trkpt lat="40.72694995476498" lon="17.578511000253595"><ele>240.42857142857144</ele><time>2026-05-03T07:53:53Z</time></trkpt><trkpt lat="40.727006260866254" lon="17.578402207900247"><ele>240.57142857142858</ele><time>2026-05-03T07:53:56Z</time></trkpt><trkpt lat="40.72706504456243" lon="17.57837070995036"><ele>240.71428571428572</ele><time>2026-05-03T07:53:58Z</time></trkpt><trkpt lat="40.72709951058013" lon="17.57828197043443"><ele>240.85714285714286</ele><time>2026-05-03T07:54:00Z</time></trkpt><trkpt lat="40.727131291783586" lon="17.57818843714985"><ele>241.0</ele><time>2026-05-03T07:54:02Z</time></trkpt><trkpt lat="40.72716751804269" lon="17.578104381528558"><ele>240.99999999999997</ele><time>2026-05-03T07:54:04Z</time></trkpt><trkpt lat="40.727201807109644" lon="17.57802387415818"><ele>241.0</ele><time>2026-05-03T07:54:06Z</time></trkpt><trkpt lat="40.727237345227756" lon="17.577948972524624"><ele>241.0</ele><time>2026-05-03T07:54:08Z</time></trkpt><trkpt lat="40.72728629000313" lon="17.577845741306906"><ele>241.0</ele><time>2026-05-03T07:54:11Z</time></trkpt><trkpt lat="40.72733921612024" lon="17.577782822605034"><ele>240.99999999999997</ele><time>2026-05-03T07:54:13Z</time></trkpt><trkpt lat="40.72739628357809" lon="17.577710148466615"><ele>241.0</ele><time>2026-05-03T07:54:16Z</time></trkpt><trkpt lat="40.72746098503955" lon="17.577650965274294"><ele>241.20000000000002</ele><time>2026-05-03T07:54:18.999Z</time></trkpt><trkpt lat="40.72757026414065" lon="17.57758802655649"><ele>241.40000000000003</ele><time>2026-05-03T07:54:23.999Z</time></trkpt><trkpt lat="40.72764559650216" lon="17.577524491991912"><ele>241.6</ele><time>2026-05-03T07:54:25.999Z</time></trkpt><trkpt lat="40.727707535827726" lon="17.577471161818938"><ele>241.8</ele><time>2026-05-03T07:54:27.999Z</time></trkpt><trkpt lat="40.72779685885971" lon="17.57741517643829"><ele>242.0</ele><time>2026-05-03T07:54:29.999Z</time></trkpt><trkpt lat="40.72784546476043" lon="17.577348925442383"><ele>242.00000000000003</ele><time>2026-05-03T07:54:31.999Z</time></trkpt><trkpt lat="40.72791464390565" lon="17.57728707548819"><ele>242.0</ele><time>2026-05-03T07:54:34.999Z</time></trkpt><trkpt lat="40.727879668170964" lon="17.577193174457626"><ele>242.0</ele><time>2026-05-03T07:54:36.999Z</time></trkpt><trkpt lat="40.72783426546364" lon="17.577119101364694"><ele>242.0</ele><time>2026-05-03T07:54:38.999Z</time></trkpt><trkpt lat="40.72778561575177" lon="17.577062074927095"><ele>242.00000000000003</ele><time>2026-05-03T07:54:40.999Z</time></trkpt><trkpt lat="40.72775211821001" lon="17.576934566330785"><ele>242.0</ele><time>2026-05-03T07:54:43.999Z</time></trkpt><trkpt lat="40.72771519243789" lon="17.57685710419552"><ele>242.0</ele><time>2026-05-03T07:54:45.999Z</time></trkpt><trkpt lat="40.727676457443096" lon="17.576762368926634"><ele>241.99999999999997</ele><time>2026-05-03T07:54:48.999Z</time></trkpt><trkpt lat="40.72767204459805" lon="17.57666443526778"><ele>242.0</ele><time>2026-05-03T07:54:51.999Z</time></trkpt><trkpt lat="40.727623544580894" lon="17.57659755205452"><ele>242.0</ele><time>2026-05-03T07:54:53.999Z</time></trkpt><trkpt lat="40.727583074454756" lon="17.576532501959477"><ele>241.99999999999997</ele><time>2026-05-03T07:54:55.999Z</time></trkpt><trkpt lat="40.72754891458833" lon="17.5764574924844"><ele>242.0</ele><time>2026-05-03T07:54:57.999Z</time></trkpt><trkpt lat="40.7275078962644" lon="17.576374282581387"><ele>242.0</ele><time>2026-05-03T07:54:59.999Z</time></trkpt><trkpt lat="40.7275710056336" lon="17.57634369768714"><ele>242.00000000000003</ele><time>2026-05-03T07:55:02.999Z</time></trkpt><trkpt lat="40.727620447958614" lon="17.57626077618781"><ele>242.0</ele><time>2026-05-03T07:55:04.999Z</time></trkpt><trkpt lat="40.72768437876744" lon="17.576196642936413"><ele>242.0</ele><time>2026-05-03T07:55:06.999Z</time></trkpt><trkpt lat="40.72775862232399" lon="17.576160228398916"><ele>242.0</ele><time>2026-05-03T07:55:08.998Z</time></trkpt><trkpt lat="40.72778282688851" lon="17.576055913231073"><ele>242.00000000000003</ele><time>2026-05-03T07:55:10.998Z</time></trkpt><trkpt lat="40.72777172545819" lon="17.575963783391796"><ele>242.0</ele><time>2026-05-03T07:55:11.998Z</time></trkpt><trkpt lat="40.72778908888243" lon="17.575834551957737"><ele>241.33333333333334</ele><time>2026-05-03T07:55:13.998Z</time></trkpt><trkpt lat="40.7278229220909" lon="17.575735172305563"><ele>240.66666666666669</ele><time>2026-05-03T07:55:15.998Z</time></trkpt><trkpt lat="40.72785469490877" lon="17.575646193392153"><ele>240.0</ele><time>2026-05-03T07:55:17.998Z</time></trkpt><trkpt lat="40.727882342705946" lon="17.575532911215017"><ele>239.33333333333331</ele><time>2026-05-03T07:55:19.998Z</time></trkpt><trkpt lat="40.72791368849162" lon="17.57543966279198"><ele>238.66666666666666</ele><time>2026-05-03T07:55:21.998Z</time></trkpt><trkpt lat="40.72793297942131" lon="17.575333241610693"><ele>238.0</ele><time>2026-05-03T07:55:23.998Z</time></trkpt><trkpt lat="40.72795183567009" lon="17.575216514145875"><ele>238.0</ele><time>2026-05-03T07:55:25.998Z</time></trkpt><trkpt lat="40.72799647232233" lon="17.575112796672407"><ele>238.0</ele><time>2026-05-03T07:55:27.998Z</time></trkpt><trkpt lat="40.728011956345846" lon="17.574990585821276"><ele>238.0</ele><time>2026-05-03T07:55:29.998Z</time></trkpt><trkpt lat="40.728040665571164" lon="17.574862388215447"><ele>238.0</ele><time>2026-05-03T07:55:31.998Z</time></trkpt><trkpt lat="40.728065929084366" lon="17.57471356829474"><ele>238.0</ele><time>2026-05-03T07:55:33.998Z</time></trkpt><trkpt lat="40.728116926448386" lon="17.57457750946495"><ele>237.49999999999997</ele><time>2026-05-03T07:55:35.998Z</time></trkpt><trkpt lat="40.72813230109608" lon="17.574492925030583"><ele>237.0</ele><time>2026-05-03T07:55:36.998Z</time></trkpt><trkpt lat="40.728152036469" lon="17.57440149048719"><ele>236.5</ele><time>2026-05-03T07:55:37.998Z</time></trkpt><trkpt lat="40.72818451406452" lon="17.57426255908645"><ele>236.0</ele><time>2026-05-03T07:55:39.998Z</time></trkpt><trkpt lat="40.72820175644438" lon="17.57417243147191"><ele>235.49999999999997</ele><time>2026-05-03T07:55:41.998Z</time></trkpt><trkpt lat="40.72817215706098" lon="17.574088175483375"><ele>235.0</ele><time>2026-05-03T07:55:43.998Z</time></trkpt><trkpt lat="40.72809583335708" lon="17.574034250613707"><ele>234.99999999999997</ele><time>2026-05-03T07:55:45.998Z</time></trkpt><trkpt lat="40.72803161111352" lon="17.57399493730338"><ele>235.0</ele><time>2026-05-03T07:55:47.998Z</time></trkpt><trkpt lat="40.72804495042622" lon="17.573905372684038"><ele>235.0</ele><time>2026-05-03T07:55:52Z</time></trkpt><trkpt lat="40.728013055063826" lon="17.573795121585835"><ele>235.0</ele><time>2026-05-03T07:55:55Z</time></trkpt><trkpt lat="40.72805609978074" lon="17.573694100685096"><ele>234.99999999999997</ele><time>2026-05-03T07:55:57Z</time></trkpt><trkpt lat="40.72810871824463" lon="17.573610317906564"><ele>235.0</ele><time>2026-05-03T07:55:59Z</time></trkpt><trkpt lat="40.7281478367074" lon="17.573505547121407"><ele>234.6</ele><time>2026-05-03T07:56:01Z</time></trkpt><trkpt lat="40.728181856371236" lon="17.573379748678093"><ele>234.2</ele><time>2026-05-03T07:56:03Z</time></trkpt><trkpt lat="40.72821186610543" lon="17.573242490548065"><ele>233.8</ele><time>2026-05-03T07:56:05Z</time></trkpt><trkpt lat="40.72823874507214" lon="17.57310159679528"><ele>233.4</ele><time>2026-05-03T07:56:07Z</time></trkpt><trkpt lat="40.72826364304993" lon="17.572986674220267"><ele>233.0</ele><time>2026-05-03T07:56:09Z</time></trkpt><trkpt lat="40.72829697026804" lon="17.57286176856202"><ele>232.66666666666669</ele><time>2026-05-03T07:56:11Z</time></trkpt><trkpt lat="40.72832937723917" lon="17.572759620797946"><ele>232.33333333333334</ele><time>2026-05-03T07:56:13Z</time></trkpt><trkpt lat="40.72831902864035" lon="17.572631312014224"><ele>232.0</ele><time>2026-05-03T07:56:15Z</time></trkpt><trkpt lat="40.72829588688787" lon="17.57252123821477"><ele>231.66666666666669</ele><time>2026-05-03T07:56:17Z</time></trkpt><trkpt lat="40.72828088871218" lon="17.572417863960812"><ele>231.33333333333334</ele><time>2026-05-03T07:56:19Z</time></trkpt><trkpt lat="40.7282832555899" lon="17.572313453983373"><ele>231.0</ele><time>2026-05-03T07:56:21Z</time></trkpt><trkpt lat="40.72828883425727" lon="17.57219683658177"><ele>231.0</ele><time>2026-05-03T07:56:23Z</time></trkpt><trkpt lat="40.728287353714606" lon="17.57206685058851"><ele>231.00000000000003</ele><time>2026-05-03T07:56:24.999Z</time></trkpt><trkpt lat="40.728286310952804" lon="17.571926498365393"><ele>231.00000000000003</ele><time>2026-05-03T07:56:26.999Z</time></trkpt><trkpt lat="40.72828464257003" lon="17.571769670745958"><ele>231.0</ele><time>2026-05-03T07:56:28.999Z</time></trkpt><trkpt lat="40.72828546023714" lon="17.571607907675"><ele>231.0</ele><time>2026-05-03T07:56:30.999Z</time></trkpt><trkpt lat="40.728280066420346" lon="17.571450965693234"><ele>231.20000000000002</ele><time>2026-05-03T07:56:32.999Z</time></trkpt><trkpt lat="40.728278518843716" lon="17.57129544304548"><ele>231.40000000000003</ele><time>2026-05-03T07:56:34.999Z</time></trkpt><trkpt lat="40.7282734387168" lon="17.57114771980487"><ele>231.6</ele><time>2026-05-03T07:56:36.999Z</time></trkpt><trkpt lat="40.728274245266064" lon="17.57101239564196"><ele>231.8</ele><time>2026-05-03T07:56:38.999Z</time></trkpt><trkpt lat="40.72828067462804" lon="17.570873326022323"><ele>232.0</ele><time>2026-05-03T07:56:40.999Z</time></trkpt><trkpt lat="40.72827124606897" lon="17.570728759994818"><ele>232.2</ele><time>2026-05-03T07:56:42.999Z</time></trkpt><trkpt lat="40.72827725984531" lon="17.570582549396864"><ele>232.39999999999998</ele><time>2026-05-03T07:56:44.999Z</time></trkpt><trkpt lat="40.72828703355622" lon="17.570450552296133"><ele>232.60000000000002</ele><time>2026-05-03T07:56:46.999Z</time></trkpt><trkpt lat="40.72827324610173" lon="17.57031470001889"><ele>232.8</ele><time>2026-05-03T07:56:48.999Z</time></trkpt><trkpt lat="40.72829784893062" lon="17.57017309885477"><ele>233.0</ele><time>2026-05-03T07:56:50.999Z</time></trkpt><trkpt lat="40.728308072342394" lon="17.570040973199365"><ele>233.0</ele><time>2026-05-03T07:56:52.999Z</time></trkpt><trkpt lat="40.72831069749895" lon="17.56989619460901"><ele>233.0</ele><time>2026-05-03T07:56:54.999Z</time></trkpt><trkpt lat="40.728317789258696" lon="17.56973955608952"><ele>233.0</ele><time>2026-05-03T07:56:56.999Z</time></trkpt><trkpt lat="40.72829523105914" lon="17.569597747005876"><ele>233.0</ele><time>2026-05-03T07:56:58.999Z</time></trkpt><trkpt lat="40.72826105566597" lon="17.569463400280764"><ele>233.0</ele><time>2026-05-03T07:57:00.999Z</time></trkpt><trkpt lat="40.728214925206046" lon="17.56932495216151"><ele>232.60000000000002</ele><time>2026-05-03T07:57:02.999Z</time></trkpt><trkpt lat="40.728185141144564" lon="17.569214824574328"><ele>232.20000000000002</ele><time>2026-05-03T07:57:04.999Z</time></trkpt><trkpt lat="40.72816110379916" lon="17.56909769680424"><ele>231.8</ele><time>2026-05-03T07:57:06.999Z</time></trkpt><trkpt lat="40.72811991631519" lon="17.5689680617316"><ele>231.4</ele><time>2026-05-03T07:57:08.999Z</time></trkpt><trkpt lat="40.72809822837069" lon="17.56884300820297"><ele>231.0</ele><time>2026-05-03T07:57:10.999Z</time></trkpt><trkpt lat="40.72806818611561" lon="17.568700293537773"><ele>231.25</ele><time>2026-05-03T07:57:12.999Z</time></trkpt><trkpt lat="40.72803789934924" lon="17.56855223465482"><ele>231.5</ele><time>2026-05-03T07:57:14.999Z</time></trkpt><trkpt lat="40.728016249084554" lon="17.568405257753557"><ele>231.75</ele><time>2026-05-03T07:57:16.999Z</time></trkpt><trkpt lat="40.7279956567981" lon="17.56825848298182"><ele>232.0</ele><time>2026-05-03T07:57:18.998Z</time></trkpt><trkpt lat="40.727971097630096" lon="17.568107384132286"><ele>232.0</ele><time>2026-05-03T07:57:20.998Z</time></trkpt><trkpt lat="40.72794168963842" lon="17.567959611286774"><ele>232.0</ele><time>2026-05-03T07:57:22.998Z</time></trkpt><trkpt lat="40.727900784095695" lon="17.567814307185724"><ele>232.0</ele><time>2026-05-03T07:57:24.998Z</time></trkpt><trkpt lat="40.72785841009219" lon="17.567671901082576"><ele>232.0</ele><time>2026-05-03T07:57:26.998Z</time></trkpt><trkpt lat="40.72780246856396" lon="17.567535518403805"><ele>232.0</ele><time>2026-05-03T07:57:28.998Z</time></trkpt><trkpt lat="40.727735266157666" lon="17.567423472789905"><ele>232.0</ele><time>2026-05-03T07:57:30.998Z</time></trkpt><trkpt lat="40.72765571865961" lon="17.567317895664644"><ele>232.0</ele><time>2026-05-03T07:57:32.998Z</time></trkpt><trkpt lat="40.72756642548" lon="17.56723830484104"><ele>232.0</ele><time>2026-05-03T07:57:34.998Z</time></trkpt><trkpt lat="40.727493918156924" lon="17.56713993937299"><ele>232.0</ele><time>2026-05-03T07:57:36.998Z</time></trkpt><trkpt lat="40.727402910151845" lon="17.567029774731633"><ele>232.8</ele><time>2026-05-03T07:57:38.998Z</time></trkpt><trkpt lat="40.72732755289416" lon="17.566913072339975"><ele>233.6</ele><time>2026-05-03T07:57:40.998Z</time></trkpt><trkpt lat="40.727253816630096" lon="17.566787394683566"><ele>234.40000000000003</ele><time>2026-05-03T07:57:42.998Z</time></trkpt><trkpt lat="40.7272052546874" lon="17.566634369202472"><ele>235.20000000000002</ele><time>2026-05-03T07:57:44.998Z</time></trkpt><trkpt lat="40.72719405505265" lon="17.566551616422426"><ele>236.0</ele><time>2026-05-03T07:57:45.998Z</time></trkpt><trkpt lat="40.72720688077719" lon="17.5663926207814"><ele>236.0</ele><time>2026-05-03T07:57:47.998Z</time></trkpt><trkpt lat="40.727258976952136" lon="17.566260651532566"><ele>236.0</ele><time>2026-05-03T07:57:49.998Z</time></trkpt><trkpt lat="40.727341956385445" lon="17.56614438142571"><ele>236.0</ele><time>2026-05-03T07:57:51.998Z</time></trkpt><trkpt lat="40.72742645626753" lon="17.56604093116588"><ele>236.0</ele><time>2026-05-03T07:57:53.998Z</time></trkpt><trkpt lat="40.727506125796296" lon="17.565947558901883"><ele>236.0</ele><time>2026-05-03T07:57:55.998Z</time></trkpt><trkpt lat="40.727600477391185" lon="17.565876315774343"><ele>236.00000000000003</ele><time>2026-05-03T07:57:58Z</time></trkpt><trkpt lat="40.727690685391835" lon="17.565804261712792"><ele>236.00000000000003</ele><time>2026-05-03T07:58:00Z</time></trkpt><trkpt lat="40.72777841677906" lon="17.565709123841106"><ele>236.0</ele><time>2026-05-03T07:58:02Z</time></trkpt><trkpt lat="40.72787091222957" lon="17.565628102492823"><ele>236.0</ele><time>2026-05-03T07:58:04Z</time></trkpt><trkpt lat="40.727967688671285" lon="17.56554249793223"><ele>236.00000000000003</ele><time>2026-05-03T07:58:06Z</time></trkpt><trkpt lat="40.728016329959694" lon="17.565485165959384"><ele>236.0</ele><time>2026-05-03T07:58:07Z</time></trkpt><trkpt lat="40.72810600304737" lon="17.56536724262312"><ele>236.0</ele><time>2026-05-03T07:58:09Z</time></trkpt><trkpt lat="40.7281418864659" lon="17.565281672862568"><ele>236.0</ele><time>2026-05-03T07:58:10Z</time></trkpt><trkpt lat="40.72817579284232" lon="17.565199345060705"><ele>236.00000000000003</ele><time>2026-05-03T07:58:11Z</time></trkpt><trkpt lat="40.72820467763411" lon="17.56511040508758"><ele>236.0</ele><time>2026-05-03T07:58:12Z</time></trkpt><trkpt lat="40.728231770120246" lon="17.56501842964933"><ele>235.33333333333334</ele><time>2026-05-03T07:58:13Z</time></trkpt><trkpt lat="40.728252941407874" lon="17.564916397692482"><ele>234.66666666666669</ele><time>2026-05-03T07:58:14Z</time></trkpt><trkpt lat="40.72826253003303" lon="17.564809234479323"><ele>234.0</ele><time>2026-05-03T07:58:15Z</time></trkpt><trkpt lat="40.72826415475753" lon="17.56469268182798"><ele>233.33333333333331</ele><time>2026-05-03T07:58:16Z</time></trkpt><trkpt lat="40.72825868646374" lon="17.564584613943563"><ele>232.66666666666666</ele><time>2026-05-03T07:58:17Z</time></trkpt><trkpt lat="40.72825223601505" lon="17.564473757838645"><ele>232.0</ele><time>2026-05-03T07:58:18Z</time></trkpt><trkpt lat="40.728250240579555" lon="17.564366958971487"><ele>231.33333333333331</ele><time>2026-05-03T07:58:19Z</time></trkpt><trkpt lat="40.72825508035832" lon="17.564257122329977"><ele>230.66666666666666</ele><time>2026-05-03T07:58:20Z</time></trkpt><trkpt lat="40.72825640768622" lon="17.56415794924265"><ele>230.0</ele><time>2026-05-03T07:58:21Z</time></trkpt><trkpt lat="40.728253406564264" lon="17.56404918348204"><ele>229.33333333333331</ele><time>2026-05-03T07:58:22Z</time></trkpt><trkpt lat="40.72825004578112" lon="17.56393912823613"><ele>228.66666666666666</ele><time>2026-05-03T07:58:23Z</time></trkpt><trkpt lat="40.72825191666606" lon="17.563820878281824"><ele>228.0</ele><time>2026-05-03T07:58:24Z</time></trkpt><trkpt lat="40.72825337615069" lon="17.56371105005194"><ele>226.60000000000002</ele><time>2026-05-03T07:58:25Z</time></trkpt><trkpt lat="40.7282487398549" lon="17.56358708673882"><ele>225.20000000000002</ele><time>2026-05-03T07:58:26Z</time></trkpt><trkpt lat="40.72823625076886" lon="17.563472881690974"><ele>223.8</ele><time>2026-05-03T07:58:27Z</time></trkpt><trkpt lat="40.7282202351813" lon="17.563356105540628"><ele>222.4</ele><time>2026-05-03T07:58:28Z</time></trkpt><trkpt lat="40.72818973905148" lon="17.563242696763442"><ele>221.0</ele><time>2026-05-03T07:58:29Z</time></trkpt><trkpt lat="40.72816742222102" lon="17.563130667508023"><ele>221.0</ele><time>2026-05-03T07:58:30Z</time></trkpt><trkpt lat="40.728143888199874" lon="17.563016609029336"><ele>221.00000000000003</ele><time>2026-05-03T07:58:31Z</time></trkpt><trkpt lat="40.72812144831905" lon="17.562905686038487"><ele>221.00000000000003</ele><time>2026-05-03T07:58:31.999Z</time></trkpt><trkpt lat="40.72810161509694" lon="17.5627925582518"><ele>221.0</ele><time>2026-05-03T07:58:32.999Z</time></trkpt><trkpt lat="40.72807752738633" lon="17.562669832166545"><ele>221.0</ele><time>2026-05-03T07:58:33.999Z</time></trkpt><trkpt lat="40.7280533428913" lon="17.56254792821096"><ele>220.60000000000002</ele><time>2026-05-03T07:58:34.999Z</time></trkpt><trkpt lat="40.72802684619641" lon="17.56242593929796"><ele>220.20000000000002</ele><time>2026-05-03T07:58:35.999Z</time></trkpt><trkpt lat="40.728007673205234" lon="17.562303032680393"><ele>219.79999999999998</ele><time>2026-05-03T07:58:36.999Z</time></trkpt><trkpt lat="40.72798853090177" lon="17.56216535644939"><ele>219.39999999999998</ele><time>2026-05-03T07:58:37.999Z</time></trkpt><trkpt lat="40.72799727737732" lon="17.56204048926906"><ele>219.0</ele><time>2026-05-03T07:58:38.999Z</time></trkpt><trkpt lat="40.72801587279617" lon="17.56192169590721"><ele>219.0</ele><time>2026-05-03T07:58:39.999Z</time></trkpt><trkpt lat="40.728023385312774" lon="17.56180574773932"><ele>219.0</ele><time>2026-05-03T07:58:40.999Z</time></trkpt><trkpt lat="40.72802727714673" lon="17.561696233726284"><ele>219.0</ele><time>2026-05-03T07:58:41.999Z</time></trkpt><trkpt lat="40.7280290189688" lon="17.561588947280224"><ele>219.0</ele><time>2026-05-03T07:58:42.999Z</time></trkpt><trkpt lat="40.72801482802863" lon="17.561492678779967"><ele>219.0</ele><time>2026-05-03T07:58:43.999Z</time></trkpt><trkpt lat="40.72798766745604" lon="17.561406432170877"><ele>219.0</ele><time>2026-05-03T07:58:44.999Z</time></trkpt><trkpt lat="40.7279580035344" lon="17.561327353060697"><ele>219.39999999999998</ele><time>2026-05-03T07:58:45.999Z</time></trkpt><trkpt lat="40.7278994820916" lon="17.561189158453566"><ele>219.79999999999998</ele><time>2026-05-03T07:58:47.999Z</time></trkpt><trkpt lat="40.72786264870694" lon="17.561066820429225"><ele>220.20000000000002</ele><time>2026-05-03T07:58:49.999Z</time></trkpt><trkpt lat="40.72782017962024" lon="17.560948133873783"><ele>220.60000000000002</ele><time>2026-05-03T07:58:51.999Z</time></trkpt><trkpt lat="40.72778450091846" lon="17.560834314675578"><ele>221.0</ele><time>2026-05-03T07:58:53.999Z</time></trkpt><trkpt lat="40.72772072831807" lon="17.560807969540715"><ele>221.0</ele><time>2026-05-03T07:58:54.999Z</time></trkpt><trkpt lat="40.72774683793304" lon="17.560662193747053"><ele>221.00000000000003</ele><time>2026-05-03T07:58:56.999Z</time></trkpt><trkpt lat="40.727771436306945" lon="17.560552110459398"><ele>221.00000000000003</ele><time>2026-05-03T07:58:58.999Z</time></trkpt><trkpt lat="40.72782067574109" lon="17.56045772036227"><ele>221.0</ele><time>2026-05-03T07:59:00.999Z</time></trkpt><trkpt lat="40.727867799431095" lon="17.56035537570552"><ele>221.0</ele><time>2026-05-03T07:59:02.999Z</time></trkpt><trkpt lat="40.72791194186452" lon="17.560258193374317"><ele>221.8</ele><time>2026-05-03T07:59:04.999Z</time></trkpt><trkpt lat="40.727952034576205" lon="17.560152742741373"><ele>222.60000000000002</ele><time>2026-05-03T07:59:06.999Z</time></trkpt><trkpt lat="40.72800011532305" lon="17.56005342394633"><ele>223.4</ele><time>2026-05-03T07:59:08.999Z</time></trkpt><trkpt lat="40.72802710032704" lon="17.559943814011437"><ele>224.2</ele><time>2026-05-03T07:59:10.999Z</time></trkpt><trkpt lat="40.72808124592149" lon="17.559844982417523"><ele>225.0</ele><time>2026-05-03T07:59:12.999Z</time></trkpt><trkpt lat="40.7281282536247" lon="17.55973886747657"><ele>225.0</ele><time>2026-05-03T07:59:14.999Z</time></trkpt><trkpt lat="40.72817366671897" lon="17.559628408690397"><ele>225.0</ele><time>2026-05-03T07:59:16.999Z</time></trkpt><trkpt lat="40.728218889258265" lon="17.55950433419272"><ele>225.0</ele><time>2026-05-03T07:59:18.999Z</time></trkpt><trkpt lat="40.72826600682195" lon="17.55938980516718"><ele>225.0</ele><time>2026-05-03T07:59:20.999Z</time></trkpt><trkpt lat="40.72830955238542" lon="17.559267628734165"><ele>225.0</ele><time>2026-05-03T07:59:22.999Z</time></trkpt><trkpt lat="40.728357935964155" lon="17.559153337025595"><ele>226.0</ele><time>2026-05-03T07:59:24.999Z</time></trkpt><trkpt lat="40.72840617621236" lon="17.559044482578237"><ele>227.0</ele><time>2026-05-03T07:59:26.998Z</time></trkpt><trkpt lat="40.72844966696395" lon="17.558932349723893"><ele>228.0</ele><time>2026-05-03T07:59:28.998Z</time></trkpt><trkpt lat="40.728497135606624" lon="17.558814967282068"><ele>229.0</ele><time>2026-05-03T07:59:30.998Z</time></trkpt><trkpt lat="40.72854358227707" lon="17.558719559350966"><ele>230.0</ele><time>2026-05-03T07:59:32.998Z</time></trkpt><trkpt lat="40.72860449653178" lon="17.55862859659498"><ele>231.2</ele><time>2026-05-03T07:59:34.998Z</time></trkpt><trkpt lat="40.72864093599707" lon="17.55848725044389"><ele>232.4</ele><time>2026-05-03T07:59:36.998Z</time></trkpt><trkpt lat="40.72868418395366" lon="17.55836936525381"><ele>233.60000000000002</ele><time>2026-05-03T07:59:38.998Z</time></trkpt><trkpt lat="40.72871659502522" lon="17.558240461565987"><ele>234.8</ele><time>2026-05-03T07:59:40.998Z</time></trkpt><trkpt lat="40.72873998910661" lon="17.55811253484764"><ele>236.0</ele><time>2026-05-03T07:59:42.998Z</time></trkpt><trkpt lat="40.72874703609751" lon="17.557979362484186"><ele>236.0</ele><time>2026-05-03T07:59:44.998Z</time></trkpt><trkpt lat="40.728751144405784" lon="17.557847907706215"><ele>236.00000000000003</ele><time>2026-05-03T07:59:46.998Z</time></trkpt><trkpt lat="40.728757529597395" lon="17.557710088155876"><ele>236.00000000000003</ele><time>2026-05-03T07:59:48.998Z</time></trkpt><trkpt lat="40.72879183291282" lon="17.557591999672773"><ele>236.0</ele><time>2026-05-03T07:59:50.998Z</time></trkpt><trkpt lat="40.72886303597984" lon="17.557474323419207"><ele>236.0</ele><time>2026-05-03T07:59:52.998Z</time></trkpt><trkpt lat="40.72894006103603" lon="17.557414151984077"><ele>236.00000000000003</ele><time>2026-05-03T07:59:54.998Z</time></trkpt><trkpt lat="40.72901252793231" lon="17.55735455215122"><ele>236.0</ele><time>2026-05-03T07:59:56.998Z</time></trkpt><trkpt lat="40.729085746759736" lon="17.55730306149922"><ele>236.0</ele><time>2026-05-03T07:59:58.998Z</time></trkpt><trkpt lat="40.729155096165115" lon="17.55725043037375"><ele>236.0</ele><time>2026-05-03T08:00:00.998Z</time></trkpt><trkpt lat="40.72922576578478" lon="17.557208258457127"><ele>236.00000000000003</ele><time>2026-05-03T08:00:03Z</time></trkpt><trkpt lat="40.72930338240243" lon="17.55715620410556"><ele>236.0</ele><time>2026-05-03T08:00:05Z</time></trkpt><trkpt lat="40.72938344507095" lon="17.557102459843964"><ele>237.20000000000002</ele><time>2026-05-03T08:00:07Z</time></trkpt><trkpt lat="40.72946493213386" lon="17.55706209059355"><ele>238.40000000000003</ele><time>2026-05-03T08:00:09Z</time></trkpt><trkpt lat="40.729547794865034" lon="17.55700208555592"><ele>239.6</ele><time>2026-05-03T08:00:11Z</time></trkpt><trkpt lat="40.7296312638265" lon="17.556947113575244"><ele>240.8</ele><time>2026-05-03T08:00:13Z</time></trkpt><trkpt lat="40.729718135513416" lon="17.55689114935378"><ele>242.0</ele><time>2026-05-03T08:00:15Z</time></trkpt><trkpt lat="40.729804948020295" lon="17.556834017414282"><ele>242.00000000000003</ele><time>2026-05-03T08:00:17Z</time></trkpt><trkpt lat="40.72988723252869" lon="17.556779855917423"><ele>242.0</ele><time>2026-05-03T08:00:19Z</time></trkpt><trkpt lat="40.729963763869385" lon="17.556724630455555"><ele>242.0</ele><time>2026-05-03T08:00:21Z</time></trkpt><trkpt lat="40.73003827451348" lon="17.556677863117393"><ele>242.0</ele><time>2026-05-03T08:00:23Z</time></trkpt><trkpt lat="40.73010216578725" lon="17.55660622189051"><ele>242.00000000000003</ele><time>2026-05-03T08:00:25Z</time></trkpt><trkpt lat="40.73015194928721" lon="17.556520704041528"><ele>242.0</ele><time>2026-05-03T08:00:27Z</time></trkpt><trkpt lat="40.73019339047181" lon="17.55642486714379"><ele>244.0</ele><time>2026-05-03T08:00:29Z</time></trkpt><trkpt lat="40.73023128338778" lon="17.55631111504982"><ele>246.0</ele><time>2026-05-03T08:00:31Z</time></trkpt><trkpt lat="40.73026907458351" lon="17.55619753312448"><ele>248.0</ele><time>2026-05-03T08:00:33Z</time></trkpt><trkpt lat="40.73031203484583" lon="17.556093570275603"><ele>250.0</ele><time>2026-05-03T08:00:35Z</time></trkpt><trkpt lat="40.73034633803913" lon="17.555974313130392"><ele>252.0</ele><time>2026-05-03T08:00:37Z</time></trkpt><trkpt lat="40.73038740647906" lon="17.555854261033765"><ele>252.2</ele><time>2026-05-03T08:00:39Z</time></trkpt><trkpt lat="40.73042445294618" lon="17.555728054566675"><ele>252.39999999999998</ele><time>2026-05-03T08:00:41Z</time></trkpt><trkpt lat="40.73047298475711" lon="17.555615806232645"><ele>252.60000000000002</ele><time>2026-05-03T08:00:42.999Z</time></trkpt><trkpt lat="40.73051606124725" lon="17.55549404393978"><ele>252.8</ele><time>2026-05-03T08:00:44.999Z</time></trkpt><trkpt lat="40.73054522167617" lon="17.555366166350694"><ele>253.0</ele><time>2026-05-03T08:00:46.999Z</time></trkpt><trkpt lat="40.730598889672855" lon="17.555258741023383"><ele>252.4</ele><time>2026-05-03T08:00:48.999Z</time></trkpt><trkpt lat="40.73064538301643" lon="17.55514904885889"><ele>251.8</ele><time>2026-05-03T08:00:50.999Z</time></trkpt><trkpt lat="40.73069425169282" lon="17.555052613340607"><ele>251.2</ele><time>2026-05-03T08:00:52.999Z</time></trkpt><trkpt lat="40.7307578309857" lon="17.55495753691945"><ele>250.6</ele><time>2026-05-03T08:00:54.999Z</time></trkpt><trkpt lat="40.730820372145814" lon="17.554858013702535"><ele>250.0</ele><time>2026-05-03T08:00:56.999Z</time></trkpt><trkpt lat="40.73088656922315" lon="17.55476619454637"><ele>250.0</ele><time>2026-05-03T08:00:58.999Z</time></trkpt><trkpt lat="40.73094781121009" lon="17.554658706020685"><ele>250.0</ele><time>2026-05-03T08:01:00.999Z</time></trkpt><trkpt lat="40.730996958161086" lon="17.55455247718225"><ele>250.0</ele><time>2026-05-03T08:01:02.999Z</time></trkpt><trkpt lat="40.731044938710845" lon="17.5544340077257"><ele>250.0</ele><time>2026-05-03T08:01:04.999Z</time></trkpt><trkpt lat="40.73109627535843" lon="17.554318172865642"><ele>250.0</ele><time>2026-05-03T08:01:06.999Z</time></trkpt><trkpt lat="40.73114980269911" lon="17.55420804120403"><ele>250.99999999999997</ele><time>2026-05-03T08:01:08.999Z</time></trkpt><trkpt lat="40.7312064500686" lon="17.55410933812024"><ele>252.0</ele><time>2026-05-03T08:01:10.999Z</time></trkpt><trkpt lat="40.731261605411504" lon="17.55401097506477"><ele>253.0</ele><time>2026-05-03T08:01:12.999Z</time></trkpt><trkpt lat="40.7313172817517" lon="17.553923112941405"><ele>254.0</ele><time>2026-05-03T08:01:14.999Z</time></trkpt><trkpt lat="40.73137688830165" lon="17.553844768119426"><ele>254.99999999999997</ele><time>2026-05-03T08:01:16.999Z</time></trkpt><trkpt lat="40.73143461814977" lon="17.553774135015207"><ele>256.0</ele><time>2026-05-03T08:01:18.999Z</time></trkpt><trkpt lat="40.7314940237931" lon="17.55369717297862"><ele>255.99999999999997</ele><time>2026-05-03T08:01:20.999Z</time></trkpt><trkpt lat="40.73156533802654" lon="17.553651707580986"><ele>256.0</ele><time>2026-05-03T08:01:22.999Z</time></trkpt><trkpt lat="40.73163880794667" lon="17.553634651194933"><ele>256.0</ele><time>2026-05-03T08:01:24.999Z</time></trkpt><trkpt lat="40.73171613291244" lon="17.553649162120283"><ele>256.0</ele><time>2026-05-03T08:01:26.999Z</time></trkpt><trkpt lat="40.73178793526176" lon="17.553712402759423"><ele>255.99999999999997</ele><time>2026-05-03T08:01:28.999Z</time></trkpt><trkpt lat="40.73184588877493" lon="17.55379531879687"><ele>256.0</ele><time>2026-05-03T08:01:30.999Z</time></trkpt><trkpt lat="40.73190554262423" lon="17.553866351697422"><ele>257.16666666666663</ele><time>2026-05-03T08:01:32.999Z</time></trkpt><trkpt lat="40.73196987715948" lon="17.553929983164462"><ele>258.3333333333333</ele><time>2026-05-03T08:01:34.999Z</time></trkpt><trkpt lat="40.73204677166239" lon="17.553961572138988"><ele>259.5</ele><time>2026-05-03T08:01:36.999Z</time></trkpt><trkpt lat="40.732125554629654" lon="17.55397734364371"><ele>260.6666666666667</ele><time>2026-05-03T08:01:38.998Z</time></trkpt><trkpt lat="40.732194305455806" lon="17.553925187922637"><ele>261.83333333333337</ele><time>2026-05-03T08:01:40.998Z</time></trkpt><trkpt lat="40.73223600523686" lon="17.553817114033713"><ele>263.0</ele><time>2026-05-03T08:01:42.998Z</time></trkpt><trkpt lat="40.732271261751144" lon="17.553721227238984"><ele>263.33333333333337</ele><time>2026-05-03T08:01:44.998Z</time></trkpt><trkpt lat="40.73230217655444" lon="17.553626736536287"><ele>263.6666666666667</ele><time>2026-05-03T08:01:46.998Z</time></trkpt><trkpt lat="40.732334773376486" lon="17.553527245403366"><ele>264.0</ele><time>2026-05-03T08:01:48.998Z</time></trkpt><trkpt lat="40.732368468317915" lon="17.553434655581167"><ele>264.3333333333333</ele><time>2026-05-03T08:01:50.998Z</time></trkpt><trkpt lat="40.732400657212956" lon="17.553322534801037"><ele>264.66666666666663</ele><time>2026-05-03T08:01:52.998Z</time></trkpt><trkpt lat="40.73242754068838" lon="17.553233806158964"><ele>265.0</ele><time>2026-05-03T08:01:54.998Z</time></trkpt><trkpt lat="40.73243999989952" lon="17.553119163219332"><ele>265.0</ele><time>2026-05-03T08:01:56.998Z</time></trkpt><trkpt lat="40.73246117514656" lon="17.552998408042455"><ele>265.0</ele><time>2026-05-03T08:01:58.998Z</time></trkpt><trkpt lat="40.73246923585857" lon="17.552889542977127"><ele>265.0</ele><time>2026-05-03T08:02:00.998Z</time></trkpt><trkpt lat="40.73247956357288" lon="17.552789533920997"><ele>265.0</ele><time>2026-05-03T08:02:02.998Z</time></trkpt><trkpt lat="40.73250865000651" lon="17.55268852096284"><ele>265.0</ele><time>2026-05-03T08:02:04.998Z</time></trkpt><trkpt lat="40.73255486455914" lon="17.552599812383594"><ele>265.0</ele><time>2026-05-03T08:02:06.998Z</time></trkpt><trkpt lat="40.732581800992804" lon="17.55251704292126"><ele>265.3333333333333</ele><time>2026-05-03T08:02:09Z</time></trkpt><trkpt lat="40.73259689777419" lon="17.552414606906463"><ele>265.66666666666663</ele><time>2026-05-03T08:02:11Z</time></trkpt><trkpt lat="40.73260412515954" lon="17.552316778929203"><ele>266.0</ele><time>2026-05-03T08:02:13Z</time></trkpt><trkpt lat="40.732610729963945" lon="17.552208191736877"><ele>266.3333333333333</ele><time>2026-05-03T08:02:15Z</time></trkpt><trkpt lat="40.73262082287716" lon="17.552096989105"><ele>266.6666666666667</ele><time>2026-05-03T08:02:17Z</time></trkpt><trkpt lat="40.73264257237912" lon="17.551983259986805"><ele>267.0</ele><time>2026-05-03T08:02:19Z</time></trkpt><trkpt lat="40.73266957751326" lon="17.551874227919374"><ele>267.1666666666667</ele><time>2026-05-03T08:02:21Z</time></trkpt><trkpt lat="40.73270085571139" lon="17.551768491378787"><ele>267.3333333333333</ele><time>2026-05-03T08:02:23Z</time></trkpt><trkpt lat="40.73273274229922" lon="17.551663502427992"><ele>267.5</ele><time>2026-05-03T08:02:25Z</time></trkpt><trkpt lat="40.73276807174254" lon="17.551566103406945"><ele>267.66666666666663</ele><time>2026-05-03T08:02:27Z</time></trkpt><trkpt lat="40.73280891493082" lon="17.551463091707642"><ele>267.8333333333333</ele><time>2026-05-03T08:02:29Z</time></trkpt><trkpt lat="40.73285871251723" lon="17.551375491506786"><ele>268.0</ele><time>2026-05-03T08:02:31Z</time></trkpt><trkpt lat="40.73292267570315" lon="17.551299934985938"><ele>269.16666666666663</ele><time>2026-05-03T08:02:33Z</time></trkpt><trkpt lat="40.7329914363723" lon="17.551232823113068"><ele>270.3333333333333</ele><time>2026-05-03T08:02:35Z</time></trkpt><trkpt lat="40.73305966309218" lon="17.551163002238887"><ele>271.5</ele><time>2026-05-03T08:02:37Z</time></trkpt><trkpt lat="40.73313128003066" lon="17.551103733051466"><ele>272.6666666666667</ele><time>2026-05-03T08:02:39Z</time></trkpt><trkpt lat="40.733199166336746" lon="17.551026083014403"><ele>273.83333333333337</ele><time>2026-05-03T08:02:41Z</time></trkpt><trkpt lat="40.733281711064734" lon="17.550969153216577"><ele>275.0</ele><time>2026-05-03T08:02:43Z</time></trkpt><trkpt lat="40.73336332804424" lon="17.55089610605323"><ele>275.1666666666667</ele><time>2026-05-03T08:02:45Z</time></trkpt><trkpt lat="40.73344300760665" lon="17.550827489414324"><ele>275.33333333333337</ele><time>2026-05-03T08:02:47Z</time></trkpt><trkpt lat="40.73348409246196" lon="17.55075072250588"><ele>275.5</ele><time>2026-05-03T08:02:48Z</time></trkpt><trkpt lat="40.733565871594614" lon="17.55071080340554"><ele>275.6666666666667</ele><time>2026-05-03T08:02:49.999Z</time></trkpt><trkpt lat="40.733638211710776" lon="17.550655851587027"><ele>275.8333333333333</ele><time>2026-05-03T08:02:51.999Z</time></trkpt><trkpt lat="40.73371722807748" lon="17.55058796286864"><ele>276.0</ele><time>2026-05-03T08:02:53.999Z</time></trkpt><trkpt lat="40.73379478937193" lon="17.550559279128006"><ele>276.5</ele><time>2026-05-03T08:02:55.999Z</time></trkpt><trkpt lat="40.7338568500669" lon="17.55047273429203"><ele>277.0</ele><time>2026-05-03T08:02:57.999Z</time></trkpt><trkpt lat="40.73391802455546" lon="17.550400540247484"><ele>277.5</ele><time>2026-05-03T08:02:59.999Z</time></trkpt><trkpt lat="40.73395210941477" lon="17.55030230292767"><ele>278.0</ele><time>2026-05-03T08:03:01.999Z</time></trkpt><trkpt lat="40.7339746900132" lon="17.55019074381933"><ele>278.5</ele><time>2026-05-03T08:03:03.999Z</time></trkpt><trkpt lat="40.73398978845147" lon="17.550080065136267"><ele>279.0</ele><time>2026-05-03T08:03:05.999Z</time></trkpt><trkpt lat="40.733993824795995" lon="17.549966986970862"><ele>279.1666666666667</ele><time>2026-05-03T08:03:07.999Z</time></trkpt><trkpt lat="40.73399120635382" lon="17.549874606492168"><ele>279.3333333333333</ele><time>2026-05-03T08:03:09.999Z</time></trkpt><trkpt lat="40.733971654309386" lon="17.549776358535052"><ele>279.5</ele><time>2026-05-03T08:03:11.999Z</time></trkpt><trkpt lat="40.733946024693545" lon="17.5496775137757"><ele>279.66666666666663</ele><time>2026-05-03T08:03:13.999Z</time></trkpt><trkpt lat="40.733928639224565" lon="17.549571169912088"><ele>279.8333333333333</ele><time>2026-05-03T08:03:15.999Z</time></trkpt><trkpt lat="40.733913352309585" lon="17.54945672240967"><ele>280.0</ele><time>2026-05-03T08:03:17.999Z</time></trkpt><trkpt lat="40.73390102260531" lon="17.5493356980301"><ele>280.0</ele><time>2026-05-03T08:03:19.999Z</time></trkpt><trkpt lat="40.733891089900666" lon="17.549217572145352"><ele>280.0</ele><time>2026-05-03T08:03:21.999Z</time></trkpt><trkpt lat="40.73388074182327" lon="17.549099010045698"><ele>280.0</ele><time>2026-05-03T08:03:23.999Z</time></trkpt><trkpt lat="40.73386945875625" lon="17.548984703894927"><ele>280.0</ele><time>2026-05-03T08:03:25.999Z</time></trkpt><trkpt lat="40.73386203190745" lon="17.548872208218654"><ele>280.0</ele><time>2026-05-03T08:03:27.999Z</time></trkpt><trkpt lat="40.733853005531444" lon="17.548746259266355"><ele>280.0</ele><time>2026-05-03T08:03:29.999Z</time></trkpt><trkpt lat="40.73384902791022" lon="17.54862669283246"><ele>279.8</ele><time>2026-05-03T08:03:31.999Z</time></trkpt><trkpt lat="40.733842106743865" lon="17.54850685400513"><ele>279.6</ele><time>2026-05-03T08:03:33.999Z</time></trkpt><trkpt lat="40.73382448843094" lon="17.548383110039204"><ele>279.4</ele><time>2026-05-03T08:03:35.999Z</time></trkpt><trkpt lat="40.733798266751926" lon="17.548260233720253"><ele>279.2</ele><time>2026-05-03T08:03:37.999Z</time></trkpt><trkpt lat="40.73376247901433" lon="17.548136347200103"><ele>279.0</ele><time>2026-05-03T08:03:39.999Z</time></trkpt><trkpt lat="40.73372930208626" lon="17.548005561205017"><ele>278.2</ele><time>2026-05-03T08:03:41.999Z</time></trkpt><trkpt lat="40.733715194087324" lon="17.547861866455747"><ele>277.4</ele><time>2026-05-03T08:03:43.998Z</time></trkpt><trkpt lat="40.733753003595666" lon="17.547711474430063"><ele>276.6</ele><time>2026-05-03T08:03:45.998Z</time></trkpt><trkpt lat="40.73378591229016" lon="17.547630748606426"><ele>275.8</ele><time>2026-05-03T08:03:46.998Z</time></trkpt><trkpt lat="40.73385859790522" lon="17.547486237840833"><ele>275.0</ele><time>2026-05-03T08:03:48.998Z</time></trkpt><trkpt lat="40.73391065156628" lon="17.547413532247173"><ele>275.0</ele><time>2026-05-03T08:03:49.998Z</time></trkpt><trkpt lat="40.733959280803475" lon="17.547324164006234"><ele>275.0</ele><time>2026-05-03T08:03:50.998Z</time></trkpt><trkpt lat="40.73400417852192" lon="17.547229411559982"><ele>275.0</ele><time>2026-05-03T08:03:51.998Z</time></trkpt><trkpt lat="40.73405252381823" lon="17.547122029404207"><ele>275.0</ele><time>2026-05-03T08:03:52.998Z</time></trkpt><trkpt lat="40.73409793810717" lon="17.547026666607188"><ele>275.0</ele><time>2026-05-03T08:03:53.998Z</time></trkpt><trkpt lat="40.73415090011241" lon="17.54693172003564"><ele>275.0</ele><time>2026-05-03T08:03:54.998Z</time></trkpt><trkpt lat="40.73421048106661" lon="17.546850938341425"><ele>274.83333333333337</ele><time>2026-05-03T08:03:55.998Z</time></trkpt><trkpt lat="40.734274157227325" lon="17.54677070174429"><ele>274.6666666666667</ele><time>2026-05-03T08:03:56.998Z</time></trkpt><trkpt lat="40.73434364075062" lon="17.54670278403614"><ele>274.5</ele><time>2026-05-03T08:03:57.998Z</time></trkpt><trkpt lat="40.734429060507914" lon="17.546659230524053"><ele>274.3333333333333</ele><time>2026-05-03T08:03:58.998Z</time></trkpt><trkpt lat="40.73450184363008" lon="17.54661762425754"><ele>274.16666666666663</ele><time>2026-05-03T08:03:59.998Z</time></trkpt><trkpt lat="40.734574727767296" lon="17.546585552254307"><ele>274.0</ele><time>2026-05-03T08:04:00.998Z</time></trkpt><trkpt lat="40.7346587874221" lon="17.54657561530105"><ele>273.8</ele><time>2026-05-03T08:04:01.998Z</time></trkpt><trkpt lat="40.734737275558494" lon="17.546562082074523"><ele>273.59999999999997</ele><time>2026-05-03T08:04:02.998Z</time></trkpt><trkpt lat="40.73480539035639" lon="17.54655136787676"><ele>273.4</ele><time>2026-05-03T08:04:03.998Z</time></trkpt><trkpt lat="40.73493322819097" lon="17.546534950702494"><ele>273.2</ele><time>2026-05-03T08:04:05.998Z</time></trkpt><trkpt lat="40.73502043080639" lon="17.5464632452044"><ele>273.0</ele><time>2026-05-03T08:04:07.998Z</time></trkpt><trkpt lat="40.73508427652916" lon="17.546359472681246"><ele>273.0</ele><time>2026-05-03T08:04:09.998Z</time></trkpt><trkpt lat="40.73515673951853" lon="17.546258018554482"><ele>273.0</ele><time>2026-05-03T08:04:11.998Z</time></trkpt><trkpt lat="40.73520375465269" lon="17.546195042350384"><ele>273.0</ele><time>2026-05-03T08:04:12.998Z</time></trkpt><trkpt lat="40.7352456931613" lon="17.546116809733977"><ele>273.0</ele><time>2026-05-03T08:04:13.998Z</time></trkpt><trkpt lat="40.73530348027413" lon="17.545997380038216"><ele>273.0</ele><time>2026-05-03T08:04:16Z</time></trkpt><trkpt lat="40.73537093057466" lon="17.54587684338072"><ele>272.8</ele><time>2026-05-03T08:04:18Z</time></trkpt><trkpt lat="40.73535753914341" lon="17.54573690973584"><ele>272.6</ele><time>2026-05-03T08:04:20Z</time></trkpt><trkpt lat="40.735332705756115" lon="17.545628484412116"><ele>272.4</ele><time>2026-05-03T08:04:22Z</time></trkpt><trkpt lat="40.73529311649701" lon="17.545523965021324"><ele>272.2</ele><time>2026-05-03T08:04:24Z</time></trkpt><trkpt lat="40.735255476658644" lon="17.545413722664097"><ele>272.0</ele><time>2026-05-03T08:04:26Z</time></trkpt><trkpt lat="40.73521761650773" lon="17.54529164512843"><ele>271.6</ele><time>2026-05-03T08:04:28Z</time></trkpt><trkpt lat="40.73517576621468" lon="17.54516934191382"><ele>271.2</ele><time>2026-05-03T08:04:30Z</time></trkpt><trkpt lat="40.735135015834835" lon="17.545024150577046"><ele>270.8</ele><time>2026-05-03T08:04:32Z</time></trkpt><trkpt lat="40.7350969918594" lon="17.544866522489464"><ele>270.4</ele><time>2026-05-03T08:04:34Z</time></trkpt><trkpt lat="40.73508268881974" lon="17.54478307108804"><ele>270.0</ele><time>2026-05-03T08:04:35Z</time></trkpt><trkpt lat="40.735068546324285" lon="17.54469442537959"><ele>269.75</ele><time>2026-05-03T08:04:36Z</time></trkpt><trkpt lat="40.7350517213324" lon="17.544531741325457"><ele>269.5</ele><time>2026-05-03T08:04:38Z</time></trkpt><trkpt lat="40.73503547805237" lon="17.544375545895203"><ele>269.25</ele><time>2026-05-03T08:04:40Z</time></trkpt><trkpt lat="40.73503221912988" lon="17.544217422195654"><ele>269.0</ele><time>2026-05-03T08:04:42Z</time></trkpt><trkpt lat="40.73502031644254" lon="17.54406477502188"><ele>269.0</ele><time>2026-05-03T08:04:44Z</time></trkpt><trkpt lat="40.73501494563724" lon="17.54397573559011"><ele>269.0</ele><time>2026-05-03T08:04:45Z</time></trkpt><trkpt lat="40.73500881447544" lon="17.543873825188502"><ele>269.0</ele><time>2026-05-03T08:04:46Z</time></trkpt><trkpt lat="40.734996661151534" lon="17.543763873567492"><ele>269.0</ele><time>2026-05-03T08:04:47Z</time></trkpt><trkpt lat="40.734983880893" lon="17.543647630748875"><ele>269.0</ele><time>2026-05-03T08:04:48Z</time></trkpt><trkpt lat="40.73496993068464" lon="17.543536885196183"><ele>269.0</ele><time>2026-05-03T08:04:49Z</time></trkpt><trkpt lat="40.73495951602492" lon="17.543413866642975"><ele>268.4</ele><time>2026-05-03T08:04:50Z</time></trkpt><trkpt lat="40.73494981168389" lon="17.543293765581684"><ele>267.79999999999995</ele><time>2026-05-03T08:04:51Z</time></trkpt><trkpt lat="40.73494027501585" lon="17.543158718797553"><ele>267.20000000000005</ele><time>2026-05-03T08:04:52Z</time></trkpt><trkpt lat="40.73493812743355" lon="17.54302570185138"><ele>266.6</ele><time>2026-05-03T08:04:53Z</time></trkpt><trkpt lat="40.73493792388506" lon="17.542895635285664"><ele>266.0</ele><time>2026-05-03T08:04:54Z</time></trkpt><trkpt lat="40.73495421051349" lon="17.542770990919948"><ele>264.6</ele><time>2026-05-03T08:04:54.999Z</time></trkpt><trkpt lat="40.73496797244802" lon="17.54264543616205"><ele>263.20000000000005</ele><time>2026-05-03T08:04:55.999Z</time></trkpt><trkpt lat="40.734969054353044" lon="17.54252610245894"><ele>261.79999999999995</ele><time>2026-05-03T08:04:56.999Z</time></trkpt><trkpt lat="40.735011620066615" lon="17.54243499987595"><ele>260.4</ele><time>2026-05-03T08:04:57.999Z</time></trkpt><trkpt lat="40.735079645509124" lon="17.542357076451907"><ele>259.0</ele><time>2026-05-03T08:04:58.999Z</time></trkpt><trkpt lat="40.735162741540286" lon="17.54229412247231"><ele>259.16666666666663</ele><time>2026-05-03T08:04:59.999Z</time></trkpt><trkpt lat="40.735241075323195" lon="17.542206609121987"><ele>259.3333333333333</ele><time>2026-05-03T08:05:00.999Z</time></trkpt><trkpt lat="40.735311322609014" lon="17.542153308512034"><ele>259.5</ele><time>2026-05-03T08:05:01.999Z</time></trkpt><trkpt lat="40.735377875504675" lon="17.542067937005175"><ele>259.6666666666667</ele><time>2026-05-03T08:05:02.999Z</time></trkpt><trkpt lat="40.73543666304209" lon="17.542004943286116"><ele>259.83333333333337</ele><time>2026-05-03T08:05:03.999Z</time></trkpt><trkpt lat="40.735502723085034" lon="17.541966008091396"><ele>260.0</ele><time>2026-05-03T08:05:04.999Z</time></trkpt><trkpt lat="40.73558721775508" lon="17.541889605877056"><ele>260.0</ele><time>2026-05-03T08:05:06.999Z</time></trkpt><trkpt lat="40.73565111022001" lon="17.54182624061039"><ele>260.0</ele><time>2026-05-03T08:05:08.999Z</time></trkpt><trkpt lat="40.73565689666341" lon="17.54167031959834"><ele>260.0</ele><time>2026-05-03T08:05:10.999Z</time></trkpt><trkpt lat="40.735681451739886" lon="17.541552785535515"><ele>260.0</ele><time>2026-05-03T08:05:12.999Z</time></trkpt><trkpt lat="40.73565833720474" lon="17.54142119052331"><ele>260.0</ele><time>2026-05-03T08:05:14.999Z</time></trkpt><trkpt lat="40.735597362438945" lon="17.541332654971875"><ele>260.0</ele><time>2026-05-03T08:05:16.999Z</time></trkpt><trkpt lat="40.73560367463705" lon="17.541229976751087"><ele>260.0</ele><time>2026-05-03T08:05:17.999Z</time></trkpt><trkpt lat="40.73555524649594" lon="17.54110149762911"><ele>260.0</ele><time>2026-05-03T08:05:19.999Z</time></trkpt><trkpt lat="40.735499695584544" lon="17.54097109736904"><ele>260.0</ele><time>2026-05-03T08:05:21.999Z</time></trkpt><trkpt lat="40.73545633422628" lon="17.540835363049457"><ele>260.0</ele><time>2026-05-03T08:05:23.999Z</time></trkpt><trkpt lat="40.73542708597477" lon="17.540698282911073"><ele>260.2</ele><time>2026-05-03T08:05:25.999Z</time></trkpt><trkpt lat="40.73538541160913" lon="17.540563404625527"><ele>260.4</ele><time>2026-05-03T08:05:27.999Z</time></trkpt><trkpt lat="40.73543951637876" lon="17.540468795336338"><ele>260.6</ele><time>2026-05-03T08:05:28.999Z</time></trkpt><trkpt lat="40.73547070316957" lon="17.540334253056404"><ele>260.8</ele><time>2026-05-03T08:05:30.999Z</time></trkpt><trkpt lat="40.73551261961163" lon="17.540213259071034"><ele>261.0</ele><time>2026-05-03T08:05:32.999Z</time></trkpt><trkpt lat="40.735560321578504" lon="17.54008852974943"><ele>261.6</ele><time>2026-05-03T08:05:34.999Z</time></trkpt><trkpt lat="40.735609003325756" lon="17.53995890468849"><ele>262.20000000000005</ele><time>2026-05-03T08:05:36.999Z</time></trkpt><trkpt lat="40.735650521013355" lon="17.539841891519373"><ele>262.79999999999995</ele><time>2026-05-03T08:05:38.999Z</time></trkpt><trkpt lat="40.735685153840436" lon="17.539727861412974"><ele>263.4</ele><time>2026-05-03T08:05:40.999Z</time></trkpt><trkpt lat="40.73572355151036" lon="17.539620137600103"><ele>264.0</ele><time>2026-05-03T08:05:42.999Z</time></trkpt><trkpt lat="40.73575767946379" lon="17.53951475516155"><ele>264.0</ele><time>2026-05-03T08:05:44.999Z</time></trkpt><trkpt lat="40.735782532258035" lon="17.539407906094777"><ele>264.0</ele><time>2026-05-03T08:05:46.999Z</time></trkpt><trkpt lat="40.73580416727391" lon="17.539310384085777"><ele>264.0</ele><time>2026-05-03T08:05:48.999Z</time></trkpt><trkpt lat="40.73587632268509" lon="17.53916671457106"><ele>264.0</ele><time>2026-05-03T08:08:51Z</time></trkpt><trkpt lat="40.735915826773294" lon="17.539068153822303"><ele>264.0</ele><time>2026-05-03T08:08:53Z</time></trkpt><trkpt lat="40.73593090456752" lon="17.53894526301975"><ele>264.0</ele><time>2026-05-03T08:08:56Z</time></trkpt><trkpt lat="40.735892175158995" lon="17.538824617423376"><ele>264.0</ele><time>2026-05-03T08:08:58Z</time></trkpt><trkpt lat="40.73586593113426" lon="17.53870561679188"><ele>264.0</ele><time>2026-05-03T08:09:00Z</time></trkpt><trkpt lat="40.73585230711883" lon="17.53860931136543"><ele>264.0</ele><time>2026-05-03T08:09:02Z</time></trkpt><trkpt lat="40.73586408816264" lon="17.53849264202663"><ele>264.0</ele><time>2026-05-03T08:09:04Z</time></trkpt><trkpt lat="40.73585710488881" lon="17.5384061950523"><ele>264.0</ele><time>2026-05-03T08:09:06Z</time></trkpt><trkpt lat="40.73583682790082" lon="17.538287895924743"><ele>263.59999999999997</ele><time>2026-05-03T08:09:07.999Z</time></trkpt><trkpt lat="40.73585319559735" lon="17.538139643972386"><ele>263.2</ele><time>2026-05-03T08:09:09.999Z</time></trkpt><trkpt lat="40.73594286149898" lon="17.538025645733445"><ele>262.79999999999995</ele><time>2026-05-03T08:09:11.999Z</time></trkpt><trkpt lat="40.736003303781494" lon="17.53797723471596"><ele>262.4</ele><time>2026-05-03T08:09:12.999Z</time></trkpt><trkpt lat="40.73604576226787" lon="17.53789983597452"><ele>262.0</ele><time>2026-05-03T08:09:13.999Z</time></trkpt><trkpt lat="40.736089507615674" lon="17.537753584402306"><ele>260.4</ele><time>2026-05-03T08:09:15.999Z</time></trkpt><trkpt lat="40.73612900292409" lon="17.537688125712478"><ele>258.79999999999995</ele><time>2026-05-03T08:09:16.999Z</time></trkpt><trkpt lat="40.73617952793891" lon="17.537629485048146"><ele>257.2</ele><time>2026-05-03T08:09:17.999Z</time></trkpt><trkpt lat="40.736278459221126" lon="17.53751525038085"><ele>255.6</ele><time>2026-05-03T08:09:19.999Z</time></trkpt><trkpt lat="40.73638437681203" lon="17.537409933050615"><ele>254.0</ele><time>2026-05-03T08:09:21.999Z</time></trkpt><trkpt lat="40.73648395293871" lon="17.537357536687143"><ele>254.00000000000003</ele><time>2026-05-03T08:09:23.999Z</time></trkpt><trkpt lat="40.736570331182016" lon="17.53731934927421"><ele>254.0</ele><time>2026-05-03T08:09:25.999Z</time></trkpt><trkpt lat="40.73659854109928" lon="17.53724296255956"><ele>254.0</ele><time>2026-05-03T08:09:27.999Z</time></trkpt><trkpt lat="40.73658123857552" lon="17.537149382596436"><ele>254.0</ele><time>2026-05-03T08:09:30.999Z</time></trkpt><trkpt lat="40.73660350209511" lon="17.537053753815186"><ele>254.00000000000003</ele><time>2026-05-03T08:09:32.999Z</time></trkpt><trkpt lat="40.736692360195754" lon="17.537119313494824"><ele>254.0</ele><time>2026-05-03T08:09:35.999Z</time></trkpt><trkpt lat="40.73676557160339" lon="17.537155281781356"><ele>255.0</ele><time>2026-05-03T08:09:37.999Z</time></trkpt><trkpt lat="40.736950941033044" lon="17.537052135328413"><ele>256.0</ele><time>2026-05-03T08:09:42.999Z</time></trkpt><trkpt lat="40.737036216701235" lon="17.536978929009077"><ele>257.0</ele><time>2026-05-03T08:09:44.999Z</time></trkpt><trkpt lat="40.73710185163162" lon="17.536903645616626"><ele>258.0</ele><time>2026-05-03T08:09:46.999Z</time></trkpt><trkpt lat="40.73716152913724" lon="17.5368636287026"><ele>258.0</ele><time>2026-05-03T08:09:48.999Z</time></trkpt><trkpt lat="40.737249999468" lon="17.53687113300097"><ele>258.0</ele><time>2026-05-03T08:09:51.999Z</time></trkpt><trkpt lat="40.73732043746785" lon="17.536840922692512"><ele>258.0</ele><time>2026-05-03T08:09:53.999Z</time></trkpt><trkpt lat="40.73742060858618" lon="17.536840748127194"><ele>258.0</ele><time>2026-05-03T08:09:56.999Z</time></trkpt><trkpt lat="40.737487045306956" lon="17.536883968405878"><ele>258.0</ele><time>2026-05-03T08:09:58.999Z</time></trkpt><trkpt lat="40.737551052893984" lon="17.536957084629265"><ele>258.0</ele><time>2026-05-03T08:10:01.999Z</time></trkpt><trkpt lat="40.73763937672158" lon="17.536942698625065"><ele>258.0</ele><time>2026-05-03T08:10:04.998Z</time></trkpt><trkpt lat="40.73766622159954" lon="17.5368207581035"><ele>258.0</ele><time>2026-05-03T08:10:07.998Z</time></trkpt><trkpt lat="40.737712134112165" lon="17.536707624469184"><ele>258.0</ele><time>2026-05-03T08:10:10.998Z</time></trkpt><trkpt lat="40.73772914340495" lon="17.536599540082147"><ele>258.0</ele><time>2026-05-03T08:10:13.998Z</time></trkpt><trkpt lat="40.73772100662247" lon="17.53648526430129"><ele>258.0</ele><time>2026-05-03T08:10:16.998Z</time></trkpt><trkpt lat="40.73773895501443" lon="17.536389782389104"><ele>258.0</ele><time>2026-05-03T08:10:20.998Z</time></trkpt><trkpt lat="40.73767819327927" lon="17.536287376052208"><ele>259.3333333333333</ele><time>2026-05-03T08:10:24.998Z</time></trkpt><trkpt lat="40.73764716578565" lon="17.53618591957403"><ele>260.6666666666667</ele><time>2026-05-03T08:10:27.998Z</time></trkpt><trkpt lat="40.73761910509663" lon="17.536076562880382"><ele>262.0</ele><time>2026-05-03T08:10:30.998Z</time></trkpt><trkpt lat="40.737580539193786" lon="17.536010840916738"><ele>263.33333333333337</ele><time>2026-05-03T08:10:33Z</time></trkpt><trkpt lat="40.73753001300719" lon="17.535948262559902"><ele>264.6666666666667</ele><time>2026-05-03T08:10:36Z</time></trkpt><trkpt lat="40.73756544039288" lon="17.535869534455163"><ele>266.0</ele><time>2026-05-03T08:10:38Z</time></trkpt><trkpt lat="40.73759231706175" lon="17.535754105992094"><ele>266.0</ele><time>2026-05-03T08:10:40Z</time></trkpt><trkpt lat="40.73763493199781" lon="17.53565500233952"><ele>266.0</ele><time>2026-05-03T08:10:42Z</time></trkpt><trkpt lat="40.73763581481649" lon="17.535529237645232"><ele>266.0</ele><time>2026-05-03T08:10:44Z</time></trkpt><trkpt lat="40.737638797371446" lon="17.535410295667116"><ele>266.0</ele><time>2026-05-03T08:10:46Z</time></trkpt><trkpt lat="40.73760935359652" lon="17.53528670312301"><ele>266.0</ele><time>2026-05-03T08:10:48Z</time></trkpt><trkpt lat="40.737623317345" lon="17.535203724544616"><ele>266.0</ele><time>2026-05-03T08:10:51Z</time></trkpt><trkpt lat="40.73766316192784" lon="17.53512933762609"><ele>265.0</ele><time>2026-05-03T08:10:54Z</time></trkpt><trkpt lat="40.737721966127985" lon="17.535026966665143"><ele>264.0</ele><time>2026-05-03T08:10:56Z</time></trkpt><trkpt lat="40.73778136294265" lon="17.534923181992667"><ele>263.0</ele><time>2026-05-03T08:10:58Z</time></trkpt><trkpt lat="40.73778073952334" lon="17.534836650858026"><ele>262.0</ele><time>2026-05-03T08:11:00Z</time></trkpt><trkpt lat="40.737833004883186" lon="17.534758492819474"><ele>261.0</ele><time>2026-05-03T08:11:02Z</time></trkpt><trkpt lat="40.73791325054277" lon="17.534731806537728"><ele>260.0</ele><time>2026-05-03T08:11:04Z</time></trkpt><trkpt lat="40.73797272513798" lon="17.534640349329493"><ele>260.0</ele><time>2026-05-03T08:11:06Z</time></trkpt><trkpt lat="40.738011133468554" lon="17.534567964133"><ele>260.0</ele><time>2026-05-03T08:11:08Z</time></trkpt><trkpt lat="40.73803772678733" lon="17.534426102978966"><ele>260.0</ele><time>2026-05-03T08:11:10Z</time></trkpt><trkpt lat="40.738040724156555" lon="17.5343082695309"><ele>260.0</ele><time>2026-05-03T08:11:12.999Z</time></trkpt><trkpt lat="40.73802778496511" lon="17.53421271258349"><ele>260.0</ele><time>2026-05-03T08:11:14.999Z</time></trkpt><trkpt lat="40.73800925969629" lon="17.534108868958757"><ele>260.0</ele><time>2026-05-03T08:11:16.999Z</time></trkpt><trkpt lat="40.737985236515854" lon="17.534006925596483"><ele>260.14285714285717</ele><time>2026-05-03T08:11:18.999Z</time></trkpt><trkpt lat="40.737959670293066" lon="17.533917980987994"><ele>260.2857142857143</ele><time>2026-05-03T08:11:20.999Z</time></trkpt><trkpt lat="40.737938309146585" lon="17.53382495567276"><ele>260.42857142857144</ele><time>2026-05-03T08:11:22.999Z</time></trkpt><trkpt lat="40.737913053962785" lon="17.533741317875798"><ele>260.57142857142856</ele><time>2026-05-03T08:11:24.999Z</time></trkpt><trkpt lat="40.73790985387258" lon="17.53364870047513"><ele>260.7142857142857</ele><time>2026-05-03T08:11:26.999Z</time></trkpt><trkpt lat="40.737898123842626" lon="17.533563213464255"><ele>260.8571428571429</ele><time>2026-05-03T08:11:28.999Z</time></trkpt><trkpt lat="40.73787239259745" lon="17.533484350771293"><ele>261.0</ele><time>2026-05-03T08:11:30.999Z</time></trkpt><trkpt lat="40.737874951532234" lon="17.533387887638106"><ele>261.0</ele><time>2026-05-03T08:11:32.999Z</time></trkpt><trkpt lat="40.73782140623941" lon="17.533334087417774"><ele>261.0</ele><time>2026-05-03T08:11:34.999Z</time></trkpt><trkpt lat="40.737753827003495" lon="17.533328568438638"><ele>261.0</ele><time>2026-05-03T08:11:36.999Z</time></trkpt><trkpt lat="40.73768932889332" lon="17.533268316966453"><ele>261.0</ele><time>2026-05-03T08:11:39.999Z</time></trkpt><trkpt lat="40.73769841534371" lon="17.533172634865338"><ele>261.0</ele><time>2026-05-03T08:11:42.999Z</time></trkpt><trkpt lat="40.737679836079245" lon="17.533079314186306"><ele>261.0</ele><time>2026-05-03T08:11:45.999Z</time></trkpt><trkpt lat="40.73766473158238" lon="17.532985022810948"><ele>261.0</ele><time>2026-05-03T08:11:48.999Z</time></trkpt><trkpt lat="40.737705279880814" lon="17.53288077186119"><ele>264.5</ele><time>2026-05-03T08:11:52.999Z</time></trkpt><trkpt lat="40.73770164307342" lon="17.532767150114054"><ele>268.0</ele><time>2026-05-03T08:11:56.999Z</time></trkpt><trkpt lat="40.73765743937882" lon="17.53265676396825"><ele>271.5</ele><time>2026-05-03T08:11:59.999Z</time></trkpt><trkpt lat="40.73759458175373" lon="17.53258245813994"><ele>275.0</ele><time>2026-05-03T08:12:02.999Z</time></trkpt><trkpt lat="40.737532707187384" lon="17.532508161178484"><ele>278.5</ele><time>2026-05-03T08:12:05.999Z</time></trkpt><trkpt lat="40.73747858424989" lon="17.532414818649894"><ele>282.0</ele><time>2026-05-03T08:12:08.999Z</time></trkpt><trkpt lat="40.73742831531262" lon="17.532341262511025"><ele>282.0</ele><time>2026-05-03T08:12:11.998Z</time></trkpt><trkpt lat="40.737386597546625" lon="17.532235090629474"><ele>282.0</ele><time>2026-05-03T08:12:14.998Z</time></trkpt><trkpt lat="40.73735135312235" lon="17.532128199942044"><ele>282.0</ele><time>2026-05-03T08:12:17.998Z</time></trkpt><trkpt lat="40.73734822693652" lon="17.53202809363239"><ele>282.0</ele><time>2026-05-03T08:12:20.998Z</time></trkpt><trkpt lat="40.7373177481587" lon="17.531913048158263"><ele>282.0</ele><time>2026-05-03T08:12:23.998Z</time></trkpt><trkpt lat="40.7372962332401" lon="17.53181953421994"><ele>282.0</ele><time>2026-05-03T08:12:26.998Z</time></trkpt><trkpt lat="40.73732804925096" lon="17.53172679437299"><ele>282.1666666666667</ele><time>2026-05-03T08:12:29.998Z</time></trkpt><trkpt lat="40.73737299649762" lon="17.531658059407846"><ele>282.3333333333333</ele><time>2026-05-03T08:12:31.998Z</time></trkpt><trkpt lat="40.73743217679483" lon="17.53156596561608"><ele>282.5</ele><time>2026-05-03T08:12:34.998Z</time></trkpt><trkpt lat="40.73746713625948" lon="17.53144558231145"><ele>282.66666666666663</ele><time>2026-05-03T08:12:37.998Z</time></trkpt><trkpt lat="40.737468383599015" lon="17.53135221212196"><ele>282.8333333333333</ele><time>2026-05-03T08:12:40Z</time></trkpt><trkpt lat="40.73745234443732" lon="17.531271685647347"><ele>283.0</ele><time>2026-05-03T08:12:42Z</time></trkpt><trkpt lat="40.73743410159465" lon="17.53117557209261"><ele>283.3333333333333</ele><time>2026-05-03T08:12:44Z</time></trkpt><trkpt lat="40.737416729475385" lon="17.531074053642328"><ele>283.66666666666663</ele><time>2026-05-03T08:12:46Z</time></trkpt><trkpt lat="40.73740251219497" lon="17.530987775487546"><ele>284.0</ele><time>2026-05-03T08:12:48Z</time></trkpt><trkpt lat="40.73736174412371" lon="17.530886801431308"><ele>284.3333333333333</ele><time>2026-05-03T08:12:50Z</time></trkpt><trkpt lat="40.73732073077607" lon="17.53080525563335"><ele>284.6666666666667</ele><time>2026-05-03T08:12:52Z</time></trkpt><trkpt lat="40.7372815564775" lon="17.530719507348756"><ele>285.0</ele><time>2026-05-03T08:12:54Z</time></trkpt><trkpt lat="40.737243226673975" lon="17.530635858222084"><ele>285.0</ele><time>2026-05-03T08:12:56Z</time></trkpt><trkpt lat="40.7372082846387" lon="17.530543153346844"><ele>285.0</ele><time>2026-05-03T08:12:58Z</time></trkpt><trkpt lat="40.737192686163375" lon="17.530435004855338"><ele>285.0</ele><time>2026-05-03T08:13:00Z</time></trkpt><trkpt lat="40.73721783183563" lon="17.530318907539996"><ele>285.0</ele><time>2026-05-03T08:13:02Z</time></trkpt><trkpt lat="40.73728355183737" lon="17.530228549578126"><ele>285.0</ele><time>2026-05-03T08:13:04Z</time></trkpt><trkpt lat="40.73735040749952" lon="17.530113011264067"><ele>285.6</ele><time>2026-05-03T08:13:06Z</time></trkpt><trkpt lat="40.73740579884043" lon="17.529995712641934"><ele>286.2</ele><time>2026-05-03T08:13:08Z</time></trkpt><trkpt lat="40.73747304093971" lon="17.52988102566437"><ele>286.8</ele><time>2026-05-03T08:13:10Z</time></trkpt><trkpt lat="40.73753741281335" lon="17.529794313013653"><ele>287.4</ele><time>2026-05-03T08:13:12Z</time></trkpt><trkpt lat="40.737602538621225" lon="17.529728053707146"><ele>288.0</ele><time>2026-05-03T08:13:14Z</time></trkpt><trkpt lat="40.73767864536323" lon="17.52963393143194"><ele>286.8</ele><time>2026-05-03T08:13:16Z</time></trkpt><trkpt lat="40.737759675772075" lon="17.52955044121079"><ele>285.6</ele><time>2026-05-03T08:13:17.999Z</time></trkpt><trkpt lat="40.737805329004544" lon="17.52942727354524"><ele>284.4</ele><time>2026-05-03T08:13:19.999Z</time></trkpt><trkpt lat="40.737828956928624" lon="17.529306136626285"><ele>283.2</ele><time>2026-05-03T08:13:21.999Z</time></trkpt><trkpt lat="40.73781211960891" lon="17.529156385027317"><ele>282.0</ele><time>2026-05-03T08:13:23.999Z</time></trkpt><trkpt lat="40.73777969529805" lon="17.5290653576118"><ele>282.0</ele><time>2026-05-03T08:13:25.999Z</time></trkpt><trkpt lat="40.737774019072674" lon="17.528956622913626"><ele>282.0</ele><time>2026-05-03T08:13:28.999Z</time></trkpt><trkpt lat="40.73777274176298" lon="17.528873218015757"><ele>282.0</ele><time>2026-05-03T08:13:30.999Z</time></trkpt><trkpt lat="40.73776140223892" lon="17.528744783552483"><ele>282.0</ele><time>2026-05-03T08:13:33.999Z</time></trkpt><trkpt lat="40.73775943886507" lon="17.528631956673042"><ele>282.0</ele><time>2026-05-03T08:13:36.999Z</time></trkpt><trkpt lat="40.73781553117941" lon="17.528538118690847"><ele>282.0</ele><time>2026-05-03T08:13:38.999Z</time></trkpt><trkpt lat="40.73786709610846" lon="17.528443925864902"><ele>282.42857142857144</ele><time>2026-05-03T08:13:40.999Z</time></trkpt><trkpt lat="40.73791903359741" lon="17.528369590645053"><ele>282.85714285714283</ele><time>2026-05-03T08:13:42.999Z</time></trkpt><trkpt lat="40.737995463536606" lon="17.52831540061845"><ele>283.2857142857143</ele><time>2026-05-03T08:13:44.999Z</time></trkpt><trkpt lat="40.738062251900004" lon="17.52826748517135"><ele>283.7142857142857</ele><time>2026-05-03T08:13:47.999Z</time></trkpt><trkpt lat="40.738124587748636" lon="17.528283950984065"><ele>284.14285714285717</ele><time>2026-05-03T08:13:52.999Z</time></trkpt><trkpt lat="40.738099546948504" lon="17.528369396416434"><ele>284.57142857142856</ele><time>2026-05-03T08:14:07.999Z</time></trkpt><trkpt lat="40.738094211564665" lon="17.52845689633512"><ele>285.0</ele><time>2026-05-03T08:14:10.999Z</time></trkpt><trkpt lat="40.73804675795216" lon="17.52855195054108"><ele>285.0</ele><time>2026-05-03T08:14:13.999Z</time></trkpt><trkpt lat="40.73809756107441" lon="17.528671720665"><ele>285.0</ele><time>2026-05-03T08:14:17.998Z</time></trkpt><trkpt lat="40.73816619095581" lon="17.528745195424715"><ele>285.0</ele><time>2026-05-03T08:14:19.998Z</time></trkpt><trkpt lat="40.73824605203046" lon="17.528846555068487"><ele>285.0</ele><time>2026-05-03T08:14:21.998Z</time></trkpt><trkpt lat="40.73834003807792" lon="17.528926804055537"><ele>285.0</ele><time>2026-05-03T08:14:23.998Z</time></trkpt><trkpt lat="40.738450525949865" lon="17.528975679810735"><ele>284.5</ele><time>2026-05-03T08:14:25.998Z</time></trkpt><trkpt lat="40.73851803276964" lon="17.528994917185504"><ele>284.0</ele><time>2026-05-03T08:14:26.998Z</time></trkpt><trkpt lat="40.73859724961354" lon="17.529001175542955"><ele>283.5</ele><time>2026-05-03T08:14:27.998Z</time></trkpt><trkpt lat="40.73866936870484" lon="17.52909277020843"><ele>283.0</ele><time>2026-05-03T08:14:29.998Z</time></trkpt><trkpt lat="40.73872390032653" lon="17.529174902086776"><ele>282.5</ele><time>2026-05-03T08:14:31.998Z</time></trkpt><trkpt lat="40.73874832648807" lon="17.529281135028576"><ele>282.0</ele><time>2026-05-03T08:14:33.998Z</time></trkpt><trkpt lat="40.738852014645026" lon="17.529218907649316"><ele>279.4</ele><time>2026-05-03T08:14:36.998Z</time></trkpt><trkpt lat="40.738949268587966" lon="17.529164254050762"><ele>276.79999999999995</ele><time>2026-05-03T08:14:38.998Z</time></trkpt><trkpt lat="40.739015532905164" lon="17.529125074007446"><ele>274.2</ele><time>2026-05-03T08:14:39.998Z</time></trkpt><trkpt lat="40.73903794325433" lon="17.52904727850994"><ele>271.59999999999997</ele><time>2026-05-03T08:14:40.998Z</time></trkpt><trkpt lat="40.73898893887524" lon="17.529260457377763"><ele>269.0</ele><time>2026-05-03T08:14:47Z</time></trkpt><trkpt lat="40.73897919949097" lon="17.529449834407096"><ele>266.59999999999997</ele><time>2026-05-03T08:14:49Z</time></trkpt><trkpt lat="40.73900048287912" lon="17.529591461649712"><ele>264.2</ele><time>2026-05-03T08:14:51Z</time></trkpt><trkpt lat="40.739045249306415" lon="17.52971832437135"><ele>261.79999999999995</ele><time>2026-05-03T08:14:53Z</time></trkpt><trkpt lat="40.73902033804204" lon="17.52988673529023"><ele>259.4</ele><time>2026-05-03T08:14:55Z</time></trkpt><trkpt lat="40.739045607380426" lon="17.529991117009526"><ele>257.0</ele><time>2026-05-03T08:14:56Z</time></trkpt><trkpt lat="40.73907252869077" lon="17.530106291299457"><ele>257.0</ele><time>2026-05-03T08:14:57Z</time></trkpt><trkpt lat="40.739076359078624" lon="17.530202957080075"><ele>257.0</ele><time>2026-05-03T08:14:58Z</time></trkpt><trkpt lat="40.739099172001346" lon="17.53034581244073"><ele>257.0</ele><time>2026-05-03T08:15:00Z</time></trkpt><trkpt lat="40.73912215385078" lon="17.530427464411083"><ele>257.0</ele><time>2026-05-03T08:15:01Z</time></trkpt><trkpt lat="40.739124931622" lon="17.530513693463"><ele>257.0</ele><time>2026-05-03T08:15:02Z</time></trkpt><trkpt lat="40.73911817631489" lon="17.53066567066817"><ele>257.0</ele><time>2026-05-03T08:15:04Z</time></trkpt><trkpt lat="40.739147421477966" lon="17.530761039216365"><ele>255.66666666666669</ele><time>2026-05-03T08:15:05Z</time></trkpt><trkpt lat="40.739196406657115" lon="17.530887100760225"><ele>254.33333333333334</ele><time>2026-05-03T08:15:07Z</time></trkpt><trkpt lat="40.73923043866869" lon="17.531033327353903"><ele>253.0</ele><time>2026-05-03T08:15:09Z</time></trkpt><trkpt lat="40.739201180675465" lon="17.531113447248668"><ele>251.66666666666669</ele><time>2026-05-03T08:15:10Z</time></trkpt><trkpt lat="40.73918322736825" lon="17.531200268965463"><ele>250.33333333333334</ele><time>2026-05-03T08:15:11Z</time></trkpt><trkpt lat="40.73918943784985" lon="17.53128305238368"><ele>249.0</ele><time>2026-05-03T08:15:12Z</time></trkpt><trkpt lat="40.739135722633925" lon="17.531419033281907"><ele>247.16666666666666</ele><time>2026-05-03T08:15:14Z</time></trkpt><trkpt lat="40.739119054814694" lon="17.531499862996007"><ele>245.33333333333331</ele><time>2026-05-03T08:15:15Z</time></trkpt><trkpt lat="40.73908095419198" lon="17.531613041761258"><ele>243.5</ele><time>2026-05-03T08:15:17Z</time></trkpt><trkpt lat="40.73905075433798" lon="17.531731839620345"><ele>241.66666666666666</ele><time>2026-05-03T08:15:19Z</time></trkpt><trkpt lat="40.73905432756744" lon="17.53184040038488"><ele>239.83333333333331</ele><time>2026-05-03T08:15:21Z</time></trkpt><trkpt lat="40.73904227055185" lon="17.531926426039533"><ele>238.0</ele><time>2026-05-03T08:15:23Z</time></trkpt><trkpt lat="40.73909236882514" lon="17.532028237569733"><ele>237.99999999999997</ele><time>2026-05-03T08:15:24Z</time></trkpt><trkpt lat="40.73917059665032" lon="17.53195057966365"><ele>238.0</ele><time>2026-05-03T08:15:29.999Z</time></trkpt><trkpt lat="40.73922097785085" lon="17.531890699044645"><ele>238.0</ele><time>2026-05-03T08:15:31.999Z</time></trkpt><trkpt lat="40.73924638945368" lon="17.531801329626333"><ele>238.0</ele><time>2026-05-03T08:15:33.999Z</time></trkpt><trkpt lat="40.73928730210215" lon="17.53173776531491"><ele>237.99999999999997</ele><time>2026-05-03T08:15:36.999Z</time></trkpt><trkpt lat="40.73937887456796" lon="17.531750507170585"><ele>238.0</ele><time>2026-05-03T08:15:42.999Z</time></trkpt><trkpt lat="40.73941790760936" lon="17.531651554491027"><ele>234.0</ele><time>2026-05-03T08:15:44.999Z</time></trkpt><trkpt lat="40.73942979519826" lon="17.53154437996236"><ele>230.0</ele><time>2026-05-03T08:15:47.999Z</time></trkpt><trkpt lat="40.73958676116197" lon="17.5314895430274"><ele>226.0</ele><time>2026-05-03T08:15:58.999Z</time></trkpt><trkpt lat="40.73958807030885" lon="17.531377154817225"><ele>222.0</ele><time>2026-05-03T08:16:03.999Z</time></trkpt><trkpt lat="40.73962567994641" lon="17.53128396047762"><ele>218.0</ele><time>2026-05-03T08:16:06.999Z</time></trkpt><trkpt lat="40.73961191394018" lon="17.531184415943766"><ele>218.00000000000003</ele><time>2026-05-03T08:16:10.999Z</time></trkpt><trkpt lat="40.7396263091589" lon="17.531091439032018"><ele>218.0</ele><time>2026-05-03T08:16:13.999Z</time></trkpt><trkpt lat="40.73967688855116" lon="17.531021280420454"><ele>218.0</ele><time>2026-05-03T08:16:17.999Z</time></trkpt><trkpt lat="40.73973688782879" lon="17.530964941076256"><ele>218.0</ele><time>2026-05-03T08:16:21.999Z</time></trkpt><trkpt lat="40.739757463359126" lon="17.530877861570993"><ele>218.00000000000003</ele><time>2026-05-03T08:16:25.999Z</time></trkpt><trkpt lat="40.73978816609074" lon="17.530764240432877"><ele>218.0</ele><time>2026-05-03T08:16:28.998Z</time></trkpt><trkpt lat="40.73978907483647" lon="17.530653610691505"><ele>218.00000000000003</ele><time>2026-05-03T08:16:30.998Z</time></trkpt><trkpt lat="40.739773760698704" lon="17.530565477825323"><ele>218.0</ele><time>2026-05-03T08:16:32.998Z</time></trkpt><trkpt lat="40.73976260252114" lon="17.53046799224683"><ele>218.0</ele><time>2026-05-03T08:16:37.998Z</time></trkpt><trkpt lat="40.73977102773515" lon="17.53036050695616"><ele>218.0</ele><time>2026-05-03T08:16:40.998Z</time></trkpt><trkpt lat="40.739742203966856" lon="17.53028242918891"><ele>218.00000000000003</ele><time>2026-05-03T08:16:46.998Z</time></trkpt><trkpt lat="40.73973319865747" lon="17.530171067577623"><ele>218.0</ele><time>2026-05-03T08:17:06Z</time></trkpt><trkpt lat="40.73982876129122" lon="17.530097382598864"><ele>218.0</ele><time>2026-05-03T08:17:11Z</time></trkpt><trkpt lat="40.73990176369359" lon="17.530104604850365"><ele>218.0</ele><time>2026-05-03T08:17:15Z</time></trkpt><trkpt lat="40.73993579843926" lon="17.530198819045577"><ele>218.0</ele><time>2026-05-03T08:17:17Z</time></trkpt><trkpt lat="40.739984822234796" lon="17.53025810128971"><ele>218.0</ele><time>2026-05-03T08:17:20Z</time></trkpt><trkpt lat="40.7400299942845" lon="17.530340136687183"><ele>218.0</ele><time>2026-05-03T08:17:22Z</time></trkpt><trkpt lat="40.74010957274018" lon="17.530391287719528"><ele>218.0</ele><time>2026-05-03T08:17:24Z</time></trkpt><trkpt lat="40.740168354393965" lon="17.530428182315777"><ele>218.0</ele><time>2026-05-03T08:17:26Z</time></trkpt><trkpt lat="40.740234855779256" lon="17.53043075097943"><ele>215.00000000000003</ele><time>2026-05-03T08:17:27Z</time></trkpt><trkpt lat="40.7403083318532" lon="17.53042125129197"><ele>212.0</ele><time>2026-05-03T08:17:34Z</time></trkpt><trkpt lat="40.740375736611576" lon="17.530449910562428"><ele>209.0</ele><time>2026-05-03T08:17:35.999Z</time></trkpt><trkpt lat="40.740401137058385" lon="17.53052746730376"><ele>206.0</ele><time>2026-05-03T08:17:37.999Z</time></trkpt><trkpt lat="40.7404587607223" lon="17.530613081773154"><ele>203.00000000000003</ele><time>2026-05-03T08:17:40.999Z</time></trkpt><trkpt lat="40.74047252925936" lon="17.530734175974523"><ele>200.0</ele><time>2026-05-03T08:17:42.999Z</time></trkpt><trkpt lat="40.74053179710817" lon="17.53079055488212"><ele>200.0</ele><time>2026-05-03T08:17:44.999Z</time></trkpt><trkpt lat="40.74062168842851" lon="17.530751402648356"><ele>200.0</ele><time>2026-05-03T08:17:48.999Z</time></trkpt><trkpt lat="40.74078784487423" lon="17.53070862986656"><ele>200.0</ele><time>2026-05-03T08:17:50.999Z</time></trkpt><trkpt lat="40.74084932391528" lon="17.530672655564242"><ele>200.0</ele><time>2026-05-03T08:17:52.999Z</time></trkpt><trkpt lat="40.74092005863292" lon="17.53060266320076"><ele>200.0</ele><time>2026-05-03T08:17:54.999Z</time></trkpt><trkpt lat="40.74100033570319" lon="17.53055255394229"><ele>197.5</ele><time>2026-05-03T08:17:57.999Z</time></trkpt><trkpt lat="40.74120207743898" lon="17.530498501341498"><ele>195.0</ele><time>2026-05-03T08:18:02.999Z</time></trkpt><trkpt lat="40.741322067710996" lon="17.530500034857763"><ele>192.5</ele><time>2026-05-03T08:18:04.999Z</time></trkpt><trkpt lat="40.74139696284544" lon="17.53046411181274"><ele>190.0</ele><time>2026-05-03T08:18:05.999Z</time></trkpt><trkpt lat="40.74145745551045" lon="17.530435398014124"><ele>190.0</ele><time>2026-05-03T08:18:06.999Z</time></trkpt><trkpt lat="40.74153012097639" lon="17.53038194193547"><ele>190.0</ele><time>2026-05-03T08:18:07.999Z</time></trkpt><trkpt lat="40.741614975208364" lon="17.53036370818224"><ele>190.0</ele><time>2026-05-03T08:18:08.999Z</time></trkpt><trkpt lat="40.74170871067474" lon="17.53039088203456"><ele>190.0</ele><time>2026-05-03T08:18:09.999Z</time></trkpt><trkpt lat="40.74178516204578" lon="17.530414530340543"><ele>190.0</ele><time>2026-05-03T08:18:10.999Z</time></trkpt><trkpt lat="40.74184882041256" lon="17.53044009372911"><ele>190.0</ele><time>2026-05-03T08:18:11.999Z</time></trkpt><trkpt lat="40.741940994309545" lon="17.530414231084603"><ele>190.4</ele><time>2026-05-03T08:18:13.999Z</time></trkpt><trkpt lat="40.74200265164848" lon="17.53038857343762"><ele>190.8</ele><time>2026-05-03T08:18:14.999Z</time></trkpt><trkpt lat="40.742075002293625" lon="17.53032069640097"><ele>191.2</ele><time>2026-05-03T08:18:16.999Z</time></trkpt><trkpt lat="40.74219243437432" lon="17.530247892829827"><ele>191.6</ele><time>2026-05-03T08:18:18.999Z</time></trkpt><trkpt lat="40.7422726628127" lon="17.530240421143034"><ele>192.0</ele><time>2026-05-03T08:18:19.999Z</time></trkpt><trkpt lat="40.74240000161017" lon="17.530196517333547"><ele>192.0</ele><time>2026-05-03T08:18:21.999Z</time></trkpt><trkpt lat="40.7424629338963" lon="17.53018103811555"><ele>192.0</ele><time>2026-05-03T08:18:22.999Z</time></trkpt><trkpt lat="40.742531673466125" lon="17.530153300739386"><ele>192.0</ele><time>2026-05-03T08:18:23.999Z</time></trkpt><trkpt lat="40.742609664395495" lon="17.530119442255984"><ele>192.0</ele><time>2026-05-03T08:18:24.999Z</time></trkpt><trkpt lat="40.74267221538562" lon="17.530075243420782"><ele>192.0</ele><time>2026-05-03T08:18:25.999Z</time></trkpt><trkpt lat="40.742721799870715" lon="17.530014934182297"><ele>192.0</ele><time>2026-05-03T08:18:26.999Z</time></trkpt><trkpt lat="40.74282997230147" lon="17.529930828701342"><ele>189.66666666666666</ele><time>2026-05-03T08:18:28.999Z</time></trkpt><trkpt lat="40.742907320984855" lon="17.529840942011568"><ele>187.33333333333334</ele><time>2026-05-03T08:18:30.999Z</time></trkpt><trkpt lat="40.742964343458944" lon="17.529804550056177"><ele>185.0</ele><time>2026-05-03T08:18:31.999Z</time></trkpt><trkpt lat="40.74303061684341" lon="17.52977286439703"><ele>182.66666666666669</ele><time>2026-05-03T08:18:32.999Z</time></trkpt><trkpt lat="40.74310085990242" lon="17.52974989967088"><ele>180.33333333333334</ele><time>2026-05-03T08:18:33.999Z</time></trkpt><trkpt lat="40.743187074760876" lon="17.52962708724662"><ele>178.0</ele><time>2026-05-03T08:18:35.999Z</time></trkpt><trkpt lat="40.74325187048911" lon="17.5295738168653"><ele>177.5</ele><time>2026-05-03T08:18:36.998Z</time></trkpt><trkpt lat="40.7433131331705" lon="17.529520611476855"><ele>177.0</ele><time>2026-05-03T08:18:37.998Z</time></trkpt><trkpt lat="40.743430795135936" lon="17.529455347401353"><ele>176.5</ele><time>2026-05-03T08:18:39.998Z</time></trkpt><trkpt lat="40.743495865099426" lon="17.529409501270774"><ele>176.0</ele><time>2026-05-03T08:18:40.998Z</time></trkpt><trkpt lat="40.74356020518001" lon="17.529354832098186"><ele>175.5</ele><time>2026-05-03T08:18:41.998Z</time></trkpt><trkpt lat="40.74362226358317" lon="17.52931509772067"><ele>175.0</ele><time>2026-05-03T08:18:42.998Z</time></trkpt><trkpt lat="40.74372061533453" lon="17.529241299837388"><ele>175.0</ele><time>2026-05-03T08:18:44.998Z</time></trkpt><trkpt lat="40.7437981446158" lon="17.529188336014737"><ele>175.0</ele><time>2026-05-03T08:18:46.998Z</time></trkpt><trkpt lat="40.7439079569231" lon="17.529177919177933"><ele>175.0</ele><time>2026-05-03T08:18:48.998Z</time></trkpt><trkpt lat="40.74400999822834" lon="17.529173633449805"><ele>175.0</ele><time>2026-05-03T08:18:50.998Z</time></trkpt><trkpt lat="40.74407726905574" lon="17.529111712708513"><ele>175.0</ele><time>2026-05-03T08:18:52.998Z</time></trkpt><trkpt lat="40.744179632516385" lon="17.52906153745677"><ele>175.0</ele><time>2026-05-03T08:18:54.998Z</time></trkpt><trkpt lat="40.74428202930123" lon="17.52900920893848"><ele>175.0</ele><time>2026-05-03T08:18:57Z</time></trkpt><trkpt lat="40.74439415936218" lon="17.52892198720817"><ele>175.0</ele><time>2026-05-03T08:18:59Z</time></trkpt><trkpt lat="40.74446662765303" lon="17.52886373833985"><ele>175.0</ele><time>2026-05-03T08:19:01Z</time></trkpt><trkpt lat="40.74455590283876" lon="17.528819829094292"><ele>175.0</ele><time>2026-05-03T08:19:03Z</time></trkpt><trkpt lat="40.74465667508214" lon="17.528736395861614"><ele>174.6</ele><time>2026-05-03T08:19:05Z</time></trkpt><trkpt lat="40.74472824752127" lon="17.528649633481194"><ele>174.2</ele><time>2026-05-03T08:19:07Z</time></trkpt><trkpt lat="40.744773904873945" lon="17.528562635581867"><ele>173.8</ele><time>2026-05-03T08:19:09Z</time></trkpt><trkpt lat="40.74489776020059" lon="17.52853479409638"><ele>173.4</ele><time>2026-05-03T08:19:11Z</time></trkpt><trkpt lat="40.74496695209655" lon="17.528515470824413"><ele>173.0</ele><time>2026-05-03T08:19:12Z</time></trkpt><trkpt lat="40.74506421737188" lon="17.528482529189677"><ele>173.0</ele><time>2026-05-03T08:19:14Z</time></trkpt><trkpt lat="40.74517478334795" lon="17.528431711145707"><ele>173.0</ele><time>2026-05-03T08:19:16Z</time></trkpt><trkpt lat="40.74526351969435" lon="17.52837804329203"><ele>173.0</ele><time>2026-05-03T08:19:18Z</time></trkpt><trkpt lat="40.74535374523239" lon="17.528351174800648"><ele>173.0</ele><time>2026-05-03T08:19:19Z</time></trkpt><trkpt lat="40.7454474177987" lon="17.528283619313836"><ele>173.0</ele><time>2026-05-03T08:19:21Z</time></trkpt><trkpt lat="40.745565985563616" lon="17.528187090253308"><ele>172.8</ele><time>2026-05-03T08:19:23Z</time></trkpt><trkpt lat="40.74562465282751" lon="17.528154185989663"><ele>172.60000000000002</ele><time>2026-05-03T08:19:24Z</time></trkpt><trkpt lat="40.74574009732388" lon="17.52808071496041"><ele>172.39999999999998</ele><time>2026-05-03T08:19:26Z</time></trkpt><trkpt lat="40.74583656695676" lon="17.528011187560566"><ele>172.2</ele><time>2026-05-03T08:19:28Z</time></trkpt><trkpt lat="40.745935340354926" lon="17.527932532454056"><ele>172.0</ele><time>2026-05-03T08:19:30Z</time></trkpt><trkpt lat="40.746032928303656" lon="17.527859352545843"><ele>170.0</ele><time>2026-05-03T08:19:32Z</time></trkpt><trkpt lat="40.74608801136796" lon="17.527800801208688"><ele>168.0</ele><time>2026-05-03T08:19:33Z</time></trkpt><trkpt lat="40.746139323112665" lon="17.527749138841234"><ele>166.0</ele><time>2026-05-03T08:19:34Z</time></trkpt><trkpt lat="40.74621010175837" lon="17.527705373435154"><ele>164.0</ele><time>2026-05-03T08:19:36Z</time></trkpt><trkpt lat="40.746277426252135" lon="17.527750562113514"><ele>162.0</ele><time>2026-05-03T08:19:39Z</time></trkpt><trkpt lat="40.746416151350815" lon="17.52771720570907"><ele>160.0</ele><time>2026-05-03T08:19:43.999Z</time></trkpt><trkpt lat="40.746508212455886" lon="17.527647659456974"><ele>160.0</ele><time>2026-05-03T08:19:45.999Z</time></trkpt><trkpt lat="40.74658232166797" lon="17.52760695750093"><ele>160.0</ele><time>2026-05-03T08:19:47.999Z</time></trkpt><trkpt lat="40.74666568589294" lon="17.5275639408429"><ele>160.0</ele><time>2026-05-03T08:19:49.999Z</time></trkpt><trkpt lat="40.74672670936692" lon="17.527496524410004"><ele>160.0</ele><time>2026-05-03T08:19:51.999Z</time></trkpt><trkpt lat="40.74675266622445" lon="17.527386627970376"><ele>160.0</ele><time>2026-05-03T08:19:53.999Z</time></trkpt><trkpt lat="40.74679218893532" lon="17.527285840831762"><ele>160.0</ele><time>2026-05-03T08:19:56.999Z</time></trkpt><trkpt lat="40.74687675802728" lon="17.52725386252045"><ele>159.6</ele><time>2026-05-03T08:19:59.999Z</time></trkpt><trkpt lat="40.74695280888495" lon="17.527170432071653"><ele>159.2</ele><time>2026-05-03T08:20:01.999Z</time></trkpt><trkpt lat="40.747023533244516" lon="17.527104813639678"><ele>158.8</ele><time>2026-05-03T08:20:03.999Z</time></trkpt><trkpt lat="40.74713565865537" lon="17.527128325542034"><ele>158.4</ele><time>2026-05-03T08:20:05.999Z</time></trkpt><trkpt lat="40.747230807327504" lon="17.527110640957755"><ele>158.0</ele><time>2026-05-03T08:20:08.999Z</time></trkpt><trkpt lat="40.74726528538326" lon="17.52699469962021"><ele>158.0</ele><time>2026-05-03T08:20:10.999Z</time></trkpt><trkpt lat="40.74736339573107" lon="17.526969680719592"><ele>158.0</ele><time>2026-05-03T08:20:12.999Z</time></trkpt><trkpt lat="40.747408865904475" lon="17.52704971468255"><ele>158.0</ele><time>2026-05-03T08:20:15.999Z</time></trkpt><trkpt lat="40.74747342597704" lon="17.527016017895228"><ele>158.0</ele><time>2026-05-03T08:20:16.999Z</time></trkpt><trkpt lat="40.74755851065635" lon="17.526962786931065"><ele>158.0</ele><time>2026-05-03T08:20:18.999Z</time></trkpt><trkpt lat="40.74763932203177" lon="17.526919148629975"><ele>158.0</ele><time>2026-05-03T08:20:20.999Z</time></trkpt><trkpt lat="40.74768800809276" lon="17.52683577590292"><ele>154.5</ele><time>2026-05-03T08:20:23.999Z</time></trkpt><trkpt lat="40.74774945592731" lon="17.526776191793573"><ele>151.0</ele><time>2026-05-03T08:20:26.999Z</time></trkpt><trkpt lat="40.747920913143076" lon="17.526784462385017"><ele>147.5</ele><time>2026-05-03T08:20:31.999Z</time></trkpt><trkpt lat="40.748069367861945" lon="17.52668944268252"><ele>144.0</ele><time>2026-05-03T08:20:37.999Z</time></trkpt><trkpt lat="40.74815102522825" lon="17.526695495547745"><ele>144.0</ele><time>2026-05-03T08:20:41.999Z</time></trkpt><trkpt lat="40.74824516293267" lon="17.52671155852232"><ele>144.0</ele><time>2026-05-03T08:20:46.998Z</time></trkpt><trkpt lat="40.74830866206846" lon="17.526670440593776"><ele>144.0</ele><time>2026-05-03T08:20:50.998Z</time></trkpt><trkpt lat="40.748384607382306" lon="17.52659885279833"><ele>144.0</ele><time>2026-05-03T08:20:53.998Z</time></trkpt><trkpt lat="40.74846947491446" lon="17.526562702364362"><ele>144.0</ele><time>2026-05-03T08:20:56.998Z</time></trkpt><trkpt lat="40.74851798087891" lon="17.526469916232646"><ele>144.0</ele><time>2026-05-03T08:20:58.998Z</time></trkpt><trkpt lat="40.74855804837147" lon="17.526398128150632"><ele>143.16666666666666</ele><time>2026-05-03T08:21:00.998Z</time></trkpt><trkpt lat="40.74863147239664" lon="17.52631404957538"><ele>142.33333333333334</ele><time>2026-05-03T08:21:04Z</time></trkpt><trkpt lat="40.748648531710785" lon="17.526209007523246"><ele>141.5</ele><time>2026-05-03T08:21:06Z</time></trkpt><trkpt lat="40.7486856364669" lon="17.526122700213055"><ele>140.66666666666669</ele><time>2026-05-03T08:21:09Z</time></trkpt><trkpt lat="40.7487269680182" lon="17.526045582049743"><ele>139.83333333333334</ele><time>2026-05-03T08:21:12Z</time></trkpt><trkpt lat="40.74876351410899" lon="17.525973109240837"><ele>139.0</ele><time>2026-05-03T08:21:15Z</time></trkpt><trkpt lat="40.74881752357374" lon="17.525904812293867"><ele>139.0</ele><time>2026-05-03T08:21:19Z</time></trkpt><trkpt lat="40.748812624640934" lon="17.525793283248493"><ele>139.0</ele><time>2026-05-03T08:21:39Z</time></trkpt><trkpt lat="40.7488448405106" lon="17.52572087170103"><ele>139.0</ele><time>2026-05-03T08:21:41Z</time></trkpt><trkpt lat="40.74889747578853" lon="17.52565306339533"><ele>139.0</ele><time>2026-05-03T08:21:43Z</time></trkpt><trkpt lat="40.7489194804394" lon="17.525535849854734"><ele>139.0</ele><time>2026-05-03T08:21:45Z</time></trkpt><trkpt lat="40.748909240140684" lon="17.525419871722416"><ele>139.0</ele><time>2026-05-03T08:21:46.999Z</time></trkpt><trkpt lat="40.74886633447641" lon="17.5253198447155"><ele>140.0</ele><time>2026-05-03T08:21:48.999Z</time></trkpt><trkpt lat="40.74882196541438" lon="17.525252456884914"><ele>141.0</ele><time>2026-05-03T08:21:50.999Z</time></trkpt><trkpt lat="40.748847625568274" lon="17.525132644655645"><ele>142.0</ele><time>2026-05-03T08:21:53.999Z</time></trkpt><trkpt lat="40.748857458059256" lon="17.52498082702009"><ele>143.0</ele><time>2026-05-03T08:21:55.999Z</time></trkpt><trkpt lat="40.74887359321782" lon="17.524846167118085"><ele>144.0</ele><time>2026-05-03T08:21:57.999Z</time></trkpt><trkpt lat="40.74889030393587" lon="17.524739299533163"><ele>144.0</ele><time>2026-05-03T08:21:59.999Z</time></trkpt><trkpt lat="40.74890858578958" lon="17.52463334218314"><ele>144.0</ele><time>2026-05-03T08:22:01.999Z</time></trkpt><trkpt lat="40.74889354557607" lon="17.524527860284177"><ele>144.0</ele><time>2026-05-03T08:22:03.999Z</time></trkpt><trkpt lat="40.74888720059879" lon="17.524415858232757"><ele>144.0</ele><time>2026-05-03T08:22:05.999Z</time></trkpt><trkpt lat="40.74890365324534" lon="17.524289379501965"><ele>144.0</ele><time>2026-05-03T08:22:07.999Z</time></trkpt><trkpt lat="40.748942769855184" lon="17.524169912794328"><ele>144.0</ele><time>2026-05-03T08:22:09.999Z</time></trkpt><trkpt lat="40.74899344424469" lon="17.524047130598326"><ele>144.2</ele><time>2026-05-03T08:22:11.999Z</time></trkpt><trkpt lat="40.74903291745223" lon="17.523936234359766"><ele>144.4</ele><time>2026-05-03T08:22:13.999Z</time></trkpt><trkpt lat="40.74908950330317" lon="17.523813801949995"><ele>144.6</ele><time>2026-05-03T08:22:15.999Z</time></trkpt><trkpt lat="40.74913488183068" lon="17.523696426348074"><ele>144.8</ele><time>2026-05-03T08:22:17.999Z</time></trkpt><trkpt lat="40.74919024554814" lon="17.523570265228994"><ele>145.0</ele><time>2026-05-03T08:22:19.999Z</time></trkpt><trkpt lat="40.74925035568799" lon="17.523446614398253"><ele>145.4</ele><time>2026-05-03T08:22:21.999Z</time></trkpt><trkpt lat="40.74929945643501" lon="17.523329874149734"><ele>145.8</ele><time>2026-05-03T08:22:23.999Z</time></trkpt><trkpt lat="40.74933406057606" lon="17.523222340270703"><ele>146.2</ele><time>2026-05-03T08:22:25.999Z</time></trkpt><trkpt lat="40.74936705966559" lon="17.523088466076047"><ele>146.6</ele><time>2026-05-03T08:22:27.999Z</time></trkpt><trkpt lat="40.74940602645086" lon="17.522964632357077"><ele>147.0</ele><time>2026-05-03T08:22:29.999Z</time></trkpt><trkpt lat="40.749437822574556" lon="17.5228493234806"><ele>147.0</ele><time>2026-05-03T08:22:31.999Z</time></trkpt><trkpt lat="40.74950117615603" lon="17.522753244807244"><ele>147.0</ele><time>2026-05-03T08:22:33.999Z</time></trkpt><trkpt lat="40.74955608415717" lon="17.522643304889083"><ele>147.0</ele><time>2026-05-03T08:22:35.999Z</time></trkpt><trkpt lat="40.749590738071994" lon="17.522528345869524"><ele>147.0</ele><time>2026-05-03T08:22:37.999Z</time></trkpt><trkpt lat="40.74962851120652" lon="17.52242530139763"><ele>147.0</ele><time>2026-05-03T08:22:39.999Z</time></trkpt><trkpt lat="40.74967451588828" lon="17.522336693920668"><ele>147.0</ele><time>2026-05-03T08:22:41.999Z</time></trkpt><trkpt lat="40.749720475487656" lon="17.522209702145208"><ele>147.0</ele><time>2026-05-03T08:22:43.999Z</time></trkpt><trkpt lat="40.749771955420485" lon="17.52209755628676"><ele>147.0</ele><time>2026-05-03T08:22:45.999Z</time></trkpt><trkpt lat="40.74982743401999" lon="17.52198326789306"><ele>147.0</ele><time>2026-05-03T08:22:47.998Z</time></trkpt><trkpt lat="40.749906829204484" lon="17.52187588223116"><ele>147.0</ele><time>2026-05-03T08:22:49.998Z</time></trkpt><trkpt lat="40.74998842732138" lon="17.52179157554114"><ele>148.6</ele><time>2026-05-03T08:22:51.998Z</time></trkpt><trkpt lat="40.75007625476771" lon="17.521699678781264"><ele>150.2</ele><time>2026-05-03T08:22:53.998Z</time></trkpt><trkpt lat="40.75017560293026" lon="17.52165091888319"><ele>151.8</ele><time>2026-05-03T08:22:55.998Z</time></trkpt><trkpt lat="40.750270783138824" lon="17.52160633847429"><ele>153.4</ele><time>2026-05-03T08:22:57.998Z</time></trkpt><trkpt lat="40.75034421360598" lon="17.52151172475064"><ele>155.0</ele><time>2026-05-03T08:22:59.998Z</time></trkpt><trkpt lat="40.75040372587917" lon="17.521471649430552"><ele>155.0</ele><time>2026-05-03T08:23:01.998Z</time></trkpt><trkpt lat="40.75039593743481" lon="17.52136022244647"><ele>155.0</ele><time>2026-05-03T08:23:04.998Z</time></trkpt><trkpt lat="40.7504048045213" lon="17.521238377391654"><ele>155.0</ele><time>2026-05-03T08:23:07.998Z</time></trkpt><trkpt lat="40.75040039452031" lon="17.52115459896203"><ele>155.0</ele><time>2026-05-03T08:23:10Z</time></trkpt><trkpt lat="40.75037682892335" lon="17.521071578643948"><ele>155.0</ele><time>2026-05-03T08:23:12Z</time></trkpt><trkpt lat="40.750319375759446" lon="17.520987427466668"><ele>155.0</ele><time>2026-05-03T08:23:15Z</time></trkpt><trkpt lat="40.750260784440734" lon="17.520937199104395"><ele>155.71428571428572</ele><time>2026-05-03T08:23:17Z</time></trkpt><trkpt lat="40.750208423278956" lon="17.520888971501908"><ele>156.42857142857142</ele><time>2026-05-03T08:23:19Z</time></trkpt><trkpt lat="40.75015797461169" lon="17.520809475559563"><ele>157.14285714285714</ele><time>2026-05-03T08:23:21Z</time></trkpt><trkpt lat="40.750113540245685" lon="17.520748282821174"><ele>157.85714285714286</ele><time>2026-05-03T08:23:23Z</time></trkpt><trkpt lat="40.750054167530536" lon="17.520680626875016"><ele>158.57142857142858</ele><time>2026-05-03T08:23:25Z</time></trkpt><trkpt lat="40.74998773141187" lon="17.520639332198023"><ele>159.28571428571428</ele><time>2026-05-03T08:23:27Z</time></trkpt><trkpt lat="40.749930371632935" lon="17.52060230000708"><ele>160.0</ele><time>2026-05-03T08:23:29Z</time></trkpt><trkpt lat="40.74985182407109" lon="17.52056652228669"><ele>160.28571428571428</ele><time>2026-05-03T08:23:31Z</time></trkpt><trkpt lat="40.749775213568014" lon="17.520538127242705"><ele>160.57142857142858</ele><time>2026-05-03T08:23:33Z</time></trkpt><trkpt lat="40.74971083461007" lon="17.520518003270254"><ele>160.85714285714286</ele><time>2026-05-03T08:23:35Z</time></trkpt><trkpt lat="40.74965606985995" lon="17.520444953107972"><ele>161.14285714285714</ele><time>2026-05-03T08:23:37Z</time></trkpt><trkpt lat="40.749592072578764" lon="17.52041388465354"><ele>161.42857142857142</ele><time>2026-05-03T08:23:39Z</time></trkpt><trkpt lat="40.749530068711266" lon="17.520352594458245"><ele>161.71428571428572</ele><time>2026-05-03T08:23:41Z</time></trkpt><trkpt lat="40.74947537794416" lon="17.520308203968188"><ele>162.0</ele><time>2026-05-03T08:23:43Z</time></trkpt><trkpt lat="40.74941426435599" lon="17.520262081453406"><ele>163.5</ele><time>2026-05-03T08:23:45Z</time></trkpt><trkpt lat="40.74935171523401" lon="17.520208547943678"><ele>165.0</ele><time>2026-05-03T08:23:47Z</time></trkpt><trkpt lat="40.749288292075065" lon="17.520152753670178"><ele>166.5</ele><time>2026-05-03T08:23:49Z</time></trkpt><trkpt lat="40.749226877026985" lon="17.520098265413875"><ele>168.0</ele><time>2026-05-03T08:23:51Z</time></trkpt><trkpt lat="40.749153637087744" lon="17.520042684860943"><ele>169.5</ele><time>2026-05-03T08:23:53Z</time></trkpt><trkpt lat="40.749072986498945" lon="17.519983600764757"><ele>171.0</ele><time>2026-05-03T08:23:55Z</time></trkpt><trkpt lat="40.74900768525975" lon="17.519955719681793"><ele>170.99999999999997</ele><time>2026-05-03T08:23:56.999Z</time></trkpt><trkpt lat="40.74894306355113" lon="17.51992634436439"><ele>171.0</ele><time>2026-05-03T08:23:58.999Z</time></trkpt><trkpt lat="40.748868700439964" lon="17.519886342468688"><ele>171.0</ele><time>2026-05-03T08:24:00.999Z</time></trkpt><trkpt lat="40.74879791740969" lon="17.51985961913246"><ele>171.0</ele><time>2026-05-03T08:24:02.999Z</time></trkpt><trkpt lat="40.748732746697236" lon="17.51983212623655"><ele>171.0</ele><time>2026-05-03T08:24:04.999Z</time></trkpt><trkpt lat="40.748651865826076" lon="17.519792543513397"><ele>170.99999999999997</ele><time>2026-05-03T08:24:06.999Z</time></trkpt><trkpt lat="40.74858399223676" lon="17.519767064640643"><ele>171.0</ele><time>2026-05-03T08:24:08.999Z</time></trkpt><trkpt lat="40.748532147154215" lon="17.519690680051745"><ele>170.83333333333334</ele><time>2026-05-03T08:24:10.999Z</time></trkpt><trkpt lat="40.748464975676264" lon="17.51959518777473"><ele>170.66666666666666</ele><time>2026-05-03T08:24:12.999Z</time></trkpt><trkpt lat="40.74841295520912" lon="17.519524127167347"><ele>170.5</ele><time>2026-05-03T08:24:13.999Z</time></trkpt><trkpt lat="40.74835276912732" lon="17.519462373295298"><ele>170.33333333333331</ele><time>2026-05-03T08:24:15.999Z</time></trkpt><trkpt lat="40.74827899257056" lon="17.519378519823903"><ele>170.16666666666666</ele><time>2026-05-03T08:24:17.999Z</time></trkpt><trkpt lat="40.74821115628025" lon="17.519298646089"><ele>170.0</ele><time>2026-05-03T08:24:19.999Z</time></trkpt><trkpt lat="40.74814253215553" lon="17.519233788201344"><ele>170.0</ele><time>2026-05-03T08:24:21.999Z</time></trkpt><trkpt lat="40.748085551266925" lon="17.519175114546375"><ele>170.0</ele><time>2026-05-03T08:24:23.999Z</time></trkpt><trkpt lat="40.74805159067861" lon="17.51910363184909"><ele>170.0</ele><time>2026-05-03T08:24:25.999Z</time></trkpt><trkpt lat="40.74801809158258" lon="17.518993998486636"><ele>170.0</ele><time>2026-05-03T08:24:27.999Z</time></trkpt><trkpt lat="40.7479739907556" lon="17.518881117208977"><ele>170.0</ele><time>2026-05-03T08:24:29.999Z</time></trkpt><trkpt lat="40.747908804635856" lon="17.518778313158233"><ele>170.0</ele><time>2026-05-03T08:24:31.999Z</time></trkpt><trkpt lat="40.74784032583028" lon="17.518707399818645"><ele>169.66666666666666</ele><time>2026-05-03T08:24:33.999Z</time></trkpt><trkpt lat="40.74777439201904" lon="17.51862295021629"><ele>169.33333333333331</ele><time>2026-05-03T08:24:35.999Z</time></trkpt><trkpt lat="40.74767684625514" lon="17.518581029785043"><ele>169.0</ele><time>2026-05-03T08:24:37.999Z</time></trkpt><trkpt lat="40.747594210487414" lon="17.51854071701868"><ele>168.66666666666666</ele><time>2026-05-03T08:24:39.999Z</time></trkpt><trkpt lat="40.74752034746939" lon="17.518541811727417"><ele>168.33333333333334</ele><time>2026-05-03T08:24:41.999Z</time></trkpt><trkpt lat="40.74746615428698" lon="17.51848936450453"><ele>168.0</ele><time>2026-05-03T08:24:43.999Z</time></trkpt><trkpt lat="40.7474467641657" lon="17.51840267487709"><ele>168.0</ele><time>2026-05-03T08:24:45.999Z</time></trkpt><trkpt lat="40.74742902849578" lon="17.518321144709923"><ele>168.0</ele><time>2026-05-03T08:24:47.999Z</time></trkpt><trkpt lat="40.74742482900938" lon="17.518225960289886"><ele>168.0</ele><time>2026-05-03T08:24:49.999Z</time></trkpt><trkpt lat="40.74736352378462" lon="17.518116739626688"><ele>168.0</ele><time>2026-05-03T08:24:52.999Z</time></trkpt><trkpt lat="40.74728424763412" lon="17.51802499906348"><ele>168.0</ele><time>2026-05-03T08:24:54.999Z</time></trkpt><trkpt lat="40.74722853774177" lon="17.517928376152312"><ele>168.0</ele><time>2026-05-03T08:24:56.998Z</time></trkpt><trkpt lat="40.74714267638814" lon="17.517849150893767"><ele>166.16666666666666</ele><time>2026-05-03T08:24:58.998Z</time></trkpt><trkpt lat="40.747067752418154" lon="17.517791840984252"><ele>164.33333333333334</ele><time>2026-05-03T08:25:00.998Z</time></trkpt><trkpt lat="40.747098028764384" lon="17.5176851616476"><ele>162.5</ele><time>2026-05-03T08:25:02.998Z</time></trkpt><trkpt lat="40.74709974836511" lon="17.51757828885946"><ele>160.66666666666669</ele><time>2026-05-03T08:25:05.998Z</time></trkpt><trkpt lat="40.74706956364781" lon="17.5174623755254"><ele>158.83333333333334</ele><time>2026-05-03T08:25:07.998Z</time></trkpt><trkpt lat="40.74704258111566" lon="17.51736442166468"><ele>157.0</ele><time>2026-05-03T08:25:09.998Z</time></trkpt><trkpt lat="40.74700795295151" lon="17.51729245686575"><ele>157.0</ele><time>2026-05-03T08:25:11.998Z</time></trkpt><trkpt lat="40.74694563506347" lon="17.517207143570847"><ele>157.0</ele><time>2026-05-03T08:25:13.998Z</time></trkpt><trkpt lat="40.746871692914475" lon="17.51721473688599"><ele>157.0</ele><time>2026-05-03T08:25:16Z</time></trkpt><trkpt lat="40.74682580344644" lon="17.517282021175504"><ele>157.0</ele><time>2026-05-03T08:25:18Z</time></trkpt><trkpt lat="40.74677481893596" lon="17.517337449935415"><ele>157.0</ele><time>2026-05-03T08:25:21Z</time></trkpt><trkpt lat="40.7467184960785" lon="17.517286473999608"><ele>157.0</ele><time>2026-05-03T08:25:23Z</time></trkpt><trkpt lat="40.74664394560065" lon="17.517205285675587"><ele>158.0</ele><time>2026-05-03T08:25:25Z</time></trkpt><trkpt lat="40.74657319399142" lon="17.517122564347087"><ele>159.0</ele><time>2026-05-03T08:25:27Z</time></trkpt><trkpt lat="40.74650959278357" lon="17.51704897826819"><ele>160.0</ele><time>2026-05-03T08:25:29Z</time></trkpt><trkpt lat="40.746442094704854" lon="17.5169922236827"><ele>161.0</ele><time>2026-05-03T08:25:31Z</time></trkpt><trkpt lat="40.74638985181383" lon="17.516923421760794"><ele>162.0</ele><time>2026-05-03T08:25:33Z</time></trkpt><trkpt lat="40.746332037779794" lon="17.51685464392102"><ele>163.0</ele><time>2026-05-03T08:25:35Z</time></trkpt><trkpt lat="40.746266328109066" lon="17.516786380594787"><ele>163.0</ele><time>2026-05-03T08:25:37Z</time></trkpt><trkpt lat="40.74621539363977" lon="17.516703444480935"><ele>163.0</ele><time>2026-05-03T08:25:39Z</time></trkpt><trkpt lat="40.74616863387209" lon="17.516633009678085"><ele>163.0</ele><time>2026-05-03T08:25:41Z</time></trkpt><trkpt lat="40.74611176866314" lon="17.516546297539826"><ele>163.0</ele><time>2026-05-03T08:25:43Z</time></trkpt><trkpt lat="40.74607437319486" lon="17.51646604070409"><ele>163.0</ele><time>2026-05-03T08:25:45Z</time></trkpt><trkpt lat="40.746080341919814" lon="17.516355892924157"><ele>163.0</ele><time>2026-05-03T08:25:47Z</time></trkpt><trkpt lat="40.74603230889279" lon="17.516269744656178"><ele>164.5</ele><time>2026-05-03T08:25:49Z</time></trkpt><trkpt lat="40.74599526535133" lon="17.516199956443746"><ele>166.0</ele><time>2026-05-03T08:25:52Z</time></trkpt><trkpt lat="40.74592973935369" lon="17.516173838028628"><ele>167.5</ele><time>2026-05-03T08:28:32.999Z</time></trkpt><trkpt lat="40.74586672478838" lon="17.516064231751226"><ele>169.0</ele><time>2026-05-03T08:28:35.999Z</time></trkpt><trkpt lat="40.74580068088241" lon="17.51599144331604"><ele>170.5</ele><time>2026-05-03T08:28:37.999Z</time></trkpt><trkpt lat="40.74573205117428" lon="17.515932172995782"><ele>172.0</ele><time>2026-05-03T08:28:40.999Z</time></trkpt><trkpt lat="40.74569649997204" lon="17.515858088570145"><ele>172.00000000000003</ele><time>2026-05-03T08:28:42.999Z</time></trkpt><trkpt lat="40.74562557838232" lon="17.515806210568357"><ele>172.0</ele><time>2026-05-03T08:28:45.999Z</time></trkpt><trkpt lat="40.74558666503128" lon="17.51572048480655"><ele>172.0</ele><time>2026-05-03T08:28:48.999Z</time></trkpt><trkpt lat="40.745530013809116" lon="17.51567125881998"><ele>172.0</ele><time>2026-05-03T08:28:50.999Z</time></trkpt><trkpt lat="40.74547520243642" lon="17.515628219036493"><ele>172.0</ele><time>2026-05-03T08:28:52.999Z</time></trkpt><trkpt lat="40.745398801149854" lon="17.515605689315635"><ele>172.00000000000003</ele><time>2026-05-03T08:28:55.999Z</time></trkpt><trkpt lat="40.745324170649525" lon="17.515628510107344"><ele>172.0</ele><time>2026-05-03T08:28:58.999Z</time></trkpt><trkpt lat="40.7452461091925" lon="17.515627847281248"><ele>173.71428571428572</ele><time>2026-05-03T08:29:01.998Z</time></trkpt><trkpt lat="40.745182144902046" lon="17.515587463732214"><ele>175.42857142857144</ele><time>2026-05-03T08:29:03.998Z</time></trkpt><trkpt lat="40.74513181653758" lon="17.515483189705407"><ele>177.14285714285717</ele><time>2026-05-03T08:29:06.998Z</time></trkpt><trkpt lat="40.745067765048" lon="17.515503485206523"><ele>178.85714285714286</ele><time>2026-05-03T08:29:15.998Z</time></trkpt><trkpt lat="40.74503118270773" lon="17.51559007400138"><ele>180.57142857142856</ele><time>2026-05-03T08:29:18.998Z</time></trkpt><trkpt lat="40.744960558705905" lon="17.515595163956874"><ele>182.2857142857143</ele><time>2026-05-03T08:29:22.998Z</time></trkpt><trkpt lat="40.744893581156724" lon="17.515613627706443"><ele>184.0</ele><time>2026-05-03T08:29:25.998Z</time></trkpt><trkpt lat="40.74483050513479" lon="17.515645622945865"><ele>184.0</ele><time>2026-05-03T08:29:29Z</time></trkpt><trkpt lat="40.74475251350168" lon="17.51566670520966"><ele>184.0</ele><time>2026-05-03T08:29:32Z</time></trkpt><trkpt lat="40.74468616919562" lon="17.515678696058252"><ele>184.0</ele><time>2026-05-03T08:29:35Z</time></trkpt><trkpt lat="40.74460932435239" lon="17.51568154164866"><ele>184.0</ele><time>2026-05-03T08:29:38Z</time></trkpt><trkpt lat="40.74452737650515" lon="17.515708593598"><ele>184.0</ele><time>2026-05-03T08:29:41Z</time></trkpt><trkpt lat="40.74445235835376" lon="17.51574579882537"><ele>184.0</ele><time>2026-05-03T08:29:44Z</time></trkpt><trkpt lat="40.74437125590781" lon="17.515729686227438"><ele>186.5</ele><time>2026-05-03T08:29:47Z</time></trkpt><trkpt lat="40.74428728131733" lon="17.515745700864777"><ele>189.0</ele><time>2026-05-03T08:29:50Z</time></trkpt><trkpt lat="40.74419733892283" lon="17.515752688690142"><ele>191.5</ele><time>2026-05-03T08:29:53Z</time></trkpt><trkpt lat="40.744141230587495" lon="17.515818082394105"><ele>194.0</ele><time>2026-05-03T08:29:56Z</time></trkpt><trkpt lat="40.7440993291339" lon="17.51589092196779"><ele>196.49999999999997</ele><time>2026-05-03T08:29:58.999Z</time></trkpt><trkpt lat="40.744099569027064" lon="17.51597952911"><ele>199.0</ele><time>2026-05-03T08:35:55Z</time></trkpt><trkpt lat="40.74409006133956" lon="17.515896005039796"><ele>199.0</ele><time>2026-05-03T08:36:03Z</time></trkpt><trkpt lat="40.74413173695297" lon="17.515825992050654"><ele>199.0</ele><time>2026-05-03T08:38:42.999Z</time></trkpt><trkpt lat="40.744232436957766" lon="17.515735726327797"><ele>199.0</ele><time>2026-05-03T08:38:44.999Z</time></trkpt><trkpt lat="40.74434061169774" lon="17.515748068572623"><ele>199.0</ele><time>2026-05-03T08:38:46.999Z</time></trkpt><trkpt lat="40.74448184285845" lon="17.515738394232734"><ele>199.0</ele><time>2026-05-03T08:38:50.999Z</time></trkpt><trkpt lat="40.74456361652864" lon="17.515707695065316"><ele>196.0</ele><time>2026-05-03T08:38:52.999Z</time></trkpt><trkpt lat="40.744624168582675" lon="17.515680297523136"><ele>193.0</ele><time>2026-05-03T08:38:53.999Z</time></trkpt><trkpt lat="40.744718016687536" lon="17.51567562135487"><ele>190.0</ele><time>2026-05-03T08:38:55.999Z</time></trkpt><trkpt lat="40.74483231300857" lon="17.515643016443217"><ele>187.0</ele><time>2026-05-03T08:38:57.999Z</time></trkpt><trkpt lat="40.74493734128108" lon="17.51559617452741"><ele>184.0</ele><time>2026-05-03T08:38:59.999Z</time></trkpt><trkpt lat="40.745007006747585" lon="17.515573041339152"><ele>184.0</ele><time>2026-05-03T08:39:03.999Z</time></trkpt><trkpt lat="40.745062092264504" lon="17.51549298823269"><ele>184.0</ele><time>2026-05-03T08:39:06.999Z</time></trkpt><trkpt lat="40.745119461382565" lon="17.515444095129148"><ele>184.0</ele><time>2026-05-03T08:39:19.999Z</time></trkpt><trkpt lat="40.74515929361358" lon="17.515535457712282"><ele>184.0</ele><time>2026-05-03T08:39:22.999Z</time></trkpt><trkpt lat="40.74522799258239" lon="17.51561136792893"><ele>184.0</ele><time>2026-05-03T08:39:25.999Z</time></trkpt><trkpt lat="40.74531928892118" lon="17.51564360998373"><ele>184.0</ele><time>2026-05-03T08:39:27.999Z</time></trkpt><trkpt lat="40.74538318352692" lon="17.51561594714464"><ele>182.0</ele><time>2026-05-03T08:39:29.999Z</time></trkpt><trkpt lat="40.74550301188075" lon="17.515632688227253"><ele>180.0</ele><time>2026-05-03T08:39:31.999Z</time></trkpt><trkpt lat="40.74555865686278" lon="17.515680743762047"><ele>178.0</ele><time>2026-05-03T08:39:32.999Z</time></trkpt><trkpt lat="40.74562494104638" lon="17.515740732389027"><ele>176.0</ele><time>2026-05-03T08:39:33.999Z</time></trkpt><trkpt lat="40.74567373911417" lon="17.51580847389658"><ele>174.0</ele><time>2026-05-03T08:39:34.999Z</time></trkpt><trkpt lat="40.745725505763914" lon="17.51587452884184"><ele>172.0</ele><time>2026-05-03T08:39:35.999Z</time></trkpt><trkpt lat="40.745811396896976" lon="17.515996209436018"><ele>172.0</ele><time>2026-05-03T08:39:37.999Z</time></trkpt><trkpt lat="40.74586094662032" lon="17.51605183437673"><ele>172.0</ele><time>2026-05-03T08:39:38.999Z</time></trkpt><trkpt lat="40.74594497801215" lon="17.516181814944197"><ele>172.0</ele><time>2026-05-03T08:39:40.999Z</time></trkpt><trkpt lat="40.745979222193064" lon="17.51625363714513"><ele>172.0</ele><time>2026-05-03T08:39:41.999Z</time></trkpt><trkpt lat="40.745995905408066" lon="17.516165991816223"><ele>172.0</ele><time>2026-05-03T08:40:11Z</time></trkpt><trkpt lat="40.746045170128994" lon="17.516105507831764"><ele>172.0</ele><time>2026-05-03T08:40:13Z</time></trkpt><trkpt lat="40.74604778616162" lon="17.515992648929316"><ele>172.0</ele><time>2026-05-03T08:40:16Z</time></trkpt><trkpt lat="40.74600486752185" lon="17.515930657307937"><ele>172.0</ele><time>2026-05-03T08:40:18Z</time></trkpt><trkpt lat="40.74596856891139" lon="17.515825348644157"><ele>172.0</ele><time>2026-05-03T08:40:20Z</time></trkpt><trkpt lat="40.74592242071452" lon="17.515734213493154"><ele>172.0</ele><time>2026-05-03T08:40:22Z</time></trkpt><trkpt lat="40.74582554780334" lon="17.51570720654636"><ele>172.0</ele><time>2026-05-03T08:40:25Z</time></trkpt><trkpt lat="40.74573491915098" lon="17.51574336881238"><ele>172.0</ele><time>2026-05-03T08:40:27Z</time></trkpt><trkpt lat="40.74564229146379" lon="17.515672653303582"><ele>172.0</ele><time>2026-05-03T08:40:30Z</time></trkpt><trkpt lat="40.7455906156362" lon="17.515602303784636"><ele>172.0</ele><time>2026-05-03T08:40:32Z</time></trkpt><trkpt lat="40.745642905734826" lon="17.51548945559824"><ele>172.0</ele><time>2026-05-03T08:40:34Z</time></trkpt><trkpt lat="40.745721197122094" lon="17.51540201148021"><ele>172.0</ele><time>2026-05-03T08:40:36Z</time></trkpt><trkpt lat="40.74578268291775" lon="17.515308887110454"><ele>172.0</ele><time>2026-05-03T08:40:38Z</time></trkpt><trkpt lat="40.74582779778166" lon="17.515209860843793"><ele>172.39999999999998</ele><time>2026-05-03T08:40:42Z</time></trkpt><trkpt lat="40.745909711950965" lon="17.51510357058619"><ele>172.79999999999998</ele><time>2026-05-03T08:40:43.999Z</time></trkpt><trkpt lat="40.74598426551695" lon="17.515101484903248"><ele>173.2</ele><time>2026-05-03T08:40:44.999Z</time></trkpt><trkpt lat="40.746051926093756" lon="17.514985171640838"><ele>173.6</ele><time>2026-05-03T08:40:47.999Z</time></trkpt><trkpt lat="40.746104275672394" lon="17.514865604039937"><ele>174.0</ele><time>2026-05-03T08:40:49.999Z</time></trkpt><trkpt lat="40.74615324167571" lon="17.514805700580027"><ele>172.83333333333334</ele><time>2026-05-03T08:40:51.999Z</time></trkpt><trkpt lat="40.74619544990546" lon="17.514704220953956"><ele>171.66666666666666</ele><time>2026-05-03T08:40:53.999Z</time></trkpt><trkpt lat="40.746238307346616" lon="17.51462625946833"><ele>170.5</ele><time>2026-05-03T08:40:54.999Z</time></trkpt><trkpt lat="40.74629700798882" lon="17.514527832406785"><ele>169.33333333333331</ele><time>2026-05-03T08:40:56.999Z</time></trkpt><trkpt lat="40.74634842120048" lon="17.5144646125295"><ele>168.16666666666666</ele><time>2026-05-03T08:40:59.999Z</time></trkpt><trkpt lat="40.74639896623041" lon="17.514545066377252"><ele>167.0</ele><time>2026-05-03T08:41:01.999Z</time></trkpt><trkpt lat="40.74645951379658" lon="17.51458086984047"><ele>166.33333333333331</ele><time>2026-05-03T08:41:03.999Z</time></trkpt><trkpt lat="40.74650852050098" lon="17.514634353324734"><ele>165.66666666666666</ele><time>2026-05-03T08:41:05.999Z</time></trkpt><trkpt lat="40.74659556015001" lon="17.514686243340066"><ele>165.0</ele><time>2026-05-03T08:41:07.999Z</time></trkpt><trkpt lat="40.74667725536774" lon="17.514745326943718"><ele>164.33333333333334</ele><time>2026-05-03T08:41:09.999Z</time></trkpt><trkpt lat="40.746763441408284" lon="17.51470118189829"><ele>163.66666666666669</ele><time>2026-05-03T08:41:11.999Z</time></trkpt><trkpt lat="40.74682878912258" lon="17.514668977637232"><ele>163.0</ele><time>2026-05-03T08:41:12.999Z</time></trkpt><trkpt lat="40.74691089046521" lon="17.51470358909151"><ele>160.8</ele><time>2026-05-03T08:41:14.999Z</time></trkpt><trkpt lat="40.74694387939804" lon="17.51477448134566"><ele>158.60000000000002</ele><time>2026-05-03T08:41:16.999Z</time></trkpt><trkpt lat="40.7470153759712" lon="17.51484940792213"><ele>156.39999999999998</ele><time>2026-05-03T08:41:19.999Z</time></trkpt><trkpt lat="40.74710793919561" lon="17.5147631057382"><ele>154.2</ele><time>2026-05-03T08:41:22.999Z</time></trkpt><trkpt lat="40.747181246038515" lon="17.5146708268727"><ele>152.0</ele><time>2026-05-03T08:41:24.999Z</time></trkpt><trkpt lat="40.74725467917541" lon="17.51459086957388"><ele>152.33333333333331</ele><time>2026-05-03T08:41:26.999Z</time></trkpt><trkpt lat="40.74732487677189" lon="17.514510541924643"><ele>152.66666666666666</ele><time>2026-05-03T08:41:28.999Z</time></trkpt><trkpt lat="40.74737484753183" lon="17.51442447396624"><ele>153.0</ele><time>2026-05-03T08:41:30.999Z</time></trkpt><trkpt lat="40.7474157408355" lon="17.514350900558323"><ele>153.33333333333334</ele><time>2026-05-03T08:41:32.999Z</time></trkpt><trkpt lat="40.74749813829097" lon="17.514396849882395"><ele>153.66666666666669</ele><time>2026-05-03T08:41:34.999Z</time></trkpt><trkpt lat="40.74756702829347" lon="17.514440738823772"><ele>154.0</ele><time>2026-05-03T08:41:36.999Z</time></trkpt><trkpt lat="40.747642282890794" lon="17.514443534384142"><ele>151.8</ele><time>2026-05-03T08:41:39.999Z</time></trkpt><trkpt lat="40.74771998381878" lon="17.5144110531425"><ele>149.60000000000002</ele><time>2026-05-03T08:41:41.999Z</time></trkpt><trkpt lat="40.7477712723731" lon="17.51428273968379"><ele>147.4</ele><time>2026-05-03T08:41:43.999Z</time></trkpt><trkpt lat="40.74780437317354" lon="17.514157286032685"><ele>145.20000000000002</ele><time>2026-05-03T08:41:45.998Z</time></trkpt><trkpt lat="40.74781398541781" lon="17.514013760126712"><ele>143.0</ele><time>2026-05-03T08:41:47.998Z</time></trkpt><trkpt lat="40.74778060237635" lon="17.51392463977618"><ele>143.0</ele><time>2026-05-03T08:41:49.998Z</time></trkpt><trkpt lat="40.74780209949263" lon="17.51381349392645"><ele>143.0</ele><time>2026-05-03T08:41:52.998Z</time></trkpt><trkpt lat="40.747840395746664" lon="17.51369073661481"><ele>143.0</ele><time>2026-05-03T08:41:54.998Z</time></trkpt><trkpt lat="40.747873817729875" lon="17.513576726922654"><ele>143.0</ele><time>2026-05-03T08:41:56.998Z</time></trkpt><trkpt lat="40.74790167106214" lon="17.513495706127728"><ele>143.0</ele><time>2026-05-03T08:41:57.998Z</time></trkpt><trkpt lat="40.74792630668131" lon="17.513414131429332"><ele>143.0</ele><time>2026-05-03T08:41:58.998Z</time></trkpt><trkpt lat="40.7479540453304" lon="17.51332527245721"><ele>143.20000000000002</ele><time>2026-05-03T08:41:59.998Z</time></trkpt><trkpt lat="40.747962955433145" lon="17.513235695217766"><ele>143.4</ele><time>2026-05-03T08:42:00.998Z</time></trkpt><trkpt lat="40.747956027009366" lon="17.513099166930427"><ele>143.60000000000002</ele><time>2026-05-03T08:42:03Z</time></trkpt><trkpt lat="40.74794592673004" lon="17.51295296656964"><ele>143.8</ele><time>2026-05-03T08:42:05Z</time></trkpt><trkpt lat="40.74795677559248" lon="17.512825113657986"><ele>144.0</ele><time>2026-05-03T08:42:07Z</time></trkpt><trkpt lat="40.747944082821014" lon="17.51270076294756"><ele>144.0</ele><time>2026-05-03T08:42:09Z</time></trkpt><trkpt lat="40.74796071400831" lon="17.512606054966138"><ele>144.0</ele><time>2026-05-03T08:42:11Z</time></trkpt><trkpt lat="40.747987124391" lon="17.51251932864956"><ele>144.0</ele><time>2026-05-03T08:42:13Z</time></trkpt><trkpt lat="40.74796172821031" lon="17.512405857336756"><ele>144.0</ele><time>2026-05-03T08:42:16Z</time></trkpt><trkpt lat="40.74797769666362" lon="17.512312322603112"><ele>144.0</ele><time>2026-05-03T08:42:18Z</time></trkpt><trkpt lat="40.74795354614364" lon="17.51222513332244"><ele>144.0</ele><time>2026-05-03T08:42:20Z</time></trkpt><trkpt lat="40.747933693424095" lon="17.512125706038972"><ele>144.0</ele><time>2026-05-03T08:42:22Z</time></trkpt><trkpt lat="40.74786892869658" lon="17.51201460720885"><ele>144.0</ele><time>2026-05-03T08:42:24Z</time></trkpt><trkpt lat="40.74779617016802" lon="17.511932634369852"><ele>144.0</ele><time>2026-05-03T08:42:26Z</time></trkpt><trkpt lat="40.74771056150939" lon="17.511794331604285"><ele>144.0</ele><time>2026-05-03T08:42:28Z</time></trkpt><trkpt lat="40.74764221442726" lon="17.511663346626648"><ele>145.2</ele><time>2026-05-03T08:42:30Z</time></trkpt><trkpt lat="40.74761017114007" lon="17.51154611733554"><ele>146.4</ele><time>2026-05-03T08:42:32Z</time></trkpt><trkpt lat="40.74756968195602" lon="17.511454157768465"><ele>147.6</ele><time>2026-05-03T08:42:34Z</time></trkpt><trkpt lat="40.747518401451394" lon="17.51132728030552"><ele>148.8</ele><time>2026-05-03T08:42:36Z</time></trkpt><trkpt lat="40.74747360621837" lon="17.511180827832693"><ele>150.0</ele><time>2026-05-03T08:42:38Z</time></trkpt><trkpt lat="40.74745623551057" lon="17.51109538046384"><ele>150.16666666666666</ele><time>2026-05-03T08:42:39Z</time></trkpt><trkpt lat="40.74744424630961" lon="17.511013490579913"><ele>150.33333333333334</ele><time>2026-05-03T08:42:40Z</time></trkpt><trkpt lat="40.74742633836872" lon="17.51092625513504"><ele>150.5</ele><time>2026-05-03T08:42:41Z</time></trkpt><trkpt lat="40.747403391332504" lon="17.51081538616544"><ele>150.66666666666669</ele><time>2026-05-03T08:42:43Z</time></trkpt><trkpt lat="40.74741740687066" lon="17.510695457918796"><ele>150.83333333333334</ele><time>2026-05-03T08:42:45Z</time></trkpt><trkpt lat="40.74741896208761" lon="17.510572451193593"><ele>151.0</ele><time>2026-05-03T08:42:46.999Z</time></trkpt><trkpt lat="40.747447412412484" lon="17.510480680161283"><ele>150.5</ele><time>2026-05-03T08:42:48.999Z</time></trkpt><trkpt lat="40.747462612774264" lon="17.51038122879797"><ele>150.0</ele><time>2026-05-03T08:42:50.999Z</time></trkpt><trkpt lat="40.747514716875415" lon="17.510292059645856"><ele>149.5</ele><time>2026-05-03T08:42:52.999Z</time></trkpt><trkpt lat="40.74751981014311" lon="17.51018995399124"><ele>149.0</ele><time>2026-05-03T08:42:54.999Z</time></trkpt><trkpt lat="40.74747190824673" lon="17.510057091386848"><ele>148.5</ele><time>2026-05-03T08:42:56.999Z</time></trkpt><trkpt lat="40.74748085629697" lon="17.50996550455997"><ele>148.0</ele><time>2026-05-03T08:42:59.999Z</time></trkpt><trkpt lat="40.74742969247593" lon="17.50979867401706"><ele>148.0</ele><time>2026-05-03T08:43:02.999Z</time></trkpt><trkpt lat="40.74743600069989" lon="17.509697531522768"><ele>148.0</ele><time>2026-05-03T08:43:05.999Z</time></trkpt><trkpt lat="40.747504396764896" lon="17.50969509960561"><ele>148.0</ele><time>2026-05-03T08:43:08.999Z</time></trkpt><trkpt lat="40.74756266136037" lon="17.50974225859227"><ele>148.0</ele><time>2026-05-03T08:43:10.999Z</time></trkpt><trkpt lat="40.7476361734541" lon="17.509741535602043"><ele>148.0</ele><time>2026-05-03T08:43:11.999Z</time></trkpt><trkpt lat="40.74773079106804" lon="17.509686802270327"><ele>148.0</ele><time>2026-05-03T08:43:14.999Z</time></trkpt><trkpt lat="40.747781118195896" lon="17.50962035307974"><ele>146.0</ele><time>2026-05-03T08:43:16.999Z</time></trkpt><trkpt lat="40.74782462568744" lon="17.509523915246017"><ele>144.0</ele><time>2026-05-03T08:43:19.999Z</time></trkpt><trkpt lat="40.74786945166816" lon="17.50941097666578"><ele>142.0</ele><time>2026-05-03T08:43:21.999Z</time></trkpt><trkpt lat="40.748012931936515" lon="17.509111506728264"><ele>142.0</ele><time>2026-05-03T08:43:23.999Z</time></trkpt><trkpt lat="40.748043006494214" lon="17.50898549577746"><ele>142.0</ele><time>2026-05-03T08:43:25.999Z</time></trkpt><trkpt lat="40.74804878601169" lon="17.508890196114216"><ele>142.0</ele><time>2026-05-03T08:43:28.999Z</time></trkpt><trkpt lat="40.74807017554157" lon="17.5087852312037"><ele>142.0</ele><time>2026-05-03T08:43:30.999Z</time></trkpt><trkpt lat="40.74808447260531" lon="17.50870391881228"><ele>142.0</ele><time>2026-05-03T08:43:32.999Z</time></trkpt><trkpt lat="40.74808453438331" lon="17.5086123483984"><ele>142.0</ele><time>2026-05-03T08:43:35.999Z</time></trkpt><trkpt lat="40.748127867957834" lon="17.508545068618986"><ele>143.66666666666669</ele><time>2026-05-03T08:43:38.999Z</time></trkpt><trkpt lat="40.74818275898585" lon="17.508497328045546"><ele>145.33333333333334</ele><time>2026-05-03T08:43:40.999Z</time></trkpt><trkpt lat="40.748135157485684" lon="17.508409273627294"><ele>147.0</ele><time>2026-05-03T08:43:43.999Z</time></trkpt><trkpt lat="40.74818807178999" lon="17.50833873075905"><ele>148.66666666666666</ele><time>2026-05-03T08:43:46.999Z</time></trkpt><trkpt lat="40.74825694583861" lon="17.50824538734914"><ele>150.33333333333331</ele><time>2026-05-03T08:43:50.998Z</time></trkpt><trkpt lat="40.748328450622395" lon="17.508205079502005"><ele>152.0</ele><time>2026-05-03T08:43:52.998Z</time></trkpt><trkpt lat="40.748406936075206" lon="17.508168377843177"><ele>152.0</ele><time>2026-05-03T08:43:55.998Z</time></trkpt><trkpt lat="40.748467992302054" lon="17.508099719819988"><ele>152.0</ele><time>2026-05-03T08:43:59.998Z</time></trkpt><trkpt lat="40.74856126245395" lon="17.508015531833202"><ele>152.0</ele><time>2026-05-03T08:44:02.998Z</time></trkpt><trkpt lat="40.748623473559135" lon="17.507962793381623"><ele>152.0</ele><time>2026-05-03T08:44:04.998Z</time></trkpt><trkpt lat="40.74870741226759" lon="17.507926588456495"><ele>152.0</ele><time>2026-05-03T08:44:06.998Z</time></trkpt><trkpt lat="40.74876177128756" lon="17.507873738425477"><ele>152.0</ele><time>2026-05-03T08:44:10Z</time></trkpt><trkpt lat="40.74883080029695" lon="17.50783537934091"><ele>151.6</ele><time>2026-05-03T08:44:13Z</time></trkpt><trkpt lat="40.748888435609786" lon="17.50774877603661"><ele>151.2</ele><time>2026-05-03T08:45:27.999Z</time></trkpt><trkpt lat="40.74894373713065" lon="17.50762670246765"><ele>150.8</ele><time>2026-05-03T08:45:29.999Z</time></trkpt><trkpt lat="40.748978911095655" lon="17.50748006009349"><ele>150.4</ele><time>2026-05-03T08:45:31.999Z</time></trkpt><trkpt lat="40.7489990688377" lon="17.50738860351737"><ele>150.0</ele><time>2026-05-03T08:45:32.999Z</time></trkpt><trkpt lat="40.74900254184428" lon="17.507296809588357"><ele>150.0</ele><time>2026-05-03T08:45:33.999Z</time></trkpt><trkpt lat="40.74899008561688" lon="17.50712042844372"><ele>150.0</ele><time>2026-05-03T08:45:35.999Z</time></trkpt><trkpt lat="40.7489910637485" lon="17.507033941387473"><ele>150.0</ele><time>2026-05-03T08:45:36.999Z</time></trkpt><trkpt lat="40.748991711871156" lon="17.506935298478933"><ele>150.0</ele><time>2026-05-03T08:45:37.999Z</time></trkpt><trkpt lat="40.74900223051208" lon="17.506849294798265"><ele>150.0</ele><time>2026-05-03T08:45:38.999Z</time></trkpt><trkpt lat="40.74899963054924" lon="17.506747642688236"><ele>150.0</ele><time>2026-05-03T08:45:39.999Z</time></trkpt><trkpt lat="40.74901036371979" lon="17.506601661294013"><ele>150.5</ele><time>2026-05-03T08:45:41.999Z</time></trkpt><trkpt lat="40.74900785075221" lon="17.506463729649933"><ele>151.0</ele><time>2026-05-03T08:45:43.999Z</time></trkpt><trkpt lat="40.74898529715218" lon="17.506373666305876"><ele>151.5</ele><time>2026-05-03T08:45:45.999Z</time></trkpt><trkpt lat="40.74893453727767" lon="17.506281548132684"><ele>152.0</ele><time>2026-05-03T08:45:47.999Z</time></trkpt><trkpt lat="40.74894323176743" lon="17.506133543874235"><ele>152.5</ele><time>2026-05-03T08:45:49.999Z</time></trkpt><trkpt lat="40.74895054122982" lon="17.50604047277427"><ele>153.0</ele><time>2026-05-03T08:45:50.999Z</time></trkpt><trkpt lat="40.748966849750595" lon="17.505908835087396"><ele>153.6</ele><time>2026-05-03T08:45:52.999Z</time></trkpt><trkpt lat="40.74896493445868" lon="17.505778638904655"><ele>154.20000000000002</ele><time>2026-05-03T08:45:54.998Z</time></trkpt><trkpt lat="40.74904529884982" lon="17.505831796400596"><ele>154.8</ele><time>2026-05-03T08:45:59.998Z</time></trkpt><trkpt lat="40.749158660671185" lon="17.505867820170685"><ele>155.4</ele><time>2026-05-03T08:46:01.998Z</time></trkpt><trkpt lat="40.74925932762535" lon="17.50591815526263"><ele>156.0</ele><time>2026-05-03T08:46:02.998Z</time></trkpt><trkpt lat="40.74932003251823" lon="17.50598558588894"><ele>156.0</ele><time>2026-05-03T08:46:03.998Z</time></trkpt><trkpt lat="40.749386384142284" lon="17.506083120103646"><ele>156.0</ele><time>2026-05-03T08:46:05.998Z</time></trkpt><trkpt lat="40.74934976712705" lon="17.506005557728443"><ele>156.0</ele><time>2026-05-03T08:46:13.998Z</time></trkpt><trkpt lat="40.749312572587144" lon="17.505910098390387"><ele>156.0</ele><time>2026-05-03T08:46:18Z</time></trkpt><trkpt lat="40.74930302677836" lon="17.505784785691457"><ele>156.0</ele><time>2026-05-03T08:46:20Z</time></trkpt><trkpt lat="40.74926155859477" lon="17.505673706284284"><ele>156.0</ele><time>2026-05-03T08:46:23Z</time></trkpt><trkpt lat="40.74921191420513" lon="17.505559372328566"><ele>156.0</ele><time>2026-05-03T08:46:25Z</time></trkpt><trkpt lat="40.74918288761443" lon="17.5054454830872"><ele>156.0</ele><time>2026-05-03T08:46:28Z</time></trkpt><trkpt lat="40.74913907292785" lon="17.50536068258385"><ele>156.0</ele><time>2026-05-03T08:46:30Z</time></trkpt><trkpt lat="40.74909605085517" lon="17.50527380824112"><ele>156.0</ele><time>2026-05-03T08:46:32Z</time></trkpt><trkpt lat="40.74904819920898" lon="17.505205791071038"><ele>156.0</ele><time>2026-05-03T08:46:34Z</time></trkpt><trkpt lat="40.748954724256855" lon="17.505146931160464"><ele>156.0</ele><time>2026-05-03T08:46:37Z</time></trkpt><trkpt lat="40.74887114216891" lon="17.505131189120576"><ele>156.71428571428572</ele><time>2026-05-03T08:46:39Z</time></trkpt><trkpt lat="40.74880287016431" lon="17.505150957969754"><ele>157.42857142857142</ele><time>2026-05-03T08:46:41Z</time></trkpt><trkpt lat="40.74873473137562" lon="17.505182989068906"><ele>158.14285714285714</ele><time>2026-05-03T08:46:43Z</time></trkpt><trkpt lat="40.74866558268956" lon="17.505148355825334"><ele>158.85714285714286</ele><time>2026-05-03T08:46:45Z</time></trkpt><trkpt lat="40.74860478058716" lon="17.50512565540795"><ele>159.57142857142856</ele><time>2026-05-03T08:46:47Z</time></trkpt><trkpt lat="40.748559881353714" lon="17.50506292419843"><ele>160.28571428571428</ele><time>2026-05-03T08:46:49Z</time></trkpt><trkpt lat="40.74854061828992" lon="17.504956000894122"><ele>161.0</ele><time>2026-05-03T08:46:51Z</time></trkpt><trkpt lat="40.748516032863186" lon="17.50485646362189"><ele>162.0</ele><time>2026-05-03T08:46:53Z</time></trkpt><trkpt lat="40.74848305916059" lon="17.50474874182918"><ele>163.0</ele><time>2026-05-03T08:46:55Z</time></trkpt><trkpt lat="40.74844130900963" lon="17.50466388403031"><ele>164.0</ele><time>2026-05-03T08:46:57Z</time></trkpt><trkpt lat="40.74841514809145" lon="17.50456816241162"><ele>165.0</ele><time>2026-05-03T08:46:59Z</time></trkpt><trkpt lat="40.74837504794804" lon="17.504437379383884"><ele>166.0</ele><time>2026-05-03T08:47:02Z</time></trkpt><trkpt lat="40.748342160394905" lon="17.504342589985356"><ele>167.0</ele><time>2026-05-03T08:47:04Z</time></trkpt><trkpt lat="40.74830931781707" lon="17.504209893423884"><ele>167.16666666666666</ele><time>2026-05-03T08:47:06.999Z</time></trkpt><trkpt lat="40.7482687158174" lon="17.504101441209095"><ele>167.33333333333331</ele><time>2026-05-03T08:47:08.999Z</time></trkpt><trkpt lat="40.74823372737017" lon="17.503995441831975"><ele>167.5</ele><time>2026-05-03T08:47:10.999Z</time></trkpt><trkpt lat="40.74817471443601" lon="17.503915445523944"><ele>167.66666666666666</ele><time>2026-05-03T08:47:12.999Z</time></trkpt><trkpt lat="40.74811535174143" lon="17.50385473887249"><ele>167.83333333333334</ele><time>2026-05-03T08:47:14.999Z</time></trkpt><trkpt lat="40.74803844501095" lon="17.50378981983684"><ele>168.0</ele><time>2026-05-03T08:47:16.999Z</time></trkpt><trkpt lat="40.74796042183877" lon="17.50372744904774"><ele>168.60000000000002</ele><time>2026-05-03T08:47:18.999Z</time></trkpt><trkpt lat="40.747884673527416" lon="17.503655876224013"><ele>169.20000000000002</ele><time>2026-05-03T08:47:20.999Z</time></trkpt><trkpt lat="40.74781324525592" lon="17.50358482716519"><ele>169.8</ele><time>2026-05-03T08:47:22.999Z</time></trkpt><trkpt lat="40.74773493359308" lon="17.503516433123497"><ele>170.4</ele><time>2026-05-03T08:47:24.999Z</time></trkpt><trkpt lat="40.74764970299367" lon="17.503462291219236"><ele>171.0</ele><time>2026-05-03T08:47:26.999Z</time></trkpt><trkpt lat="40.747582320359285" lon="17.503383468346744"><ele>172.16666666666666</ele><time>2026-05-03T08:47:28.999Z</time></trkpt><trkpt lat="40.747496874388226" lon="17.50332190906587"><ele>173.33333333333334</ele><time>2026-05-03T08:47:30.999Z</time></trkpt><trkpt lat="40.74740746568715" lon="17.503248367499882"><ele>174.5</ele><time>2026-05-03T08:47:32.999Z</time></trkpt><trkpt lat="40.747324732343024" lon="17.503195595309776"><ele>175.66666666666669</ele><time>2026-05-03T08:47:34.999Z</time></trkpt><trkpt lat="40.74727356123575" lon="17.503145331027667"><ele>176.83333333333334</ele><time>2026-05-03T08:47:36.999Z</time></trkpt><trkpt lat="40.74721417291508" lon="17.50309866568744"><ele>178.0</ele><time>2026-05-03T08:47:39.999Z</time></trkpt><trkpt lat="40.74720948657631" lon="17.502986587508964"><ele>178.83333333333334</ele><time>2026-05-03T08:47:42.999Z</time></trkpt><trkpt lat="40.747215166586805" lon="17.502889947877975"><ele>179.66666666666669</ele><time>2026-05-03T08:47:45.999Z</time></trkpt><trkpt lat="40.74726987092027" lon="17.502821944354398"><ele>180.5</ele><time>2026-05-03T08:47:48.999Z</time></trkpt><trkpt lat="40.7473394964266" lon="17.50273052972737"><ele>181.33333333333334</ele><time>2026-05-03T08:47:51.999Z</time></trkpt><trkpt lat="40.74739699857941" lon="17.502666338533746"><ele>182.16666666666666</ele><time>2026-05-03T08:47:53.999Z</time></trkpt><trkpt lat="40.74746451891543" lon="17.50260947956838"><ele>183.0</ele><time>2026-05-03T08:47:55.999Z</time></trkpt><trkpt lat="40.74753982670314" lon="17.50254479032067"><ele>183.0</ele><time>2026-05-03T08:47:58.999Z</time></trkpt><trkpt lat="40.74756411172973" lon="17.502466122879284"><ele>183.0</ele><time>2026-05-03T08:48:00.999Z</time></trkpt><trkpt lat="40.74760165233931" lon="17.50238345755828"><ele>183.0</ele><time>2026-05-03T08:48:02.999Z</time></trkpt><trkpt lat="40.74764309688407" lon="17.502308202118712"><ele>183.0</ele><time>2026-05-03T08:48:04.999Z</time></trkpt><trkpt lat="40.74771785370031" lon="17.502176500000665"><ele>183.0</ele><time>2026-05-03T08:48:06.998Z</time></trkpt><trkpt lat="40.74778718364976" lon="17.50204804068847"><ele>182.16666666666666</ele><time>2026-05-03T08:48:08.998Z</time></trkpt><trkpt lat="40.74784832182218" lon="17.501922133227477"><ele>181.33333333333334</ele><time>2026-05-03T08:48:10.998Z</time></trkpt><trkpt lat="40.74787275261528" lon="17.501844380312868"><ele>180.5</ele><time>2026-05-03T08:48:11.998Z</time></trkpt><trkpt lat="40.74789075331439" lon="17.5017604075247"><ele>179.66666666666669</ele><time>2026-05-03T08:48:12.998Z</time></trkpt><trkpt lat="40.747903319488934" lon="17.50163594080511"><ele>178.83333333333334</ele><time>2026-05-03T08:48:15.998Z</time></trkpt><trkpt lat="40.74794322403384" lon="17.501532037847706"><ele>178.0</ele><time>2026-05-03T08:48:17.998Z</time></trkpt><trkpt lat="40.74799627369939" lon="17.50142843750732"><ele>178.0</ele><time>2026-05-03T08:48:19.998Z</time></trkpt><trkpt lat="40.74801473784267" lon="17.50131560218185"><ele>178.0</ele><time>2026-05-03T08:48:22Z</time></trkpt><trkpt lat="40.74804321389926" lon="17.50118493911508"><ele>178.0</ele><time>2026-05-03T08:48:24Z</time></trkpt><trkpt lat="40.74809944227238" lon="17.501082881171424"><ele>178.0</ele><time>2026-05-03T08:48:26Z</time></trkpt><trkpt lat="40.748126989500264" lon="17.500964144992867"><ele>178.0</ele><time>2026-05-03T08:48:28Z</time></trkpt><trkpt lat="40.748186205098364" lon="17.500853546770525"><ele>179.2</ele><time>2026-05-03T08:48:30Z</time></trkpt><trkpt lat="40.74821215920277" lon="17.50076925399684"><ele>180.4</ele><time>2026-05-03T08:48:31Z</time></trkpt><trkpt lat="40.748243380591376" lon="17.500691053190163"><ele>181.6</ele><time>2026-05-03T08:48:32Z</time></trkpt><trkpt lat="40.74830001054385" lon="17.50055576945567"><ele>182.79999999999998</ele><time>2026-05-03T08:48:34Z</time></trkpt><trkpt lat="40.74838216855437" lon="17.500441414193286"><ele>184.0</ele><time>2026-05-03T08:48:36Z</time></trkpt><trkpt lat="40.748429512774635" lon="17.500338682125005"><ele>185.39999999999998</ele><time>2026-05-03T08:48:38Z</time></trkpt><trkpt lat="40.74847121533608" lon="17.50022677360124"><ele>186.8</ele><time>2026-05-03T08:48:40Z</time></trkpt><trkpt lat="40.74847805194931" lon="17.500087477988256"><ele>188.2</ele><time>2026-05-03T08:48:42Z</time></trkpt><trkpt lat="40.74845736230357" lon="17.49994233823091"><ele>189.60000000000002</ele><time>2026-05-03T08:48:44Z</time></trkpt><trkpt lat="40.74841946736822" lon="17.49982995188911"><ele>191.0</ele><time>2026-05-03T08:48:46Z</time></trkpt><trkpt lat="40.74840008940649" lon="17.49970285492481"><ele>191.0</ele><time>2026-05-03T08:48:48Z</time></trkpt><trkpt lat="40.74834300418876" lon="17.49958458314536"><ele>191.0</ele><time>2026-05-03T08:48:50Z</time></trkpt><trkpt lat="40.74824119897309" lon="17.499544575652692"><ele>191.0</ele><time>2026-05-03T08:48:52Z</time></trkpt><trkpt lat="40.74817332605362" lon="17.49945991398823"><ele>191.0</ele><time>2026-05-03T08:48:54Z</time></trkpt><trkpt lat="40.748134197795466" lon="17.499379300763803"><ele>191.0</ele><time>2026-05-03T08:48:56Z</time></trkpt><trkpt lat="40.74812396529477" lon="17.49929415054513"><ele>191.0</ele><time>2026-05-03T08:48:58Z</time></trkpt><trkpt lat="40.74813079269122" lon="17.499200974472757"><ele>192.0</ele><time>2026-05-03T08:49:01Z</time></trkpt><trkpt lat="40.748155581597665" lon="17.49911803257534"><ele>193.0</ele><time>2026-05-03T08:49:03Z</time></trkpt><trkpt lat="40.748211527083136" lon="17.49906001989658"><ele>194.0</ele><time>2026-05-03T08:49:06Z</time></trkpt><trkpt lat="40.74826056615203" lon="17.498956136811866"><ele>195.0</ele><time>2026-05-03T08:49:08.999Z</time></trkpt><trkpt lat="40.748318169738305" lon="17.498841499292308"><ele>196.00000000000003</ele><time>2026-05-03T08:49:10.999Z</time></trkpt><trkpt lat="40.748328452353654" lon="17.498738083684533"><ele>197.0</ele><time>2026-05-03T08:49:11.999Z</time></trkpt><trkpt lat="40.748333153259544" lon="17.49859274635864"><ele>198.16666666666669</ele><time>2026-05-03T08:49:13.999Z</time></trkpt><trkpt lat="40.74837329354843" lon="17.498475198563863"><ele>199.33333333333334</ele><time>2026-05-03T08:49:16.999Z</time></trkpt><trkpt lat="40.748367095312396" lon="17.49836825000833"><ele>200.5</ele><time>2026-05-03T08:49:18.999Z</time></trkpt><trkpt lat="40.74828260935524" lon="17.498298849588128"><ele>201.66666666666669</ele><time>2026-05-03T08:49:21.999Z</time></trkpt><trkpt lat="40.748236444385284" lon="17.498214122681812"><ele>202.83333333333334</ele><time>2026-05-03T08:49:24.999Z</time></trkpt><trkpt lat="40.748188458102014" lon="17.498114825491637"><ele>204.0</ele><time>2026-05-03T08:49:27.999Z</time></trkpt><trkpt lat="40.74818871617293" lon="17.498010532480585"><ele>204.0</ele><time>2026-05-03T08:49:30.999Z</time></trkpt><trkpt lat="40.74822923653152" lon="17.497936033993163"><ele>204.0</ele><time>2026-05-03T08:49:33.999Z</time></trkpt><trkpt lat="40.74825839920619" lon="17.497845535445748"><ele>204.0</ele><time>2026-05-03T08:49:36.999Z</time></trkpt><trkpt lat="40.74826752552797" lon="17.497751051489185"><ele>204.0</ele><time>2026-05-03T08:49:39.999Z</time></trkpt><trkpt lat="40.74830822340411" lon="17.497685388855636"><ele>204.0</ele><time>2026-05-03T08:49:41.999Z</time></trkpt><trkpt lat="40.748362655598825" lon="17.4976322694341"><ele>204.0</ele><time>2026-05-03T08:49:44.999Z</time></trkpt><trkpt lat="40.74842024424687" lon="17.49757123352931"><ele>204.0</ele><time>2026-05-03T08:49:46.999Z</time></trkpt><trkpt lat="40.74852101870163" lon="17.49749117472825"><ele>202.2</ele><time>2026-05-03T08:49:48.999Z</time></trkpt><trkpt lat="40.74860810387312" lon="17.497422236105862"><ele>200.39999999999998</ele><time>2026-05-03T08:49:50.999Z</time></trkpt><trkpt lat="40.74869952180284" lon="17.497357461450758"><ele>198.6</ele><time>2026-05-03T08:49:52.999Z</time></trkpt><trkpt lat="40.74879865178187" lon="17.497292916441612"><ele>196.8</ele><time>2026-05-03T08:49:54.999Z</time></trkpt><trkpt lat="40.7488966603761" lon="17.497197123033114"><ele>195.0</ele><time>2026-05-03T08:49:56.999Z</time></trkpt><trkpt lat="40.74895635215288" lon="17.497168049278617"><ele>195.0</ele><time>2026-05-03T08:49:57.999Z</time></trkpt><trkpt lat="40.749043738603724" lon="17.497114271154416"><ele>195.0</ele><time>2026-05-03T08:49:59.999Z</time></trkpt><trkpt lat="40.749155877933" lon="17.497098314106676"><ele>195.0</ele><time>2026-05-03T08:50:01.999Z</time></trkpt><trkpt lat="40.74925268471219" lon="17.497062484020223"><ele>195.0</ele><time>2026-05-03T08:50:03.999Z</time></trkpt><trkpt lat="40.74932892581725" lon="17.496932236354162"><ele>195.0</ele><time>2026-05-03T08:50:05.998Z</time></trkpt><trkpt lat="40.7493961584675" lon="17.496798080280684"><ele>193.2</ele><time>2026-05-03T08:50:07.998Z</time></trkpt><trkpt lat="40.749440687700826" lon="17.496711438216014"><ele>191.4</ele><time>2026-05-03T08:50:09.998Z</time></trkpt><trkpt lat="40.74952246684362" lon="17.49664462018489"><ele>189.60000000000002</ele><time>2026-05-03T08:50:11.998Z</time></trkpt><trkpt lat="40.74958426115621" lon="17.496519657121937"><ele>187.8</ele><time>2026-05-03T08:50:13.998Z</time></trkpt><trkpt lat="40.749650875582496" lon="17.496456611994777"><ele>186.0</ele><time>2026-05-03T08:50:15.998Z</time></trkpt><trkpt lat="40.74968674056097" lon="17.496359856125483"><ele>188.4</ele><time>2026-05-03T08:50:17.998Z</time></trkpt><trkpt lat="40.74973075914494" lon="17.496244820781897"><ele>190.8</ele><time>2026-05-03T08:50:19.998Z</time></trkpt><trkpt lat="40.74978788241951" lon="17.496140539967357"><ele>193.20000000000002</ele><time>2026-05-03T08:50:21.998Z</time></trkpt><trkpt lat="40.74983353506422" lon="17.49602707564347"><ele>195.60000000000002</ele><time>2026-05-03T08:50:23.998Z</time></trkpt><trkpt lat="40.74988649331975" lon="17.495913921392244"><ele>198.0</ele><time>2026-05-03T08:50:25.998Z</time></trkpt><trkpt lat="40.74996546149402" lon="17.49584136078389"><ele>198.0</ele><time>2026-05-03T08:50:28Z</time></trkpt><trkpt lat="40.75002117472316" lon="17.49573914966027"><ele>198.0</ele><time>2026-05-03T08:50:30Z</time></trkpt><trkpt lat="40.75006496831793" lon="17.49567620180051"><ele>198.0</ele><time>2026-05-03T08:50:31Z</time></trkpt><trkpt lat="40.75013375416806" lon="17.49562248341831"><ele>198.0</ele><time>2026-05-03T08:50:33Z</time></trkpt><trkpt lat="40.75021101466079" lon="17.495517623417385"><ele>198.0</ele><time>2026-05-03T08:50:36Z</time></trkpt><trkpt lat="40.75029896763563" lon="17.495430345248828"><ele>196.85714285714286</ele><time>2026-05-03T08:50:38Z</time></trkpt><trkpt lat="40.75035406840288" lon="17.495374960074276"><ele>195.7142857142857</ele><time>2026-05-03T08:50:39Z</time></trkpt><trkpt lat="40.75041034669757" lon="17.49531260978263"><ele>194.57142857142856</ele><time>2026-05-03T08:50:40Z</time></trkpt><trkpt lat="40.750467583623525" lon="17.495250942559103"><ele>193.42857142857144</ele><time>2026-05-03T08:50:41Z</time></trkpt><trkpt lat="40.7505237704169" lon="17.495185516312773"><ele>192.28571428571428</ele><time>2026-05-03T08:50:42Z</time></trkpt><trkpt lat="40.750577054676896" lon="17.495128397323526"><ele>191.14285714285714</ele><time>2026-05-03T08:50:43Z</time></trkpt><trkpt lat="40.75062532679913" lon="17.495060830907256"><ele>190.0</ele><time>2026-05-03T08:50:44Z</time></trkpt><trkpt lat="40.75067104249832" lon="17.494992990782936"><ele>190.0</ele><time>2026-05-03T08:50:45Z</time></trkpt><trkpt lat="40.75071983321587" lon="17.494935347909465"><ele>190.0</ele><time>2026-05-03T08:50:46Z</time></trkpt><trkpt lat="40.75076735732933" lon="17.49487719281524"><ele>190.0</ele><time>2026-05-03T08:50:47Z</time></trkpt><trkpt lat="40.750871417685794" lon="17.49479228319813"><ele>190.0</ele><time>2026-05-03T08:50:49Z</time></trkpt><trkpt lat="40.75096295197199" lon="17.494694629846318"><ele>190.0</ele><time>2026-05-03T08:50:51Z</time></trkpt><trkpt lat="40.75101854500185" lon="17.494638755625058"><ele>190.0</ele><time>2026-05-03T08:50:52Z</time></trkpt><trkpt lat="40.751116064122584" lon="17.4945479738108"><ele>190.2</ele><time>2026-05-03T08:50:54Z</time></trkpt><trkpt lat="40.75118809003397" lon="17.494436570008002"><ele>190.4</ele><time>2026-05-03T08:50:56Z</time></trkpt><trkpt lat="40.75129295204581" lon="17.494348260198144"><ele>190.60000000000002</ele><time>2026-05-03T08:50:58Z</time></trkpt><trkpt lat="40.75135024595338" lon="17.494305791394755"><ele>190.8</ele><time>2026-05-03T08:50:59Z</time></trkpt><trkpt lat="40.75139906676458" lon="17.494242449277976"><ele>191.0</ele><time>2026-05-03T08:51:00Z</time></trkpt><trkpt lat="40.751484613018725" lon="17.494140796251536"><ele>191.0</ele><time>2026-05-03T08:51:02Z</time></trkpt><trkpt lat="40.75152748207789" lon="17.49406537743036"><ele>191.0</ele><time>2026-05-03T08:51:03Z</time></trkpt><trkpt lat="40.751570517822245" lon="17.494002734219716"><ele>191.0</ele><time>2026-05-03T08:51:04Z</time></trkpt><trkpt lat="40.75165831432612" lon="17.493901325854214"><ele>191.0</ele><time>2026-05-03T08:51:06Z</time></trkpt><trkpt lat="40.75174061004197" lon="17.493791672525667"><ele>191.0</ele><time>2026-05-03T08:51:08Z</time></trkpt><trkpt lat="40.75178723658866" lon="17.493728786511955"><ele>191.0</ele><time>2026-05-03T08:51:09Z</time></trkpt><trkpt lat="40.75182694210423" lon="17.49366371009507"><ele>191.0</ele><time>2026-05-03T08:51:09.999Z</time></trkpt><trkpt lat="40.75191233237734" lon="17.493555684484765"><ele>191.0</ele><time>2026-05-03T08:51:11.999Z</time></trkpt><trkpt lat="40.752011301473665" lon="17.493460280659022"><ele>191.0</ele><time>2026-05-03T08:51:13.999Z</time></trkpt><trkpt lat="40.75205728181859" lon="17.49339717797538"><ele>191.0</ele><time>2026-05-03T08:51:14.999Z</time></trkpt><trkpt lat="40.752106367451255" lon="17.4933366821439"><ele>191.0</ele><time>2026-05-03T08:51:15.999Z</time></trkpt><trkpt lat="40.75219457248438" lon="17.49322426707959"><ele>191.0</ele><time>2026-05-03T08:51:17.999Z</time></trkpt><trkpt lat="40.75227927465659" lon="17.493113296737597"><ele>191.0</ele><time>2026-05-03T08:51:19.999Z</time></trkpt><trkpt lat="40.75236537345669" lon="17.492999630780307"><ele>191.0</ele><time>2026-05-03T08:51:21.999Z</time></trkpt><trkpt lat="40.75241109693418" lon="17.4929398307216"><ele>191.0</ele><time>2026-05-03T08:51:22.999Z</time></trkpt><trkpt lat="40.75250754074078" lon="17.4928280567377"><ele>191.0</ele><time>2026-05-03T08:51:24.999Z</time></trkpt><trkpt lat="40.7525858639894" lon="17.492705020549472"><ele>190.8</ele><time>2026-05-03T08:51:26.999Z</time></trkpt><trkpt lat="40.75265002328745" lon="17.492633821561974"><ele>190.60000000000002</ele><time>2026-05-03T08:51:28.999Z</time></trkpt><trkpt lat="40.75274443036262" lon="17.492527288315316"><ele>190.4</ele><time>2026-05-03T08:51:30.999Z</time></trkpt><trkpt lat="40.75281910915255" lon="17.492419864065806"><ele>190.2</ele><time>2026-05-03T08:51:32.999Z</time></trkpt><trkpt lat="40.75291516709323" lon="17.492394058645644"><ele>190.0</ele><time>2026-05-03T08:51:34.999Z</time></trkpt><trkpt lat="40.753032072059135" lon="17.49237927556554"><ele>190.0</ele><time>2026-05-03T08:51:36.999Z</time></trkpt><trkpt lat="40.7531021740549" lon="17.492370565839522"><ele>190.0</ele><time>2026-05-03T08:51:37.999Z</time></trkpt><trkpt lat="40.75317482630452" lon="17.492348664904913"><ele>190.0</ele><time>2026-05-03T08:51:38.999Z</time></trkpt><trkpt lat="40.75324097884712" lon="17.492340030384977"><ele>190.0</ele><time>2026-05-03T08:51:39.999Z</time></trkpt><trkpt lat="40.753306283689376" lon="17.492355267629012"><ele>190.0</ele><time>2026-05-03T08:51:40.999Z</time></trkpt><trkpt lat="40.753367589299934" lon="17.492397173085845"><ele>190.0</ele><time>2026-05-03T08:51:41.999Z</time></trkpt><trkpt lat="40.7534253413498" lon="17.4924716153093"><ele>190.0</ele><time>2026-05-03T08:51:42.999Z</time></trkpt><trkpt lat="40.753502056159356" lon="17.49254809039696"><ele>189.33333333333334</ele><time>2026-05-03T08:51:43.999Z</time></trkpt><trkpt lat="40.753556363256216" lon="17.492625510614516"><ele>188.66666666666669</ele><time>2026-05-03T08:51:44.999Z</time></trkpt><trkpt lat="40.75360645726995" lon="17.492690059969892"><ele>188.0</ele><time>2026-05-03T08:51:45.999Z</time></trkpt><trkpt lat="40.75368414755553" lon="17.49273826418854"><ele>187.33333333333334</ele><time>2026-05-03T08:51:46.999Z</time></trkpt><trkpt lat="40.753750688787456" lon="17.492824241694148"><ele>186.66666666666666</ele><time>2026-05-03T08:51:47.999Z</time></trkpt><trkpt lat="40.75380977787654" lon="17.49289203337045"><ele>186.0</ele><time>2026-05-03T08:51:48.999Z</time></trkpt><trkpt lat="40.75386355088266" lon="17.49297710832053"><ele>184.66666666666666</ele><time>2026-05-03T08:51:49.999Z</time></trkpt><trkpt lat="40.75392153404722" lon="17.49307884901777"><ele>183.33333333333334</ele><time>2026-05-03T08:51:50.999Z</time></trkpt><trkpt lat="40.75397092727585" lon="17.493152179125417"><ele>182.0</ele><time>2026-05-03T08:51:51.999Z</time></trkpt><trkpt lat="40.75402380113555" lon="17.49320795672511"><ele>180.66666666666669</ele><time>2026-05-03T08:51:52.999Z</time></trkpt><trkpt lat="40.75405141236052" lon="17.49328959514766"><ele>179.33333333333334</ele><time>2026-05-03T08:51:53.999Z</time></trkpt><trkpt lat="40.7540515704419" lon="17.493392686137643"><ele>178.0</ele><time>2026-05-03T08:51:54.999Z</time></trkpt><trkpt lat="40.75404932053035" lon="17.493480992039363"><ele>178.0</ele><time>2026-05-03T08:51:55.999Z</time></trkpt><trkpt lat="40.75409352072245" lon="17.49358254478607"><ele>178.0</ele><time>2026-05-03T08:51:57.999Z</time></trkpt><trkpt lat="40.75416785371518" lon="17.49373086626394"><ele>178.0</ele><time>2026-05-03T08:51:59.999Z</time></trkpt><trkpt lat="40.75418790086754" lon="17.493824825862806"><ele>178.0</ele><time>2026-05-03T08:52:00.999Z</time></trkpt><trkpt lat="40.754242874624374" lon="17.493887147234663"><ele>178.0</ele><time>2026-05-03T08:52:03.999Z</time></trkpt><trkpt lat="40.75433694591903" lon="17.493872033443267"><ele>175.83333333333334</ele><time>2026-05-03T08:52:05.999Z</time></trkpt><trkpt lat="40.75440816987403" lon="17.493934673449363"><ele>173.66666666666669</ele><time>2026-05-03T08:52:07.999Z</time></trkpt><trkpt lat="40.754450231286434" lon="17.49402283581863"><ele>171.5</ele><time>2026-05-03T08:52:09.998Z</time></trkpt><trkpt lat="40.754534939455" lon="17.494080810875985"><ele>169.33333333333334</ele><time>2026-05-03T08:52:11.998Z</time></trkpt><trkpt lat="40.754610814565496" lon="17.49415104545896"><ele>167.16666666666666</ele><time>2026-05-03T08:52:14.998Z</time></trkpt><trkpt lat="40.75468886690821" lon="17.494113874368953"><ele>165.0</ele><time>2026-05-03T08:52:16.998Z</time></trkpt><trkpt lat="40.75475509248327" lon="17.494112690778394"><ele>165.0</ele><time>2026-05-03T08:52:18.998Z</time></trkpt><trkpt lat="40.75483271564032" lon="17.494144845563724"><ele>165.0</ele><time>2026-05-03T08:52:21.998Z</time></trkpt><trkpt lat="40.75486684087835" lon="17.494268682514505"><ele>165.0</ele><time>2026-05-03T08:52:24.998Z</time></trkpt><trkpt lat="40.754947451404476" lon="17.494322092723788"><ele>165.0</ele><time>2026-05-03T08:52:26.998Z</time></trkpt><trkpt lat="40.75505485756663" lon="17.494328581776664"><ele>165.0</ele><time>2026-05-03T08:52:28.998Z</time></trkpt><trkpt lat="40.755203459754625" lon="17.494419674166224"><ele>164.6</ele><time>2026-05-03T08:52:35Z</time></trkpt><trkpt lat="40.75529152366103" lon="17.494337595175296"><ele>164.2</ele><time>2026-05-03T08:52:39Z</time></trkpt><trkpt lat="40.7553637201406" lon="17.494363099430657"><ele>163.8</ele><time>2026-05-03T08:52:43Z</time></trkpt><trkpt lat="40.75545225038328" lon="17.494358221959914"><ele>163.4</ele><time>2026-05-03T08:52:46Z</time></trkpt><trkpt lat="40.75553695666442" lon="17.49431035675529"><ele>163.0</ele><time>2026-05-03T08:52:48Z</time></trkpt><trkpt lat="40.75564225704008" lon="17.49427336309977"><ele>163.0</ele><time>2026-05-03T08:52:50Z</time></trkpt><trkpt lat="40.75574664671605" lon="17.494269490393428"><ele>163.0</ele><time>2026-05-03T08:52:52Z</time></trkpt><trkpt lat="40.75586752907937" lon="17.494276493979967"><ele>163.0</ele><time>2026-05-03T08:52:54Z</time></trkpt><trkpt lat="40.755954658433296" lon="17.494343724526733"><ele>163.0</ele><time>2026-05-03T08:52:56Z</time></trkpt><trkpt lat="40.75604582314981" lon="17.494387749701733"><ele>163.0</ele><time>2026-05-03T08:52:58Z</time></trkpt><trkpt lat="40.75605068247934" lon="17.49450647761238"><ele>160.33333333333334</ele><time>2026-05-03T08:53:01Z</time></trkpt><trkpt lat="40.756061597715906" lon="17.49459717251004"><ele>157.66666666666669</ele><time>2026-05-03T08:53:03Z</time></trkpt><trkpt lat="40.75613968552515" lon="17.494720622328785"><ele>155.0</ele><time>2026-05-03T08:53:05Z</time></trkpt><trkpt lat="40.756207570287785" lon="17.494750334344165"><ele>152.33333333333334</ele><time>2026-05-03T08:53:07Z</time></trkpt><trkpt lat="40.75626983471756" lon="17.494777936009648"><ele>149.66666666666666</ele><time>2026-05-03T08:53:09Z</time></trkpt><trkpt lat="40.756334086958645" lon="17.494812189074057"><ele>147.0</ele><time>2026-05-03T08:53:10Z</time></trkpt><trkpt lat="40.756467977482394" lon="17.494793568212547"><ele>147.0</ele><time>2026-05-03T08:53:12Z</time></trkpt><trkpt lat="40.756523282146475" lon="17.494751996776262"><ele>147.0</ele><time>2026-05-03T08:53:13Z</time></trkpt><trkpt lat="40.756639176315446" lon="17.49464040024896"><ele>147.0</ele><time>2026-05-03T08:53:15Z</time></trkpt><trkpt lat="40.75670314579809" lon="17.494585549757925"><ele>147.0</ele><time>2026-05-03T08:53:17Z</time></trkpt><trkpt lat="40.75678153936338" lon="17.494628518760138"><ele>147.0</ele><time>2026-05-03T08:53:18.999Z</time></trkpt><trkpt lat="40.75681029457367" lon="17.494750413305855"><ele>146.33333333333334</ele><time>2026-05-03T08:53:20.999Z</time></trkpt><trkpt lat="40.7568722055051" lon="17.494871738049337"><ele>145.66666666666666</ele><time>2026-05-03T08:53:22.999Z</time></trkpt><trkpt lat="40.75698899322846" lon="17.494897049555124"><ele>145.0</ele><time>2026-05-03T08:53:24.999Z</time></trkpt><trkpt lat="40.75705202039444" lon="17.494906734339914"><ele>144.33333333333331</ele><time>2026-05-03T08:53:25.999Z</time></trkpt><trkpt lat="40.757131366998294" lon="17.494931008533563"><ele>143.66666666666666</ele><time>2026-05-03T08:53:26.999Z</time></trkpt><trkpt lat="40.75720487740399" lon="17.494953080991102"><ele>143.0</ele><time>2026-05-03T08:53:27.999Z</time></trkpt><trkpt lat="40.75728502764151" lon="17.494969373220307"><ele>143.0</ele><time>2026-05-03T08:53:28.999Z</time></trkpt><trkpt lat="40.757352161628546" lon="17.49497807111857"><ele>143.0</ele><time>2026-05-03T08:53:29.999Z</time></trkpt><trkpt lat="40.75745082166515" lon="17.49500955090716"><ele>143.0</ele><time>2026-05-03T08:53:31.999Z</time></trkpt><trkpt lat="40.75745436164661" lon="17.49491447126522"><ele>143.0</ele><time>2026-05-03T08:53:34.999Z</time></trkpt><trkpt lat="40.757391287569895" lon="17.494964517308187"><ele>143.0</ele><time>2026-05-03T08:53:56.999Z</time></trkpt><trkpt lat="40.75731405681966" lon="17.49501057943223"><ele>143.0</ele><time>2026-05-03T08:59:24Z</time></trkpt><trkpt lat="40.75733403228822" lon="17.49511362103353"><ele>143.0</ele><time>2026-05-03T08:59:27Z</time></trkpt><trkpt lat="40.757409513156226" lon="17.49518786847196"><ele>143.0</ele><time>2026-05-03T08:59:29Z</time></trkpt><trkpt lat="40.75748451264315" lon="17.49527710182086"><ele>143.0</ele><time>2026-05-03T08:59:31Z</time></trkpt><trkpt lat="40.75753312015128" lon="17.495399254054654"><ele>143.0</ele><time>2026-05-03T08:59:33Z</time></trkpt><trkpt lat="40.75755189631991" lon="17.495536982615715"><ele>143.0</ele><time>2026-05-03T08:59:35Z</time></trkpt><trkpt lat="40.75762847669427" lon="17.495645521870888"><ele>142.0</ele><time>2026-05-03T08:59:36.999Z</time></trkpt><trkpt lat="40.757671234000846" lon="17.495777257299068"><ele>141.0</ele><time>2026-05-03T08:59:38.999Z</time></trkpt><trkpt lat="40.75772841115176" lon="17.495895846977884"><ele>140.0</ele><time>2026-05-03T08:59:40.999Z</time></trkpt><trkpt lat="40.75779356255579" lon="17.49601609377564"><ele>139.0</ele><time>2026-05-03T08:59:42.999Z</time></trkpt><trkpt lat="40.75785779943931" lon="17.4960656840367"><ele>138.0</ele><time>2026-05-03T08:59:44.999Z</time></trkpt><trkpt lat="40.757945243035536" lon="17.49602851611978"><ele>137.71428571428572</ele><time>2026-05-03T08:59:46.999Z</time></trkpt><trkpt lat="40.75798533417587" lon="17.495957204193182"><ele>137.42857142857144</ele><time>2026-05-03T08:59:48.999Z</time></trkpt><trkpt lat="40.75803109176766" lon="17.495886651558273"><ele>137.14285714285714</ele><time>2026-05-03T08:59:50.999Z</time></trkpt><trkpt lat="40.7580890769285" lon="17.4958162863513"><ele>136.85714285714286</ele><time>2026-05-03T08:59:52.999Z</time></trkpt><trkpt lat="40.75813518017863" lon="17.495716041375477"><ele>136.57142857142856</ele><time>2026-05-03T08:59:54.999Z</time></trkpt><trkpt lat="40.75817701815394" lon="17.495637610867533"><ele>136.28571428571428</ele><time>2026-05-03T08:59:56.999Z</time></trkpt><trkpt lat="40.758211260850224" lon="17.495560450560845"><ele>136.0</ele><time>2026-05-03T08:59:58.999Z</time></trkpt><trkpt lat="40.75825880174036" lon="17.495501249756597"><ele>135.99999999999997</ele><time>2026-05-03T09:00:00.999Z</time></trkpt><trkpt lat="40.758309008874186" lon="17.495451044986424"><ele>136.0</ele><time>2026-05-03T09:00:02.999Z</time></trkpt><trkpt lat="40.75835959964772" lon="17.495396234303357"><ele>136.0</ele><time>2026-05-03T09:00:04.999Z</time></trkpt><trkpt lat="40.75840691615638" lon="17.495314338968768"><ele>136.0</ele><time>2026-05-03T09:00:06.999Z</time></trkpt><trkpt lat="40.75844799071369" lon="17.495226764861446"><ele>136.0</ele><time>2026-05-03T09:00:08.999Z</time></trkpt><trkpt lat="40.75847687480714" lon="17.49514664455833"><ele>135.99999999999997</ele><time>2026-05-03T09:00:10.999Z</time></trkpt><trkpt lat="40.75852879302955" lon="17.49507676460309"><ele>136.0</ele><time>2026-05-03T09:00:13.999Z</time></trkpt><trkpt lat="40.75858730342001" lon="17.495003929404938"><ele>135.66666666666669</ele><time>2026-05-03T09:00:15.999Z</time></trkpt><trkpt lat="40.75864746687865" lon="17.49492497750467"><ele>135.33333333333334</ele><time>2026-05-03T09:00:17.999Z</time></trkpt><trkpt lat="40.758714890632135" lon="17.49485490188421"><ele>135.0</ele><time>2026-05-03T09:00:19.999Z</time></trkpt><trkpt lat="40.75877667223312" lon="17.494779273591302"><ele>134.66666666666666</ele><time>2026-05-03T09:00:21.999Z</time></trkpt><trkpt lat="40.75882750086987" lon="17.49471571679413"><ele>134.33333333333331</ele><time>2026-05-03T09:00:23.999Z</time></trkpt><trkpt lat="40.7588897828844" lon="17.494645108358338"><ele>134.0</ele><time>2026-05-03T09:00:25.999Z</time></trkpt><trkpt lat="40.7589474011922" lon="17.49456609322844"><ele>135.33333333333331</ele><time>2026-05-03T09:00:27.999Z</time></trkpt><trkpt lat="40.75901775756293" lon="17.49448472887596"><ele>136.66666666666666</ele><time>2026-05-03T09:00:29.999Z</time></trkpt><trkpt lat="40.7590711660279" lon="17.494424091039956"><ele>138.0</ele><time>2026-05-03T09:00:31.999Z</time></trkpt><trkpt lat="40.75914690758871" lon="17.49435224842621"><ele>139.33333333333334</ele><time>2026-05-03T09:00:33.999Z</time></trkpt><trkpt lat="40.75921238160343" lon="17.494271625029572"><ele>140.66666666666669</ele><time>2026-05-03T09:00:35.998Z</time></trkpt><trkpt lat="40.759272620528904" lon="17.494202915720848"><ele>142.0</ele><time>2026-05-03T09:00:37.998Z</time></trkpt><trkpt lat="40.759338536039614" lon="17.494108640785793"><ele>141.5</ele><time>2026-05-03T09:00:39.998Z</time></trkpt><trkpt lat="40.75937939943658" lon="17.494042265603326"><ele>141.0</ele><time>2026-05-03T09:00:40.998Z</time></trkpt><trkpt lat="40.75942761209929" lon="17.493981355386502"><ele>140.5</ele><time>2026-05-03T09:00:42.998Z</time></trkpt><trkpt lat="40.75949755547345" lon="17.493906572769152"><ele>140.0</ele><time>2026-05-03T09:00:44.998Z</time></trkpt><trkpt lat="40.75957341196322" lon="17.493843262430524"><ele>139.5</ele><time>2026-05-03T09:00:46.998Z</time></trkpt><trkpt lat="40.7596372363632" lon="17.493779258720977"><ele>139.0</ele><time>2026-05-03T09:00:48.998Z</time></trkpt><trkpt lat="40.759704342220864" lon="17.493715923605563"><ele>139.0</ele><time>2026-05-03T09:00:50.998Z</time></trkpt><trkpt lat="40.759749344755654" lon="17.493624402419623"><ele>139.0</ele><time>2026-05-03T09:00:52.998Z</time></trkpt><trkpt lat="40.75980152480035" lon="17.493545312689573"><ele>139.0</ele><time>2026-05-03T09:00:54.998Z</time></trkpt><trkpt lat="40.75985673246783" lon="17.493446227491056"><ele>139.0</ele><time>2026-05-03T09:00:57Z</time></trkpt><trkpt lat="40.759890978253054" lon="17.49334623608176"><ele>139.0</ele><time>2026-05-03T09:00:59Z</time></trkpt><trkpt lat="40.75988057397404" lon="17.493217873725907"><ele>139.0</ele><time>2026-05-03T09:01:01Z</time></trkpt><trkpt lat="40.7598827519033" lon="17.49309452736991"><ele>139.0</ele><time>2026-05-03T09:01:03Z</time></trkpt><trkpt lat="40.75989722400182" lon="17.492981753208657"><ele>139.0</ele><time>2026-05-03T09:01:05Z</time></trkpt><trkpt lat="40.75992109245924" lon="17.492871157167755"><ele>139.0</ele><time>2026-05-03T09:01:07Z</time></trkpt><trkpt lat="40.759946751318786" lon="17.49274405816758"><ele>139.0</ele><time>2026-05-03T09:01:09Z</time></trkpt><trkpt lat="40.759976851576184" lon="17.492637406453667"><ele>139.0</ele><time>2026-05-03T09:01:11Z</time></trkpt><trkpt lat="40.76000236254578" lon="17.492525298477624"><ele>139.0</ele><time>2026-05-03T09:01:13Z</time></trkpt><trkpt lat="40.760029936434194" lon="17.492407403928663"><ele>139.5</ele><time>2026-05-03T09:01:15Z</time></trkpt><trkpt lat="40.760045729510665" lon="17.492298999650764"><ele>140.0</ele><time>2026-05-03T09:01:17Z</time></trkpt><trkpt lat="40.76004302014197" lon="17.492175666257626"><ele>140.5</ele><time>2026-05-03T09:01:19Z</time></trkpt><trkpt lat="40.76003484179493" lon="17.492056154669008"><ele>141.0</ele><time>2026-05-03T09:01:21Z</time></trkpt><trkpt lat="40.76002927790372" lon="17.491953158752878"><ele>141.5</ele><time>2026-05-03T09:01:23Z</time></trkpt><trkpt lat="40.76003483739299" lon="17.491832459783435"><ele>142.0</ele><time>2026-05-03T09:01:25Z</time></trkpt><trkpt lat="40.760030666902445" lon="17.491712121571037"><ele>142.33333333333334</ele><time>2026-05-03T09:01:27Z</time></trkpt><trkpt lat="40.76002952771151" lon="17.491599956453832"><ele>142.66666666666669</ele><time>2026-05-03T09:01:29Z</time></trkpt><trkpt lat="40.76001672749077" lon="17.491484191098976"><ele>143.0</ele><time>2026-05-03T09:01:31Z</time></trkpt><trkpt lat="40.760006861035386" lon="17.491370689171976"><ele>143.33333333333334</ele><time>2026-05-03T09:01:33Z</time></trkpt><trkpt lat="40.75998845042318" lon="17.49126650191692"><ele>143.66666666666666</ele><time>2026-05-03T09:01:35Z</time></trkpt><trkpt lat="40.75998260131448" lon="17.491156335221234"><ele>144.0</ele><time>2026-05-03T09:01:37Z</time></trkpt><trkpt lat="40.75995941703631" lon="17.491040931197603"><ele>144.83333333333334</ele><time>2026-05-03T09:01:38.999Z</time></trkpt><trkpt lat="40.7599459674966" lon="17.490935037956906"><ele>145.66666666666666</ele><time>2026-05-03T09:01:40.999Z</time></trkpt><trkpt lat="40.75994249457161" lon="17.490844780663135"><ele>146.5</ele><time>2026-05-03T09:01:42.999Z</time></trkpt><trkpt lat="40.759930109817496" lon="17.490729146692505"><ele>147.33333333333331</ele><time>2026-05-03T09:01:44.999Z</time></trkpt><trkpt lat="40.75994651981626" lon="17.490620939576313"><ele>148.16666666666666</ele><time>2026-05-03T09:01:46.999Z</time></trkpt><trkpt lat="40.75996184208471" lon="17.490510463528917"><ele>149.0</ele><time>2026-05-03T09:01:48.999Z</time></trkpt><trkpt lat="40.76001239602112" lon="17.49040784894006"><ele>149.83333333333331</ele><time>2026-05-03T09:01:50.999Z</time></trkpt><trkpt lat="40.760093391756286" lon="17.490340526786987"><ele>150.66666666666666</ele><time>2026-05-03T09:01:52.999Z</time></trkpt><trkpt lat="40.760177819061695" lon="17.490317967206362"><ele>151.5</ele><time>2026-05-03T09:01:54.999Z</time></trkpt><trkpt lat="40.76025946491132" lon="17.49027974315644"><ele>152.33333333333334</ele><time>2026-05-03T09:01:56.999Z</time></trkpt><trkpt lat="40.76033783573049" lon="17.4902429111646"><ele>153.16666666666669</ele><time>2026-05-03T09:01:58.999Z</time></trkpt><trkpt lat="40.76040341847996" lon="17.490217764659924"><ele>154.0</ele><time>2026-05-03T09:02:00.999Z</time></trkpt><trkpt lat="40.760478570435396" lon="17.4902017721377"><ele>154.0</ele><time>2026-05-03T09:02:02.999Z</time></trkpt><trkpt lat="40.760543849235056" lon="17.490171817787008"><ele>154.0</ele><time>2026-05-03T09:02:04.999Z</time></trkpt><trkpt lat="40.76062740258357" lon="17.490157523114814"><ele>154.0</ele><time>2026-05-03T09:02:06.999Z</time></trkpt><trkpt lat="40.76069787049025" lon="17.49012667960197"><ele>154.0</ele><time>2026-05-03T09:02:08.999Z</time></trkpt><trkpt lat="40.76079156883458" lon="17.490067069075472"><ele>154.0</ele><time>2026-05-03T09:02:11.999Z</time></trkpt><trkpt lat="40.76085334593698" lon="17.490015893872922"><ele>154.0</ele><time>2026-05-03T09:02:13.999Z</time></trkpt><trkpt lat="40.7609142946901" lon="17.489954556820347"><ele>154.0</ele><time>2026-05-03T09:02:15.999Z</time></trkpt><trkpt lat="40.76097229507369" lon="17.489877233762776"><ele>154.0</ele><time>2026-05-03T09:02:17.999Z</time></trkpt><trkpt lat="40.76103845437339" lon="17.48980526174624"><ele>154.0</ele><time>2026-05-03T09:02:19.999Z</time></trkpt><trkpt lat="40.761071285489734" lon="17.489713509498362"><ele>154.0</ele><time>2026-05-03T09:02:21.999Z</time></trkpt><trkpt lat="40.76108163516834" lon="17.489613682894074"><ele>154.0</ele><time>2026-05-03T09:02:23.999Z</time></trkpt><trkpt lat="40.76107204739101" lon="17.489525842359708"><ele>154.0</ele><time>2026-05-03T09:02:25.999Z</time></trkpt><trkpt lat="40.76102433319861" lon="17.48943912508035"><ele>155.0</ele><time>2026-05-03T09:02:27.999Z</time></trkpt><trkpt lat="40.76095552688936" lon="17.489387890428493"><ele>156.0</ele><time>2026-05-03T09:02:29.999Z</time></trkpt><trkpt lat="40.760903332933275" lon="17.4893338744948"><ele>157.0</ele><time>2026-05-03T09:02:31.999Z</time></trkpt><trkpt lat="40.76084467176819" lon="17.489271167460323"><ele>158.0</ele><time>2026-05-03T09:02:33.999Z</time></trkpt><trkpt lat="40.760783880351234" lon="17.489221762511864"><ele>159.0</ele><time>2026-05-03T09:02:35.999Z</time></trkpt><trkpt lat="40.76072481677539" lon="17.489162938338612"><ele>160.0</ele><time>2026-05-03T09:02:37.998Z</time></trkpt><trkpt lat="40.76066576639097" lon="17.489096975695475"><ele>161.0</ele><time>2026-05-03T09:02:39.998Z</time></trkpt><trkpt lat="40.76061199752554" lon="17.48903530824536"><ele>161.0</ele><time>2026-05-03T09:02:41.998Z</time></trkpt><trkpt lat="40.76057041720753" lon="17.488955732127653"><ele>161.0</ele><time>2026-05-03T09:02:43.998Z</time></trkpt><trkpt lat="40.760563420288044" lon="17.488850736274543"><ele>161.0</ele><time>2026-05-03T09:02:45.998Z</time></trkpt><trkpt lat="40.760564550478655" lon="17.488750601986727"><ele>161.0</ele><time>2026-05-03T09:02:47.998Z</time></trkpt><trkpt lat="40.76058096313184" lon="17.48865096900807"><ele>161.0</ele><time>2026-05-03T09:02:49.998Z</time></trkpt><trkpt lat="40.76060875120494" lon="17.488535733249833"><ele>161.0</ele><time>2026-05-03T09:02:51.998Z</time></trkpt><trkpt lat="40.76062490648354" lon="17.48844139174782"><ele>161.5</ele><time>2026-05-03T09:02:53.998Z</time></trkpt><trkpt lat="40.76064320833319" lon="17.488337484629852"><ele>162.0</ele><time>2026-05-03T09:02:55.998Z</time></trkpt><trkpt lat="40.76067295362061" lon="17.488242525718974"><ele>162.5</ele><time>2026-05-03T09:02:57.998Z</time></trkpt><trkpt lat="40.76071133964224" lon="17.48814653498346"><ele>163.0</ele><time>2026-05-03T09:02:59.998Z</time></trkpt><trkpt lat="40.76075263461707" lon="17.488058626852546"><ele>163.5</ele><time>2026-05-03T09:03:01.998Z</time></trkpt><trkpt lat="40.76079798654036" lon="17.48796289774862"><ele>164.0</ele><time>2026-05-03T09:03:04Z</time></trkpt><trkpt lat="40.760845506621116" lon="17.487874732009747"><ele>164.33333333333331</ele><time>2026-05-03T09:03:06Z</time></trkpt><trkpt lat="40.760885721797706" lon="17.487775637957533"><ele>164.66666666666666</ele><time>2026-05-03T09:03:08Z</time></trkpt><trkpt lat="40.760933731740735" lon="17.487680912397074"><ele>165.0</ele><time>2026-05-03T09:03:10Z</time></trkpt><trkpt lat="40.76098487443172" lon="17.487575622975548"><ele>165.33333333333334</ele><time>2026-05-03T09:03:12Z</time></trkpt><trkpt lat="40.76103843661342" lon="17.487471454664195"><ele>165.66666666666669</ele><time>2026-05-03T09:03:14Z</time></trkpt><trkpt lat="40.76108774736517" lon="17.48737638464971"><ele>166.0</ele><time>2026-05-03T09:03:16Z</time></trkpt><trkpt lat="40.76114403072492" lon="17.487268992422386"><ele>165.60000000000002</ele><time>2026-05-03T09:03:18Z</time></trkpt><trkpt lat="40.76118527887322" lon="17.487160960547953"><ele>165.2</ele><time>2026-05-03T09:03:20Z</time></trkpt><trkpt lat="40.76123159483036" lon="17.487034296901182"><ele>164.8</ele><time>2026-05-03T09:03:22Z</time></trkpt><trkpt lat="40.761273873413806" lon="17.48691602197426"><ele>164.39999999999998</ele><time>2026-05-03T09:03:24Z</time></trkpt><trkpt lat="40.76132388351742" lon="17.486799900521873"><ele>164.0</ele><time>2026-05-03T09:03:26Z</time></trkpt><trkpt lat="40.761360205470794" lon="17.486702040756608"><ele>164.0</ele><time>2026-05-03T09:03:28Z</time></trkpt><trkpt lat="40.76137026517837" lon="17.486589632718385"><ele>164.0</ele><time>2026-05-03T09:03:30Z</time></trkpt><trkpt lat="40.76139639449352" lon="17.486480720859227"><ele>164.0</ele><time>2026-05-03T09:03:32Z</time></trkpt><trkpt lat="40.76142933971908" lon="17.486371008255034"><ele>164.0</ele><time>2026-05-03T09:03:34Z</time></trkpt><trkpt lat="40.76146616724801" lon="17.4862543328578"><ele>164.0</ele><time>2026-05-03T09:03:36Z</time></trkpt><trkpt lat="40.7615100481574" lon="17.48614063620296"><ele>164.5</ele><time>2026-05-03T09:03:38Z</time></trkpt><trkpt lat="40.76154836876662" lon="17.486032967313758"><ele>165.0</ele><time>2026-05-03T09:03:40Z</time></trkpt><trkpt lat="40.76157056179924" lon="17.48591678228544"><ele>165.5</ele><time>2026-05-03T09:03:42Z</time></trkpt><trkpt lat="40.76157713417077" lon="17.485821033423917"><ele>166.0</ele><time>2026-05-03T09:03:44Z</time></trkpt><trkpt lat="40.76158798557729" lon="17.48568933014076"><ele>166.5</ele><time>2026-05-03T09:03:46Z</time></trkpt><trkpt lat="40.76159481556015" lon="17.48557755275673"><ele>167.0</ele><time>2026-05-03T09:03:47.999Z</time></trkpt><trkpt lat="40.76160612726811" lon="17.48546760392548"><ele>167.33333333333331</ele><time>2026-05-03T09:03:49.999Z</time></trkpt><trkpt lat="40.76161822429481" lon="17.485360865982667"><ele>167.66666666666666</ele><time>2026-05-03T09:03:51.999Z</time></trkpt><trkpt lat="40.76162335104533" lon="17.48525525445479"><ele>168.0</ele><time>2026-05-03T09:03:53.999Z</time></trkpt><trkpt lat="40.761630423611514" lon="17.485152354598444"><ele>168.33333333333334</ele><time>2026-05-03T09:03:55.999Z</time></trkpt><trkpt lat="40.76164281299592" lon="17.485048699751694"><ele>168.66666666666669</ele><time>2026-05-03T09:03:57.999Z</time></trkpt><trkpt lat="40.761657346696644" lon="17.484959471568736"><ele>169.0</ele><time>2026-05-03T09:03:59.999Z</time></trkpt><trkpt lat="40.761662187164625" lon="17.484853818767213"><ele>169.0</ele><time>2026-05-03T09:04:01.999Z</time></trkpt><trkpt lat="40.76166883858944" lon="17.484735139064934"><ele>169.0</ele><time>2026-05-03T09:04:03.999Z</time></trkpt><trkpt lat="40.76168859007373" lon="17.484621174832515"><ele>169.0</ele><time>2026-05-03T09:04:05.999Z</time></trkpt><trkpt lat="40.761723228938344" lon="17.48451586919866"><ele>169.0</ele><time>2026-05-03T09:04:07.999Z</time></trkpt><trkpt lat="40.76177152127489" lon="17.48440959307579"><ele>169.0</ele><time>2026-05-03T09:04:09.999Z</time></trkpt><trkpt lat="40.761806585697016" lon="17.484314398968593"><ele>169.0</ele><time>2026-05-03T09:04:11.999Z</time></trkpt><trkpt lat="40.7618439386724" lon="17.484214237089205"><ele>168.0</ele><time>2026-05-03T09:04:13.999Z</time></trkpt><trkpt lat="40.76188450346121" lon="17.484119510753803"><ele>167.0</ele><time>2026-05-03T09:04:15.999Z</time></trkpt><trkpt lat="40.761929009435086" lon="17.4840092643804"><ele>166.0</ele><time>2026-05-03T09:04:17.999Z</time></trkpt><trkpt lat="40.76197010673522" lon="17.483899347351105"><ele>165.0</ele><time>2026-05-03T09:04:19.999Z</time></trkpt><trkpt lat="40.76201874550497" lon="17.4837785233354"><ele>164.0</ele><time>2026-05-03T09:04:21.999Z</time></trkpt><trkpt lat="40.762065299256896" lon="17.483664123675446"><ele>163.2</ele><time>2026-05-03T09:04:23.999Z</time></trkpt><trkpt lat="40.76211343840085" lon="17.48352915997303"><ele>162.39999999999998</ele><time>2026-05-03T09:04:25.999Z</time></trkpt><trkpt lat="40.7621668081721" lon="17.483383506201157"><ele>161.6</ele><time>2026-05-03T09:04:27.999Z</time></trkpt><trkpt lat="40.76216275949508" lon="17.48325693355607"><ele>160.8</ele><time>2026-05-03T09:04:29.999Z</time></trkpt><trkpt lat="40.76211491495391" lon="17.48318555181532"><ele>160.0</ele><time>2026-05-03T09:04:31.999Z</time></trkpt><trkpt lat="40.76205974923502" lon="17.483109453545094"><ele>160.0</ele><time>2026-05-03T09:04:33.999Z</time></trkpt><trkpt lat="40.76201206316701" lon="17.48301352267557"><ele>160.0</ele><time>2026-05-03T09:04:35.999Z</time></trkpt><trkpt lat="40.761961934734344" lon="17.482916399847408"><ele>160.0</ele><time>2026-05-03T09:04:37.999Z</time></trkpt><trkpt lat="40.761918542214744" lon="17.48282852609662"><ele>160.0</ele><time>2026-05-03T09:04:39.999Z</time></trkpt><trkpt lat="40.76185866438529" lon="17.48272307817503"><ele>160.0</ele><time>2026-05-03T09:04:41.999Z</time></trkpt><trkpt lat="40.76181657880991" lon="17.482632266499053"><ele>160.0</ele><time>2026-05-03T09:04:43.999Z</time></trkpt><trkpt lat="40.7617616261082" lon="17.482550074151867"><ele>160.33333333333334</ele><time>2026-05-03T09:04:45.999Z</time></trkpt><trkpt lat="40.76171713185578" lon="17.482431811844698"><ele>160.66666666666669</ele><time>2026-05-03T09:04:47.998Z</time></trkpt><trkpt lat="40.761682948146316" lon="17.482347427258663"><ele>161.0</ele><time>2026-05-03T09:04:49.998Z</time></trkpt><trkpt lat="40.76164568332867" lon="17.482266397205084"><ele>161.33333333333334</ele><time>2026-05-03T09:04:51.998Z</time></trkpt><trkpt lat="40.761612079562504" lon="17.482185476153404"><ele>161.66666666666666</ele><time>2026-05-03T09:04:53.998Z</time></trkpt><trkpt lat="40.761575983871786" lon="17.48209872050112"><ele>162.0</ele><time>2026-05-03T09:04:55.998Z</time></trkpt><trkpt lat="40.761535444551" lon="17.48199127572682"><ele>162.16666666666666</ele><time>2026-05-03T09:04:57.998Z</time></trkpt><trkpt lat="40.761499485867674" lon="17.481872206770365"><ele>162.33333333333334</ele><time>2026-05-03T09:04:59.998Z</time></trkpt><trkpt lat="40.761459066094545" lon="17.481768586494997"><ele>162.5</ele><time>2026-05-03T09:05:01.998Z</time></trkpt><trkpt lat="40.76147811557777" lon="17.481673043226955"><ele>162.66666666666669</ele><time>2026-05-03T09:05:03.998Z</time></trkpt><trkpt lat="40.76148774159068" lon="17.48155575247216"><ele>162.83333333333334</ele><time>2026-05-03T09:05:05.998Z</time></trkpt><trkpt lat="40.761495496428466" lon="17.48143721809095"><ele>163.0</ele><time>2026-05-03T09:05:07.998Z</time></trkpt><trkpt lat="40.76149984754115" lon="17.481332140155526"><ele>164.0</ele><time>2026-05-03T09:05:10Z</time></trkpt><trkpt lat="40.761517127967196" lon="17.481210417011486"><ele>165.0</ele><time>2026-05-03T09:05:12Z</time></trkpt><trkpt lat="40.761528929104934" lon="17.481093419073307"><ele>166.0</ele><time>2026-05-03T09:05:14Z</time></trkpt><trkpt lat="40.76155486754525" lon="17.480938379645668"><ele>167.0</ele><time>2026-05-03T09:05:17Z</time></trkpt><trkpt lat="40.76157608778787" lon="17.48082557751823"><ele>168.0</ele><time>2026-05-03T09:05:19Z</time></trkpt><trkpt lat="40.76159378051306" lon="17.480724924865164"><ele>168.0</ele><time>2026-05-03T09:05:21Z</time></trkpt><trkpt lat="40.7616072607727" lon="17.48062299091608"><ele>168.0</ele><time>2026-05-03T09:05:23Z</time></trkpt><trkpt lat="40.76163050890523" lon="17.480491420596426"><ele>168.0</ele><time>2026-05-03T09:05:25Z</time></trkpt><trkpt lat="40.76165800328725" lon="17.48039058745723"><ele>168.0</ele><time>2026-05-03T09:05:27Z</time></trkpt><trkpt lat="40.76167551387041" lon="17.480293663431382"><ele>168.0</ele><time>2026-05-03T09:05:29Z</time></trkpt><trkpt lat="40.76170958203368" lon="17.480160529525726"><ele>168.0</ele><time>2026-05-03T09:05:31Z</time></trkpt><trkpt lat="40.761737203243804" lon="17.480052160321637"><ele>169.2</ele><time>2026-05-03T09:05:33Z</time></trkpt><trkpt lat="40.761761759185895" lon="17.479932426384572"><ele>170.4</ele><time>2026-05-03T09:05:35Z</time></trkpt><trkpt lat="40.76177783348446" lon="17.47981056164498"><ele>171.6</ele><time>2026-05-03T09:05:37Z</time></trkpt><trkpt lat="40.76180496432804" lon="17.47968452121288"><ele>172.79999999999998</ele><time>2026-05-03T09:05:39Z</time></trkpt><trkpt lat="40.76183189289898" lon="17.47956614360579"><ele>174.0</ele><time>2026-05-03T09:05:41Z</time></trkpt><trkpt lat="40.761857129265145" lon="17.47944320261094"><ele>171.79999999999998</ele><time>2026-05-03T09:05:43Z</time></trkpt><trkpt lat="40.761896923706175" lon="17.479322144421367"><ele>169.6</ele><time>2026-05-03T09:05:45Z</time></trkpt><trkpt lat="40.761926225515886" lon="17.47919254894022"><ele>167.4</ele><time>2026-05-03T09:05:47Z</time></trkpt><trkpt lat="40.761953999962124" lon="17.479064948411896"><ele>165.2</ele><time>2026-05-03T09:05:49Z</time></trkpt><trkpt lat="40.76197361258479" lon="17.47893535788254"><ele>163.0</ele><time>2026-05-03T09:05:51Z</time></trkpt><trkpt lat="40.761991730504036" lon="17.47881345411318"><ele>163.60000000000002</ele><time>2026-05-03T09:05:53Z</time></trkpt><trkpt lat="40.76201392908799" lon="17.478690902932133"><ele>164.20000000000002</ele><time>2026-05-03T09:05:55Z</time></trkpt><trkpt lat="40.76203052953637" lon="17.47857920531294"><ele>164.8</ele><time>2026-05-03T09:05:56.999Z</time></trkpt><trkpt lat="40.762060154425455" lon="17.478451260571866"><ele>165.4</ele><time>2026-05-03T09:05:58.999Z</time></trkpt><trkpt lat="40.762086077505096" lon="17.478310694435155"><ele>166.0</ele><time>2026-05-03T09:06:00.999Z</time></trkpt><trkpt lat="40.762112790829356" lon="17.478179656900988"><ele>166.0</ele><time>2026-05-03T09:06:02.999Z</time></trkpt><trkpt lat="40.76214671783359" lon="17.478056106118625"><ele>166.0</ele><time>2026-05-03T09:06:04.999Z</time></trkpt><trkpt lat="40.76218021396726" lon="17.47792036710417"><ele>166.0</ele><time>2026-05-03T09:06:06.999Z</time></trkpt><trkpt lat="40.76220390799171" lon="17.477782284312323"><ele>166.0</ele><time>2026-05-03T09:06:08.999Z</time></trkpt><trkpt lat="40.76223915387915" lon="17.477637044152395"><ele>166.0</ele><time>2026-05-03T09:06:10.999Z</time></trkpt><trkpt lat="40.76226755896706" lon="17.47751895385439"><ele>166.20000000000002</ele><time>2026-05-03T09:06:12.999Z</time></trkpt><trkpt lat="40.76229516396166" lon="17.47738663168053"><ele>166.4</ele><time>2026-05-03T09:06:14.999Z</time></trkpt><trkpt lat="40.76232571421758" lon="17.477256695199728"><ele>166.6</ele><time>2026-05-03T09:06:16.999Z</time></trkpt><trkpt lat="40.762349754235686" lon="17.477132253224383"><ele>166.8</ele><time>2026-05-03T09:06:18.999Z</time></trkpt><trkpt lat="40.762375081631724" lon="17.476997882869238"><ele>167.0</ele><time>2026-05-03T09:06:20.999Z</time></trkpt><trkpt lat="40.76239527899682" lon="17.476871802967555"><ele>167.66666666666666</ele><time>2026-05-03T09:06:22.999Z</time></trkpt><trkpt lat="40.76240829891462" lon="17.476751758832446"><ele>168.33333333333331</ele><time>2026-05-03T09:06:24.999Z</time></trkpt><trkpt lat="40.76242726165672" lon="17.476614092046923"><ele>169.0</ele><time>2026-05-03T09:06:26.999Z</time></trkpt><trkpt lat="40.76244160160342" lon="17.476512971505308"><ele>169.66666666666666</ele><time>2026-05-03T09:06:28.999Z</time></trkpt><trkpt lat="40.762384871115174" lon="17.47646351688037"><ele>170.33333333333334</ele><time>2026-05-03T09:06:30.999Z</time></trkpt><trkpt lat="40.762304415188765" lon="17.476478121264936"><ele>171.0</ele><time>2026-05-03T09:06:32.999Z</time></trkpt><trkpt lat="40.76221957000941" lon="17.476485993096762"><ele>171.0</ele><time>2026-05-03T09:06:34.999Z</time></trkpt><trkpt lat="40.76214048973912" lon="17.476487196580337"><ele>171.0</ele><time>2026-05-03T09:06:36.999Z</time></trkpt><trkpt lat="40.76206215778813" lon="17.476488161856196"><ele>171.0</ele><time>2026-05-03T09:06:38.999Z</time></trkpt><trkpt lat="40.761979930461926" lon="17.476486353635142"><ele>171.0</ele><time>2026-05-03T09:06:40.999Z</time></trkpt><trkpt lat="40.76188371406383" lon="17.476504079566396"><ele>171.0</ele><time>2026-05-03T09:06:42.999Z</time></trkpt><trkpt lat="40.7618027134184" lon="17.476494377461755"><ele>171.0</ele><time>2026-05-03T09:06:44.999Z</time></trkpt><trkpt lat="40.761725542898866" lon="17.47649355293597"><ele>172.16666666666666</ele><time>2026-05-03T09:06:46.999Z</time></trkpt><trkpt lat="40.761650867654026" lon="17.476477588593912"><ele>173.33333333333334</ele><time>2026-05-03T09:06:48.999Z</time></trkpt><trkpt lat="40.76157032165169" lon="17.476476826977095"><ele>174.5</ele><time>2026-05-03T09:06:50.999Z</time></trkpt><trkpt lat="40.76148551717665" lon="17.47645694447483"><ele>175.66666666666669</ele><time>2026-05-03T09:06:52.999Z</time></trkpt><trkpt lat="40.76140110954651" lon="17.47645379562836"><ele>176.83333333333334</ele><time>2026-05-03T09:06:54.998Z</time></trkpt><trkpt lat="40.76132264971283" lon="17.476452397248213"><ele>178.0</ele><time>2026-05-03T09:06:56.998Z</time></trkpt><trkpt lat="40.7612306290191" lon="17.47644874803813"><ele>178.0</ele><time>2026-05-03T09:06:58.998Z</time></trkpt><trkpt lat="40.76114728773485" lon="17.476443762075128"><ele>178.0</ele><time>2026-05-03T09:07:00.998Z</time></trkpt><trkpt lat="40.76105136869307" lon="17.476429669851743"><ele>178.0</ele><time>2026-05-03T09:07:02.998Z</time></trkpt><trkpt lat="40.760973825501296" lon="17.476415234670178"><ele>178.0</ele><time>2026-05-03T09:07:04.998Z</time></trkpt><trkpt lat="40.76089869917442" lon="17.47639206324942"><ele>178.0</ele><time>2026-05-03T09:07:06.998Z</time></trkpt><trkpt lat="40.76081854885489" lon="17.47637540945593"><ele>178.0</ele><time>2026-05-03T09:07:08.998Z</time></trkpt><trkpt lat="40.76073918986112" lon="17.47634817634901"><ele>179.8</ele><time>2026-05-03T09:07:10.998Z</time></trkpt><trkpt lat="40.760666716754294" lon="17.476333291232127"><ele>181.60000000000002</ele><time>2026-05-03T09:07:12.998Z</time></trkpt><trkpt lat="40.76059919222515" lon="17.47634963383753"><ele>183.39999999999998</ele><time>2026-05-03T09:07:15Z</time></trkpt><trkpt lat="40.76051818117891" lon="17.47633956526039"><ele>185.2</ele><time>2026-05-03T09:07:18Z</time></trkpt><trkpt lat="40.76051813651888" lon="17.476248660358824"><ele>187.0</ele><time>2026-05-03T09:07:22Z</time></trkpt><trkpt lat="40.7605150267605" lon="17.476025088392245"><ele>187.33333333333334</ele><time>2026-05-03T09:07:31Z</time></trkpt><trkpt lat="40.76048980999678" lon="17.475930304471255"><ele>187.66666666666669</ele><time>2026-05-03T09:07:34Z</time></trkpt><trkpt lat="40.76049507345046" lon="17.475829494900278"><ele>188.0</ele><time>2026-05-03T09:07:37Z</time></trkpt><trkpt lat="40.760490147357395" lon="17.47572903466"><ele>188.33333333333334</ele><time>2026-05-03T09:07:40Z</time></trkpt><trkpt lat="40.76047488755031" lon="17.47562446998339"><ele>188.66666666666666</ele><time>2026-05-03T09:07:43Z</time></trkpt><trkpt lat="40.76045012144488" lon="17.475503844927005"><ele>189.0</ele><time>2026-05-03T09:07:46Z</time></trkpt><trkpt lat="40.76045945922298" lon="17.47539336262594"><ele>189.33333333333334</ele><time>2026-05-03T09:07:48Z</time></trkpt><trkpt lat="40.76045858814903" lon="17.475300989274032"><ele>189.66666666666666</ele><time>2026-05-03T09:07:50Z</time></trkpt><trkpt lat="40.76046505827721" lon="17.475200129452958"><ele>190.0</ele><time>2026-05-03T09:07:53Z</time></trkpt><trkpt lat="40.76041831162923" lon="17.475123756373133"><ele>190.33333333333331</ele><time>2026-05-03T09:07:54.999Z</time></trkpt><trkpt lat="40.76036937338617" lon="17.475020836515764"><ele>190.66666666666666</ele><time>2026-05-03T09:07:57.999Z</time></trkpt><trkpt lat="40.760376227835984" lon="17.474894564702073"><ele>191.0</ele><time>2026-05-03T09:08:00.999Z</time></trkpt><trkpt lat="40.7603792020621" lon="17.47477216342142"><ele>191.0</ele><time>2026-05-03T09:08:02.999Z</time></trkpt><trkpt lat="40.76040010121823" lon="17.47467975448545"><ele>191.0</ele><time>2026-05-03T09:08:04.999Z</time></trkpt><trkpt lat="40.760421267816355" lon="17.474579500681603"><ele>191.0</ele><time>2026-05-03T09:08:06.999Z</time></trkpt><trkpt lat="40.76038555132282" lon="17.474491911220145"><ele>191.0</ele><time>2026-05-03T09:08:08.999Z</time></trkpt><trkpt lat="40.76036312375933" lon="17.474395492288345"><ele>191.0</ele><time>2026-05-03T09:08:10.999Z</time></trkpt><trkpt lat="40.7603369760707" lon="17.47431941813004"><ele>191.0</ele><time>2026-05-03T09:08:14.999Z</time></trkpt><trkpt lat="40.760302704245845" lon="17.47422320381132"><ele>191.0</ele><time>2026-05-03T09:08:17.999Z</time></trkpt><trkpt lat="40.76032912450715" lon="17.474137456852908"><ele>190.83333333333331</ele><time>2026-05-03T09:08:20.999Z</time></trkpt><trkpt lat="40.76038925529239" lon="17.474083378001925"><ele>190.66666666666666</ele><time>2026-05-03T09:08:24.999Z</time></trkpt><trkpt lat="40.760314628035594" lon="17.47407892457821"><ele>190.5</ele><time>2026-05-03T09:08:55.998Z</time></trkpt><trkpt lat="40.76028628171289" lon="17.473988617320614"><ele>190.33333333333334</ele><time>2026-05-03T09:09:06.998Z</time></trkpt><trkpt lat="40.76022023128579" lon="17.47392383982924"><ele>190.16666666666669</ele><time>2026-05-03T09:09:10.998Z</time></trkpt><trkpt lat="40.76016305096044" lon="17.4738719543493"><ele>190.0</ele><time>2026-05-03T09:09:13.998Z</time></trkpt><trkpt lat="40.760103593602594" lon="17.47380050381494"><ele>192.0</ele><time>2026-05-03T09:09:16.998Z</time></trkpt><trkpt lat="40.76004617382914" lon="17.473754468309902"><ele>194.0</ele><time>2026-05-03T09:09:19.998Z</time></trkpt><trkpt lat="40.75999642766146" lon="17.473660465860508"><ele>196.0</ele><time>2026-05-03T09:09:24Z</time></trkpt><trkpt lat="40.759932560443666" lon="17.473617411499195"><ele>198.0</ele><time>2026-05-03T09:09:27Z</time></trkpt><trkpt lat="40.75990628946393" lon="17.473531577151405"><ele>199.99999999999997</ele><time>2026-05-03T09:09:30Z</time></trkpt><trkpt lat="40.759837274856274" lon="17.473465128876054"><ele>202.0</ele><time>2026-05-03T09:09:34Z</time></trkpt><trkpt lat="40.759780667383" lon="17.47341183882152"><ele>201.99999999999997</ele><time>2026-05-03T09:09:37Z</time></trkpt><trkpt lat="40.75970060495185" lon="17.473348793771102"><ele>202.0</ele><time>2026-05-03T09:09:41Z</time></trkpt><trkpt lat="40.75964408218909" lon="17.473281642806715"><ele>202.0</ele><time>2026-05-03T09:09:44Z</time></trkpt><trkpt lat="40.7595813244141" lon="17.473219964743443"><ele>202.0</ele><time>2026-05-03T09:09:47Z</time></trkpt><trkpt lat="40.75953022757669" lon="17.473154343289508"><ele>201.99999999999997</ele><time>2026-05-03T09:09:50Z</time></trkpt><trkpt lat="40.75945390912564" lon="17.473091825534407"><ele>202.0</ele><time>2026-05-03T09:09:53Z</time></trkpt><trkpt lat="40.75940161833582" lon="17.473040196168256"><ele>203.33333333333331</ele><time>2026-05-03T09:09:55Z</time></trkpt><trkpt lat="40.75936272044069" lon="17.472955416342273"><ele>204.66666666666666</ele><time>2026-05-03T09:09:58Z</time></trkpt><trkpt lat="40.759308791360866" lon="17.472910539054716"><ele>206.0</ele><time>2026-05-03T09:10:00Z</time></trkpt><trkpt lat="40.759245132434735" lon="17.472835005357755"><ele>207.33333333333331</ele><time>2026-05-03T09:10:02.999Z</time></trkpt><trkpt lat="40.75918379834707" lon="17.47277098507386"><ele>208.66666666666666</ele><time>2026-05-03T09:10:05.999Z</time></trkpt><trkpt lat="40.75910503396191" lon="17.47271225632499"><ele>210.0</ele><time>2026-05-03T09:10:08.999Z</time></trkpt><trkpt lat="40.75904243167386" lon="17.472655867299615"><ele>210.0</ele><time>2026-05-03T09:10:11.999Z</time></trkpt><trkpt lat="40.75895116563491" lon="17.472597391718054"><ele>210.0</ele><time>2026-05-03T09:10:15.999Z</time></trkpt><trkpt lat="40.758879210252054" lon="17.472535330525442"><ele>210.0</ele><time>2026-05-03T09:10:18.999Z</time></trkpt><trkpt lat="40.7587930933698" lon="17.472502003255283"><ele>210.0</ele><time>2026-05-03T09:10:20.999Z</time></trkpt><trkpt lat="40.758717332776826" lon="17.472443112463974"><ele>210.0</ele><time>2026-05-03T09:10:23.999Z</time></trkpt><trkpt lat="40.758648682624184" lon="17.472381362102197"><ele>210.0</ele><time>2026-05-03T09:10:25.999Z</time></trkpt><trkpt lat="40.75857973045232" lon="17.472300730265555"><ele>210.83333333333334</ele><time>2026-05-03T09:10:27.999Z</time></trkpt><trkpt lat="40.75852844721358" lon="17.47221908231931"><ele>211.66666666666669</ele><time>2026-05-03T09:10:29.999Z</time></trkpt><trkpt lat="40.75846177578361" lon="17.472161961261385"><ele>212.5</ele><time>2026-05-03T09:10:31.999Z</time></trkpt><trkpt lat="40.758397949155984" lon="17.472081449759347"><ele>213.33333333333334</ele><time>2026-05-03T09:10:33.999Z</time></trkpt><trkpt lat="40.75834188196951" lon="17.472015752494105"><ele>214.16666666666669</ele><time>2026-05-03T09:10:35.999Z</time></trkpt><trkpt lat="40.75824525250381" lon="17.47193794950537"><ele>215.0</ele><time>2026-05-03T09:10:37.999Z</time></trkpt><trkpt lat="40.758187792468306" lon="17.471841465498503"><ele>215.00000000000003</ele><time>2026-05-03T09:10:39.999Z</time></trkpt><trkpt lat="40.758130897016805" lon="17.471795131233396"><ele>215.0</ele><time>2026-05-03T09:10:41.999Z</time></trkpt><trkpt lat="40.75806857103692" lon="17.471699432479802"><ele>215.0</ele><time>2026-05-03T09:10:43.999Z</time></trkpt><trkpt lat="40.75802384704927" lon="17.471630172236345"><ele>215.0</ele><time>2026-05-03T09:10:44.999Z</time></trkpt><trkpt lat="40.75795575035384" lon="17.4715471527941"><ele>215.00000000000003</ele><time>2026-05-03T09:10:46.999Z</time></trkpt><trkpt lat="40.757880318786995" lon="17.471445584903883"><ele>215.0</ele><time>2026-05-03T09:10:48.999Z</time></trkpt><trkpt lat="40.757809435851605" lon="17.47134413254287"><ele>214.6</ele><time>2026-05-03T09:10:50.999Z</time></trkpt><trkpt lat="40.75779979595805" lon="17.471243979319873"><ele>214.2</ele><time>2026-05-03T09:10:52.999Z</time></trkpt><trkpt lat="40.757731219230834" lon="17.471117903431452"><ele>213.8</ele><time>2026-05-03T09:10:54.999Z</time></trkpt><trkpt lat="40.75771766538796" lon="17.47099290057169"><ele>213.4</ele><time>2026-05-03T09:10:56.999Z</time></trkpt><trkpt lat="40.75770037061309" lon="17.470887619865977"><ele>213.0</ele><time>2026-05-03T09:10:58.999Z</time></trkpt><trkpt lat="40.757685498464646" lon="17.470773380239763"><ele>213.0</ele><time>2026-05-03T09:11:00.998Z</time></trkpt><trkpt lat="40.757688083793774" lon="17.470677155311723"><ele>213.0</ele><time>2026-05-03T09:11:02.998Z</time></trkpt><trkpt lat="40.757726001156286" lon="17.470545563734458"><ele>213.0</ele><time>2026-05-03T09:11:04.998Z</time></trkpt><trkpt lat="40.75778236241511" lon="17.470411461515358"><ele>213.0</ele><time>2026-05-03T09:11:06.998Z</time></trkpt><trkpt lat="40.75785621772202" lon="17.47029114479601"><ele>213.0</ele><time>2026-05-03T09:11:09.998Z</time></trkpt><trkpt lat="40.757947849050176" lon="17.47015995037046"><ele>214.60000000000002</ele><time>2026-05-03T09:11:11.998Z</time></trkpt><trkpt lat="40.75804518902945" lon="17.470051443111775"><ele>216.20000000000002</ele><time>2026-05-03T09:11:13.998Z</time></trkpt><trkpt lat="40.75813583466559" lon="17.469939590041317"><ele>217.8</ele><time>2026-05-03T09:11:15.998Z</time></trkpt><trkpt lat="40.75817995011348" lon="17.469880294263355"><ele>219.4</ele><time>2026-05-03T09:11:16.998Z</time></trkpt><trkpt lat="40.7582681312651" lon="17.46977816458134"><ele>221.0</ele><time>2026-05-03T09:11:18.998Z</time></trkpt><trkpt lat="40.758342059835364" lon="17.46968700024336"><ele>221.00000000000003</ele><time>2026-05-03T09:11:20.998Z</time></trkpt><trkpt lat="40.758405938400045" lon="17.46963592114855"><ele>221.0</ele><time>2026-05-03T09:11:21.998Z</time></trkpt><trkpt lat="40.758497346699535" lon="17.46952782260908"><ele>221.0</ele><time>2026-05-03T09:11:23.998Z</time></trkpt><trkpt lat="40.75857131642308" lon="17.469491246420606"><ele>221.0</ele><time>2026-05-03T09:11:24.998Z</time></trkpt><trkpt lat="40.75862725396465" lon="17.469430454419953"><ele>221.00000000000003</ele><time>2026-05-03T09:11:25.998Z</time></trkpt><trkpt lat="40.75868970536076" lon="17.469386722932608"><ele>221.0</ele><time>2026-05-03T09:11:27Z</time></trkpt><trkpt lat="40.75877814544053" lon="17.469279155766515"><ele>221.16666666666669</ele><time>2026-05-03T09:11:29Z</time></trkpt><trkpt lat="40.75879377205995" lon="17.469189806244827"><ele>221.33333333333334</ele><time>2026-05-03T09:11:30Z</time></trkpt><trkpt lat="40.75883942857305" lon="17.469127855005137"><ele>221.5</ele><time>2026-05-03T09:11:31Z</time></trkpt><trkpt lat="40.758897613513575" lon="17.469064126660037"><ele>221.66666666666669</ele><time>2026-05-03T09:11:32Z</time></trkpt><trkpt lat="40.75894887044985" lon="17.468962320134196"><ele>221.83333333333334</ele><time>2026-05-03T09:11:34Z</time></trkpt><trkpt lat="40.75903577178002" lon="17.46888949131446"><ele>222.0</ele><time>2026-05-03T09:11:36Z</time></trkpt><trkpt lat="40.75909791241298" lon="17.4687515487236"><ele>222.0</ele><time>2026-05-03T09:11:38Z</time></trkpt><trkpt lat="40.75912289842225" lon="17.46866490537487"><ele>222.0</ele><time>2026-05-03T09:11:40Z</time></trkpt><trkpt lat="40.75916167378255" lon="17.46854645562652"><ele>222.0</ele><time>2026-05-03T09:11:42Z</time></trkpt><trkpt lat="40.759201616962926" lon="17.468443792850742"><ele>222.0</ele><time>2026-05-03T09:11:44Z</time></trkpt><trkpt lat="40.759264874650285" lon="17.468330342368"><ele>222.0</ele><time>2026-05-03T09:11:46Z</time></trkpt><trkpt lat="40.759284273607214" lon="17.46824836361121"><ele>222.0</ele><time>2026-05-03T09:11:48Z</time></trkpt><trkpt lat="40.75931269431553" lon="17.468168462535353"><ele>219.0</ele><time>2026-05-03T09:11:49Z</time></trkpt><trkpt lat="40.75937106991426" lon="17.468073666110755"><ele>216.0</ele><time>2026-05-03T09:11:51Z</time></trkpt><trkpt lat="40.75940472232094" lon="17.467912640874392"><ele>213.0</ele><time>2026-05-03T09:11:53Z</time></trkpt><trkpt lat="40.75945947096749" lon="17.467793315402016"><ele>210.0</ele><time>2026-05-03T09:11:55Z</time></trkpt><trkpt lat="40.75949609413377" lon="17.467707058658494"><ele>207.0</ele><time>2026-05-03T09:11:57Z</time></trkpt><trkpt lat="40.75952390115583" lon="17.46781460089121"><ele>207.0</ele><time>2026-05-03T09:12:03Z</time></trkpt><trkpt lat="40.75957479741639" lon="17.46774185560099"><ele>207.0</ele><time>2026-05-03T09:12:07Z</time></trkpt><trkpt lat="40.75963364140941" lon="17.467633683425458"><ele>207.0</ele><time>2026-05-03T09:12:11.999Z</time></trkpt><trkpt lat="40.75965229796682" lon="17.46751525809789"><ele>207.0</ele><time>2026-05-03T09:13:08.999Z</time></trkpt><trkpt lat="40.75969432339765" lon="17.467397873605684"><ele>207.0</ele><time>2026-05-03T09:13:11.998Z</time></trkpt><trkpt lat="40.7597319479656" lon="17.467308391551718"><ele>207.0</ele><time>2026-05-03T09:13:13.998Z</time></trkpt><trkpt lat="40.75974509871808" lon="17.467199772772386"><ele>207.00000000000003</ele><time>2026-05-03T09:13:15.998Z</time></trkpt><trkpt lat="40.75976306191232" lon="17.467111065040307"><ele>207.0</ele><time>2026-05-03T09:13:17.998Z</time></trkpt><trkpt lat="40.75978281586677" lon="17.467021221399573"><ele>207.0</ele><time>2026-05-03T09:13:19.998Z</time></trkpt><trkpt lat="40.75981331184938" lon="17.46693380408028"><ele>207.0</ele><time>2026-05-03T09:13:22.998Z</time></trkpt><trkpt lat="40.75980922347609" lon="17.46683620267863"><ele>207.0</ele><time>2026-05-03T09:13:24.998Z</time></trkpt><trkpt lat="40.75981831834726" lon="17.4667519545088"><ele>207.00000000000003</ele><time>2026-05-03T09:13:26.998Z</time></trkpt><trkpt lat="40.75979614445523" lon="17.466641691054566"><ele>207.0</ele><time>2026-05-03T09:13:29.998Z</time></trkpt><trkpt lat="40.75980435031834" lon="17.466551584016912"><ele>207.5</ele><time>2026-05-03T09:13:31.998Z</time></trkpt><trkpt lat="40.75979295257963" lon="17.466468969077127"><ele>208.0</ele><time>2026-05-03T09:13:34Z</time></trkpt><trkpt lat="40.759775296442065" lon="17.466384532633448"><ele>208.5</ele><time>2026-05-03T09:13:36Z</time></trkpt><trkpt lat="40.75978476742308" lon="17.466298718131142"><ele>209.0</ele><time>2026-05-03T09:13:40Z</time></trkpt><trkpt lat="40.75984904505409" lon="17.466306795205906"><ele>209.5</ele><time>2026-05-03T09:13:43Z</time></trkpt><trkpt lat="40.759948730749706" lon="17.46637337309583"><ele>210.0</ele><time>2026-05-03T09:13:46Z</time></trkpt><trkpt lat="40.760038243718" lon="17.466406584921163"><ele>207.75</ele><time>2026-05-03T09:13:49Z</time></trkpt><trkpt lat="40.76023719907417" lon="17.466464924920302"><ele>205.5</ele><time>2026-05-03T09:13:50Z</time></trkpt><trkpt lat="40.760352607736934" lon="17.466475499442506"><ele>203.25</ele><time>2026-05-03T09:13:52Z</time></trkpt><trkpt lat="40.760417504690146" lon="17.466524650515645"><ele>201.0</ele><time>2026-05-03T09:13:53Z</time></trkpt><trkpt lat="40.76055158083226" lon="17.46657941836048"><ele>201.0</ele><time>2026-05-03T09:13:55Z</time></trkpt><trkpt lat="40.76063749345153" lon="17.46663054557616"><ele>201.0</ele><time>2026-05-03T09:13:56Z</time></trkpt><trkpt lat="40.76074951309529" lon="17.46670842633896"><ele>201.0</ele><time>2026-05-03T09:13:58Z</time></trkpt><trkpt lat="40.760814710578124" lon="17.46675336105227"><ele>201.0</ele><time>2026-05-03T09:13:59Z</time></trkpt><trkpt lat="40.7608962265513" lon="17.46678532383793"><ele>201.0</ele><time>2026-05-03T09:14:00Z</time></trkpt><trkpt lat="40.760957287904695" lon="17.46683511112688"><ele>199.83333333333334</ele><time>2026-05-03T09:14:01Z</time></trkpt><trkpt lat="40.76104149664033" lon="17.466866462777332"><ele>198.66666666666669</ele><time>2026-05-03T09:14:02Z</time></trkpt><trkpt lat="40.76110326248545" lon="17.466926251191147"><ele>197.5</ele><time>2026-05-03T09:14:03Z</time></trkpt><trkpt lat="40.761188823599745" lon="17.466966127694157"><ele>196.33333333333334</ele><time>2026-05-03T09:14:04Z</time></trkpt><trkpt lat="40.761255891411516" lon="17.467010301344775"><ele>195.16666666666669</ele><time>2026-05-03T09:14:05Z</time></trkpt><trkpt lat="40.76132737102857" lon="17.467071988422056"><ele>194.0</ele><time>2026-05-03T09:14:06Z</time></trkpt><trkpt lat="40.76140359266159" lon="17.467099410500214"><ele>194.00000000000003</ele><time>2026-05-03T09:14:07Z</time></trkpt><trkpt lat="40.76146800066631" lon="17.46713380727482"><ele>194.0</ele><time>2026-05-03T09:14:08Z</time></trkpt><trkpt lat="40.761528778853325" lon="17.46705680794112"><ele>194.0</ele><time>2026-05-03T09:14:13Z</time></trkpt><trkpt lat="40.761546729737795" lon="17.46697269296897"><ele>194.0</ele><time>2026-05-03T09:14:15Z</time></trkpt><trkpt lat="40.76158785869874" lon="17.466862726109404"><ele>194.00000000000003</ele><time>2026-05-03T09:14:17.999Z</time></trkpt><trkpt lat="40.76163079958429" lon="17.46675740585468"><ele>194.0</ele><time>2026-05-03T09:14:20.999Z</time></trkpt><trkpt lat="40.7616434526417" lon="17.4666504865948"><ele>194.00000000000003</ele><time>2026-05-03T09:14:22.999Z</time></trkpt><trkpt lat="40.76165733811235" lon="17.4665503805574"><ele>194.0</ele><time>2026-05-03T09:14:24.999Z</time></trkpt><trkpt lat="40.76167957570013" lon="17.466461832043382"><ele>194.0</ele><time>2026-05-03T09:14:26.999Z</time></trkpt><trkpt lat="40.76170749811962" lon="17.466344221465096"><ele>194.0</ele><time>2026-05-03T09:14:28.999Z</time></trkpt><trkpt lat="40.76173048154574" lon="17.46624797704581"><ele>194.00000000000003</ele><time>2026-05-03T09:14:30.999Z</time></trkpt><trkpt lat="40.76175297880273" lon="17.466138557093448"><ele>194.0</ele><time>2026-05-03T09:14:32.999Z</time></trkpt><trkpt lat="40.76177962215215" lon="17.466021854471332"><ele>194.6</ele><time>2026-05-03T09:14:34.999Z</time></trkpt><trkpt lat="40.76181726908205" lon="17.46590843652997"><ele>195.2</ele><time>2026-05-03T09:14:36.999Z</time></trkpt><trkpt lat="40.761833181989324" lon="17.46578172517884"><ele>195.79999999999998</ele><time>2026-05-03T09:14:38.999Z</time></trkpt><trkpt lat="40.76185375804277" lon="17.46566035079012"><ele>196.39999999999998</ele><time>2026-05-03T09:14:40.999Z</time></trkpt><trkpt lat="40.76185774672589" lon="17.465541536552912"><ele>197.0</ele><time>2026-05-03T09:14:42.999Z</time></trkpt><trkpt lat="40.7618553585113" lon="17.46541920756884"><ele>197.2</ele><time>2026-05-03T09:14:44.999Z</time></trkpt><trkpt lat="40.76184869440533" lon="17.465296186319474"><ele>197.39999999999998</ele><time>2026-05-03T09:14:46.999Z</time></trkpt><trkpt lat="40.76184191696789" lon="17.46517392266419"><ele>197.60000000000002</ele><time>2026-05-03T09:14:48.999Z</time></trkpt><trkpt lat="40.76182386796405" lon="17.465049549713967"><ele>197.8</ele><time>2026-05-03T09:14:50.999Z</time></trkpt><trkpt lat="40.761805560186566" lon="17.464929842862844"><ele>198.0</ele><time>2026-05-03T09:14:52.999Z</time></trkpt><trkpt lat="40.76178405034822" lon="17.46481235493482"><ele>198.0</ele><time>2026-05-03T09:14:54.999Z</time></trkpt><trkpt lat="40.7617785269633" lon="17.46470503333558"><ele>198.0</ele><time>2026-05-03T09:14:56.999Z</time></trkpt><trkpt lat="40.7617660325355" lon="17.464578458788083"><ele>198.0</ele><time>2026-05-03T09:14:58.999Z</time></trkpt><trkpt lat="40.76175444350956" lon="17.46446604156787"><ele>198.0</ele><time>2026-05-03T09:15:00.999Z</time></trkpt><trkpt lat="40.76174016057274" lon="17.464351489376142"><ele>198.0</ele><time>2026-05-03T09:15:02.999Z</time></trkpt><trkpt lat="40.761717895059164" lon="17.464234028232266"><ele>198.0</ele><time>2026-05-03T09:15:04.999Z</time></trkpt><trkpt lat="40.76171522128475" lon="17.46413338420137"><ele>198.66666666666666</ele><time>2026-05-03T09:15:06.999Z</time></trkpt><trkpt lat="40.761694902671266" lon="17.464027844139263"><ele>199.33333333333331</ele><time>2026-05-03T09:15:08.999Z</time></trkpt><trkpt lat="40.761708502601955" lon="17.463925688915545"><ele>200.0</ele><time>2026-05-03T09:15:10.999Z</time></trkpt><trkpt lat="40.76172014923027" lon="17.46381532593122"><ele>200.66666666666666</ele><time>2026-05-03T09:15:12.998Z</time></trkpt><trkpt lat="40.76174911571768" lon="17.463710106952654"><ele>201.33333333333331</ele><time>2026-05-03T09:15:14.998Z</time></trkpt><trkpt lat="40.76179172273926" lon="17.463587860445656"><ele>202.0</ele><time>2026-05-03T09:15:16.998Z</time></trkpt><trkpt lat="40.76184028560006" lon="17.463451436168018"><ele>200.6</ele><time>2026-05-03T09:15:18.998Z</time></trkpt><trkpt lat="40.76188344149756" lon="17.463311958217414"><ele>199.2</ele><time>2026-05-03T09:15:20.998Z</time></trkpt><trkpt lat="40.761931186671" lon="17.463167481507156"><ele>197.8</ele><time>2026-05-03T09:15:22.998Z</time></trkpt><trkpt lat="40.76195603575352" lon="17.463086919738792"><ele>196.4</ele><time>2026-05-03T09:15:23.998Z</time></trkpt><trkpt lat="40.76198351603508" lon="17.46292729472572"><ele>195.0</ele><time>2026-05-03T09:15:25.998Z</time></trkpt><trkpt lat="40.762011011240226" lon="17.462851539120773"><ele>195.0</ele><time>2026-05-03T09:15:26.998Z</time></trkpt><trkpt lat="40.76203812882976" lon="17.462684310941114"><ele>195.0</ele><time>2026-05-03T09:15:28.998Z</time></trkpt><trkpt lat="40.762045901456574" lon="17.462532328361537"><ele>195.0</ele><time>2026-05-03T09:15:30.998Z</time></trkpt><trkpt lat="40.7620531912402" lon="17.4624483845229"><ele>195.0</ele><time>2026-05-03T09:15:31.998Z</time></trkpt><trkpt lat="40.76207697991832" lon="17.46230702567349"><ele>195.0</ele><time>2026-05-03T09:15:33.998Z</time></trkpt><trkpt lat="40.76209873143852" lon="17.462162186872586"><ele>195.75</ele><time>2026-05-03T09:15:35.998Z</time></trkpt><trkpt lat="40.762117534479614" lon="17.46201957420356"><ele>196.5</ele><time>2026-05-03T09:15:37.998Z</time></trkpt><trkpt lat="40.762143239609" lon="17.46187993255178"><ele>197.25</ele><time>2026-05-03T09:15:40Z</time></trkpt><trkpt lat="40.76217527019106" lon="17.461736961576726"><ele>198.0</ele><time>2026-05-03T09:15:42Z</time></trkpt><trkpt lat="40.762197430313186" lon="17.46157895880844"><ele>198.0</ele><time>2026-05-03T09:15:44Z</time></trkpt><trkpt lat="40.7622219558028" lon="17.46144092151252"><ele>198.0</ele><time>2026-05-03T09:15:46Z</time></trkpt><trkpt lat="40.76224943821953" lon="17.46136183031452"><ele>198.0</ele><time>2026-05-03T09:15:47Z</time></trkpt><trkpt lat="40.76228319739535" lon="17.461216117632734"><ele>198.0</ele><time>2026-05-03T09:15:49Z</time></trkpt><trkpt lat="40.762310867833875" lon="17.461073434980403"><ele>198.0</ele><time>2026-05-03T09:15:51Z</time></trkpt><trkpt lat="40.7623505473996" lon="17.460925286025212"><ele>198.4</ele><time>2026-05-03T09:15:53Z</time></trkpt><trkpt lat="40.76238502368411" lon="17.460786758320793"><ele>198.8</ele><time>2026-05-03T09:15:55Z</time></trkpt><trkpt lat="40.762418156209485" lon="17.46064562697811"><ele>199.2</ele><time>2026-05-03T09:15:57Z</time></trkpt><trkpt lat="40.76245309635357" lon="17.46052032773958"><ele>199.6</ele><time>2026-05-03T09:15:59Z</time></trkpt><trkpt lat="40.76246337797174" lon="17.46043810605702"><ele>200.0</ele><time>2026-05-03T09:16:00Z</time></trkpt><trkpt lat="40.76250552196294" lon="17.46029580493002"><ele>199.75</ele><time>2026-05-03T09:16:02Z</time></trkpt><trkpt lat="40.762543994924286" lon="17.460150665865978"><ele>199.5</ele><time>2026-05-03T09:16:04Z</time></trkpt><trkpt lat="40.762586246796175" lon="17.46001245116071"><ele>199.25</ele><time>2026-05-03T09:16:06Z</time></trkpt><trkpt lat="40.76264046603638" lon="17.459879853799823"><ele>199.0</ele><time>2026-05-03T09:16:08Z</time></trkpt><trkpt lat="40.76272024734331" lon="17.45976613921522"><ele>199.0</ele><time>2026-05-03T09:16:10Z</time></trkpt><trkpt lat="40.76279336587733" lon="17.459624003804247"><ele>199.0</ele><time>2026-05-03T09:16:12Z</time></trkpt><trkpt lat="40.76287597517859" lon="17.4595097914073"><ele>199.0</ele><time>2026-05-03T09:16:14Z</time></trkpt><trkpt lat="40.76291735063175" lon="17.45944515339001"><ele>199.0</ele><time>2026-05-03T09:16:15Z</time></trkpt><trkpt lat="40.76296204655206" lon="17.459370806019045"><ele>199.0</ele><time>2026-05-03T09:16:16Z</time></trkpt><trkpt lat="40.76302918535475" lon="17.459243910327615"><ele>199.2</ele><time>2026-05-03T09:16:18Z</time></trkpt><trkpt lat="40.76306159413386" lon="17.45917160692922"><ele>199.39999999999998</ele><time>2026-05-03T09:16:19Z</time></trkpt><trkpt lat="40.76309331099449" lon="17.459096541307"><ele>199.6</ele><time>2026-05-03T09:16:20Z</time></trkpt><trkpt lat="40.763162530147135" lon="17.458990126257756"><ele>199.8</ele><time>2026-05-03T09:16:22Z</time></trkpt><trkpt lat="40.763217789077665" lon="17.458854896604347"><ele>200.0</ele><time>2026-05-03T09:16:23.999Z</time></trkpt><trkpt lat="40.763269959450575" lon="17.458726922488033"><ele>200.6</ele><time>2026-05-03T09:16:25.999Z</time></trkpt><trkpt lat="40.76332826462639" lon="17.458607830311333"><ele>201.2</ele><time>2026-05-03T09:16:27.999Z</time></trkpt><trkpt lat="40.76336193967692" lon="17.45844893465798"><ele>201.8</ele><time>2026-05-03T09:16:29.999Z</time></trkpt><trkpt lat="40.763421002436395" lon="17.458334953990583"><ele>202.4</ele><time>2026-05-03T09:16:31.999Z</time></trkpt><trkpt lat="40.763442277382644" lon="17.458197404790564"><ele>203.0</ele><time>2026-05-03T09:16:33.999Z</time></trkpt><trkpt lat="40.7634737336836" lon="17.45809673818607"><ele>201.4</ele><time>2026-05-03T09:16:35.999Z</time></trkpt><trkpt lat="40.763549589139465" lon="17.458111183797637"><ele>199.8</ele><time>2026-05-03T09:16:38.999Z</time></trkpt><trkpt lat="40.763616845327434" lon="17.458050033874255"><ele>198.2</ele><time>2026-05-03T09:16:42.999Z</time></trkpt><trkpt lat="40.76368290666773" lon="17.458053422563925"><ele>196.6</ele><time>2026-05-03T09:16:43.999Z</time></trkpt><trkpt lat="40.763791485610206" lon="17.45813979966341"><ele>195.0</ele><time>2026-05-03T09:16:45.999Z</time></trkpt><trkpt lat="40.763897072176924" lon="17.458237022943695"><ele>195.0</ele><time>2026-05-03T09:16:47.999Z</time></trkpt><trkpt lat="40.764002524229475" lon="17.458304981809423"><ele>195.0</ele><time>2026-05-03T09:16:49.999Z</time></trkpt><trkpt lat="40.76409262430073" lon="17.458345276307917"><ele>195.0</ele><time>2026-05-03T09:16:50.999Z</time></trkpt><trkpt lat="40.76416381799092" lon="17.458389069187685"><ele>195.0</ele><time>2026-05-03T09:16:51.999Z</time></trkpt><trkpt lat="40.76422211556751" lon="17.458432267385664"><ele>195.0</ele><time>2026-05-03T09:16:52.999Z</time></trkpt><trkpt lat="40.764304683239935" lon="17.458463045850575"><ele>195.0</ele><time>2026-05-03T09:16:53.999Z</time></trkpt><trkpt lat="40.76436371223884" lon="17.45850591185072"><ele>194.0</ele><time>2026-05-03T09:16:54.999Z</time></trkpt><trkpt lat="40.76443125519187" lon="17.45856396867547"><ele>193.0</ele><time>2026-05-03T09:16:55.999Z</time></trkpt><trkpt lat="40.76450367344311" lon="17.45861234929225"><ele>192.0</ele><time>2026-05-03T09:16:56.999Z</time></trkpt><trkpt lat="40.76462623578352" lon="17.458665111842336"><ele>191.0</ele><time>2026-05-03T09:16:58.999Z</time></trkpt><trkpt lat="40.7646952264958" lon="17.458665637491745"><ele>190.0</ele><time>2026-05-03T09:16:59.999Z</time></trkpt><trkpt lat="40.7647584549848" lon="17.458661234762808"><ele>189.0</ele><time>2026-05-03T09:17:00.999Z</time></trkpt><trkpt lat="40.7648288493578" lon="17.458668890350587"><ele>189.0</ele><time>2026-05-03T09:17:01.999Z</time></trkpt><trkpt lat="40.76492033542408" lon="17.458731645656172"><ele>189.0</ele><time>2026-05-03T09:17:03.999Z</time></trkpt><trkpt lat="40.76496645052277" lon="17.458790255784212"><ele>189.0</ele><time>2026-05-03T09:17:04.999Z</time></trkpt><trkpt lat="40.765078364315244" lon="17.458828137520374"><ele>189.0</ele><time>2026-05-03T09:17:06.999Z</time></trkpt><trkpt lat="40.76517028677321" lon="17.45879894004083"><ele>189.0</ele><time>2026-05-03T09:17:08.999Z</time></trkpt><trkpt lat="40.76523393265306" lon="17.458719663118828"><ele>188.33333333333334</ele><time>2026-05-03T09:17:10.999Z</time></trkpt><trkpt lat="40.76531660211136" lon="17.458768258262765"><ele>187.66666666666666</ele><time>2026-05-03T09:17:12.999Z</time></trkpt><trkpt lat="40.765349398743105" lon="17.458918035006736"><ele>187.0</ele><time>2026-05-03T09:17:14.999Z</time></trkpt><trkpt lat="40.7653423936874" lon="17.459026829112688"><ele>186.33333333333331</ele><time>2026-05-03T09:17:16.999Z</time></trkpt><trkpt lat="40.76535447257747" lon="17.459133499028415"><ele>185.66666666666666</ele><time>2026-05-03T09:17:20.998Z</time></trkpt><trkpt lat="40.765413851226484" lon="17.459180076466268"><ele>185.0</ele><time>2026-05-03T09:17:23.998Z</time></trkpt><trkpt lat="40.765474482190285" lon="17.45923415195849"><ele>184.16666666666666</ele><time>2026-05-03T09:17:26.998Z</time></trkpt><trkpt lat="40.76557583558129" lon="17.459225675118457"><ele>183.33333333333331</ele><time>2026-05-03T09:17:29.998Z</time></trkpt><trkpt lat="40.76564651028391" lon="17.459288116719183"><ele>182.5</ele><time>2026-05-03T09:17:32.998Z</time></trkpt><trkpt lat="40.765700603464495" lon="17.459361784066605"><ele>181.66666666666666</ele><time>2026-05-03T09:17:34.998Z</time></trkpt><trkpt lat="40.76576850424611" lon="17.459414551362265"><ele>180.83333333333334</ele><time>2026-05-03T09:17:36.998Z</time></trkpt><trkpt lat="40.76579477774626" lon="17.45949853940735"><ele>180.0</ele><time>2026-05-03T09:17:38.998Z</time></trkpt><trkpt lat="40.765877772062666" lon="17.4595484510875"><ele>180.0</ele><time>2026-05-03T09:17:41.998Z</time></trkpt><trkpt lat="40.76592262725596" lon="17.459614682057772"><ele>180.0</ele><time>2026-05-03T09:17:45Z</time></trkpt><trkpt lat="40.765979997669426" lon="17.45967202288894"><ele>180.0</ele><time>2026-05-03T09:17:47Z</time></trkpt><trkpt lat="40.766039571189076" lon="17.45970524775951"><ele>180.0</ele><time>2026-05-03T09:17:49Z</time></trkpt><trkpt lat="40.76612243144792" lon="17.45966295742575"><ele>180.0</ele><time>2026-05-03T09:17:51Z</time></trkpt><trkpt lat="40.76619653907182" lon="17.459655607747678"><ele>180.0</ele><time>2026-05-03T09:17:52Z</time></trkpt><trkpt lat="40.76628277946997" lon="17.459657423468833"><ele>178.16666666666666</ele><time>2026-05-03T09:17:53Z</time></trkpt><trkpt lat="40.766355303793446" lon="17.459712813084497"><ele>176.33333333333334</ele><time>2026-05-03T09:17:54Z</time></trkpt><trkpt lat="40.76640192653585" lon="17.45980097993545"><ele>174.5</ele><time>2026-05-03T09:17:55Z</time></trkpt><trkpt lat="40.76644657228758" lon="17.45987373740329"><ele>172.66666666666669</ele><time>2026-05-03T09:17:56Z</time></trkpt><trkpt lat="40.76650077364654" lon="17.459930124147434"><ele>170.83333333333334</ele><time>2026-05-03T09:17:57Z</time></trkpt><trkpt lat="40.766566029138076" lon="17.459990112887585"><ele>169.0</ele><time>2026-05-03T09:17:58Z</time></trkpt><trkpt lat="40.7666092698728" lon="17.460064323381193"><ele>169.0</ele><time>2026-05-03T09:17:59Z</time></trkpt><trkpt lat="40.76664424056532" lon="17.46016671533192"><ele>169.0</ele><time>2026-05-03T09:18:00Z</time></trkpt><trkpt lat="40.76666290535781" lon="17.460257512060203"><ele>169.0</ele><time>2026-05-03T09:18:01Z</time></trkpt><trkpt lat="40.76668811285301" lon="17.460344318339793"><ele>169.0</ele><time>2026-05-03T09:18:02Z</time></trkpt><trkpt lat="40.76672798459971" lon="17.460421803713167"><ele>169.0</ele><time>2026-05-03T09:18:03Z</time></trkpt><trkpt lat="40.766785762289864" lon="17.460485833648264"><ele>169.0</ele><time>2026-05-03T09:18:04Z</time></trkpt><trkpt lat="40.76684252923752" lon="17.460526844978215"><ele>169.0</ele><time>2026-05-03T09:18:05Z</time></trkpt><trkpt lat="40.766914586661436" lon="17.460574900960733"><ele>167.5</ele><time>2026-05-03T09:18:06Z</time></trkpt><trkpt lat="40.7669849700709" lon="17.460591071357566"><ele>166.0</ele><time>2026-05-03T09:18:07Z</time></trkpt><trkpt lat="40.76705055618784" lon="17.460581840087603"><ele>164.5</ele><time>2026-05-03T09:18:08Z</time></trkpt><trkpt lat="40.76713252138585" lon="17.460565330058753"><ele>163.0</ele><time>2026-05-03T09:18:09Z</time></trkpt><trkpt lat="40.76720694682492" lon="17.460533358704282"><ele>161.5</ele><time>2026-05-03T09:18:10Z</time></trkpt><trkpt lat="40.76727207288852" lon="17.460510336225344"><ele>160.0</ele><time>2026-05-03T09:18:11Z</time></trkpt><trkpt lat="40.767383423401846" lon="17.460494199963698"><ele>160.0</ele><time>2026-05-03T09:18:13Z</time></trkpt><trkpt lat="40.767462737500075" lon="17.460451762248237"><ele>160.0</ele><time>2026-05-03T09:18:15Z</time></trkpt><trkpt lat="40.76754487721738" lon="17.46037962858512"><ele>160.0</ele><time>2026-05-03T09:18:17Z</time></trkpt><trkpt lat="40.76759982545571" lon="17.460337336625667"><ele>160.0</ele><time>2026-05-03T09:18:18Z</time></trkpt><trkpt lat="40.76765410090569" lon="17.46028084158893"><ele>160.0</ele><time>2026-05-03T09:18:19Z</time></trkpt><trkpt lat="40.76776060194172" lon="17.46028543455728"><ele>160.0</ele><time>2026-05-03T09:18:21Z</time></trkpt><trkpt lat="40.76781757482177" lon="17.46024331347224"><ele>159.0</ele><time>2026-05-03T09:18:22Z</time></trkpt><trkpt lat="40.76792343693236" lon="17.46017874390291"><ele>158.0</ele><time>2026-05-03T09:18:24Z</time></trkpt><trkpt lat="40.76799732004032" lon="17.460069994911144"><ele>157.0</ele><time>2026-05-03T09:18:25.999Z</time></trkpt><trkpt lat="40.76808449081095" lon="17.4599899563276"><ele>156.0</ele><time>2026-05-03T09:18:27.999Z</time></trkpt><trkpt lat="40.768176733217544" lon="17.459946337885405"><ele>155.0</ele><time>2026-05-03T09:18:29.999Z</time></trkpt><trkpt lat="40.76827772514561" lon="17.459894578622567"><ele>155.0</ele><time>2026-05-03T09:18:31.999Z</time></trkpt><trkpt lat="40.768344993211294" lon="17.459857456806436"><ele>155.0</ele><time>2026-05-03T09:18:33.999Z</time></trkpt><trkpt lat="40.76841258837923" lon="17.459834102783027"><ele>155.0</ele><time>2026-05-03T09:18:34.999Z</time></trkpt><trkpt lat="40.7685074890615" lon="17.45977641455617"><ele>155.0</ele><time>2026-05-03T09:18:37.999Z</time></trkpt><trkpt lat="40.768592626309605" lon="17.459781352259768"><ele>155.0</ele><time>2026-05-03T09:18:39.999Z</time></trkpt><trkpt lat="40.76865680709154" lon="17.45975382377717"><ele>155.0</ele><time>2026-05-03T09:18:41.999Z</time></trkpt><trkpt lat="40.76890606700151" lon="17.45966319847746"><ele>154.2</ele><time>2026-05-03T09:18:42.999Z</time></trkpt><trkpt lat="40.76899100930272" lon="17.45951408080421"><ele>153.4</ele><time>2026-05-03T09:18:44.999Z</time></trkpt><trkpt lat="40.76903897745138" lon="17.459421680727804"><ele>152.6</ele><time>2026-05-03T09:18:45.999Z</time></trkpt><trkpt lat="40.76911661999373" lon="17.45935925702102"><ele>151.8</ele><time>2026-05-03T09:18:47.999Z</time></trkpt><trkpt lat="40.76921391644635" lon="17.459415636100474"><ele>151.0</ele><time>2026-05-03T09:18:49.999Z</time></trkpt><trkpt lat="40.769438153870475" lon="17.459478610194868"><ele>149.83333333333334</ele><time>2026-05-03T09:18:54.999Z</time></trkpt><trkpt lat="40.769496258899785" lon="17.459387424435555"><ele>148.66666666666669</ele><time>2026-05-03T09:21:13.999Z</time></trkpt><trkpt lat="40.76944232218527" lon="17.459433863163852"><ele>147.5</ele><time>2026-05-03T09:21:20.999Z</time></trkpt><trkpt lat="40.76940975074501" lon="17.459547110066143"><ele>146.33333333333334</ele><time>2026-05-03T09:21:23.999Z</time></trkpt><trkpt lat="40.769367058256705" lon="17.459617608140636"><ele>145.16666666666666</ele><time>2026-05-03T09:21:25.999Z</time></trkpt><trkpt lat="40.76931805586819" lon="17.459672466992668"><ele>144.0</ele><time>2026-05-03T09:21:27.999Z</time></trkpt><trkpt lat="40.76927587843941" lon="17.459773028171647"><ele>144.0</ele><time>2026-05-03T09:21:30.998Z</time></trkpt><trkpt lat="40.769226592573084" lon="17.4598552925586"><ele>144.0</ele><time>2026-05-03T09:21:32.998Z</time></trkpt><trkpt lat="40.76917780979656" lon="17.459928959934047"><ele>144.0</ele><time>2026-05-03T09:21:34.998Z</time></trkpt><trkpt lat="40.769129157741794" lon="17.46000760441343"><ele>144.0</ele><time>2026-05-03T09:21:36.998Z</time></trkpt><trkpt lat="40.76907933394686" lon="17.4600946327326"><ele>144.0</ele><time>2026-05-03T09:21:38.998Z</time></trkpt><trkpt lat="40.76901611095147" lon="17.460186831606837"><ele>144.0</ele><time>2026-05-03T09:21:40.998Z</time></trkpt><trkpt lat="40.7689612590821" lon="17.460286814063938"><ele>144.0</ele><time>2026-05-03T09:21:42.998Z</time></trkpt><trkpt lat="40.76889234524885" lon="17.46040028064123"><ele>144.0</ele><time>2026-05-03T09:21:44.998Z</time></trkpt><trkpt lat="40.768850391765696" lon="17.460465759475642"><ele>144.0</ele><time>2026-05-03T09:21:45.998Z</time></trkpt><trkpt lat="40.768769729683314" lon="17.460584214070302"><ele>144.0</ele><time>2026-05-03T09:21:47.998Z</time></trkpt><trkpt lat="40.76871047598207" lon="17.460699615126234"><ele>144.0</ele><time>2026-05-03T09:21:49.998Z</time></trkpt><trkpt lat="40.768639430027115" lon="17.460810998776125"><ele>143.4</ele><time>2026-05-03T09:21:51.998Z</time></trkpt><trkpt lat="40.768566456278265" lon="17.46092122000812"><ele>142.8</ele><time>2026-05-03T09:21:53.998Z</time></trkpt><trkpt lat="40.76852076928398" lon="17.460998401578408"><ele>142.2</ele><time>2026-05-03T09:21:54.998Z</time></trkpt><trkpt lat="40.76844363598983" lon="17.461123671067934"><ele>141.6</ele><time>2026-05-03T09:21:57Z</time></trkpt><trkpt lat="40.76835981149333" lon="17.46124592793011"><ele>141.0</ele><time>2026-05-03T09:21:59Z</time></trkpt><trkpt lat="40.768280306103705" lon="17.461343928585023"><ele>141.0</ele><time>2026-05-03T09:22:01Z</time></trkpt><trkpt lat="40.76821818486806" lon="17.461376904574198"><ele>141.0</ele><time>2026-05-03T09:22:03Z</time></trkpt><trkpt lat="40.768158729537056" lon="17.461431175110324"><ele>141.0</ele><time>2026-05-03T09:22:07Z</time></trkpt><trkpt lat="40.76818061028926" lon="17.461540908542"><ele>141.0</ele><time>2026-05-03T09:22:14Z</time></trkpt><trkpt lat="40.768275996800966" lon="17.46160427897071"><ele>141.0</ele><time>2026-05-03T09:22:17Z</time></trkpt><trkpt lat="40.768354271230656" lon="17.46165580257147"><ele>141.0</ele><time>2026-05-03T09:22:19Z</time></trkpt><trkpt lat="40.76844940793635" lon="17.461711354327672"><ele>139.8</ele><time>2026-05-03T09:22:21Z</time></trkpt><trkpt lat="40.768544341685526" lon="17.46179685710338"><ele>138.6</ele><time>2026-05-03T09:22:23Z</time></trkpt><trkpt lat="40.768601118069384" lon="17.461840146009735"><ele>137.4</ele><time>2026-05-03T09:22:24Z</time></trkpt><trkpt lat="40.76870179573576" lon="17.461908382428433"><ele>136.2</ele><time>2026-05-03T09:22:26Z</time></trkpt><trkpt lat="40.768793443755065" lon="17.461968163322844"><ele>135.0</ele><time>2026-05-03T09:22:28Z</time></trkpt><trkpt lat="40.76886806113233" lon="17.462002620453344"><ele>135.0</ele><time>2026-05-03T09:22:30Z</time></trkpt><trkpt lat="40.768924852688485" lon="17.462068521931137"><ele>135.0</ele><time>2026-05-03T09:22:32Z</time></trkpt><trkpt lat="40.76900093141654" lon="17.46212436304125"><ele>135.0</ele><time>2026-05-03T09:22:34Z</time></trkpt><trkpt lat="40.769066241866796" lon="17.462168529065487"><ele>135.0</ele><time>2026-05-03T09:22:36Z</time></trkpt><trkpt lat="40.76910891470295" lon="17.462236827465738"><ele>135.0</ele><time>2026-05-03T09:22:38.999Z</time></trkpt><trkpt lat="40.76912988320495" lon="17.462319962742807"><ele>135.0</ele><time>2026-05-03T09:22:41.999Z</time></trkpt><trkpt lat="40.769126229501" lon="17.462410900597877"><ele>135.0</ele><time>2026-05-03T09:22:44.999Z</time></trkpt><trkpt lat="40.76910895816053" lon="17.462504625305357"><ele>134.33333333333334</ele><time>2026-05-03T09:22:47.999Z</time></trkpt><trkpt lat="40.76915670792947" lon="17.462561940331835"><ele>133.66666666666666</ele><time>2026-05-03T09:22:51.999Z</time></trkpt><trkpt lat="40.769240645103245" lon="17.462587461360798"><ele>133.0</ele><time>2026-05-03T09:22:54.999Z</time></trkpt><trkpt lat="40.76931344713158" lon="17.462598110918844"><ele>132.33333333333331</ele><time>2026-05-03T09:22:57.999Z</time></trkpt><trkpt lat="40.7693850530723" lon="17.462617637713574"><ele>131.66666666666666</ele><time>2026-05-03T09:23:00.999Z</time></trkpt><trkpt lat="40.76946797733386" lon="17.46261516754045"><ele>131.0</ele><time>2026-05-03T09:28:15Z</time></trkpt><trkpt lat="40.76952875040039" lon="17.46269729060408"><ele>130.5</ele><time>2026-05-03T09:28:18Z</time></trkpt><trkpt lat="40.76956729106869" lon="17.46279982339908"><ele>130.0</ele><time>2026-05-03T09:28:21Z</time></trkpt><trkpt lat="40.7695765626601" lon="17.462902900449954"><ele>129.5</ele><time>2026-05-03T09:28:24Z</time></trkpt><trkpt lat="40.769590248940226" lon="17.46300571939696"><ele>129.0</ele><time>2026-05-03T09:28:27Z</time></trkpt><trkpt lat="40.76958527302139" lon="17.463102877424387"><ele>128.5</ele><time>2026-05-03T09:28:30Z</time></trkpt><trkpt lat="40.76960385607908" lon="17.463186402823755"><ele>128.0</ele><time>2026-05-03T09:28:33Z</time></trkpt><trkpt lat="40.76963664761477" lon="17.463273030280803"><ele>127.83333333333333</ele><time>2026-05-03T09:28:36Z</time></trkpt><trkpt lat="40.769686202044355" lon="17.46333536238259"><ele>127.66666666666666</ele><time>2026-05-03T09:28:39Z</time></trkpt><trkpt lat="40.7697694909448" lon="17.463377889897245"><ele>127.5</ele><time>2026-05-03T09:28:43Z</time></trkpt><trkpt lat="40.76984662219065" lon="17.463376313935974"><ele>127.33333333333334</ele><time>2026-05-03T09:28:45Z</time></trkpt><trkpt lat="40.76993295414983" lon="17.4633911874847"><ele>127.16666666666667</ele><time>2026-05-03T09:28:47Z</time></trkpt><trkpt lat="40.770037947477725" lon="17.463475437444764"><ele>127.0</ele><time>2026-05-03T09:28:49Z</time></trkpt><trkpt lat="40.770113737976196" lon="17.463538883937563"><ele>127.00000000000001</ele><time>2026-05-03T09:28:51Z</time></trkpt><trkpt lat="40.770100331152086" lon="17.46364536664919"><ele>127.0</ele><time>2026-05-03T09:28:53Z</time></trkpt><trkpt lat="40.770041792323845" lon="17.46373382832039"><ele>127.0</ele><time>2026-05-03T09:28:55Z</time></trkpt><trkpt lat="40.76998447939475" lon="17.4638364261252"><ele>127.0</ele><time>2026-05-03T09:28:56.999Z</time></trkpt><trkpt lat="40.76993794360689" lon="17.46395120516554"><ele>127.00000000000001</ele><time>2026-05-03T09:28:58.999Z</time></trkpt><trkpt lat="40.76989554370904" lon="17.46404333665882"><ele>127.0</ele><time>2026-05-03T09:29:00.999Z</time></trkpt><trkpt lat="40.769850915310116" lon="17.464140291831754"><ele>126.50000000000001</ele><time>2026-05-03T09:29:02.999Z</time></trkpt><trkpt lat="40.769810095113584" lon="17.46423656325991"><ele>126.0</ele><time>2026-05-03T09:29:04.999Z</time></trkpt><trkpt lat="40.769761078546026" lon="17.464330166111523"><ele>125.5</ele><time>2026-05-03T09:29:06.999Z</time></trkpt><trkpt lat="40.76971681742558" lon="17.464420395882957"><ele>125.0</ele><time>2026-05-03T09:29:08.999Z</time></trkpt><trkpt lat="40.769670330195126" lon="17.464520698615498"><ele>124.50000000000001</ele><time>2026-05-03T09:29:10.999Z</time></trkpt><trkpt lat="40.76962406784518" lon="17.46461718138551"><ele>124.0</ele><time>2026-05-03T09:29:12.999Z</time></trkpt><trkpt lat="40.76957884111954" lon="17.464709504486944"><ele>123.2</ele><time>2026-05-03T09:29:14.999Z</time></trkpt><trkpt lat="40.76954117760432" lon="17.464809361717126"><ele>122.4</ele><time>2026-05-03T09:29:16.999Z</time></trkpt><trkpt lat="40.76950742552574" lon="17.464920736854534"><ele>121.6</ele><time>2026-05-03T09:29:18.999Z</time></trkpt><trkpt lat="40.76949022950233" lon="17.465041989237005"><ele>120.8</ele><time>2026-05-03T09:29:20.999Z</time></trkpt><trkpt lat="40.769470728899215" lon="17.465162408019218"><ele>120.0</ele><time>2026-05-03T09:29:22.999Z</time></trkpt><trkpt lat="40.769457095192166" lon="17.465281512699843"><ele>120.0</ele><time>2026-05-03T09:29:24.999Z</time></trkpt><trkpt lat="40.7694324074196" lon="17.46537346063396"><ele>120.0</ele><time>2026-05-03T09:29:26.999Z</time></trkpt><trkpt lat="40.76941478491418" lon="17.46546760390296"><ele>120.0</ele><time>2026-05-03T09:29:28.999Z</time></trkpt><trkpt lat="40.76939882081386" lon="17.465562508955607"><ele>120.0</ele><time>2026-05-03T09:29:30.999Z</time></trkpt><trkpt lat="40.76938614985179" lon="17.46564415457981"><ele>120.0</ele><time>2026-05-03T09:29:32.999Z</time></trkpt><trkpt lat="40.76937283878693" lon="17.465725984548676"><ele>120.0</ele><time>2026-05-03T09:29:34.999Z</time></trkpt><trkpt lat="40.76936266820919" lon="17.46580956133148"><ele>120.0</ele><time>2026-05-03T09:29:36.999Z</time></trkpt><trkpt lat="40.76935339598978" lon="17.46589391109255"><ele>120.5</ele><time>2026-05-03T09:29:38.999Z</time></trkpt><trkpt lat="40.769332821319594" lon="17.465983109882142"><ele>121.0</ele><time>2026-05-03T09:29:40.999Z</time></trkpt><trkpt lat="40.76932487828107" lon="17.466081644286362"><ele>121.5</ele><time>2026-05-03T09:29:42.999Z</time></trkpt><trkpt lat="40.76930373197719" lon="17.466182745270576"><ele>122.0</ele><time>2026-05-03T09:29:44.999Z</time></trkpt><trkpt lat="40.76928645614566" lon="17.46629469253404"><ele>122.5</ele><time>2026-05-03T09:29:46.999Z</time></trkpt><trkpt lat="40.769266108594216" lon="17.46638920824929"><ele>123.0</ele><time>2026-05-03T09:29:48.999Z</time></trkpt><trkpt lat="40.76925088522787" lon="17.46648929264977"><ele>123.00000000000001</ele><time>2026-05-03T09:29:50.998Z</time></trkpt><trkpt lat="40.769249926133625" lon="17.466586000490487"><ele>123.0</ele><time>2026-05-03T09:29:52.998Z</time></trkpt><trkpt lat="40.76923610942168" lon="17.466669081937763"><ele>123.00000000000001</ele><time>2026-05-03T09:29:54.998Z</time></trkpt><trkpt lat="40.769233559257515" lon="17.46678251166992"><ele>123.00000000000001</ele><time>2026-05-03T09:29:56.998Z</time></trkpt><trkpt lat="40.769228162721284" lon="17.46687178295071"><ele>123.0</ele><time>2026-05-03T09:29:58.998Z</time></trkpt><trkpt lat="40.769259579817486" lon="17.46696052322461"><ele>123.00000000000001</ele><time>2026-05-03T09:30:01.998Z</time></trkpt><trkpt lat="40.769334721223764" lon="17.46696021805559"><ele>123.00000000000001</ele><time>2026-05-03T09:30:03.998Z</time></trkpt><trkpt lat="40.76941335154801" lon="17.466948488952347"><ele>122.16666666666667</ele><time>2026-05-03T09:30:05.998Z</time></trkpt><trkpt lat="40.769496298716135" lon="17.466943509170473"><ele>121.33333333333334</ele><time>2026-05-03T09:30:07.998Z</time></trkpt><trkpt lat="40.769578378919704" lon="17.46694148812086"><ele>120.5</ele><time>2026-05-03T09:30:09.998Z</time></trkpt><trkpt lat="40.76966530165346" lon="17.466943479495562"><ele>119.66666666666667</ele><time>2026-05-03T09:30:11.998Z</time></trkpt><trkpt lat="40.76973982164105" lon="17.46695984975651"><ele>118.83333333333334</ele><time>2026-05-03T09:30:13.998Z</time></trkpt><trkpt lat="40.76981761183672" lon="17.466961523172287"><ele>118.0</ele><time>2026-05-03T09:30:15.998Z</time></trkpt><trkpt lat="40.76989594415366" lon="17.466964888724856"><ele>118.00000000000001</ele><time>2026-05-03T09:30:17.998Z</time></trkpt><trkpt lat="40.769969730773056" lon="17.466971328052797"><ele>118.0</ele><time>2026-05-03T09:30:19.998Z</time></trkpt><trkpt lat="40.77004577737449" lon="17.46697488054653"><ele>118.0</ele><time>2026-05-03T09:30:22Z</time></trkpt><trkpt lat="40.77014420484312" lon="17.46699979751717"><ele>118.0</ele><time>2026-05-03T09:30:24Z</time></trkpt><trkpt lat="40.7702383956155" lon="17.467012495173933"><ele>118.00000000000001</ele><time>2026-05-03T09:30:26Z</time></trkpt><trkpt lat="40.77032478810462" lon="17.46703257531664"><ele>118.0</ele><time>2026-05-03T09:30:28Z</time></trkpt><trkpt lat="40.7704106475765" lon="17.46704496130075"><ele>117.4</ele><time>2026-05-03T09:30:30Z</time></trkpt><trkpt lat="40.770492439110704" lon="17.46705064134295"><ele>116.80000000000001</ele><time>2026-05-03T09:30:32Z</time></trkpt><trkpt lat="40.77060173259425" lon="17.46708254652547"><ele>116.2</ele><time>2026-05-03T09:30:34Z</time></trkpt><trkpt lat="40.770703079239205" lon="17.46709906673403"><ele>115.6</ele><time>2026-05-03T09:30:36Z</time></trkpt><trkpt lat="40.77080208655132" lon="17.467151282417287"><ele>115.0</ele><time>2026-05-03T09:30:38Z</time></trkpt><trkpt lat="40.770900211337256" lon="17.4671717057787"><ele>114.75</ele><time>2026-05-03T09:30:40Z</time></trkpt><trkpt lat="40.77101097770495" lon="17.46719476032752"><ele>114.5</ele><time>2026-05-03T09:30:42Z</time></trkpt><trkpt lat="40.77111666536673" lon="17.467217425277568"><ele>114.25</ele><time>2026-05-03T09:30:44Z</time></trkpt><trkpt lat="40.77123202130878" lon="17.467243506101905"><ele>114.0</ele><time>2026-05-03T09:30:46Z</time></trkpt><trkpt lat="40.77134652634786" lon="17.46726939455022"><ele>113.6</ele><time>2026-05-03T09:30:48Z</time></trkpt><trkpt lat="40.77146243790818" lon="17.46728048519631"><ele>113.2</ele><time>2026-05-03T09:30:50Z</time></trkpt><trkpt lat="40.77159602603898" lon="17.46730179254017"><ele>112.79999999999998</ele><time>2026-05-03T09:30:52Z</time></trkpt><trkpt lat="40.7716605861567" lon="17.467334683321805"><ele>112.39999999999999</ele><time>2026-05-03T09:30:53Z</time></trkpt><trkpt lat="40.771741751363145" lon="17.46735146986913"><ele>112.0</ele><time>2026-05-03T09:30:55Z</time></trkpt><trkpt lat="40.77181919110613" lon="17.467382733146376"><ele>112.0</ele><time>2026-05-03T09:30:57Z</time></trkpt><trkpt lat="40.77186389159829" lon="17.46749700868403"><ele>111.99999999999999</ele><time>2026-05-03T09:30:59.999Z</time></trkpt><trkpt lat="40.771828501269916" lon="17.467599008235457"><ele>111.99999999999999</ele><time>2026-05-03T09:31:01.999Z</time></trkpt><trkpt lat="40.77177799225872" lon="17.467706255084707"><ele>112.0</ele><time>2026-05-03T09:31:03.999Z</time></trkpt><trkpt lat="40.77172490982486" lon="17.467811586215298"><ele>112.0</ele><time>2026-05-03T09:31:05.999Z</time></trkpt><trkpt lat="40.77168222530071" lon="17.46794437901691"><ele>111.83333333333334</ele><time>2026-05-03T09:31:07.999Z</time></trkpt><trkpt lat="40.77162363106443" lon="17.46802656039084"><ele>111.66666666666667</ele><time>2026-05-03T09:31:09.999Z</time></trkpt><trkpt lat="40.771574463543494" lon="17.468131580100355"><ele>111.5</ele><time>2026-05-03T09:31:11.999Z</time></trkpt><trkpt lat="40.77152820887598" lon="17.46822246773439"><ele>111.33333333333334</ele><time>2026-05-03T09:31:13.999Z</time></trkpt><trkpt lat="40.77147540847762" lon="17.46832471891309"><ele>111.16666666666667</ele><time>2026-05-03T09:31:15.999Z</time></trkpt><trkpt lat="40.77142883329303" lon="17.468427272982403"><ele>111.0</ele><time>2026-05-03T09:31:17.999Z</time></trkpt><trkpt lat="40.77137934768361" lon="17.468522431379206"><ele>111.0</ele><time>2026-05-03T09:31:19.999Z</time></trkpt><trkpt lat="40.77133053430314" lon="17.468632671416948"><ele>111.0</ele><time>2026-05-03T09:31:21.999Z</time></trkpt><trkpt lat="40.77127863554221" lon="17.46873483128666"><ele>111.0</ele><time>2026-05-03T09:31:23.999Z</time></trkpt><trkpt lat="40.77122711614152" lon="17.468843316075827"><ele>111.0</ele><time>2026-05-03T09:31:25.999Z</time></trkpt><trkpt lat="40.77118399283633" lon="17.468960028458923"><ele>111.0</ele><time>2026-05-03T09:31:27.999Z</time></trkpt><trkpt lat="40.7711529489045" lon="17.469056588558054"><ele>110.83333333333333</ele><time>2026-05-03T09:31:29.999Z</time></trkpt><trkpt lat="40.771182061972276" lon="17.469131387051963"><ele>110.66666666666666</ele><time>2026-05-03T09:31:33.999Z</time></trkpt><trkpt lat="40.771262616043174" lon="17.46916346951886"><ele>110.5</ele><time>2026-05-03T09:31:36.999Z</time></trkpt><trkpt lat="40.77132381305288" lon="17.46922457290573"><ele>110.33333333333333</ele><time>2026-05-03T09:31:38.999Z</time></trkpt><trkpt lat="40.77139919676463" lon="17.469294726974546"><ele>110.16666666666666</ele><time>2026-05-03T09:31:40.999Z</time></trkpt><trkpt lat="40.77147887068584" lon="17.4693740799686"><ele>110.0</ele><time>2026-05-03T09:31:42.999Z</time></trkpt><trkpt lat="40.771563391722324" lon="17.46944337225601"><ele>110.0</ele><time>2026-05-03T09:31:44.999Z</time></trkpt><trkpt lat="40.771641452127774" lon="17.469532644383882"><ele>110.0</ele><time>2026-05-03T09:31:46.999Z</time></trkpt><trkpt lat="40.771720484337656" lon="17.46961903831007"><ele>110.0</ele><time>2026-05-03T09:31:48.999Z</time></trkpt><trkpt lat="40.771799313403505" lon="17.469698226148047"><ele>110.0</ele><time>2026-05-03T09:31:50.999Z</time></trkpt><trkpt lat="40.771870091169795" lon="17.469777603752622"><ele>110.0</ele><time>2026-05-03T09:31:52.998Z</time></trkpt><trkpt lat="40.77196983071907" lon="17.46985711869211"><ele>109.4</ele><time>2026-05-03T09:31:54.998Z</time></trkpt><trkpt lat="40.77205441657804" lon="17.469943731358562"><ele>108.8</ele><time>2026-05-03T09:31:56.998Z</time></trkpt><trkpt lat="40.772152247260586" lon="17.470030898132833"><ele>108.19999999999999</ele><time>2026-05-03T09:31:58.998Z</time></trkpt><trkpt lat="40.77220646434019" lon="17.470138037347944"><ele>107.6</ele><time>2026-05-03T09:32:00.998Z</time></trkpt><trkpt lat="40.77229120152133" lon="17.470225100477553"><ele>107.0</ele><time>2026-05-03T09:32:02.998Z</time></trkpt><trkpt lat="40.77238132075213" lon="17.470307768529594"><ele>107.0</ele><time>2026-05-03T09:32:04.998Z</time></trkpt><trkpt lat="40.77247728571152" lon="17.470387249500927"><ele>106.99999999999999</ele><time>2026-05-03T09:32:06.998Z</time></trkpt><trkpt lat="40.772556269748996" lon="17.47045143776807"><ele>106.99999999999999</ele><time>2026-05-03T09:32:08.998Z</time></trkpt><trkpt lat="40.77264843831232" lon="17.470526340795136"><ele>107.0</ele><time>2026-05-03T09:32:10.998Z</time></trkpt><trkpt lat="40.77274197748376" lon="17.470602532591347"><ele>107.0</ele><time>2026-05-03T09:32:12.998Z</time></trkpt><trkpt lat="40.772823571738215" lon="17.47067004229558"><ele>106.0</ele><time>2026-05-03T09:32:14.998Z</time></trkpt><trkpt lat="40.772919702125876" lon="17.470749578962653"><ele>104.99999999999999</ele><time>2026-05-03T09:32:16.998Z</time></trkpt><trkpt lat="40.77300760031007" lon="17.470822304414614"><ele>104.0</ele><time>2026-05-03T09:32:18.998Z</time></trkpt><trkpt lat="40.77308807370232" lon="17.470896891349454"><ele>103.0</ele><time>2026-05-03T09:32:20.998Z</time></trkpt><trkpt lat="40.773178906718364" lon="17.470994096345486"><ele>102.0</ele><time>2026-05-03T09:32:22.998Z</time></trkpt><trkpt lat="40.77326315499742" lon="17.471044056026933"><ele>102.0</ele><time>2026-05-03T09:32:24.998Z</time></trkpt><trkpt lat="40.77334320710414" lon="17.47109621126525"><ele>102.0</ele><time>2026-05-03T09:32:27Z</time></trkpt><trkpt lat="40.77343604738859" lon="17.47111760450139"><ele>102.0</ele><time>2026-05-03T09:32:29Z</time></trkpt><trkpt lat="40.77351794350826" lon="17.471182908433093"><ele>102.0</ele><time>2026-05-03T09:32:31Z</time></trkpt><trkpt lat="40.77359617403128" lon="17.47124696078522"><ele>102.0</ele><time>2026-05-03T09:32:33Z</time></trkpt><trkpt lat="40.7736756527683" lon="17.471309843269168"><ele>102.16666666666667</ele><time>2026-05-03T09:32:35Z</time></trkpt><trkpt lat="40.7737498181695" lon="17.471376049439883"><ele>102.33333333333334</ele><time>2026-05-03T09:32:37Z</time></trkpt><trkpt lat="40.77382043888641" lon="17.471440301760488"><ele>102.5</ele><time>2026-05-03T09:32:39Z</time></trkpt><trkpt lat="40.77389287457158" lon="17.47149867290967"><ele>102.66666666666667</ele><time>2026-05-03T09:32:41Z</time></trkpt><trkpt lat="40.77396928464791" lon="17.471563375864907"><ele>102.83333333333334</ele><time>2026-05-03T09:32:43Z</time></trkpt><trkpt lat="40.774047519043414" lon="17.471622104052948"><ele>103.0</ele><time>2026-05-03T09:32:45Z</time></trkpt><trkpt lat="40.77412783572901" lon="17.47169967174129"><ele>103.0</ele><time>2026-05-03T09:32:47Z</time></trkpt><trkpt lat="40.774204855991734" lon="17.47175930039133"><ele>103.0</ele><time>2026-05-03T09:32:49Z</time></trkpt><trkpt lat="40.77428678181874" lon="17.471817750741934"><ele>103.0</ele><time>2026-05-03T09:32:51Z</time></trkpt><trkpt lat="40.774358188991414" lon="17.471880804356186"><ele>103.0</ele><time>2026-05-03T09:32:53Z</time></trkpt><trkpt lat="40.77443032884453" lon="17.471959647387482"><ele>103.0</ele><time>2026-05-03T09:32:55Z</time></trkpt><trkpt lat="40.77451144517151" lon="17.47202337345827"><ele>102.60000000000001</ele><time>2026-05-03T09:32:57Z</time></trkpt><trkpt lat="40.77459630808442" lon="17.472088444689703"><ele>102.2</ele><time>2026-05-03T09:32:59Z</time></trkpt><trkpt lat="40.77467852786793" lon="17.472144594488352"><ele>101.8</ele><time>2026-05-03T09:33:01Z</time></trkpt><trkpt lat="40.77476538587575" lon="17.472208910380733"><ele>101.4</ele><time>2026-05-03T09:33:03Z</time></trkpt><trkpt lat="40.77484073141704" lon="17.472268418081462"><ele>101.0</ele><time>2026-05-03T09:33:04.999Z</time></trkpt><trkpt lat="40.77492089105599" lon="17.472334698986728"><ele>100.4</ele><time>2026-05-03T09:33:06.999Z</time></trkpt><trkpt lat="40.77499172463784" lon="17.472403137739345"><ele>99.8</ele><time>2026-05-03T09:33:08.999Z</time></trkpt><trkpt lat="40.7750713550883" lon="17.472464906750577"><ele>99.2</ele><time>2026-05-03T09:33:10.999Z</time></trkpt><trkpt lat="40.77515331245446" lon="17.472527894577613"><ele>98.60000000000001</ele><time>2026-05-03T09:33:12.999Z</time></trkpt><trkpt lat="40.775227360971755" lon="17.47259456523097"><ele>98.0</ele><time>2026-05-03T09:33:14.999Z</time></trkpt><trkpt lat="40.7752967105696" lon="17.472659461339994"><ele>97.83333333333333</ele><time>2026-05-03T09:33:16.999Z</time></trkpt><trkpt lat="40.77537548602823" lon="17.472720139150262"><ele>97.66666666666666</ele><time>2026-05-03T09:33:18.999Z</time></trkpt><trkpt lat="40.77545832595809" lon="17.47278663947974"><ele>97.5</ele><time>2026-05-03T09:33:20.999Z</time></trkpt><trkpt lat="40.775525252024714" lon="17.47285213223298"><ele>97.33333333333334</ele><time>2026-05-03T09:33:22.999Z</time></trkpt><trkpt lat="40.77558534119067" lon="17.472927380614813"><ele>97.16666666666667</ele><time>2026-05-03T09:33:23.999Z</time></trkpt><trkpt lat="40.77564872735082" lon="17.4729795904742"><ele>97.0</ele><time>2026-05-03T09:33:25.999Z</time></trkpt><trkpt lat="40.775727617122385" lon="17.473043598886285"><ele>96.8</ele><time>2026-05-03T09:33:27.999Z</time></trkpt><trkpt lat="40.77580685491206" lon="17.47310751481468"><ele>96.6</ele><time>2026-05-03T09:33:29.999Z</time></trkpt><trkpt lat="40.77589153268015" lon="17.47317581880644"><ele>96.39999999999999</ele><time>2026-05-03T09:33:31.999Z</time></trkpt><trkpt lat="40.77598001111961" lon="17.473247188532657"><ele>96.19999999999999</ele><time>2026-05-03T09:33:33.999Z</time></trkpt><trkpt lat="40.77607090933223" lon="17.473320126276814"><ele>96.0</ele><time>2026-05-03T09:33:35.999Z</time></trkpt><trkpt lat="40.776169857850284" lon="17.473398647902577"><ele>95.75</ele><time>2026-05-03T09:33:37.999Z</time></trkpt><trkpt lat="40.77626586642802" lon="17.47347546928788"><ele>95.5</ele><time>2026-05-03T09:33:39.999Z</time></trkpt><trkpt lat="40.77636902622408" lon="17.473562256346856"><ele>95.25</ele><time>2026-05-03T09:33:41.999Z</time></trkpt><trkpt lat="40.77646672850313" lon="17.473644452008813"><ele>95.0</ele><time>2026-05-03T09:33:43.999Z</time></trkpt><trkpt lat="40.77655480438305" lon="17.4737185491043"><ele>94.6</ele><time>2026-05-03T09:33:45.999Z</time></trkpt><trkpt lat="40.776652295183126" lon="17.4737995165079"><ele>94.2</ele><time>2026-05-03T09:33:47.999Z</time></trkpt><trkpt lat="40.776746586050706" lon="17.47387584552487"><ele>93.80000000000001</ele><time>2026-05-03T09:33:49.999Z</time></trkpt><trkpt lat="40.77683924163709" lon="17.47395085075776"><ele>93.4</ele><time>2026-05-03T09:33:51.999Z</time></trkpt><trkpt lat="40.7769340886438" lon="17.474024979889425"><ele>93.0</ele><time>2026-05-03T09:33:53.999Z</time></trkpt><trkpt lat="40.77702178689524" lon="17.474065189368208"><ele>92.60000000000001</ele><time>2026-05-03T09:33:55.999Z</time></trkpt><trkpt lat="40.77705190624252" lon="17.47414006819404"><ele>92.2</ele><time>2026-05-03T09:33:57.999Z</time></trkpt><trkpt lat="40.7769910388284" lon="17.47422933696687"><ele>91.8</ele><time>2026-05-03T09:33:58.999Z</time></trkpt><trkpt lat="40.77695836765432" lon="17.47437064717049"><ele>91.4</ele><time>2026-05-03T09:34:00.998Z</time></trkpt><trkpt lat="40.77693493530558" lon="17.474515470658606"><ele>91.0</ele><time>2026-05-03T09:34:02.998Z</time></trkpt><trkpt lat="40.776931180017286" lon="17.474663742190458"><ele>91.19999999999999</ele><time>2026-05-03T09:34:04.998Z</time></trkpt><trkpt lat="40.7769137637377" lon="17.474802757594"><ele>91.39999999999999</ele><time>2026-05-03T09:34:06.998Z</time></trkpt><trkpt lat="40.776896384972254" lon="17.474936179242828"><ele>91.6</ele><time>2026-05-03T09:34:08.998Z</time></trkpt><trkpt lat="40.77687164613708" lon="17.475073758705033"><ele>91.8</ele><time>2026-05-03T09:34:10.998Z</time></trkpt><trkpt lat="40.77684549841619" lon="17.475209364442676"><ele>92.0</ele><time>2026-05-03T09:34:12.998Z</time></trkpt><trkpt lat="40.77683223716317" lon="17.475348142509766"><ele>92.0</ele><time>2026-05-03T09:34:14.998Z</time></trkpt><trkpt lat="40.776810566903094" lon="17.475477518195106"><ele>92.0</ele><time>2026-05-03T09:34:16.998Z</time></trkpt><trkpt lat="40.77678100555659" lon="17.475605247051107"><ele>92.0</ele><time>2026-05-03T09:34:18.998Z</time></trkpt><trkpt lat="40.77676401374798" lon="17.475729058997715"><ele>92.0</ele><time>2026-05-03T09:34:20.998Z</time></trkpt><trkpt lat="40.7767304929401" lon="17.47586216906795"><ele>92.0</ele><time>2026-05-03T09:34:22.998Z</time></trkpt><trkpt lat="40.77668267856725" lon="17.475993370339996"><ele>92.0</ele><time>2026-05-03T09:34:24.998Z</time></trkpt><trkpt lat="40.776631629600715" lon="17.476126863363245"><ele>92.0</ele><time>2026-05-03T09:34:26.998Z</time></trkpt><trkpt lat="40.77657242391053" lon="17.476253088265196"><ele>92.0</ele><time>2026-05-03T09:34:28.998Z</time></trkpt><trkpt lat="40.77650975908446" lon="17.47637917313707"><ele>92.0</ele><time>2026-05-03T09:34:30.998Z</time></trkpt><trkpt lat="40.77644821964748" lon="17.476506892591118"><ele>92.0</ele><time>2026-05-03T09:34:33Z</time></trkpt><trkpt lat="40.776407222841804" lon="17.47664425138593"><ele>92.0</ele><time>2026-05-03T09:34:35Z</time></trkpt><trkpt lat="40.77636752624461" lon="17.476780340613548"><ele>92.0</ele><time>2026-05-03T09:34:37Z</time></trkpt><trkpt lat="40.7763041547402" lon="17.476902651883982"><ele>92.0</ele><time>2026-05-03T09:34:39Z</time></trkpt><trkpt lat="40.77625166507822" lon="17.477027776975717"><ele>92.0</ele><time>2026-05-03T09:34:41Z</time></trkpt><trkpt lat="40.776211538356904" lon="17.47716157256395"><ele>92.0</ele><time>2026-05-03T09:34:43Z</time></trkpt><trkpt lat="40.776160702050184" lon="17.477290477278395"><ele>92.0</ele><time>2026-05-03T09:34:45Z</time></trkpt><trkpt lat="40.776107388847095" lon="17.47741898627354"><ele>92.0</ele><time>2026-05-03T09:34:47Z</time></trkpt><trkpt lat="40.776055866143004" lon="17.477553099863357"><ele>92.0</ele><time>2026-05-03T09:34:49Z</time></trkpt><trkpt lat="40.77601138484732" lon="17.47769118529076"><ele>92.0</ele><time>2026-05-03T09:34:51Z</time></trkpt><trkpt lat="40.775968469646074" lon="17.477823143009036"><ele>92.19999999999999</ele><time>2026-05-03T09:34:53Z</time></trkpt><trkpt lat="40.77594258685288" lon="17.47795723997928"><ele>92.4</ele><time>2026-05-03T09:34:55Z</time></trkpt><trkpt lat="40.77592611090143" lon="17.47809591815123"><ele>92.6</ele><time>2026-05-03T09:34:57Z</time></trkpt><trkpt lat="40.77590675373689" lon="17.478224909429784"><ele>92.80000000000001</ele><time>2026-05-03T09:34:59Z</time></trkpt><trkpt lat="40.77590825724355" lon="17.478358610502145"><ele>93.0</ele><time>2026-05-03T09:35:01Z</time></trkpt><trkpt lat="40.775896218976364" lon="17.478489209251588"><ele>93.0</ele><time>2026-05-03T09:35:03Z</time></trkpt><trkpt lat="40.77587718412709" lon="17.478611592147377"><ele>93.0</ele><time>2026-05-03T09:35:05Z</time></trkpt><trkpt lat="40.77587017059245" lon="17.4787253984026"><ele>93.0</ele><time>2026-05-03T09:35:07Z</time></trkpt><trkpt lat="40.775859665076034" lon="17.47883478149779"><ele>93.0</ele><time>2026-05-03T09:35:09Z</time></trkpt><trkpt lat="40.775856565391344" lon="17.478957877394794"><ele>93.0</ele><time>2026-05-03T09:35:11Z</time></trkpt><trkpt lat="40.775838782007376" lon="17.479081475698994"><ele>92.83333333333333</ele><time>2026-05-03T09:35:12.999Z</time></trkpt><trkpt lat="40.77587911411418" lon="17.479175508133178"><ele>92.66666666666667</ele><time>2026-05-03T09:35:13.999Z</time></trkpt><trkpt lat="40.7758499926355" lon="17.47927944102534"><ele>92.5</ele><time>2026-05-03T09:35:15.999Z</time></trkpt><trkpt lat="40.77584801362675" lon="17.479382451510947"><ele>92.33333333333334</ele><time>2026-05-03T09:35:17.999Z</time></trkpt><trkpt lat="40.77587886282025" lon="17.479476272201236"><ele>92.16666666666667</ele><time>2026-05-03T09:35:19.999Z</time></trkpt><trkpt lat="40.775930730470684" lon="17.479525102762985"><ele>92.0</ele><time>2026-05-03T09:35:21.999Z</time></trkpt><trkpt lat="40.776034790977704" lon="17.479554263090957"><ele>91.66666666666667</ele><time>2026-05-03T09:35:24.999Z</time></trkpt><trkpt lat="40.776109755444146" lon="17.47957012633664"><ele>91.33333333333334</ele><time>2026-05-03T09:35:26.999Z</time></trkpt><trkpt lat="40.77618655502121" lon="17.4795946817698"><ele>91.0</ele><time>2026-05-03T09:35:28.999Z</time></trkpt><trkpt lat="40.776268571701465" lon="17.47963100366049"><ele>90.66666666666667</ele><time>2026-05-03T09:35:30.999Z</time></trkpt><trkpt lat="40.77635511915647" lon="17.479669256310498"><ele>90.33333333333333</ele><time>2026-05-03T09:35:32.999Z</time></trkpt><trkpt lat="40.77643883101725" lon="17.479710060818515"><ele>90.0</ele><time>2026-05-03T09:35:34.999Z</time></trkpt><trkpt lat="40.77651840093959" lon="17.47973516622704"><ele>90.0</ele><time>2026-05-03T09:35:36.999Z</time></trkpt><trkpt lat="40.7765714634456" lon="17.47978331506841"><ele>90.0</ele><time>2026-05-03T09:35:38.999Z</time></trkpt><trkpt lat="40.776651056579055" lon="17.479776270353206"><ele>90.0</ele><time>2026-05-03T09:35:40.999Z</time></trkpt><trkpt lat="40.776726751295115" lon="17.479800398915366"><ele>90.0</ele><time>2026-05-03T09:35:42.999Z</time></trkpt><trkpt lat="40.77681628193016" lon="17.479836795423708"><ele>90.0</ele><time>2026-05-03T09:35:44.999Z</time></trkpt><trkpt lat="40.77689218791777" lon="17.479868450665425"><ele>90.0</ele><time>2026-05-03T09:35:46.999Z</time></trkpt><trkpt lat="40.77696500820593" lon="17.47990985917854"><ele>89.66666666666667</ele><time>2026-05-03T09:35:49.999Z</time></trkpt><trkpt lat="40.77707558426152" lon="17.47994628131255"><ele>89.33333333333333</ele><time>2026-05-03T09:35:52.999Z</time></trkpt><trkpt lat="40.777161414221105" lon="17.47999316023478"><ele>89.0</ele><time>2026-05-03T09:35:54.999Z</time></trkpt><trkpt lat="40.77723296575586" lon="17.48001630276266"><ele>88.66666666666666</ele><time>2026-05-03T09:35:56.999Z</time></trkpt><trkpt lat="40.77729203320251" lon="17.479970542270525"><ele>88.33333333333333</ele><time>2026-05-03T09:36:28.998Z</time></trkpt><trkpt lat="40.777224667003" lon="17.47995965372551"><ele>88.0</ele><time>2026-05-03T09:37:48.999Z</time></trkpt><trkpt lat="40.77730440083902" lon="17.479989683066247"><ele>88.0</ele><time>2026-05-03T09:38:01.999Z</time></trkpt><trkpt lat="40.77729232932524" lon="17.48009462953893"><ele>88.0</ele><time>2026-05-03T09:38:22.998Z</time></trkpt><trkpt lat="40.77732738166766" lon="17.480189603594816"><ele>88.0</ele><time>2026-05-03T09:38:25.998Z</time></trkpt><trkpt lat="40.77738749332816" lon="17.47996922584016"><ele>88.0</ele><time>2026-05-03T09:38:28.998Z</time></trkpt><trkpt lat="40.77751783192249" lon="17.479726234467215"><ele>88.0</ele><time>2026-05-03T09:38:33.998Z</time></trkpt><trkpt lat="40.77731423549445" lon="17.480113813669863"><ele>88.0</ele><time>2026-05-03T09:38:37.998Z</time></trkpt><trkpt lat="40.77724968969474" lon="17.480041859871243"><ele>88.0</ele><time>2026-05-03T09:42:54.996Z</time></trkpt><trkpt lat="40.77729851853893" lon="17.47996771981145"><ele>88.0</ele><time>2026-05-03T09:44:32.999Z</time></trkpt><trkpt lat="40.77730789118816" lon="17.479872473297924"><ele>88.0</ele><time>2026-05-03T09:44:42.998Z</time></trkpt><trkpt lat="40.77730104519727" lon="17.480018854114483"><ele>88.0</ele><time>2026-05-03T09:44:59.998Z</time></trkpt><trkpt lat="40.77724964236185" lon="17.480076772702446"><ele>88.0</ele><time>2026-05-03T09:49:16.998Z</time></trkpt><trkpt lat="40.77725999242363" lon="17.479977276624428"><ele>88.0</ele><time>2026-05-03T09:49:30Z</time></trkpt><trkpt lat="40.777304425921855" lon="17.479842906529868"><ele>88.0</ele><time>2026-05-03T09:49:41Z</time></trkpt><trkpt lat="40.777291581868674" lon="17.479963994616377"><ele>88.0</ele><time>2026-05-03T09:49:50Z</time></trkpt><trkpt lat="40.777267728713284" lon="17.48010690702991"><ele>88.0</ele><time>2026-05-03T09:50:41.999Z</time></trkpt><trkpt lat="40.77721570521546" lon="17.480038094857637"><ele>88.0</ele><time>2026-05-03T09:51:18.998Z</time></trkpt><trkpt lat="40.777152566741044" lon="17.48000721978253"><ele>88.0</ele><time>2026-05-03T09:51:22.998Z</time></trkpt><trkpt lat="40.77708411727882" lon="17.479946953545667"><ele>88.0</ele><time>2026-05-03T09:51:26Z</time></trkpt><trkpt lat="40.77702308826429" lon="17.479921395045224"><ele>88.0</ele><time>2026-05-03T09:51:28Z</time></trkpt><trkpt lat="40.776926713210536" lon="17.47989808339512"><ele>88.4</ele><time>2026-05-03T09:51:31Z</time></trkpt><trkpt lat="40.77684777484993" lon="17.47987836179261"><ele>88.80000000000001</ele><time>2026-05-03T09:51:33Z</time></trkpt><trkpt lat="40.776741464563486" lon="17.479848498921488"><ele>89.2</ele><time>2026-05-03T09:51:35Z</time></trkpt><trkpt lat="40.776638810074054" lon="17.479809632670435"><ele>89.6</ele><time>2026-05-03T09:51:37Z</time></trkpt><trkpt lat="40.77653775810485" lon="17.47974056495063"><ele>90.0</ele><time>2026-05-03T09:51:39Z</time></trkpt><trkpt lat="40.776440443229944" lon="17.479711980997802"><ele>90.0</ele><time>2026-05-03T09:51:41Z</time></trkpt><trkpt lat="40.77634165133571" lon="17.47969496473045"><ele>90.0</ele><time>2026-05-03T09:51:43Z</time></trkpt><trkpt lat="40.77625480948091" lon="17.479655367912425"><ele>90.0</ele><time>2026-05-03T09:51:45Z</time></trkpt><trkpt lat="40.776195485344566" lon="17.479607868895922"><ele>90.0</ele><time>2026-05-03T09:51:47Z</time></trkpt><trkpt lat="40.77613251321354" lon="17.47955329448692"><ele>90.0</ele><time>2026-05-03T09:51:51Z</time></trkpt><trkpt lat="40.776062751954264" lon="17.479572952261297"><ele>90.0</ele><time>2026-05-03T09:51:55Z</time></trkpt><trkpt lat="40.775993455800496" lon="17.479553375233607"><ele>90.16666666666667</ele><time>2026-05-03T09:51:58Z</time></trkpt><trkpt lat="40.77591413737004" lon="17.479520472585815"><ele>90.33333333333333</ele><time>2026-05-03T09:52:01Z</time></trkpt><trkpt lat="40.77584251587578" lon="17.479493207099082"><ele>90.5</ele><time>2026-05-03T09:52:03.999Z</time></trkpt><trkpt lat="40.77580721548803" lon="17.479567785671744"><ele>90.66666666666666</ele><time>2026-05-03T09:53:15.998Z</time></trkpt><trkpt lat="40.77581147645618" lon="17.47969364539032"><ele>90.83333333333333</ele><time>2026-05-03T09:53:18.998Z</time></trkpt><trkpt lat="40.775807620740615" lon="17.47980636129345"><ele>91.0</ele><time>2026-05-03T09:53:21.998Z</time></trkpt><trkpt lat="40.77580142207757" lon="17.47991453959354"><ele>91.0</ele><time>2026-05-03T09:53:24.998Z</time></trkpt><trkpt lat="40.7757934867153" lon="17.48002879318303"><ele>91.0</ele><time>2026-05-03T09:53:27.998Z</time></trkpt><trkpt lat="40.77578937884769" lon="17.48012906694438"><ele>91.0</ele><time>2026-05-03T09:53:30Z</time></trkpt><trkpt lat="40.775770664051805" lon="17.480226452302787"><ele>91.0</ele><time>2026-05-03T09:53:32Z</time></trkpt><trkpt lat="40.775753915787554" lon="17.480333105073854"><ele>91.0</ele><time>2026-05-03T09:53:34Z</time></trkpt><trkpt lat="40.77574323271439" lon="17.48047027270941"><ele>91.0</ele><time>2026-05-03T09:53:36Z</time></trkpt><trkpt lat="40.775730310007006" lon="17.48060942785302"><ele>90.83333333333333</ele><time>2026-05-03T09:53:38Z</time></trkpt><trkpt lat="40.77572038320177" lon="17.480742290612923"><ele>90.66666666666666</ele><time>2026-05-03T09:53:40Z</time></trkpt><trkpt lat="40.77569736053682" lon="17.480857785745325"><ele>90.5</ele><time>2026-05-03T09:53:42Z</time></trkpt><trkpt lat="40.77567102236587" lon="17.4809717401926"><ele>90.33333333333333</ele><time>2026-05-03T09:53:44Z</time></trkpt><trkpt lat="40.77566215215374" lon="17.48106614782265"><ele>90.16666666666667</ele><time>2026-05-03T09:53:46Z</time></trkpt><trkpt lat="40.77562875773875" lon="17.48115700328037"><ele>90.0</ele><time>2026-05-03T09:53:48Z</time></trkpt><trkpt lat="40.775600544146506" lon="17.481290449304407"><ele>89.6</ele><time>2026-05-03T09:53:50Z</time></trkpt><trkpt lat="40.7755695443967" lon="17.481434790881874"><ele>89.2</ele><time>2026-05-03T09:53:52Z</time></trkpt><trkpt lat="40.77553512283622" lon="17.48158476881541"><ele>88.80000000000001</ele><time>2026-05-03T09:53:54Z</time></trkpt><trkpt lat="40.77548088750178" lon="17.481714223310025"><ele>88.4</ele><time>2026-05-03T09:53:56Z</time></trkpt><trkpt lat="40.775469035819384" lon="17.481832782793816"><ele>88.0</ele><time>2026-05-03T09:53:58Z</time></trkpt><trkpt lat="40.775433216281826" lon="17.481958700089297"><ele>88.0</ele><time>2026-05-03T09:54:00Z</time></trkpt><trkpt lat="40.77540225597371" lon="17.482080134918643"><ele>88.0</ele><time>2026-05-03T09:54:02Z</time></trkpt><trkpt lat="40.77536366116264" lon="17.482211122614224"><ele>88.0</ele><time>2026-05-03T09:54:04Z</time></trkpt><trkpt lat="40.775331093654884" lon="17.482343044774932"><ele>88.0</ele><time>2026-05-03T09:54:06Z</time></trkpt><trkpt lat="40.77530053579643" lon="17.48248022151012"><ele>88.0</ele><time>2026-05-03T09:54:08Z</time></trkpt><trkpt lat="40.775263526412054" lon="17.482611440999467"><ele>88.0</ele><time>2026-05-03T09:54:10Z</time></trkpt><trkpt lat="40.77522812965206" lon="17.482752917974068"><ele>88.0</ele><time>2026-05-03T09:54:11.999Z</time></trkpt><trkpt lat="40.77520560764158" lon="17.4828943920783"><ele>88.0</ele><time>2026-05-03T09:54:13.999Z</time></trkpt><trkpt lat="40.77515335589757" lon="17.483003203893414"><ele>88.0</ele><time>2026-05-03T09:54:15.999Z</time></trkpt><trkpt lat="40.775145558935655" lon="17.483087302604652"><ele>88.0</ele><time>2026-05-03T09:54:16.999Z</time></trkpt><trkpt lat="40.77512033076889" lon="17.48320253453503"><ele>88.0</ele><time>2026-05-03T09:54:18.999Z</time></trkpt><trkpt lat="40.77508415917989" lon="17.483343811369302"><ele>88.0</ele><time>2026-05-03T09:54:20.999Z</time></trkpt><trkpt lat="40.77505217394894" lon="17.483459095604246"><ele>88.0</ele><time>2026-05-03T09:54:22.999Z</time></trkpt><trkpt lat="40.77501997286201" lon="17.48358462561918"><ele>88.0</ele><time>2026-05-03T09:54:24.999Z</time></trkpt><trkpt lat="40.77498621810299" lon="17.48370812250773"><ele>88.0</ele><time>2026-05-03T09:54:26.999Z</time></trkpt><trkpt lat="40.77496193489989" lon="17.483804946467966"><ele>87.80000000000001</ele><time>2026-05-03T09:54:28.999Z</time></trkpt><trkpt lat="40.77493756436986" lon="17.483944172503"><ele>87.6</ele><time>2026-05-03T09:54:30.999Z</time></trkpt><trkpt lat="40.774902038717144" lon="17.48404709907832"><ele>87.4</ele><time>2026-05-03T09:54:32.999Z</time></trkpt><trkpt lat="40.77487408475155" lon="17.484175243481893"><ele>87.19999999999999</ele><time>2026-05-03T09:54:34.999Z</time></trkpt><trkpt lat="40.77484998350272" lon="17.484317839102882"><ele>87.0</ele><time>2026-05-03T09:54:36.999Z</time></trkpt><trkpt lat="40.77481078877777" lon="17.484441578777417"><ele>87.0</ele><time>2026-05-03T09:54:38.999Z</time></trkpt><trkpt lat="40.77478004420471" lon="17.4845756120831"><ele>87.0</ele><time>2026-05-03T09:54:40.999Z</time></trkpt><trkpt lat="40.774747970529944" lon="17.484688897203654"><ele>87.0</ele><time>2026-05-03T09:54:42.999Z</time></trkpt><trkpt lat="40.77471594568536" lon="17.48480573129109"><ele>87.0</ele><time>2026-05-03T09:54:44.999Z</time></trkpt><trkpt lat="40.7746926780164" lon="17.48494015182058"><ele>87.0</ele><time>2026-05-03T09:54:46.999Z</time></trkpt><trkpt lat="40.77466622114444" lon="17.485060383090232"><ele>87.0</ele><time>2026-05-03T09:54:48.999Z</time></trkpt><trkpt lat="40.77463733435582" lon="17.48518527280211"><ele>87.0</ele><time>2026-05-03T09:54:50.999Z</time></trkpt><trkpt lat="40.774606643979375" lon="17.485292942458727"><ele>87.0</ele><time>2026-05-03T09:54:52.999Z</time></trkpt><trkpt lat="40.77457585821274" lon="17.485423918390854"><ele>87.0</ele><time>2026-05-03T09:54:54.999Z</time></trkpt><trkpt lat="40.77454393470292" lon="17.48554317824852"><ele>87.0</ele><time>2026-05-03T09:54:56.999Z</time></trkpt><trkpt lat="40.774517518477076" lon="17.485666046176437"><ele>86.8</ele><time>2026-05-03T09:54:58.999Z</time></trkpt><trkpt lat="40.774501774911265" lon="17.485811815106224"><ele>86.6</ele><time>2026-05-03T09:55:00.999Z</time></trkpt><trkpt lat="40.774473717345025" lon="17.485991881710063"><ele>86.39999999999999</ele><time>2026-05-03T09:55:02.999Z</time></trkpt><trkpt lat="40.774475776442436" lon="17.486083677444338"><ele>86.19999999999999</ele><time>2026-05-03T09:55:03.999Z</time></trkpt><trkpt lat="40.774472706722" lon="17.486167479235625"><ele>86.0</ele><time>2026-05-03T09:55:04.999Z</time></trkpt><trkpt lat="40.77444674831652" lon="17.48632900024554"><ele>85.8</ele><time>2026-05-03T09:55:06.999Z</time></trkpt><trkpt lat="40.7744176745261" lon="17.48649179864846"><ele>85.6</ele><time>2026-05-03T09:55:08.999Z</time></trkpt><trkpt lat="40.7743960176175" lon="17.48663108542319"><ele>85.4</ele><time>2026-05-03T09:55:10.999Z</time></trkpt><trkpt lat="40.77440651234228" lon="17.486715068440137"><ele>85.2</ele><time>2026-05-03T09:55:11.999Z</time></trkpt><trkpt lat="40.774399259760436" lon="17.48687066118305"><ele>85.0</ele><time>2026-05-03T09:55:13.999Z</time></trkpt><trkpt lat="40.77438382536118" lon="17.48702529224689"><ele>84.8</ele><time>2026-05-03T09:55:15.999Z</time></trkpt><trkpt lat="40.774374263017705" lon="17.487172109972487"><ele>84.6</ele><time>2026-05-03T09:55:17.998Z</time></trkpt><trkpt lat="40.774352098568016" lon="17.48731387755111"><ele>84.4</ele><time>2026-05-03T09:55:19.998Z</time></trkpt><trkpt lat="40.7743456393669" lon="17.48748540202246"><ele>84.2</ele><time>2026-05-03T09:55:21.998Z</time></trkpt><trkpt lat="40.77433858611341" lon="17.48757520452283"><ele>84.0</ele><time>2026-05-03T09:55:22.998Z</time></trkpt><trkpt lat="40.774324115934675" lon="17.48774755232417"><ele>84.2</ele><time>2026-05-03T09:55:24.998Z</time></trkpt><trkpt lat="40.77430012864069" lon="17.487896747719972"><ele>84.4</ele><time>2026-05-03T09:55:26.998Z</time></trkpt><trkpt lat="40.774291490748375" lon="17.48798543109164"><ele>84.6</ele><time>2026-05-03T09:55:27.998Z</time></trkpt><trkpt lat="40.774263964985806" lon="17.4880610238969"><ele>84.8</ele><time>2026-05-03T09:55:28.998Z</time></trkpt><trkpt lat="40.77419247873081" lon="17.488197048461604"><ele>85.0</ele><time>2026-05-03T09:55:30.998Z</time></trkpt><trkpt lat="40.77413969709982" lon="17.48831627885131"><ele>85.0</ele><time>2026-05-03T09:55:32.998Z</time></trkpt><trkpt lat="40.77407807606757" lon="17.48843200554354"><ele>85.0</ele><time>2026-05-03T09:55:34.998Z</time></trkpt><trkpt lat="40.774018982465634" lon="17.488554169748777"><ele>85.0</ele><time>2026-05-03T09:55:37Z</time></trkpt><trkpt lat="40.77395612119028" lon="17.488684238712167"><ele>85.0</ele><time>2026-05-03T09:55:39Z</time></trkpt><trkpt lat="40.773897124277006" lon="17.488809412177137"><ele>85.0</ele><time>2026-05-03T09:55:41Z</time></trkpt><trkpt lat="40.773830864859825" lon="17.488943685546047"><ele>84.25</ele><time>2026-05-03T09:55:43Z</time></trkpt><trkpt lat="40.773768254797346" lon="17.48908375944042"><ele>83.5</ele><time>2026-05-03T09:55:45Z</time></trkpt><trkpt lat="40.77370438842905" lon="17.489221385375554"><ele>82.75</ele><time>2026-05-03T09:55:47Z</time></trkpt><trkpt lat="40.77364281168942" lon="17.489350712347225"><ele>82.0</ele><time>2026-05-03T09:55:49Z</time></trkpt><trkpt lat="40.77358842740592" lon="17.48947865297982"><ele>81.8</ele><time>2026-05-03T09:55:51Z</time></trkpt><trkpt lat="40.7735259970221" lon="17.489619232480017"><ele>81.6</ele><time>2026-05-03T09:55:53Z</time></trkpt><trkpt lat="40.77349509477947" lon="17.489693573166292"><ele>81.39999999999999</ele><time>2026-05-03T09:55:54Z</time></trkpt><trkpt lat="40.773427660005794" lon="17.489815927810323"><ele>81.19999999999999</ele><time>2026-05-03T09:55:56Z</time></trkpt><trkpt lat="40.77337679639945" lon="17.48987381601912"><ele>81.0</ele><time>2026-05-03T09:55:57Z</time></trkpt><trkpt lat="40.77329724280445" lon="17.489964790564365"><ele>81.0</ele><time>2026-05-03T09:55:59Z</time></trkpt><trkpt lat="40.773255916880984" lon="17.490034837692395"><ele>81.0</ele><time>2026-05-03T09:56:00Z</time></trkpt><trkpt lat="40.7731828665767" lon="17.490140608853782"><ele>81.0</ele><time>2026-05-03T09:56:02Z</time></trkpt><trkpt lat="40.77310733337401" lon="17.490247586751313"><ele>81.0</ele><time>2026-05-03T09:56:04Z</time></trkpt><trkpt lat="40.77304184176146" lon="17.490344911647234"><ele>81.0</ele><time>2026-05-03T09:56:06Z</time></trkpt><trkpt lat="40.772971974766264" lon="17.490460808201465"><ele>81.0</ele><time>2026-05-03T09:56:08Z</time></trkpt><trkpt lat="40.77290409349701" lon="17.490562101834385"><ele>81.0</ele><time>2026-05-03T09:56:10Z</time></trkpt><trkpt lat="40.77281355208386" lon="17.490659075267455"><ele>81.0</ele><time>2026-05-03T09:56:12Z</time></trkpt><trkpt lat="40.772750135042884" lon="17.490766094287686"><ele>81.0</ele><time>2026-05-03T09:56:14Z</time></trkpt><trkpt lat="40.77267999285739" lon="17.490882052864162"><ele>81.0</ele><time>2026-05-03T09:56:16Z</time></trkpt><trkpt lat="40.77261415179235" lon="17.490978219022445"><ele>81.4</ele><time>2026-05-03T09:56:18Z</time></trkpt><trkpt lat="40.77255122407184" lon="17.491088275719882"><ele>81.8</ele><time>2026-05-03T09:56:20Z</time></trkpt><trkpt lat="40.77247908627048" lon="17.491198934689873"><ele>82.2</ele><time>2026-05-03T09:56:22Z</time></trkpt><trkpt lat="40.772392915035226" lon="17.4912975383126"><ele>82.60000000000001</ele><time>2026-05-03T09:56:23.999Z</time></trkpt><trkpt lat="40.7723312888214" lon="17.491407807058746"><ele>83.0</ele><time>2026-05-03T09:56:25.999Z</time></trkpt><trkpt lat="40.77228673308628" lon="17.49147053773277"><ele>83.0</ele><time>2026-05-03T09:56:26.999Z</time></trkpt><trkpt lat="40.77220829415975" lon="17.49155491154529"><ele>83.0</ele><time>2026-05-03T09:56:28.999Z</time></trkpt><trkpt lat="40.77212159853373" lon="17.491644916735712"><ele>83.0</ele><time>2026-05-03T09:56:30.999Z</time></trkpt><trkpt lat="40.77203180808679" lon="17.491734029888864"><ele>83.0</ele><time>2026-05-03T09:56:32.999Z</time></trkpt><trkpt lat="40.77194602412179" lon="17.491817294267115"><ele>83.0</ele><time>2026-05-03T09:56:34.999Z</time></trkpt><trkpt lat="40.771861961323935" lon="17.491902706725618"><ele>83.2</ele><time>2026-05-03T09:56:36.999Z</time></trkpt><trkpt lat="40.771777992362836" lon="17.491988473056562"><ele>83.4</ele><time>2026-05-03T09:56:38.999Z</time></trkpt><trkpt lat="40.77169507042281" lon="17.4920579459392"><ele>83.60000000000001</ele><time>2026-05-03T09:56:40.999Z</time></trkpt><trkpt lat="40.77161316533293" lon="17.49216993866061"><ele>83.80000000000001</ele><time>2026-05-03T09:56:42.999Z</time></trkpt><trkpt lat="40.77152878117178" lon="17.492240848705066"><ele>84.0</ele><time>2026-05-03T09:56:44.999Z</time></trkpt><trkpt lat="40.771446583685616" lon="17.49232532278801"><ele>84.0</ele><time>2026-05-03T09:56:46.999Z</time></trkpt><trkpt lat="40.77135962387234" lon="17.492416615004267"><ele>84.0</ele><time>2026-05-03T09:56:48.999Z</time></trkpt><trkpt lat="40.77126786110441" lon="17.492495505411643"><ele>84.0</ele><time>2026-05-03T09:56:50.999Z</time></trkpt><trkpt lat="40.77117707079953" lon="17.49255490075507"><ele>84.0</ele><time>2026-05-03T09:56:52.999Z</time></trkpt><trkpt lat="40.77108973247172" lon="17.492608882686564"><ele>84.0</ele><time>2026-05-03T09:56:54.999Z</time></trkpt><trkpt lat="40.770994137304925" lon="17.492677195185667"><ele>84.2</ele><time>2026-05-03T09:56:56.999Z</time></trkpt><trkpt lat="40.77090825164407" lon="17.492757441257563"><ele>84.4</ele><time>2026-05-03T09:56:58.999Z</time></trkpt><trkpt lat="40.77084090520871" lon="17.492859126691975"><ele>84.6</ele><time>2026-05-03T09:57:00.999Z</time></trkpt><trkpt lat="40.770762497709725" lon="17.492965435808664"><ele>84.8</ele><time>2026-05-03T09:57:02.999Z</time></trkpt><trkpt lat="40.77069964334" lon="17.493083033891065"><ele>85.0</ele><time>2026-05-03T09:57:04.999Z</time></trkpt><trkpt lat="40.77064060686619" lon="17.49319211331999"><ele>85.0</ele><time>2026-05-03T09:57:06.999Z</time></trkpt><trkpt lat="40.77057551207622" lon="17.493312770421035"><ele>85.0</ele><time>2026-05-03T09:57:08.999Z</time></trkpt><trkpt lat="40.77051200285803" lon="17.493431628637957"><ele>85.0</ele><time>2026-05-03T09:57:10.999Z</time></trkpt><trkpt lat="40.77045086346639" lon="17.49354605169014"><ele>85.0</ele><time>2026-05-03T09:57:12.999Z</time></trkpt><trkpt lat="40.77038145861428" lon="17.493676124780364"><ele>85.0</ele><time>2026-05-03T09:57:14.999Z</time></trkpt><trkpt lat="40.77031376947906" lon="17.493805552092184"><ele>84.8</ele><time>2026-05-03T09:57:16.999Z</time></trkpt><trkpt lat="40.770264264380444" lon="17.4939358603505"><ele>84.6</ele><time>2026-05-03T09:57:18.999Z</time></trkpt><trkpt lat="40.770200082525285" lon="17.494053610070054"><ele>84.4</ele><time>2026-05-03T09:57:20.999Z</time></trkpt><trkpt lat="40.77012926681706" lon="17.49415833670143"><ele>84.2</ele><time>2026-05-03T09:57:22.999Z</time></trkpt><trkpt lat="40.77006848187322" lon="17.494277041600483"><ele>84.0</ele><time>2026-05-03T09:57:24.999Z</time></trkpt><trkpt lat="40.77000754191699" lon="17.49439948313692"><ele>84.2</ele><time>2026-05-03T09:57:26.999Z</time></trkpt><trkpt lat="40.769947197908984" lon="17.494525277430597"><ele>84.4</ele><time>2026-05-03T09:57:28.998Z</time></trkpt><trkpt lat="40.76988952695238" lon="17.49464549943151"><ele>84.6</ele><time>2026-05-03T09:57:30.998Z</time></trkpt><trkpt lat="40.76983534588333" lon="17.49475844638168"><ele>84.8</ele><time>2026-05-03T09:57:32.998Z</time></trkpt><trkpt lat="40.76979204729898" lon="17.494889592291266"><ele>85.0</ele><time>2026-05-03T09:57:34.998Z</time></trkpt><trkpt lat="40.769736594335676" lon="17.495019008877204"><ele>85.0</ele><time>2026-05-03T09:57:36.998Z</time></trkpt><trkpt lat="40.76967865442921" lon="17.495132007930685"><ele>85.0</ele><time>2026-05-03T09:57:38.998Z</time></trkpt><trkpt lat="40.769610643417494" lon="17.49523448146391"><ele>85.0</ele><time>2026-05-03T09:57:40.998Z</time></trkpt><trkpt lat="40.769561691187306" lon="17.4953609963494"><ele>85.0</ele><time>2026-05-03T09:57:43Z</time></trkpt><trkpt lat="40.769518808921944" lon="17.495470249776236"><ele>85.0</ele><time>2026-05-03T09:57:45Z</time></trkpt><trkpt lat="40.76946822879617" lon="17.495595167366986"><ele>85.0</ele><time>2026-05-03T09:57:47Z</time></trkpt><trkpt lat="40.76941786904879" lon="17.495719540770338"><ele>85.0</ele><time>2026-05-03T09:57:49Z</time></trkpt><trkpt lat="40.76936782538889" lon="17.49584116190737"><ele>85.0</ele><time>2026-05-03T09:57:51Z</time></trkpt><trkpt lat="40.76932097203326" lon="17.495954059966483"><ele>85.0</ele><time>2026-05-03T09:57:53Z</time></trkpt><trkpt lat="40.76927042300267" lon="17.49607037952057"><ele>85.0</ele><time>2026-05-03T09:57:55Z</time></trkpt><trkpt lat="40.76922402439465" lon="17.496179996466605"><ele>85.33333333333333</ele><time>2026-05-03T09:57:57Z</time></trkpt><trkpt lat="40.769185115563886" lon="17.496281699731323"><ele>85.66666666666666</ele><time>2026-05-03T09:57:59Z</time></trkpt><trkpt lat="40.7691623765165" lon="17.49637934342076"><ele>86.0</ele><time>2026-05-03T09:58:01Z</time></trkpt><trkpt lat="40.76913698384961" lon="17.496465671906197"><ele>86.33333333333333</ele><time>2026-05-03T09:58:03Z</time></trkpt><trkpt lat="40.769101904888444" lon="17.496557340107195"><ele>86.66666666666667</ele><time>2026-05-03T09:58:05Z</time></trkpt><trkpt lat="40.76907192252099" lon="17.496650958221245"><ele>87.0</ele><time>2026-05-03T09:58:07Z</time></trkpt><trkpt lat="40.76904406529349" lon="17.496758899645585"><ele>87.0</ele><time>2026-05-03T09:58:09Z</time></trkpt><trkpt lat="40.76901537157328" lon="17.496844349822933"><ele>87.0</ele><time>2026-05-03T09:58:11Z</time></trkpt><trkpt lat="40.76898876927031" lon="17.496936965006114"><ele>87.0</ele><time>2026-05-03T09:58:13Z</time></trkpt><trkpt lat="40.76895275508022" lon="17.497051079667468"><ele>87.0</ele><time>2026-05-03T09:58:15Z</time></trkpt><trkpt lat="40.76891304796026" lon="17.497168323253273"><ele>87.0</ele><time>2026-05-03T09:58:17Z</time></trkpt><trkpt lat="40.76887918402691" lon="17.49727948833992"><ele>87.0</ele><time>2026-05-03T09:58:19Z</time></trkpt><trkpt lat="40.76884110232897" lon="17.497384774134957"><ele>86.66666666666667</ele><time>2026-05-03T09:58:21Z</time></trkpt><trkpt lat="40.76881254266025" lon="17.49749532871495"><ele>86.33333333333333</ele><time>2026-05-03T09:58:23Z</time></trkpt><trkpt lat="40.76877326673993" lon="17.497591951578233"><ele>86.0</ele><time>2026-05-03T09:58:25Z</time></trkpt><trkpt lat="40.76873730701987" lon="17.49769851998729"><ele>85.66666666666666</ele><time>2026-05-03T09:58:26.999Z</time></trkpt><trkpt lat="40.76869024342649" lon="17.497781422284653"><ele>85.33333333333333</ele><time>2026-05-03T09:58:28.999Z</time></trkpt><trkpt lat="40.768606065869996" lon="17.49781156881841"><ele>85.0</ele><time>2026-05-03T09:58:30.999Z</time></trkpt><trkpt lat="40.76853372947477" lon="17.4977669378382"><ele>85.6</ele><time>2026-05-03T09:58:32.999Z</time></trkpt><trkpt lat="40.76843105565067" lon="17.49774458816635"><ele>86.2</ele><time>2026-05-03T09:58:34.999Z</time></trkpt><trkpt lat="40.768329163563415" lon="17.497736200250287"><ele>86.80000000000001</ele><time>2026-05-03T09:58:36.999Z</time></trkpt><trkpt lat="40.76822380858698" lon="17.4977604203401"><ele>87.4</ele><time>2026-05-03T09:58:38.999Z</time></trkpt><trkpt lat="40.76817787337128" lon="17.497847559089404"><ele>88.0</ele><time>2026-05-03T09:58:40.999Z</time></trkpt><trkpt lat="40.76815055420298" lon="17.49796213198644"><ele>88.0</ele><time>2026-05-03T09:58:42.999Z</time></trkpt><trkpt lat="40.76811454087291" lon="17.49808608739514"><ele>88.0</ele><time>2026-05-03T09:58:44.999Z</time></trkpt><trkpt lat="40.76808286460213" lon="17.498214836962322"><ele>88.0</ele><time>2026-05-03T09:58:46.999Z</time></trkpt><trkpt lat="40.768029606022736" lon="17.498338155105348"><ele>88.0</ele><time>2026-05-03T09:58:48.999Z</time></trkpt><trkpt lat="40.76799321894372" lon="17.49846303307557"><ele>88.0</ele><time>2026-05-03T09:58:50.999Z</time></trkpt><trkpt lat="40.76795336390646" lon="17.49859992193117"><ele>88.0</ele><time>2026-05-03T09:58:52.999Z</time></trkpt><trkpt lat="40.76791228556476" lon="17.498741012423686"><ele>88.0</ele><time>2026-05-03T09:58:54.999Z</time></trkpt><trkpt lat="40.76786459850344" lon="17.49888316975916"><ele>88.0</ele><time>2026-05-03T09:58:56.999Z</time></trkpt><trkpt lat="40.767808265677054" lon="17.4990298517886"><ele>88.0</ele><time>2026-05-03T09:58:58.999Z</time></trkpt><trkpt lat="40.767759625278515" lon="17.499169903125182"><ele>88.2</ele><time>2026-05-03T09:59:00.999Z</time></trkpt><trkpt lat="40.76769478982965" lon="17.499295650845344"><ele>88.4</ele><time>2026-05-03T09:59:02.999Z</time></trkpt><trkpt lat="40.76762949681031" lon="17.499408915456552"><ele>88.60000000000001</ele><time>2026-05-03T09:59:04.999Z</time></trkpt><trkpt lat="40.767576418619754" lon="17.499526857292707"><ele>88.80000000000001</ele><time>2026-05-03T09:59:06.999Z</time></trkpt><trkpt lat="40.76752181318319" lon="17.499588252090902"><ele>89.0</ele><time>2026-05-03T09:59:07.999Z</time></trkpt><trkpt lat="40.767493911850366" lon="17.4996753868929"><ele>88.6</ele><time>2026-05-03T09:59:08.999Z</time></trkpt><trkpt lat="40.767438887672085" lon="17.499758879762823"><ele>88.2</ele><time>2026-05-03T09:59:10.999Z</time></trkpt><trkpt lat="40.76741101084281" lon="17.499839925210892"><ele>87.8</ele><time>2026-05-03T09:59:11.999Z</time></trkpt><trkpt lat="40.76735085966526" lon="17.499967243771184"><ele>87.39999999999999</ele><time>2026-05-03T09:59:13.999Z</time></trkpt><trkpt lat="40.7672806062319" lon="17.50009459799493"><ele>87.0</ele><time>2026-05-03T09:59:15.999Z</time></trkpt><trkpt lat="40.767270200835796" lon="17.50019034869945"><ele>87.0</ele><time>2026-05-03T09:59:16.999Z</time></trkpt><trkpt lat="40.76724387918402" lon="17.500339749440553"><ele>87.0</ele><time>2026-05-03T09:59:18.999Z</time></trkpt><trkpt lat="40.76721012971486" lon="17.500477247621628"><ele>87.0</ele><time>2026-05-03T09:59:20.999Z</time></trkpt><trkpt lat="40.76716056868464" lon="17.500609949387332"><ele>87.0</ele><time>2026-05-03T09:59:22.999Z</time></trkpt><trkpt lat="40.76713473927006" lon="17.500738079602595"><ele>87.0</ele><time>2026-05-03T09:59:24.999Z</time></trkpt><trkpt lat="40.76709112726137" lon="17.500880419591407"><ele>86.8</ele><time>2026-05-03T09:59:26.999Z</time></trkpt><trkpt lat="40.76705465892042" lon="17.501014519032918"><ele>86.6</ele><time>2026-05-03T09:59:28.999Z</time></trkpt><trkpt lat="40.76702107541722" lon="17.501169426855576"><ele>86.39999999999999</ele><time>2026-05-03T09:59:30.999Z</time></trkpt><trkpt lat="40.766983916806076" lon="17.501305940111624"><ele>86.19999999999999</ele><time>2026-05-03T09:59:32.998Z</time></trkpt><trkpt lat="40.76697025572574" lon="17.501393706803775"><ele>86.0</ele><time>2026-05-03T09:59:33.998Z</time></trkpt><trkpt lat="40.76694029695819" lon="17.501542692408126"><ele>86.19999999999999</ele><time>2026-05-03T09:59:35.998Z</time></trkpt><trkpt lat="40.76691375419477" lon="17.50161878831863"><ele>86.39999999999999</ele><time>2026-05-03T09:59:36.998Z</time></trkpt><trkpt lat="40.76686147757111" lon="17.501752145461282"><ele>86.6</ele><time>2026-05-03T09:59:38.998Z</time></trkpt><trkpt lat="40.76682543846321" lon="17.501909071844853"><ele>86.8</ele><time>2026-05-03T09:59:40.998Z</time></trkpt><trkpt lat="40.7667766209097" lon="17.502040301645422"><ele>87.0</ele><time>2026-05-03T09:59:42.998Z</time></trkpt><trkpt lat="40.766754769451374" lon="17.502167266701576"><ele>87.0</ele><time>2026-05-03T09:59:44.998Z</time></trkpt><trkpt lat="40.766762419241324" lon="17.50225801753762"><ele>87.0</ele><time>2026-05-03T09:59:46.998Z</time></trkpt><trkpt lat="40.76673823065196" lon="17.50237147206535"><ele>87.0</ele><time>2026-05-03T09:59:49Z</time></trkpt><trkpt lat="40.76674664843014" lon="17.50250930584524"><ele>87.0</ele><time>2026-05-03T09:59:51Z</time></trkpt><trkpt lat="40.76670722569782" lon="17.50262296773746"><ele>87.0</ele><time>2026-05-03T09:59:53Z</time></trkpt><trkpt lat="40.766683006313166" lon="17.502728942235045"><ele>87.0</ele><time>2026-05-03T09:59:55Z</time></trkpt><trkpt lat="40.76666351805803" lon="17.502837694952245"><ele>87.19999999999999</ele><time>2026-05-03T09:59:57Z</time></trkpt><trkpt lat="40.7666498086638" lon="17.50297077421001"><ele>87.4</ele><time>2026-05-03T09:59:59Z</time></trkpt><trkpt lat="40.766635333158504" lon="17.503120482841258"><ele>87.6</ele><time>2026-05-03T10:00:01Z</time></trkpt><trkpt lat="40.7666195912489" lon="17.50322423688037"><ele>87.80000000000001</ele><time>2026-05-03T10:00:03Z</time></trkpt><trkpt lat="40.76660735879611" lon="17.503340889073037"><ele>88.0</ele><time>2026-05-03T10:00:05Z</time></trkpt><trkpt lat="40.766594330883095" lon="17.503455034822135"><ele>88.0</ele><time>2026-05-03T10:00:07Z</time></trkpt><trkpt lat="40.76659771518988" lon="17.50354106946621"><ele>88.0</ele><time>2026-05-03T10:00:08Z</time></trkpt><trkpt lat="40.76660024061849" lon="17.503656862955463"><ele>88.0</ele><time>2026-05-03T10:00:10Z</time></trkpt><trkpt lat="40.766641914174166" lon="17.50373420143241"><ele>88.0</ele><time>2026-05-03T10:00:12Z</time></trkpt><trkpt lat="40.7666399592804" lon="17.503879777659805"><ele>88.0</ele><time>2026-05-03T10:00:14Z</time></trkpt><trkpt lat="40.76665222819197" lon="17.504030440272864"><ele>88.0</ele><time>2026-05-03T10:00:16Z</time></trkpt><trkpt lat="40.76666009295206" lon="17.504164281376404"><ele>88.0</ele><time>2026-05-03T10:00:18Z</time></trkpt><trkpt lat="40.766661365814514" lon="17.504248788967182"><ele>88.0</ele><time>2026-05-03T10:00:19Z</time></trkpt><trkpt lat="40.766650321224105" lon="17.504389582498604"><ele>88.0</ele><time>2026-05-03T10:00:21Z</time></trkpt><trkpt lat="40.76663712117596" lon="17.50453787101647"><ele>88.0</ele><time>2026-05-03T10:00:23Z</time></trkpt><trkpt lat="40.766630878656976" lon="17.50468294645503"><ele>88.0</ele><time>2026-05-03T10:00:25Z</time></trkpt><trkpt lat="40.76664479497582" lon="17.504825814253177"><ele>88.0</ele><time>2026-05-03T10:00:27Z</time></trkpt><trkpt lat="40.76664184912909" lon="17.50496777408411"><ele>88.0</ele><time>2026-05-03T10:00:29Z</time></trkpt><trkpt lat="40.76657541764487" lon="17.505092999740345"><ele>88.0</ele><time>2026-05-03T10:00:31Z</time></trkpt><trkpt lat="40.76653339693696" lon="17.505174423280444"><ele>88.0</ele><time>2026-05-03T10:00:32Z</time></trkpt><trkpt lat="40.76650118919502" lon="17.505249486294126"><ele>88.0</ele><time>2026-05-03T10:00:33Z</time></trkpt><trkpt lat="40.76646185018137" lon="17.50532650894528"><ele>88.0</ele><time>2026-05-03T10:00:34Z</time></trkpt><trkpt lat="40.76636667681501" lon="17.505421128698018"><ele>88.0</ele><time>2026-05-03T10:00:35.999Z</time></trkpt><trkpt lat="40.76632872569362" lon="17.50549605047681"><ele>88.0</ele><time>2026-05-03T10:00:36.999Z</time></trkpt><trkpt lat="40.76628173420726" lon="17.505651451988932"><ele>88.0</ele><time>2026-05-03T10:00:38.999Z</time></trkpt><trkpt lat="40.76618486988804" lon="17.505688855179724"><ele>87.60000000000001</ele><time>2026-05-03T10:00:40.999Z</time></trkpt><trkpt lat="40.76610232015595" lon="17.505601243976162"><ele>87.2</ele><time>2026-05-03T10:00:42.999Z</time></trkpt><trkpt lat="40.76604501736617" lon="17.505505119315234"><ele>86.8</ele><time>2026-05-03T10:00:44.999Z</time></trkpt><trkpt lat="40.765964978707274" lon="17.505535067895448"><ele>86.4</ele><time>2026-05-03T10:00:46.999Z</time></trkpt><trkpt lat="40.76586109139646" lon="17.50557528108669"><ele>86.0</ele><time>2026-05-03T10:00:48.999Z</time></trkpt><trkpt lat="40.76576586835405" lon="17.5055109584148"><ele>86.0</ele><time>2026-05-03T10:00:50.999Z</time></trkpt><trkpt lat="40.76572998731438" lon="17.505399790791902"><ele>86.0</ele><time>2026-05-03T10:00:52.999Z</time></trkpt><trkpt lat="40.76571009601701" lon="17.505261421192717"><ele>86.0</ele><time>2026-05-03T10:00:54.999Z</time></trkpt><trkpt lat="40.76564684320182" lon="17.505157463112802"><ele>86.0</ele><time>2026-05-03T10:00:56.999Z</time></trkpt><trkpt lat="40.765570861558636" lon="17.50507362987282"><ele>86.0</ele><time>2026-05-03T10:00:58.999Z</time></trkpt><trkpt lat="40.76555241754607" lon="17.504949752633724"><ele>86.0</ele><time>2026-05-03T10:01:00.999Z</time></trkpt><trkpt lat="40.76552537173161" lon="17.50482630247621"><ele>86.0</ele><time>2026-05-03T10:01:02.999Z</time></trkpt><trkpt lat="40.76546409804121" lon="17.50469571822112"><ele>86.0</ele><time>2026-05-03T10:01:04.999Z</time></trkpt><trkpt lat="40.765422628834784" lon="17.50459313605666"><ele>86.0</ele><time>2026-05-03T10:01:06.999Z</time></trkpt><trkpt lat="40.765478088621414" lon="17.504478992843254"><ele>86.0</ele><time>2026-05-03T10:01:08.999Z</time></trkpt><trkpt lat="40.76546285567889" lon="17.504392588607594"><ele>86.4</ele><time>2026-05-03T10:01:10.999Z</time></trkpt><trkpt lat="40.76535691732487" lon="17.504311583968445"><ele>86.8</ele><time>2026-05-03T10:01:12.999Z</time></trkpt><trkpt lat="40.76530442091448" lon="17.504259628689287"><ele>87.2</ele><time>2026-05-03T10:01:13.999Z</time></trkpt><trkpt lat="40.76520641663216" lon="17.504235393986256"><ele>87.60000000000001</ele><time>2026-05-03T10:01:15.999Z</time></trkpt><trkpt lat="40.76512375363708" lon="17.504220317037067"><ele>88.0</ele><time>2026-05-03T10:01:17.999Z</time></trkpt><trkpt lat="40.7650014111449" lon="17.50422350914571"><ele>88.16666666666666</ele><time>2026-05-03T10:01:19.999Z</time></trkpt><trkpt lat="40.76492817780665" lon="17.50414179715093"><ele>88.33333333333333</ele><time>2026-05-03T10:01:21.999Z</time></trkpt><trkpt lat="40.76485088555619" lon="17.504135654476368"><ele>88.5</ele><time>2026-05-03T10:01:22.999Z</time></trkpt><trkpt lat="40.76478330706447" lon="17.504152657325093"><ele>88.66666666666667</ele><time>2026-05-03T10:01:23.999Z</time></trkpt><trkpt lat="40.76467632895321" lon="17.50413847716039"><ele>88.83333333333334</ele><time>2026-05-03T10:01:25.999Z</time></trkpt><trkpt lat="40.76459555837269" lon="17.504062341386703"><ele>89.0</ele><time>2026-05-03T10:01:27.999Z</time></trkpt><trkpt lat="40.76453754035151" lon="17.504027716760355"><ele>89.0</ele><time>2026-05-03T10:01:28.999Z</time></trkpt><trkpt lat="40.76447530201376" lon="17.50401109645287"><ele>89.0</ele><time>2026-05-03T10:01:29.999Z</time></trkpt><trkpt lat="40.76439461352994" lon="17.504007582377255"><ele>89.0</ele><time>2026-05-03T10:01:30.999Z</time></trkpt><trkpt lat="40.76430960267543" lon="17.504044383439904"><ele>89.0</ele><time>2026-05-03T10:01:32.999Z</time></trkpt><trkpt lat="40.76422551000024" lon="17.50409905851486"><ele>89.0</ele><time>2026-05-03T10:01:34.999Z</time></trkpt><trkpt lat="40.76416156250855" lon="17.50413687200488"><ele>89.0</ele><time>2026-05-03T10:01:35.999Z</time></trkpt><trkpt lat="40.764080464231625" lon="17.504218828643022"><ele>89.16666666666667</ele><time>2026-05-03T10:01:37.999Z</time></trkpt><trkpt lat="40.76402551991726" lon="17.504322223154755"><ele>89.33333333333334</ele><time>2026-05-03T10:01:39.999Z</time></trkpt><trkpt lat="40.76397290404372" lon="17.504460743739582"><ele>89.5</ele><time>2026-05-03T10:01:41.998Z</time></trkpt><trkpt lat="40.763967282398" lon="17.504553975508806"><ele>89.66666666666667</ele><time>2026-05-03T10:01:42.998Z</time></trkpt><trkpt lat="40.763969569757855" lon="17.50463935011819"><ele>89.83333333333333</ele><time>2026-05-03T10:01:43.998Z</time></trkpt><trkpt lat="40.76396817476953" lon="17.504736882970214"><ele>90.0</ele><time>2026-05-03T10:01:44.998Z</time></trkpt><trkpt lat="40.76398212571788" lon="17.504820688997768"><ele>89.66666666666667</ele><time>2026-05-03T10:01:45.998Z</time></trkpt><trkpt lat="40.763988407669466" lon="17.504903956779422"><ele>89.33333333333333</ele><time>2026-05-03T10:01:46.998Z</time></trkpt><trkpt lat="40.76399946302402" lon="17.50498616318328"><ele>89.0</ele><time>2026-05-03T10:01:47.998Z</time></trkpt><trkpt lat="40.76395867323025" lon="17.505117015912482"><ele>88.66666666666666</ele><time>2026-05-03T10:01:49.998Z</time></trkpt><trkpt lat="40.763904121619014" lon="17.50519471836071"><ele>88.33333333333333</ele><time>2026-05-03T10:01:51.998Z</time></trkpt><trkpt lat="40.76385260221396" lon="17.505302735129728"><ele>88.0</ele><time>2026-05-03T10:01:54Z</time></trkpt><trkpt lat="40.763777803004906" lon="17.505238967008886"><ele>88.0</ele><time>2026-05-03T10:01:56Z</time></trkpt><trkpt lat="40.76372134531495" lon="17.50519464265071"><ele>88.0</ele><time>2026-05-03T10:01:59Z</time></trkpt><trkpt lat="40.76366070679903" lon="17.505164279552"><ele>88.0</ele><time>2026-05-03T10:02:01Z</time></trkpt><trkpt lat="40.7635816463484" lon="17.505200287170982"><ele>88.0</ele><time>2026-05-03T10:02:03Z</time></trkpt><trkpt lat="40.7634744673467" lon="17.505237696069905"><ele>88.0</ele><time>2026-05-03T10:02:05Z</time></trkpt><trkpt lat="40.763406056672544" lon="17.505335263591963"><ele>88.0</ele><time>2026-05-03T10:02:06Z</time></trkpt><trkpt lat="40.76334985362841" lon="17.505457210922536"><ele>88.42857142857143</ele><time>2026-05-03T10:02:07Z</time></trkpt><trkpt lat="40.76328645852613" lon="17.50552378876001"><ele>88.85714285714286</ele><time>2026-05-03T10:02:08Z</time></trkpt><trkpt lat="40.76322395960663" lon="17.50557031987664"><ele>89.28571428571428</ele><time>2026-05-03T10:02:09Z</time></trkpt><trkpt lat="40.76316995785935" lon="17.505631776406684"><ele>89.71428571428572</ele><time>2026-05-03T10:02:10Z</time></trkpt><trkpt lat="40.76312322223615" lon="17.50568787452981"><ele>90.14285714285714</ele><time>2026-05-03T10:02:11Z</time></trkpt><trkpt lat="40.763067130024716" lon="17.505738692139925"><ele>90.57142857142857</ele><time>2026-05-03T10:02:12Z</time></trkpt><trkpt lat="40.763012608636096" lon="17.505786796749785"><ele>91.0</ele><time>2026-05-03T10:02:13Z</time></trkpt><trkpt lat="40.762917252601454" lon="17.505914817693558"><ele>91.0</ele><time>2026-05-03T10:02:15Z</time></trkpt><trkpt lat="40.76283233240452" lon="17.505994314026534"><ele>91.0</ele><time>2026-05-03T10:02:17Z</time></trkpt><trkpt lat="40.762737058604095" lon="17.505938972356965"><ele>91.0</ele><time>2026-05-03T10:02:19Z</time></trkpt><trkpt lat="40.76265932056675" lon="17.505808489696406"><ele>91.0</ele><time>2026-05-03T10:02:21Z</time></trkpt><trkpt lat="40.76260587297744" lon="17.505758599067025"><ele>91.0</ele><time>2026-05-03T10:02:22Z</time></trkpt><trkpt lat="40.76254345830125" lon="17.50570550146783"><ele>91.33333333333333</ele><time>2026-05-03T10:02:23Z</time></trkpt><trkpt lat="40.76248465869079" lon="17.505662632764146"><ele>91.66666666666666</ele><time>2026-05-03T10:02:24Z</time></trkpt><trkpt lat="40.76243033995798" lon="17.505610864279546"><ele>92.0</ele><time>2026-05-03T10:02:25Z</time></trkpt><trkpt lat="40.762389094031" lon="17.505540998749844"><ele>92.33333333333333</ele><time>2026-05-03T10:02:26Z</time></trkpt><trkpt lat="40.762347535714405" lon="17.50547741949324"><ele>92.66666666666667</ele><time>2026-05-03T10:02:27Z</time></trkpt><trkpt lat="40.76229998136069" lon="17.505418768158265"><ele>93.0</ele><time>2026-05-03T10:02:28Z</time></trkpt><trkpt lat="40.762198452264485" lon="17.50532003934525"><ele>93.0</ele><time>2026-05-03T10:02:30Z</time></trkpt><trkpt lat="40.76211287006512" lon="17.5052171664951"><ele>93.0</ele><time>2026-05-03T10:02:32Z</time></trkpt><trkpt lat="40.762008355993544" lon="17.505139166825696"><ele>93.0</ele><time>2026-05-03T10:02:34Z</time></trkpt><trkpt lat="40.76190814485089" lon="17.50507546734843"><ele>93.0</ele><time>2026-05-03T10:02:36Z</time></trkpt><trkpt lat="40.76181561326185" lon="17.50502635033652"><ele>93.0</ele><time>2026-05-03T10:02:37.999Z</time></trkpt><trkpt lat="40.761724307622686" lon="17.50497895055237"><ele>93.4</ele><time>2026-05-03T10:02:39.999Z</time></trkpt><trkpt lat="40.761630705665745" lon="17.5049283534896"><ele>93.80000000000001</ele><time>2026-05-03T10:02:41.999Z</time></trkpt><trkpt lat="40.76153243644183" lon="17.504871968443254"><ele>94.2</ele><time>2026-05-03T10:02:43.999Z</time></trkpt><trkpt lat="40.76142820554215" lon="17.504805273978334"><ele>94.6</ele><time>2026-05-03T10:02:45.999Z</time></trkpt><trkpt lat="40.76131273645292" lon="17.504754934297807"><ele>95.0</ele><time>2026-05-03T10:02:47.999Z</time></trkpt><trkpt lat="40.76119606581522" lon="17.504712863127235"><ele>95.0</ele><time>2026-05-03T10:02:49.999Z</time></trkpt><trkpt lat="40.761083442391175" lon="17.50468787683203"><ele>95.0</ele><time>2026-05-03T10:02:51.999Z</time></trkpt><trkpt lat="40.760961245060216" lon="17.50467568668169"><ele>95.0</ele><time>2026-05-03T10:02:53.999Z</time></trkpt><trkpt lat="40.76084709170875" lon="17.5046719786662"><ele>95.0</ele><time>2026-05-03T10:02:55.999Z</time></trkpt><trkpt lat="40.76072889117675" lon="17.50466107288599"><ele>96.0</ele><time>2026-05-03T10:02:57.999Z</time></trkpt><trkpt lat="40.76060885783647" lon="17.504643264835423"><ele>97.0</ele><time>2026-05-03T10:02:59.999Z</time></trkpt><trkpt lat="40.76048981042297" lon="17.50463509130793"><ele>98.0</ele><time>2026-05-03T10:03:01.999Z</time></trkpt><trkpt lat="40.76042563917576" lon="17.504636255157823"><ele>99.0</ele><time>2026-05-03T10:03:02.999Z</time></trkpt><trkpt lat="40.760306802086745" lon="17.504616292331995"><ele>100.0</ele><time>2026-05-03T10:03:04.999Z</time></trkpt><trkpt lat="40.760189790018" lon="17.50460575346247"><ele>100.33333333333334</ele><time>2026-05-03T10:03:06.999Z</time></trkpt><trkpt lat="40.76012606766885" lon="17.504613738337888"><ele>100.66666666666667</ele><time>2026-05-03T10:03:07.999Z</time></trkpt><trkpt lat="40.760013586746076" lon="17.50459915867086"><ele>101.0</ele><time>2026-05-03T10:03:09.999Z</time></trkpt><trkpt lat="40.75994132840365" lon="17.504583149219815"><ele>101.33333333333334</ele><time>2026-05-03T10:03:10.999Z</time></trkpt><trkpt lat="40.75983515489537" lon="17.504576825961596"><ele>101.66666666666667</ele><time>2026-05-03T10:03:12.999Z</time></trkpt><trkpt lat="40.75976566746109" lon="17.50458451566974"><ele>102.0</ele><time>2026-05-03T10:03:13.999Z</time></trkpt><trkpt lat="40.75970031790384" lon="17.504588535227548"><ele>102.0</ele><time>2026-05-03T10:03:14.999Z</time></trkpt><trkpt lat="40.75963424642919" lon="17.504591776613704"><ele>102.0</ele><time>2026-05-03T10:03:15.999Z</time></trkpt><trkpt lat="40.75951410130396" lon="17.50458419087952"><ele>102.0</ele><time>2026-05-03T10:03:17.999Z</time></trkpt><trkpt lat="40.75939362366845" lon="17.504568223532168"><ele>102.0</ele><time>2026-05-03T10:03:19.999Z</time></trkpt><trkpt lat="40.75932366628394" lon="17.504586642076674"><ele>102.0</ele><time>2026-05-03T10:03:20.999Z</time></trkpt><trkpt lat="40.759215300852276" lon="17.504547266781945"><ele>102.6</ele><time>2026-05-03T10:03:22.999Z</time></trkpt><trkpt lat="40.759094666034215" lon="17.504535912976415"><ele>103.19999999999999</ele><time>2026-05-03T10:03:24.999Z</time></trkpt><trkpt lat="40.75898444813412" lon="17.504539333688292"><ele>103.8</ele><time>2026-05-03T10:03:26.999Z</time></trkpt><trkpt lat="40.75890929602615" lon="17.504533469139425"><ele>104.4</ele><time>2026-05-03T10:03:27.999Z</time></trkpt><trkpt lat="40.75878585333116" lon="17.50450536005385"><ele>105.0</ele><time>2026-05-03T10:03:29.999Z</time></trkpt><trkpt lat="40.75866692682693" lon="17.50448623743389"><ele>105.0</ele><time>2026-05-03T10:03:31.999Z</time></trkpt><trkpt lat="40.75860312160137" lon="17.504484803556423"><ele>105.0</ele><time>2026-05-03T10:03:32.999Z</time></trkpt><trkpt lat="40.75848302958967" lon="17.50445355858102"><ele>105.0</ele><time>2026-05-03T10:03:34.999Z</time></trkpt><trkpt lat="40.7583578078527" lon="17.50443834981306"><ele>105.0</ele><time>2026-05-03T10:03:36.999Z</time></trkpt><trkpt lat="40.75823539763689" lon="17.50442277428097"><ele>105.0</ele><time>2026-05-03T10:03:38.999Z</time></trkpt><trkpt lat="40.758113965173116" lon="17.504408838978435"><ele>105.4</ele><time>2026-05-03T10:03:40.999Z</time></trkpt><trkpt lat="40.75804965675108" lon="17.504415880532832"><ele>105.8</ele><time>2026-05-03T10:03:41.999Z</time></trkpt><trkpt lat="40.75792980803107" lon="17.50441466311941"><ele>106.19999999999999</ele><time>2026-05-03T10:03:43.999Z</time></trkpt><trkpt lat="40.75782352862334" lon="17.504389525435954"><ele>106.6</ele><time>2026-05-03T10:03:45.999Z</time></trkpt><trkpt lat="40.75771700446404" lon="17.504354798677554"><ele>107.0</ele><time>2026-05-03T10:03:47.998Z</time></trkpt><trkpt lat="40.757626569112354" lon="17.504308063353424"><ele>107.33333333333333</ele><time>2026-05-03T10:03:49.998Z</time></trkpt><trkpt lat="40.75756126172356" lon="17.504306287190687"><ele>107.66666666666666</ele><time>2026-05-03T10:03:52.998Z</time></trkpt><trkpt lat="40.75756416285042" lon="17.504420745117272"><ele>108.0</ele><time>2026-05-03T10:03:55.998Z</time></trkpt><trkpt lat="40.75757740646814" lon="17.504515287203095"><ele>108.33333333333334</ele><time>2026-05-03T10:03:57.998Z</time></trkpt><trkpt lat="40.75757940898208" lon="17.504664100854296"><ele>108.66666666666667</ele><time>2026-05-03T10:04:00Z</time></trkpt><trkpt lat="40.75756976638501" lon="17.504792181764664"><ele>109.0</ele><time>2026-05-03T10:04:02Z</time></trkpt><trkpt lat="40.75759420920923" lon="17.504947386792526"><ele>109.2</ele><time>2026-05-03T10:04:04Z</time></trkpt><trkpt lat="40.75759534658878" lon="17.505042726230194"><ele>109.4</ele><time>2026-05-03T10:04:05Z</time></trkpt><trkpt lat="40.75758320921198" lon="17.50515045893929"><ele>109.6</ele><time>2026-05-03T10:04:06Z</time></trkpt><trkpt lat="40.7576042068226" lon="17.5052885823312"><ele>109.8</ele><time>2026-05-03T10:04:08Z</time></trkpt><trkpt lat="40.757607275469994" lon="17.505422674814767"><ele>110.0</ele><time>2026-05-03T10:04:10Z</time></trkpt><trkpt lat="40.75759976512237" lon="17.505551366295308"><ele>109.66666666666666</ele><time>2026-05-03T10:04:12Z</time></trkpt><trkpt lat="40.757611962238585" lon="17.5056859625058"><ele>109.33333333333333</ele><time>2026-05-03T10:04:14Z</time></trkpt><trkpt lat="40.75761672893695" lon="17.505771163582764"><ele>109.0</ele><time>2026-05-03T10:04:15Z</time></trkpt><trkpt lat="40.75761464620971" lon="17.505928073287723"><ele>108.66666666666666</ele><time>2026-05-03T10:04:17Z</time></trkpt><trkpt lat="40.757616118049675" lon="17.506014344405695"><ele>108.33333333333333</ele><time>2026-05-03T10:04:18Z</time></trkpt><trkpt lat="40.757610356454414" lon="17.506105574826915"><ele>108.0</ele><time>2026-05-03T10:04:19Z</time></trkpt><trkpt lat="40.75760524144665" lon="17.50618939290318"><ele>107.4</ele><time>2026-05-03T10:04:20Z</time></trkpt><trkpt lat="40.757617653631854" lon="17.506342723572327"><ele>106.80000000000001</ele><time>2026-05-03T10:04:22Z</time></trkpt><trkpt lat="40.75759768653098" lon="17.50649862554867"><ele>106.2</ele><time>2026-05-03T10:04:24Z</time></trkpt><trkpt lat="40.75760372239381" lon="17.506658173223464"><ele>105.6</ele><time>2026-05-03T10:04:26Z</time></trkpt><trkpt lat="40.75760254547079" lon="17.506745876255163"><ele>105.0</ele><time>2026-05-03T10:04:27Z</time></trkpt><trkpt lat="40.75759377713754" lon="17.506919659928663"><ele>105.0</ele><time>2026-05-03T10:04:29Z</time></trkpt><trkpt lat="40.757594249435854" lon="17.507085899930903"><ele>105.0</ele><time>2026-05-03T10:04:31Z</time></trkpt><trkpt lat="40.75759583209905" lon="17.50724361500725"><ele>105.0</ele><time>2026-05-03T10:04:33Z</time></trkpt><trkpt lat="40.75758805581603" lon="17.507414282385287"><ele>105.0</ele><time>2026-05-03T10:04:35Z</time></trkpt><trkpt lat="40.75759738999139" lon="17.507501979545022"><ele>105.0</ele><time>2026-05-03T10:04:36Z</time></trkpt><trkpt lat="40.75759068365673" lon="17.507667836826844"><ele>105.0</ele><time>2026-05-03T10:04:38Z</time></trkpt><trkpt lat="40.75760436218267" lon="17.507825419044114"><ele>105.0</ele><time>2026-05-03T10:04:40Z</time></trkpt><trkpt lat="40.757603538314314" lon="17.50791280378867"><ele>105.0</ele><time>2026-05-03T10:04:41Z</time></trkpt><trkpt lat="40.75761525839808" lon="17.508076120577087"><ele>105.0</ele><time>2026-05-03T10:04:43Z</time></trkpt><trkpt lat="40.75760081421032" lon="17.508165172022654"><ele>105.0</ele><time>2026-05-03T10:04:44Z</time></trkpt><trkpt lat="40.7575908573069" lon="17.508303885863427"><ele>105.2</ele><time>2026-05-03T10:04:46Z</time></trkpt><trkpt lat="40.75759589803153" lon="17.50838938324501"><ele>105.4</ele><time>2026-05-03T10:04:46.999Z</time></trkpt><trkpt lat="40.75760044910303" lon="17.508547438108796"><ele>105.6</ele><time>2026-05-03T10:04:48.999Z</time></trkpt><trkpt lat="40.757597690509634" lon="17.508634109497038"><ele>105.8</ele><time>2026-05-03T10:04:49.999Z</time></trkpt><trkpt lat="40.75759616290822" lon="17.508788639239192"><ele>106.0</ele><time>2026-05-03T10:04:51.999Z</time></trkpt><trkpt lat="40.757594019097496" lon="17.50893221491536"><ele>106.00000000000001</ele><time>2026-05-03T10:04:53.999Z</time></trkpt><trkpt lat="40.757592033283395" lon="17.509022662255497"><ele>106.0</ele><time>2026-05-03T10:04:54.999Z</time></trkpt><trkpt lat="40.75759100051749" lon="17.509107897834937"><ele>106.0</ele><time>2026-05-03T10:04:55.999Z</time></trkpt><trkpt lat="40.75758718947702" lon="17.50919167798886"><ele>106.0</ele><time>2026-05-03T10:04:56.999Z</time></trkpt><trkpt lat="40.7575947303296" lon="17.509369905876756"><ele>106.00000000000001</ele><time>2026-05-03T10:04:58.999Z</time></trkpt><trkpt lat="40.75763325038974" lon="17.50951547464567"><ele>106.0</ele><time>2026-05-03T10:05:00.999Z</time></trkpt><trkpt lat="40.75767246149154" lon="17.50958553168415"><ele>105.6</ele><time>2026-05-03T10:05:01.999Z</time></trkpt><trkpt lat="40.75773477325455" lon="17.50970951238745"><ele>105.19999999999999</ele><time>2026-05-03T10:05:03.999Z</time></trkpt><trkpt lat="40.75779731383383" lon="17.50982804414339"><ele>104.80000000000001</ele><time>2026-05-03T10:05:05.999Z</time></trkpt><trkpt lat="40.75784393197009" lon="17.50995530791043"><ele>104.4</ele><time>2026-05-03T10:05:07.999Z</time></trkpt><trkpt lat="40.757888777133864" lon="17.510057133684562"><ele>104.0</ele><time>2026-05-03T10:05:09.999Z</time></trkpt><trkpt lat="40.75787966224922" lon="17.510161683153733"><ele>104.0</ele><time>2026-05-03T10:05:11.999Z</time></trkpt><trkpt lat="40.75781168042143" lon="17.510163338055357"><ele>104.0</ele><time>2026-05-03T10:05:13.999Z</time></trkpt><trkpt lat="40.757716774087385" lon="17.510127947061612"><ele>104.0</ele><time>2026-05-03T10:05:15.999Z</time></trkpt><trkpt lat="40.75760979691557" lon="17.51009473162308"><ele>104.0</ele><time>2026-05-03T10:05:17.999Z</time></trkpt><trkpt lat="40.75752525214825" lon="17.51007609654704"><ele>104.0</ele><time>2026-05-03T10:05:19.999Z</time></trkpt><trkpt lat="40.75743743686204" lon="17.51006381747951"><ele>104.4</ele><time>2026-05-03T10:05:21.999Z</time></trkpt><trkpt lat="40.7573592549175" lon="17.51005563095111"><ele>104.80000000000001</ele><time>2026-05-03T10:05:23.999Z</time></trkpt><trkpt lat="40.757301546274164" lon="17.510128418052545"><ele>105.19999999999999</ele><time>2026-05-03T10:05:25.999Z</time></trkpt><trkpt lat="40.75722103495347" lon="17.51022004901786"><ele>105.6</ele><time>2026-05-03T10:05:27.999Z</time></trkpt><trkpt lat="40.757109464033896" lon="17.51029305165593"><ele>106.0</ele><time>2026-05-03T10:05:29.999Z</time></trkpt><trkpt lat="40.757052800059995" lon="17.510384639388423"><ele>106.0</ele><time>2026-05-03T10:05:31.999Z</time></trkpt><trkpt lat="40.757050319238594" lon="17.510531901955698"><ele>106.0</ele><time>2026-05-03T10:05:33.999Z</time></trkpt><trkpt lat="40.75703285560261" lon="17.510677959812657"><ele>106.0</ele><time>2026-05-03T10:05:35.999Z</time></trkpt><trkpt lat="40.75699864719491" lon="17.510790303104557"><ele>106.0</ele><time>2026-05-03T10:05:37.999Z</time></trkpt><trkpt lat="40.756959565524525" lon="17.510921631855712"><ele>106.0</ele><time>2026-05-03T10:05:39.999Z</time></trkpt><trkpt lat="40.75690613171544" lon="17.511053642571916"><ele>106.0</ele><time>2026-05-03T10:05:41.999Z</time></trkpt><trkpt lat="40.756872094301286" lon="17.511131039199267"><ele>106.0</ele><time>2026-05-03T10:05:42.999Z</time></trkpt><trkpt lat="40.75681878028387" lon="17.511252866991786"><ele>106.0</ele><time>2026-05-03T10:05:44.999Z</time></trkpt><trkpt lat="40.75677576163853" lon="17.511382784729964"><ele>106.0</ele><time>2026-05-03T10:05:46.999Z</time></trkpt><trkpt lat="40.756729232734216" lon="17.511494045290238"><ele>106.0</ele><time>2026-05-03T10:05:48.999Z</time></trkpt><trkpt lat="40.75667833767093" lon="17.51162381754059"><ele>106.33333333333334</ele><time>2026-05-03T10:05:50.999Z</time></trkpt><trkpt lat="40.756636288956564" lon="17.51174196097192"><ele>106.66666666666667</ele><time>2026-05-03T10:05:52.999Z</time></trkpt><trkpt lat="40.75662767521949" lon="17.51185243332089"><ele>107.0</ele><time>2026-05-03T10:05:54.999Z</time></trkpt><trkpt lat="40.75659932670112" lon="17.511964072924272"><ele>107.33333333333334</ele><time>2026-05-03T10:05:56.999Z</time></trkpt><trkpt lat="40.756609073937014" lon="17.512055232250354"><ele>107.66666666666667</ele><time>2026-05-03T10:05:58.998Z</time></trkpt><trkpt lat="40.756553566744955" lon="17.512150400909643"><ele>108.0</ele><time>2026-05-03T10:06:00.998Z</time></trkpt><trkpt lat="40.75645633806028" lon="17.512229443918113"><ele>108.2</ele><time>2026-05-03T10:06:02.998Z</time></trkpt><trkpt lat="40.75636623731494" lon="17.512322258595134"><ele>108.4</ele><time>2026-05-03T10:06:04.998Z</time></trkpt><trkpt lat="40.756285555188995" lon="17.51243273951106"><ele>108.60000000000001</ele><time>2026-05-03T10:06:07Z</time></trkpt><trkpt lat="40.75622416563135" lon="17.512549893205577"><ele>108.80000000000001</ele><time>2026-05-03T10:06:09Z</time></trkpt><trkpt lat="40.75616928481819" lon="17.512664509542358"><ele>109.0</ele><time>2026-05-03T10:06:11Z</time></trkpt><trkpt lat="40.75611534908867" lon="17.512755546770155"><ele>108.80000000000001</ele><time>2026-05-03T10:06:13Z</time></trkpt><trkpt lat="40.75608207954731" lon="17.512908599840515"><ele>108.60000000000001</ele><time>2026-05-03T10:06:15Z</time></trkpt><trkpt lat="40.7560658991148" lon="17.512989389019815"><ele>108.4</ele><time>2026-05-03T10:06:16Z</time></trkpt><trkpt lat="40.75602864499315" lon="17.513146715358232"><ele>108.2</ele><time>2026-05-03T10:06:18Z</time></trkpt><trkpt lat="40.755982157747326" lon="17.51329758219239"><ele>108.0</ele><time>2026-05-03T10:06:20Z</time></trkpt><trkpt lat="40.755946300860664" lon="17.513446017624236"><ele>108.60000000000001</ele><time>2026-05-03T10:06:22Z</time></trkpt><trkpt lat="40.755896450812685" lon="17.513599471922753"><ele>109.20000000000002</ele><time>2026-05-03T10:06:24Z</time></trkpt><trkpt lat="40.75586496654091" lon="17.513678041938196"><ele>109.8</ele><time>2026-05-03T10:06:25Z</time></trkpt><trkpt lat="40.75582004520063" lon="17.513818983707854"><ele>110.4</ele><time>2026-05-03T10:06:27Z</time></trkpt><trkpt lat="40.755778548149486" lon="17.51396229855775"><ele>111.0</ele><time>2026-05-03T10:06:29Z</time></trkpt><trkpt lat="40.75575566974613" lon="17.514050639775554"><ele>111.0</ele><time>2026-05-03T10:06:30Z</time></trkpt><trkpt lat="40.75571870502685" lon="17.51420164550024"><ele>111.0</ele><time>2026-05-03T10:06:32Z</time></trkpt><trkpt lat="40.75567299333411" lon="17.51435092831936"><ele>111.0</ele><time>2026-05-03T10:06:34Z</time></trkpt><trkpt lat="40.755650722978366" lon="17.51442998506193"><ele>111.0</ele><time>2026-05-03T10:06:35Z</time></trkpt><trkpt lat="40.755609559335625" lon="17.514568820679635"><ele>111.0</ele><time>2026-05-03T10:06:37Z</time></trkpt><trkpt lat="40.75558477064919" lon="17.514648256063808"><ele>111.0</ele><time>2026-05-03T10:06:38Z</time></trkpt><trkpt lat="40.75553881609339" lon="17.514796177859306"><ele>111.0</ele><time>2026-05-03T10:06:40Z</time></trkpt><trkpt lat="40.755489078785736" lon="17.51494407540704"><ele>111.0</ele><time>2026-05-03T10:06:42Z</time></trkpt><trkpt lat="40.75544332171285" lon="17.515095856613762"><ele>111.0</ele><time>2026-05-03T10:06:44Z</time></trkpt><trkpt lat="40.75540952560903" lon="17.51524639199818"><ele>111.0</ele><time>2026-05-03T10:06:46Z</time></trkpt><trkpt lat="40.75538933584615" lon="17.515341324786665"><ele>111.0</ele><time>2026-05-03T10:06:47Z</time></trkpt><trkpt lat="40.755348165603785" lon="17.515498447142022"><ele>111.0</ele><time>2026-05-03T10:06:49Z</time></trkpt><trkpt lat="40.75532720619425" lon="17.515583174626897"><ele>111.0</ele><time>2026-05-03T10:06:50Z</time></trkpt><trkpt lat="40.75530168871886" lon="17.515663235290695"><ele>111.0</ele><time>2026-05-03T10:06:51Z</time></trkpt><trkpt lat="40.75528662880974" lon="17.515749539379666"><ele>111.0</ele><time>2026-05-03T10:06:52Z</time></trkpt><trkpt lat="40.75528082094299" lon="17.515843884593696"><ele>110.75</ele><time>2026-05-03T10:06:52.999Z</time></trkpt><trkpt lat="40.75526809185098" lon="17.516013018140328"><ele>110.5</ele><time>2026-05-03T10:06:54.999Z</time></trkpt><trkpt lat="40.75525579996796" lon="17.516172021395217"><ele>110.25</ele><time>2026-05-03T10:06:56.999Z</time></trkpt><trkpt lat="40.75529616372323" lon="17.516306961723227"><ele>110.0</ele><time>2026-05-03T10:06:58.999Z</time></trkpt><trkpt lat="40.755342619758245" lon="17.516462755099294"><ele>109.75</ele><time>2026-05-03T10:07:00.999Z</time></trkpt><trkpt lat="40.755330051477564" lon="17.516613636619482"><ele>109.5</ele><time>2026-05-03T10:07:02.999Z</time></trkpt><trkpt lat="40.755302043738155" lon="17.51676438724877"><ele>109.25</ele><time>2026-05-03T10:07:04.999Z</time></trkpt><trkpt lat="40.75528967095508" lon="17.516921975356386"><ele>109.0</ele><time>2026-05-03T10:07:06.999Z</time></trkpt><trkpt lat="40.75528857091304" lon="17.517078450969244"><ele>109.0</ele><time>2026-05-03T10:07:08.999Z</time></trkpt><trkpt lat="40.75528447674352" lon="17.517178562084908"><ele>109.0</ele><time>2026-05-03T10:07:09.999Z</time></trkpt><trkpt lat="40.75528908465109" lon="17.517336837686898"><ele>109.0</ele><time>2026-05-03T10:07:11.999Z</time></trkpt><trkpt lat="40.75529755911058" lon="17.517422162574746"><ele>109.0</ele><time>2026-05-03T10:07:12.999Z</time></trkpt><trkpt lat="40.75531371685426" lon="17.51751168291604"><ele>109.0</ele><time>2026-05-03T10:07:13.999Z</time></trkpt><trkpt lat="40.75533272647832" lon="17.517667735152695"><ele>109.0</ele><time>2026-05-03T10:07:15.999Z</time></trkpt><trkpt lat="40.7553317932992" lon="17.517828453507956"><ele>109.0</ele><time>2026-05-03T10:07:17.999Z</time></trkpt><trkpt lat="40.755326068734895" lon="17.517914937338745"><ele>109.0</ele><time>2026-05-03T10:07:18.999Z</time></trkpt><trkpt lat="40.755324666473854" lon="17.518073300056564"><ele>109.0</ele><time>2026-05-03T10:07:20.999Z</time></trkpt><trkpt lat="40.75534160813095" lon="17.518215232948442"><ele>109.0</ele><time>2026-05-03T10:07:22.999Z</time></trkpt><trkpt lat="40.75535309223747" lon="17.518317182873744"><ele>108.83333333333334</ele><time>2026-05-03T10:07:24.999Z</time></trkpt><trkpt lat="40.755321924566175" lon="17.51839783965418"><ele>108.66666666666667</ele><time>2026-05-03T10:07:26.999Z</time></trkpt><trkpt lat="40.75523991177494" lon="17.51844221017889"><ele>108.5</ele><time>2026-05-03T10:07:28.999Z</time></trkpt><trkpt lat="40.755154805004864" lon="17.518403832796295"><ele>108.33333333333334</ele><time>2026-05-03T10:07:30.999Z</time></trkpt><trkpt lat="40.75505756976619" lon="17.5183867449793"><ele>108.16666666666667</ele><time>2026-05-03T10:07:32.999Z</time></trkpt><trkpt lat="40.75498191944737" lon="17.518368562644444"><ele>108.0</ele><time>2026-05-03T10:07:34.999Z</time></trkpt><trkpt lat="40.754888087659374" lon="17.518330160506473"><ele>109.0</ele><time>2026-05-03T10:07:36.999Z</time></trkpt><trkpt lat="40.75479495067757" lon="17.518305016355853"><ele>110.00000000000001</ele><time>2026-05-03T10:07:38.999Z</time></trkpt><trkpt lat="40.75469746526149" lon="17.518279804990442"><ele>111.00000000000001</ele><time>2026-05-03T10:07:40.999Z</time></trkpt><trkpt lat="40.75460751311871" lon="17.518244970844762"><ele>112.0</ele><time>2026-05-03T10:07:42.999Z</time></trkpt><trkpt lat="40.75451084467607" lon="17.51821700153164"><ele>113.0</ele><time>2026-05-03T10:07:44.999Z</time></trkpt><trkpt lat="40.75440979381302" lon="17.51819090063097"><ele>114.2</ele><time>2026-05-03T10:07:46.999Z</time></trkpt><trkpt lat="40.75430552646309" lon="17.51813794432129"><ele>115.4</ele><time>2026-05-03T10:07:48.999Z</time></trkpt><trkpt lat="40.75424681266101" lon="17.51802435229814"><ele>116.60000000000001</ele><time>2026-05-03T10:07:50.999Z</time></trkpt><trkpt lat="40.754190951893705" lon="17.51790399533565"><ele>117.80000000000001</ele><time>2026-05-03T10:07:52.999Z</time></trkpt><trkpt lat="40.75411960734092" lon="17.517799663905063"><ele>119.0</ele><time>2026-05-03T10:07:54.999Z</time></trkpt><trkpt lat="40.7540642537413" lon="17.517678604742212"><ele>119.2</ele><time>2026-05-03T10:07:56.999Z</time></trkpt><trkpt lat="40.75404631930461" lon="17.517543384734797"><ele>119.4</ele><time>2026-05-03T10:07:58.999Z</time></trkpt><trkpt lat="40.75405682000445" lon="17.517422050850943"><ele>119.6</ele><time>2026-05-03T10:08:00.999Z</time></trkpt><trkpt lat="40.754000405660115" lon="17.51734406893018"><ele>119.8</ele><time>2026-05-03T10:08:02.998Z</time></trkpt><trkpt lat="40.75390023734114" lon="17.517285548362732"><ele>120.0</ele><time>2026-05-03T10:08:04.998Z</time></trkpt><trkpt lat="40.75379633935141" lon="17.51724220052664"><ele>120.0</ele><time>2026-05-03T10:08:06.998Z</time></trkpt><trkpt lat="40.753687644928526" lon="17.51719097198622"><ele>120.0</ele><time>2026-05-03T10:08:08.998Z</time></trkpt><trkpt lat="40.753590650751555" lon="17.517175059551246"><ele>120.0</ele><time>2026-05-03T10:08:10.998Z</time></trkpt><trkpt lat="40.75350310865792" lon="17.517106078374503"><ele>120.0</ele><time>2026-05-03T10:08:13Z</time></trkpt><trkpt lat="40.75341163410418" lon="17.517059332102097"><ele>120.0</ele><time>2026-05-03T10:08:15Z</time></trkpt><trkpt lat="40.75330125289418" lon="17.517013745071182"><ele>120.4</ele><time>2026-05-03T10:08:17Z</time></trkpt><trkpt lat="40.7531866450779" lon="17.516987012378017"><ele>120.8</ele><time>2026-05-03T10:08:19Z</time></trkpt><trkpt lat="40.75311594326463" lon="17.516971468241998"><ele>121.19999999999999</ele><time>2026-05-03T10:08:20Z</time></trkpt><trkpt lat="40.753025028245666" lon="17.516910879380806"><ele>121.6</ele><time>2026-05-03T10:08:22Z</time></trkpt><trkpt lat="40.75296725347502" lon="17.516875382663077"><ele>122.0</ele><time>2026-05-03T10:08:23Z</time></trkpt><trkpt lat="40.75287549008268" lon="17.51679043389014"><ele>122.0</ele><time>2026-05-03T10:08:25Z</time></trkpt><trkpt lat="40.7527626753274" lon="17.516747452626227"><ele>121.99999999999999</ele><time>2026-05-03T10:08:27Z</time></trkpt><trkpt lat="40.75265156793411" lon="17.51675928312742"><ele>121.99999999999999</ele><time>2026-05-03T10:08:29Z</time></trkpt><trkpt lat="40.75257085066541" lon="17.51680208551732"><ele>122.0</ele><time>2026-05-03T10:08:31Z</time></trkpt><trkpt lat="40.75249123325821" lon="17.516890502832258"><ele>122.0</ele><time>2026-05-03T10:08:33Z</time></trkpt><trkpt lat="40.75242129977606" lon="17.51699018640011"><ele>123.19999999999999</ele><time>2026-05-03T10:08:35Z</time></trkpt><trkpt lat="40.752364946590134" lon="17.517118058603465"><ele>124.39999999999999</ele><time>2026-05-03T10:08:37Z</time></trkpt><trkpt lat="40.752321979225755" lon="17.51724323052056"><ele>125.60000000000001</ele><time>2026-05-03T10:08:39Z</time></trkpt><trkpt lat="40.752263519026286" lon="17.51737178009328"><ele>126.80000000000001</ele><time>2026-05-03T10:08:41Z</time></trkpt><trkpt lat="40.752223238129396" lon="17.51749301546357"><ele>128.0</ele><time>2026-05-03T10:08:43Z</time></trkpt><trkpt lat="40.7522024870563" lon="17.517632282821875"><ele>127.99999999999999</ele><time>2026-05-03T10:08:45Z</time></trkpt><trkpt lat="40.752191198858405" lon="17.517727115599065"><ele>128.0</ele><time>2026-05-03T10:08:46Z</time></trkpt><trkpt lat="40.75215404740111" lon="17.5178444368152"><ele>128.0</ele><time>2026-05-03T10:08:48Z</time></trkpt><trkpt lat="40.75209587694173" lon="17.517946628048666"><ele>128.0</ele><time>2026-05-03T10:08:50Z</time></trkpt><trkpt lat="40.752040713398635" lon="17.51805407713309"><ele>127.99999999999999</ele><time>2026-05-03T10:08:52Z</time></trkpt><trkpt lat="40.75199598938036" lon="17.518143367390014"><ele>128.0</ele><time>2026-05-03T10:08:54Z</time></trkpt><trkpt lat="40.751958646030744" lon="17.51823472358059"><ele>128.33333333333331</ele><time>2026-05-03T10:08:56Z</time></trkpt><trkpt lat="40.75190583121364" lon="17.518322406583575"><ele>128.66666666666666</ele><time>2026-05-03T10:08:58Z</time></trkpt><trkpt lat="40.751827292223375" lon="17.518418402332408"><ele>129.0</ele><time>2026-05-03T10:09:00Z</time></trkpt><trkpt lat="40.75174891482481" lon="17.518479121499514"><ele>129.33333333333334</ele><time>2026-05-03T10:09:02Z</time></trkpt><trkpt lat="40.75170008345684" lon="17.518555614011284"><ele>129.66666666666669</ele><time>2026-05-03T10:09:04Z</time></trkpt><trkpt lat="40.75172382647418" lon="17.51864687546232"><ele>130.0</ele><time>2026-05-03T10:09:06Z</time></trkpt><trkpt lat="40.751779492845344" lon="17.518740299754164"><ele>129.75</ele><time>2026-05-03T10:09:08Z</time></trkpt><trkpt lat="40.751829120055646" lon="17.518853076626414"><ele>129.5</ele><time>2026-05-03T10:09:09.999Z</time></trkpt><trkpt lat="40.75189868566435" lon="17.518978974677456"><ele>129.25</ele><time>2026-05-03T10:09:11.999Z</time></trkpt><trkpt lat="40.75197772156911" lon="17.519102821924882"><ele>129.0</ele><time>2026-05-03T10:09:13.999Z</time></trkpt><trkpt lat="40.75207600403589" lon="17.519206754423887"><ele>129.0</ele><time>2026-05-03T10:09:15.999Z</time></trkpt><trkpt lat="40.75216198410842" lon="17.51929977891696"><ele>129.0</ele><time>2026-05-03T10:09:17.999Z</time></trkpt><trkpt lat="40.75224648310316" lon="17.519331456395392"><ele>129.0</ele><time>2026-05-03T10:09:19.999Z</time></trkpt><trkpt lat="40.75232728989967" lon="17.51927503134527"><ele>129.0</ele><time>2026-05-03T10:09:21.999Z</time></trkpt><trkpt lat="40.75232909596649" lon="17.51935897731049"><ele>129.0</ele><time>2026-05-03T10:09:28.999Z</time></trkpt><trkpt lat="40.75224981507865" lon="17.519413128535515"><ele>129.0</ele><time>2026-05-03T10:09:30.999Z</time></trkpt><trkpt lat="40.7521717706097" lon="17.519508065785224"><ele>128.83333333333334</ele><time>2026-05-03T10:09:32.999Z</time></trkpt><trkpt lat="40.752102460481716" lon="17.519581219628392"><ele>128.66666666666666</ele><time>2026-05-03T10:09:34.999Z</time></trkpt><trkpt lat="40.75204622849985" lon="17.519649364079537"><ele>128.5</ele><time>2026-05-03T10:09:36.999Z</time></trkpt><trkpt lat="40.75203037196077" lon="17.51973528217336"><ele>128.33333333333331</ele><time>2026-05-03T10:09:38.999Z</time></trkpt><trkpt lat="40.75207645153606" lon="17.519845072797324"><ele>128.16666666666666</ele><time>2026-05-03T10:09:40.999Z</time></trkpt><trkpt lat="40.75214089182647" lon="17.51995356954968"><ele>128.0</ele><time>2026-05-03T10:09:42.999Z</time></trkpt><trkpt lat="40.75217531386016" lon="17.52007781688265"><ele>127.99999999999999</ele><time>2026-05-03T10:09:44.999Z</time></trkpt><trkpt lat="40.75220123765447" lon="17.520193342144644"><ele>128.0</ele><time>2026-05-03T10:09:46.999Z</time></trkpt><trkpt lat="40.75221586253019" lon="17.520316360650195"><ele>128.0</ele><time>2026-05-03T10:09:48.999Z</time></trkpt><trkpt lat="40.75222036934116" lon="17.520441181153387"><ele>128.0</ele><time>2026-05-03T10:09:50.999Z</time></trkpt><trkpt lat="40.752222730696346" lon="17.520564465532402"><ele>127.99999999999999</ele><time>2026-05-03T10:09:52.999Z</time></trkpt><trkpt lat="40.7522151375535" lon="17.52066356000823"><ele>128.0</ele><time>2026-05-03T10:09:54.999Z</time></trkpt><trkpt lat="40.75216508139677" lon="17.52076466384078"><ele>128.20000000000002</ele><time>2026-05-03T10:09:56.999Z</time></trkpt><trkpt lat="40.752122590843186" lon="17.52087817120231"><ele>128.4</ele><time>2026-05-03T10:09:58.999Z</time></trkpt><trkpt lat="40.752101791498106" lon="17.520992762285083"><ele>128.60000000000002</ele><time>2026-05-03T10:10:00.999Z</time></trkpt><trkpt lat="40.75209261383414" lon="17.52113832886965"><ele>128.8</ele><time>2026-05-03T10:10:02.999Z</time></trkpt><trkpt lat="40.75207604519584" lon="17.521253134792392"><ele>129.0</ele><time>2026-05-03T10:10:04.999Z</time></trkpt><trkpt lat="40.752043487751905" lon="17.521379009328548"><ele>129.0</ele><time>2026-05-03T10:10:06.999Z</time></trkpt><trkpt lat="40.75202189479015" lon="17.521507056337583"><ele>129.0</ele><time>2026-05-03T10:10:08.999Z</time></trkpt><trkpt lat="40.75200665486932" lon="17.521633383509837"><ele>129.0</ele><time>2026-05-03T10:10:10.999Z</time></trkpt><trkpt lat="40.75198693789119" lon="17.521750135616077"><ele>129.0</ele><time>2026-05-03T10:10:12.999Z</time></trkpt><trkpt lat="40.7519407340138" lon="17.521862551294817"><ele>129.0</ele><time>2026-05-03T10:10:14.999Z</time></trkpt><trkpt lat="40.75187359970679" lon="17.52195261495071"><ele>130.2</ele><time>2026-05-03T10:10:16.999Z</time></trkpt><trkpt lat="40.751801740304195" lon="17.522026246954937"><ele>131.4</ele><time>2026-05-03T10:10:19Z</time></trkpt><trkpt lat="40.75172375116264" lon="17.522091410214188"><ele>132.6</ele><time>2026-05-03T10:10:21Z</time></trkpt><trkpt lat="40.75164264453189" lon="17.52217816533087"><ele>133.8</ele><time>2026-05-03T10:10:23Z</time></trkpt><trkpt lat="40.75156755642428" lon="17.52226008067384"><ele>135.0</ele><time>2026-05-03T10:10:25Z</time></trkpt><trkpt lat="40.75147681654958" lon="17.522346913098616"><ele>135.0</ele><time>2026-05-03T10:10:27Z</time></trkpt><trkpt lat="40.75137213857148" lon="17.52243796631961"><ele>135.0</ele><time>2026-05-03T10:10:29Z</time></trkpt><trkpt lat="40.751306081856704" lon="17.522456934687117"><ele>135.0</ele><time>2026-05-03T10:10:31Z</time></trkpt><trkpt lat="40.75122668603966" lon="17.52252991953933"><ele>135.0</ele><time>2026-05-03T10:10:33Z</time></trkpt><trkpt lat="40.75113530254218" lon="17.52259003802745"><ele>135.0</ele><time>2026-05-03T10:10:36Z</time></trkpt><trkpt lat="40.751062678891564" lon="17.522586393765057"><ele>136.6</ele><time>2026-05-03T10:10:40Z</time></trkpt><trkpt lat="40.75097257673341" lon="17.522602225956486"><ele>138.2</ele><time>2026-05-03T10:11:23.999Z</time></trkpt><trkpt lat="40.75090515886899" lon="17.52255946208568"><ele>139.8</ele><time>2026-05-03T10:11:25.999Z</time></trkpt><trkpt lat="40.75081108596284" lon="17.52250610218294"><ele>141.4</ele><time>2026-05-03T10:11:28.999Z</time></trkpt><trkpt lat="40.75073921598635" lon="17.52241311313161"><ele>143.0</ele><time>2026-05-03T10:11:30.999Z</time></trkpt><trkpt lat="40.750710463269556" lon="17.522281289576235"><ele>143.0</ele><time>2026-05-03T10:11:32.999Z</time></trkpt><trkpt lat="40.750685522655125" lon="17.522171551503877"><ele>143.0</ele><time>2026-05-03T10:11:34.999Z</time></trkpt><trkpt lat="40.7506524601617" lon="17.522087845866032"><ele>143.0</ele><time>2026-05-03T10:11:36.999Z</time></trkpt><trkpt lat="40.75061995423232" lon="17.521990617386216"><ele>143.0</ele><time>2026-05-03T10:11:39.999Z</time></trkpt><trkpt lat="40.75057714056082" lon="17.52188729623052"><ele>143.0</ele><time>2026-05-03T10:11:42.999Z</time></trkpt><trkpt lat="40.75053533978763" lon="17.52179193480117"><ele>143.0</ele><time>2026-05-03T10:11:45.999Z</time></trkpt><trkpt lat="40.75048603871051" lon="17.52173035483461"><ele>145.0</ele><time>2026-05-03T10:11:48.999Z</time></trkpt><trkpt lat="40.75043824832201" lon="17.521637697554144"><ele>147.0</ele><time>2026-05-03T10:11:52.999Z</time></trkpt><trkpt lat="40.7504101605778" lon="17.521538671835298"><ele>149.0</ele><time>2026-05-03T10:11:54.999Z</time></trkpt><trkpt lat="40.75034287103441" lon="17.521543050280236"><ele>151.0</ele><time>2026-05-03T10:11:57.999Z</time></trkpt><trkpt lat="40.75027869688939" lon="17.52157241888292"><ele>153.0</ele><time>2026-05-03T10:12:00.999Z</time></trkpt><trkpt lat="40.75017688159676" lon="17.521630074278608"><ele>155.0</ele><time>2026-05-03T10:12:03.999Z</time></trkpt><trkpt lat="40.750113246280506" lon="17.52172213020722"><ele>155.5</ele><time>2026-05-03T10:12:05.999Z</time></trkpt><trkpt lat="40.750027434044696" lon="17.521789179792563"><ele>156.0</ele><time>2026-05-03T10:12:07.999Z</time></trkpt><trkpt lat="40.74998105797868" lon="17.521854211965845"><ele>156.5</ele><time>2026-05-03T10:12:12.998Z</time></trkpt><trkpt lat="40.74989841434317" lon="17.521850267939683"><ele>157.0</ele><time>2026-05-03T10:12:54Z</time></trkpt><trkpt lat="40.74984064020466" lon="17.521799392717877"><ele>157.5</ele><time>2026-05-03T10:12:56Z</time></trkpt><trkpt lat="40.749762057702235" lon="17.52179426702122"><ele>158.0</ele><time>2026-05-03T10:12:59Z</time></trkpt><trkpt lat="40.74970748421903" lon="17.52185797195806"><ele>158.0</ele><time>2026-05-03T10:13:03Z</time></trkpt><trkpt lat="40.74964716264417" lon="17.521903379079106"><ele>158.0</ele><time>2026-05-03T10:13:06Z</time></trkpt><trkpt lat="40.749579958053886" lon="17.521978077084384"><ele>158.0</ele><time>2026-05-03T10:13:09Z</time></trkpt><trkpt lat="40.749517053784096" lon="17.522079697500455"><ele>158.0</ele><time>2026-05-03T10:13:12Z</time></trkpt><trkpt lat="40.74946528029112" lon="17.52213132718054"><ele>158.0</ele><time>2026-05-03T10:13:13Z</time></trkpt><trkpt lat="40.7493973082648" lon="17.522239934577478"><ele>158.0</ele><time>2026-05-03T10:13:14.999Z</time></trkpt><trkpt lat="40.749325104257245" lon="17.52230406420988"><ele>159.66666666666666</ele><time>2026-05-03T10:13:16.999Z</time></trkpt><trkpt lat="40.7492478324108" lon="17.522367221521858"><ele>161.33333333333331</ele><time>2026-05-03T10:13:18.999Z</time></trkpt><trkpt lat="40.749167920712864" lon="17.522432303126248"><ele>163.0</ele><time>2026-05-03T10:13:20.999Z</time></trkpt><trkpt lat="40.749118499472765" lon="17.522507674915804"><ele>164.66666666666666</ele><time>2026-05-03T10:13:22.999Z</time></trkpt><trkpt lat="40.7490536693051" lon="17.52256567677513"><ele>166.33333333333334</ele><time>2026-05-03T10:13:25.999Z</time></trkpt><trkpt lat="40.74899138400203" lon="17.52262634728729"><ele>168.0</ele><time>2026-05-03T10:13:27.999Z</time></trkpt><trkpt lat="40.74893968984452" lon="17.522711786198986"><ele>168.0</ele><time>2026-05-03T10:13:29.999Z</time></trkpt><trkpt lat="40.74891142991071" lon="17.52284316432481"><ele>168.0</ele><time>2026-05-03T10:13:31.999Z</time></trkpt><trkpt lat="40.748864533927936" lon="17.522925738019"><ele>168.0</ele><time>2026-05-03T10:13:33.999Z</time></trkpt><trkpt lat="40.74882761222797" lon="17.523018561314057"><ele>168.0</ele><time>2026-05-03T10:13:35.999Z</time></trkpt><trkpt lat="40.74877200596446" lon="17.523127152457906"><ele>168.0</ele><time>2026-05-03T10:13:37.999Z</time></trkpt><trkpt lat="40.74872024500938" lon="17.523237406535944"><ele>167.4</ele><time>2026-05-03T10:13:39.999Z</time></trkpt><trkpt lat="40.748665512103" lon="17.523353075956702"><ele>166.8</ele><time>2026-05-03T10:13:41.999Z</time></trkpt><trkpt lat="40.74864185417959" lon="17.52347441771566"><ele>166.2</ele><time>2026-05-03T10:13:43.999Z</time></trkpt><trkpt lat="40.748588345511735" lon="17.523587840378912"><ele>165.6</ele><time>2026-05-03T10:13:45.999Z</time></trkpt><trkpt lat="40.748548069875575" lon="17.523701160830925"><ele>165.0</ele><time>2026-05-03T10:13:47.999Z</time></trkpt><trkpt lat="40.74849084991217" lon="17.52381462771658"><ele>165.0</ele><time>2026-05-03T10:13:49.999Z</time></trkpt><trkpt lat="40.748463561841376" lon="17.52389114394053"><ele>165.0</ele><time>2026-05-03T10:13:50.999Z</time></trkpt><trkpt lat="40.748400893069764" lon="17.52402009140269"><ele>165.0</ele><time>2026-05-03T10:13:52.999Z</time></trkpt><trkpt lat="40.7483385439777" lon="17.52412332515612"><ele>165.0</ele><time>2026-05-03T10:13:54.999Z</time></trkpt><trkpt lat="40.74827473282638" lon="17.524234013592803"><ele>165.0</ele><time>2026-05-03T10:13:56.999Z</time></trkpt><trkpt lat="40.74825421334723" lon="17.5243156126215"><ele>165.0</ele><time>2026-05-03T10:13:57.999Z</time></trkpt><trkpt lat="40.7482267312749" lon="17.52447602860562"><ele>165.0</ele><time>2026-05-03T10:13:59.999Z</time></trkpt><trkpt lat="40.748195142998966" lon="17.524606782125428"><ele>165.0</ele><time>2026-05-03T10:14:01.999Z</time></trkpt><trkpt lat="40.74813561883155" lon="17.52474175275225"><ele>165.0</ele><time>2026-05-03T10:14:03.999Z</time></trkpt><trkpt lat="40.74808887624856" lon="17.524885567437874"><ele>164.2</ele><time>2026-05-03T10:14:05.999Z</time></trkpt><trkpt lat="40.74807678800566" lon="17.525038400625952"><ele>163.4</ele><time>2026-05-03T10:14:07.999Z</time></trkpt><trkpt lat="40.748017606336084" lon="17.525131515910783"><ele>162.60000000000002</ele><time>2026-05-03T10:14:09.999Z</time></trkpt><trkpt lat="40.74795120836997" lon="17.52522628731309"><ele>161.8</ele><time>2026-05-03T10:14:12.999Z</time></trkpt><trkpt lat="40.74789083087692" lon="17.525300434056813"><ele>161.0</ele><time>2026-05-03T10:14:15.999Z</time></trkpt><trkpt lat="40.747818939601856" lon="17.5252863702456"><ele>161.0</ele><time>2026-05-03T10:14:17.999Z</time></trkpt><trkpt lat="40.74775768718762" lon="17.52521341700807"><ele>161.0</ele><time>2026-05-03T10:14:20.998Z</time></trkpt><trkpt lat="40.7477123390695" lon="17.525144615456902"><ele>161.0</ele><time>2026-05-03T10:14:23.998Z</time></trkpt><trkpt lat="40.74765583506298" lon="17.52507878899379"><ele>161.0</ele><time>2026-05-03T10:14:26.998Z</time></trkpt><trkpt lat="40.74762564382501" lon="17.52500497524845"><ele>161.0</ele><time>2026-05-03T10:14:30Z</time></trkpt><trkpt lat="40.74756742449874" lon="17.52494075089849"><ele>161.0</ele><time>2026-05-03T10:14:34Z</time></trkpt><trkpt lat="40.74751484836398" lon="17.524878702310463"><ele>161.0</ele><time>2026-05-03T10:14:38Z</time></trkpt><trkpt lat="40.74755411954101" lon="17.5248102243795"><ele>161.66666666666666</ele><time>2026-05-03T10:17:31.999Z</time></trkpt><trkpt lat="40.747572115890264" lon="17.524725277647523"><ele>162.33333333333331</ele><time>2026-05-03T10:17:33.999Z</time></trkpt><trkpt lat="40.74762763564378" lon="17.524635868748067"><ele>163.0</ele><time>2026-05-03T10:17:36.999Z</time></trkpt><trkpt lat="40.74767882501734" lon="17.52456236521471"><ele>163.66666666666666</ele><time>2026-05-03T10:17:40.999Z</time></trkpt><trkpt lat="40.74772523687983" lon="17.524458137352354"><ele>164.33333333333334</ele><time>2026-05-03T10:17:44.999Z</time></trkpt><trkpt lat="40.74776330387524" lon="17.524374339489686"><ele>165.0</ele><time>2026-05-03T10:17:47.999Z</time></trkpt><trkpt lat="40.74780695050554" lon="17.52429442017027"><ele>165.0</ele><time>2026-05-03T10:17:51.999Z</time></trkpt><trkpt lat="40.74783560395422" lon="17.52418701557506"><ele>165.0</ele><time>2026-05-03T10:17:55.999Z</time></trkpt><trkpt lat="40.74779033091312" lon="17.52410722530596"><ele>165.0</ele><time>2026-05-03T10:17:58.999Z</time></trkpt><trkpt lat="40.74770914296214" lon="17.52413908606065"><ele>165.0</ele><time>2026-05-03T10:18:00.999Z</time></trkpt><trkpt lat="40.74761160194047" lon="17.524175783153602"><ele>165.0</ele><time>2026-05-03T10:18:03.999Z</time></trkpt><trkpt lat="40.747554671392706" lon="17.524133990228833"><ele>165.0</ele><time>2026-05-03T10:18:06.999Z</time></trkpt><trkpt lat="40.747467234474584" lon="17.524142183930053"><ele>167.33333333333334</ele><time>2026-05-03T10:18:09.999Z</time></trkpt><trkpt lat="40.74739976603589" lon="17.524210962094745"><ele>169.66666666666666</ele><time>2026-05-03T10:18:14.999Z</time></trkpt><trkpt lat="40.7473862684481" lon="17.524320963053555"><ele>172.0</ele><time>2026-05-03T10:18:16.999Z</time></trkpt><trkpt lat="40.74737058137684" lon="17.52440239662248"><ele>174.33333333333331</ele><time>2026-05-03T10:18:17.999Z</time></trkpt><trkpt lat="40.74736850388295" lon="17.52449740130281"><ele>176.66666666666666</ele><time>2026-05-03T10:18:19.999Z</time></trkpt><trkpt lat="40.747362077655026" lon="17.524581995417506"><ele>179.0</ele><time>2026-05-03T10:18:45Z</time></trkpt><trkpt lat="40.74734161569943" lon="17.52471010730125"><ele>179.0</ele><time>2026-05-03T10:18:48Z</time></trkpt><trkpt lat="40.74733382263611" lon="17.524804722131538"><ele>179.0</ele><time>2026-05-03T10:18:50Z</time></trkpt><trkpt lat="40.747336481305" lon="17.524900983738892"><ele>179.0</ele><time>2026-05-03T10:18:52Z</time></trkpt><trkpt lat="40.74731799789171" lon="17.525033633086498"><ele>179.0</ele><time>2026-05-03T10:18:55Z</time></trkpt><trkpt lat="40.74732997892268" lon="17.525149436464826"><ele>179.0</ele><time>2026-05-03T10:18:57Z</time></trkpt><trkpt lat="40.74729296034417" lon="17.525274069739936"><ele>179.0</ele><time>2026-05-03T10:19:00Z</time></trkpt><trkpt lat="40.74729808991285" lon="17.525432165487597"><ele>177.16666666666666</ele><time>2026-05-03T10:19:02Z</time></trkpt><trkpt lat="40.74725263736879" lon="17.52552870122918"><ele>175.33333333333331</ele><time>2026-05-03T10:19:04Z</time></trkpt><trkpt lat="40.74722493567995" lon="17.52565967092854"><ele>173.5</ele><time>2026-05-03T10:19:06Z</time></trkpt><trkpt lat="40.74722054553291" lon="17.525750352199484"><ele>171.66666666666666</ele><time>2026-05-03T10:19:10Z</time></trkpt><trkpt lat="40.74721244591138" lon="17.525845357728834"><ele>169.83333333333334</ele><time>2026-05-03T10:19:12Z</time></trkpt><trkpt lat="40.747167998022114" lon="17.525935315287512"><ele>168.0</ele><time>2026-05-03T10:19:14Z</time></trkpt><trkpt lat="40.74710754975163" lon="17.52603620668602"><ele>168.0</ele><time>2026-05-03T10:19:18Z</time></trkpt><trkpt lat="40.74703483480091" lon="17.526040686276342"><ele>168.0</ele><time>2026-05-03T10:19:22Z</time></trkpt><trkpt lat="40.74698188624239" lon="17.526154998708403"><ele>168.0</ele><time>2026-05-03T10:19:24Z</time></trkpt><trkpt lat="40.74693307265676" lon="17.526247532933933"><ele>168.0</ele><time>2026-05-03T10:19:27.999Z</time></trkpt><trkpt lat="40.74687852079949" lon="17.526315355194857"><ele>168.0</ele><time>2026-05-03T10:19:29.999Z</time></trkpt><trkpt lat="40.746803324871834" lon="17.526302061490476"><ele>168.0</ele><time>2026-05-03T10:19:32.999Z</time></trkpt><trkpt lat="40.746736250442225" lon="17.526294614602605"><ele>168.66666666666666</ele><time>2026-05-03T10:19:57.999Z</time></trkpt><trkpt lat="40.74667058839647" lon="17.526266516095568"><ele>169.33333333333334</ele><time>2026-05-03T10:20:13.999Z</time></trkpt><trkpt lat="40.74658750472541" lon="17.526256773289766"><ele>170.0</ele><time>2026-05-03T10:20:26.999Z</time></trkpt><trkpt lat="40.74651373378007" lon="17.52629681385487"><ele>170.66666666666669</ele><time>2026-05-03T10:20:29.999Z</time></trkpt><trkpt lat="40.74648791142118" lon="17.526373333976732"><ele>171.33333333333334</ele><time>2026-05-03T10:20:32.999Z</time></trkpt><trkpt lat="40.74640346208664" lon="17.526401517589616"><ele>172.0</ele><time>2026-05-03T10:20:35.998Z</time></trkpt><trkpt lat="40.74633264937112" lon="17.526457553992152"><ele>172.0</ele><time>2026-05-03T10:20:39.998Z</time></trkpt><trkpt lat="40.74631734632276" lon="17.5265616345675"><ele>172.0</ele><time>2026-05-03T10:20:41.998Z</time></trkpt><trkpt lat="40.74630565234038" lon="17.52664865979377"><ele>172.0</ele><time>2026-05-03T10:20:43.998Z</time></trkpt><trkpt lat="40.74624447981648" lon="17.52675240494308"><ele>172.0</ele><time>2026-05-03T10:20:46.998Z</time></trkpt><trkpt lat="40.74620934019986" lon="17.526872220430658"><ele>172.0</ele><time>2026-05-03T10:20:50Z</time></trkpt><trkpt lat="40.74615175225912" lon="17.526974107705545"><ele>172.0</ele><time>2026-05-03T10:20:52Z</time></trkpt><trkpt lat="40.74611314910002" lon="17.527052697925185"><ele>172.0</ele><time>2026-05-03T10:20:54Z</time></trkpt><trkpt lat="40.746058466242616" lon="17.527128745804035"><ele>172.0</ele><time>2026-05-03T10:20:56Z</time></trkpt><trkpt lat="40.74598085287234" lon="17.527138862919823"><ele>172.0</ele><time>2026-05-03T10:20:59Z</time></trkpt><trkpt lat="40.74593734311496" lon="17.527234282020455"><ele>172.0</ele><time>2026-05-03T10:21:01Z</time></trkpt><trkpt lat="40.74586080094532" lon="17.52721803689312"><ele>172.0</ele><time>2026-05-03T10:21:03Z</time></trkpt><trkpt lat="40.74580421988615" lon="17.527299944151103"><ele>172.0</ele><time>2026-05-03T10:21:07Z</time></trkpt><trkpt lat="40.74573497783355" lon="17.5272867728309"><ele>172.0</ele><time>2026-05-03T10:21:09Z</time></trkpt><trkpt lat="40.74568420983444" lon="17.527349038310586"><ele>172.0</ele><time>2026-05-03T10:21:11Z</time></trkpt><trkpt lat="40.7456134634635" lon="17.527437906271295"><ele>172.0</ele><time>2026-05-03T10:21:14Z</time></trkpt><trkpt lat="40.74555936012222" lon="17.527535613193727"><ele>172.0</ele><time>2026-05-03T10:21:16Z</time></trkpt><trkpt lat="40.74548029350027" lon="17.52761316877429"><ele>172.0</ele><time>2026-05-03T10:21:19Z</time></trkpt><trkpt lat="40.74539388430086" lon="17.527649491916108"><ele>172.0</ele><time>2026-05-03T10:21:21Z</time></trkpt><trkpt lat="40.745329775169125" lon="17.52775279489935"><ele>172.0</ele><time>2026-05-03T10:21:23Z</time></trkpt><trkpt lat="40.74526231696981" lon="17.527797899062943"><ele>172.0</ele><time>2026-05-03T10:21:25Z</time></trkpt><trkpt lat="40.74519777637054" lon="17.52787051919737"><ele>172.0</ele><time>2026-05-03T10:21:28Z</time></trkpt><trkpt lat="40.74512826666852" lon="17.527872681570358"><ele>172.0</ele><time>2026-05-03T10:21:30Z</time></trkpt><trkpt lat="40.74506168880861" lon="17.52787346664537"><ele>172.0</ele><time>2026-05-03T10:21:32Z</time></trkpt><trkpt lat="40.74499333998165" lon="17.527917540985786"><ele>172.0</ele><time>2026-05-03T10:21:34Z</time></trkpt><trkpt lat="40.74491479898695" lon="17.527980472466172"><ele>172.14285714285717</ele><time>2026-05-03T10:21:36Z</time></trkpt><trkpt lat="40.744867721053886" lon="17.52807889956633"><ele>172.28571428571428</ele><time>2026-05-03T10:21:37.999Z</time></trkpt><trkpt lat="40.744814977645085" lon="17.528138764783154"><ele>172.42857142857144</ele><time>2026-05-03T10:21:39.999Z</time></trkpt><trkpt lat="40.74474742626556" lon="17.52817443711191"><ele>172.57142857142858</ele><time>2026-05-03T10:21:42.999Z</time></trkpt><trkpt lat="40.744672045918556" lon="17.5281977187101"><ele>172.71428571428572</ele><time>2026-05-03T10:21:44.999Z</time></trkpt><trkpt lat="40.74468375366005" lon="17.52828143952799"><ele>172.85714285714286</ele><time>2026-05-03T10:21:46.999Z</time></trkpt><trkpt lat="40.74469216373991" lon="17.528375825969224"><ele>173.0</ele><time>2026-05-03T10:21:48.999Z</time></trkpt><trkpt lat="40.744710718842086" lon="17.528466871678578"><ele>173.0</ele><time>2026-05-03T10:21:50.999Z</time></trkpt><trkpt lat="40.74465116505204" lon="17.528496826091466"><ele>173.0</ele><time>2026-05-03T10:21:53.999Z</time></trkpt><trkpt lat="40.744591998886854" lon="17.52845978986987"><ele>173.0</ele><time>2026-05-03T10:21:55.999Z</time></trkpt><trkpt lat="40.744533332970036" lon="17.52842669309239"><ele>173.0</ele><time>2026-05-03T10:21:59.999Z</time></trkpt><trkpt lat="40.7445020449872" lon="17.528504408634998"><ele>173.0</ele><time>2026-05-03T10:22:02.999Z</time></trkpt><trkpt lat="40.74450914854595" lon="17.5285999740606"><ele>173.0</ele><time>2026-05-03T10:22:04.999Z</time></trkpt><trkpt lat="40.74445869493729" lon="17.52868781330681"><ele>173.0</ele><time>2026-05-03T10:22:06.999Z</time></trkpt><trkpt lat="40.744406495472305" lon="17.52873814322397"><ele>173.28571428571428</ele><time>2026-05-03T10:22:07.999Z</time></trkpt><trkpt lat="40.744324840163486" lon="17.52873850491956"><ele>173.57142857142858</ele><time>2026-05-03T10:22:09.999Z</time></trkpt><trkpt lat="40.74425595365837" lon="17.52877856353735"><ele>173.85714285714286</ele><time>2026-05-03T10:22:11.999Z</time></trkpt><trkpt lat="40.7441956731147" lon="17.528735243262904"><ele>174.14285714285714</ele><time>2026-05-03T10:22:13.999Z</time></trkpt><trkpt lat="40.74412916737962" lon="17.5287368515897"><ele>174.42857142857144</ele><time>2026-05-03T10:22:24.999Z</time></trkpt><trkpt lat="40.7440626248604" lon="17.528765688651625"><ele>174.71428571428572</ele><time>2026-05-03T10:22:37.999Z</time></trkpt><trkpt lat="40.743990504653084" lon="17.52879362326438"><ele>175.0</ele><time>2026-05-03T10:22:40.999Z</time></trkpt><trkpt lat="40.7439302780474" lon="17.528871710220574"><ele>175.0</ele><time>2026-05-03T10:22:49.998Z</time></trkpt><trkpt lat="40.74385381318085" lon="17.528907502188613"><ele>175.0</ele><time>2026-05-03T10:22:52.998Z</time></trkpt><trkpt lat="40.74379066606594" lon="17.528919830262943"><ele>175.0</ele><time>2026-05-03T10:22:58Z</time></trkpt><trkpt lat="40.743761911194355" lon="17.529034646038195"><ele>175.0</ele><time>2026-05-03T10:23:03Z</time></trkpt><trkpt lat="40.74372038195437" lon="17.529119254597806"><ele>175.0</ele><time>2026-05-03T10:23:07Z</time></trkpt><trkpt lat="40.74377993626693" lon="17.529153508881702"><ele>175.0</ele><time>2026-05-03T10:23:13Z</time></trkpt><trkpt lat="40.74382512582704" lon="17.529229074255355"><ele>175.0</ele><time>2026-05-03T10:23:17Z</time></trkpt><trkpt lat="40.74376276407372" lon="17.529270836348488"><ele>175.0</ele><time>2026-05-03T10:23:20Z</time></trkpt><trkpt lat="40.7436933006551" lon="17.529314016049362"><ele>175.0</ele><time>2026-05-03T10:23:23Z</time></trkpt><trkpt lat="40.74359479720174" lon="17.529377364499812"><ele>175.0</ele><time>2026-05-03T10:23:26Z</time></trkpt><trkpt lat="40.74349879139145" lon="17.529428031977325"><ele>175.0</ele><time>2026-05-03T10:23:29Z</time></trkpt><trkpt lat="40.74342462514601" lon="17.529506276256672"><ele>175.5</ele><time>2026-05-03T10:23:32Z</time></trkpt><trkpt lat="40.743381938014544" lon="17.529570950542773"><ele>176.0</ele><time>2026-05-03T10:23:34Z</time></trkpt><trkpt lat="40.74331910451343" lon="17.52954224240121"><ele>176.5</ele><time>2026-05-03T10:23:35Z</time></trkpt><trkpt lat="40.74325663295877" lon="17.52958825695333"><ele>177.0</ele><time>2026-05-03T10:23:37Z</time></trkpt><trkpt lat="40.74317178957399" lon="17.52964584066419"><ele>177.5</ele><time>2026-05-03T10:23:39.999Z</time></trkpt><trkpt lat="40.74313640983128" lon="17.529735877223516"><ele>178.0</ele><time>2026-05-03T10:23:41.999Z</time></trkpt><trkpt lat="40.743056974029535" lon="17.52977779995398"><ele>178.0</ele><time>2026-05-03T10:23:43.999Z</time></trkpt><trkpt lat="40.742988521589986" lon="17.529834419876142"><ele>178.0</ele><time>2026-05-03T10:23:46.999Z</time></trkpt><trkpt lat="40.742921126036215" lon="17.529843352882093"><ele>178.0</ele><time>2026-05-03T10:23:48.999Z</time></trkpt><trkpt lat="40.74286755381017" lon="17.52990172614888"><ele>178.0</ele><time>2026-05-03T10:23:50.999Z</time></trkpt><trkpt lat="40.742806697883864" lon="17.529951783057353"><ele>178.0</ele><time>2026-05-03T10:23:51.999Z</time></trkpt><trkpt lat="40.74271871559264" lon="17.529993479534234"><ele>178.0</ele><time>2026-05-03T10:23:52.999Z</time></trkpt><trkpt lat="40.7426215524971" lon="17.5300277510044"><ele>181.5</ele><time>2026-05-03T10:23:53.999Z</time></trkpt><trkpt lat="40.74249764759568" lon="17.530116225736364"><ele>185.0</ele><time>2026-05-03T10:23:54.999Z</time></trkpt><trkpt lat="40.74238625371448" lon="17.530175416803928"><ele>188.5</ele><time>2026-05-03T10:23:55.999Z</time></trkpt><trkpt lat="40.74226432795834" lon="17.53024693063047"><ele>192.0</ele><time>2026-05-03T10:23:56.999Z</time></trkpt><trkpt lat="40.74217617507657" lon="17.530301381118353"><ele>192.0</ele><time>2026-05-03T10:23:57.999Z</time></trkpt><trkpt lat="40.74208309093019" lon="17.530356097626417"><ele>192.0</ele><time>2026-05-03T10:23:58.999Z</time></trkpt><trkpt lat="40.74197988132223" lon="17.530337604476642"><ele>192.0</ele><time>2026-05-03T10:23:59.999Z</time></trkpt><trkpt lat="40.74188012124833" lon="17.530359145639217"><ele>192.0</ele><time>2026-05-03T10:24:00.999Z</time></trkpt><trkpt lat="40.74179414362848" lon="17.53037442179916"><ele>192.0</ele><time>2026-05-03T10:24:01.999Z</time></trkpt><trkpt lat="40.741717578705355" lon="17.530385781658367"><ele>191.66666666666666</ele><time>2026-05-03T10:24:02.999Z</time></trkpt><trkpt lat="40.74164274623408" lon="17.530386478683894"><ele>191.33333333333334</ele><time>2026-05-03T10:24:03.999Z</time></trkpt><trkpt lat="40.74157127950846" lon="17.530417083954344"><ele>191.0</ele><time>2026-05-03T10:24:04.999Z</time></trkpt><trkpt lat="40.741509384522296" lon="17.530441997660944"><ele>190.66666666666669</ele><time>2026-05-03T10:24:05.999Z</time></trkpt><trkpt lat="40.74140687078772" lon="17.530462523636498"><ele>190.33333333333334</ele><time>2026-05-03T10:24:07.999Z</time></trkpt><trkpt lat="40.74132035044429" lon="17.53046535773417"><ele>190.0</ele><time>2026-05-03T10:24:09.999Z</time></trkpt><trkpt lat="40.741243798164" lon="17.530499643766447"><ele>190.0</ele><time>2026-05-03T10:24:11.999Z</time></trkpt><trkpt lat="40.741160284504666" lon="17.53051923549528"><ele>190.0</ele><time>2026-05-03T10:24:13.999Z</time></trkpt><trkpt lat="40.74109469103068" lon="17.530521636128533"><ele>190.0</ele><time>2026-05-03T10:24:15.999Z</time></trkpt><trkpt lat="40.741010731516006" lon="17.53052558251014"><ele>190.0</ele><time>2026-05-03T10:24:17.999Z</time></trkpt><trkpt lat="40.74091738502693" lon="17.53057286395209"><ele>190.0</ele><time>2026-05-03T10:24:20.999Z</time></trkpt><trkpt lat="40.74085583372123" lon="17.53060225234137"><ele>190.0</ele><time>2026-05-03T10:24:22.999Z</time></trkpt><trkpt lat="40.74079915730152" lon="17.530663415962817"><ele>192.0</ele><time>2026-05-03T10:24:24.999Z</time></trkpt><trkpt lat="40.74080065779954" lon="17.530753098774056"><ele>194.0</ele><time>2026-05-03T10:25:03Z</time></trkpt><trkpt lat="40.740875306548624" lon="17.530785860304647"><ele>196.0</ele><time>2026-05-03T10:25:05Z</time></trkpt><trkpt lat="40.74102875080755" lon="17.530848350455486"><ele>198.0</ele><time>2026-05-03T10:25:17Z</time></trkpt><trkpt lat="40.74102707840543" lon="17.530970485492855"><ele>200.0</ele><time>2026-05-03T10:25:19Z</time></trkpt><trkpt lat="40.741018386712796" lon="17.531083133379767"><ele>200.00000000000003</ele><time>2026-05-03T10:25:21Z</time></trkpt><trkpt lat="40.7410007349376" lon="17.531169654534036"><ele>200.0</ele><time>2026-05-03T10:25:23Z</time></trkpt><trkpt lat="40.74099293223442" lon="17.53127020478508"><ele>200.0</ele><time>2026-05-03T10:25:25Z</time></trkpt><trkpt lat="40.74098728086745" lon="17.531364778349754"><ele>200.0</ele><time>2026-05-03T10:25:27Z</time></trkpt><trkpt lat="40.7409987475728" lon="17.531460864558383"><ele>200.0</ele><time>2026-05-03T10:25:29Z</time></trkpt><trkpt lat="40.74102192841717" lon="17.531549321480526"><ele>200.00000000000003</ele><time>2026-05-03T10:25:31Z</time></trkpt><trkpt lat="40.74104238026178" lon="17.53165355773057"><ele>200.0</ele><time>2026-05-03T10:25:33Z</time></trkpt><trkpt lat="40.74104371512894" lon="17.53175883368015"><ele>198.66666666666669</ele><time>2026-05-03T10:25:35Z</time></trkpt><trkpt lat="40.741040212724016" lon="17.531866398760293"><ele>197.33333333333334</ele><time>2026-05-03T10:25:37Z</time></trkpt><trkpt lat="40.74103446066173" lon="17.531953572656082"><ele>196.0</ele><time>2026-05-03T10:25:39Z</time></trkpt><trkpt lat="40.74103433137712" lon="17.5320561037403"><ele>194.66666666666669</ele><time>2026-05-03T10:25:42Z</time></trkpt><trkpt lat="40.74103334346864" lon="17.532150631097352"><ele>193.33333333333334</ele><time>2026-05-03T10:25:44Z</time></trkpt><trkpt lat="40.74103882532317" lon="17.532259860293973"><ele>192.0</ele><time>2026-05-03T10:25:46Z</time></trkpt><trkpt lat="40.7410432499714" lon="17.532360295775796"><ele>192.0</ele><time>2026-05-03T10:25:47.999Z</time></trkpt><trkpt lat="40.74104982230146" lon="17.53249546331849"><ele>192.0</ele><time>2026-05-03T10:25:50.999Z</time></trkpt><trkpt lat="40.74104570826359" lon="17.532607553731193"><ele>192.0</ele><time>2026-05-03T10:25:52.999Z</time></trkpt><trkpt lat="40.74105383099186" lon="17.53271573883926"><ele>192.0</ele><time>2026-05-03T10:25:54.999Z</time></trkpt><trkpt lat="40.74106628387777" lon="17.532814165828594"><ele>192.0</ele><time>2026-05-03T10:25:56.999Z</time></trkpt><trkpt lat="40.74107255497301" lon="17.532909997567394"><ele>192.0</ele><time>2026-05-03T10:25:58.999Z</time></trkpt><trkpt lat="40.74111244325615" lon="17.533008794761685"><ele>190.16666666666666</ele><time>2026-05-03T10:26:02.999Z</time></trkpt><trkpt lat="40.74114440613348" lon="17.533093081850847"><ele>188.33333333333334</ele><time>2026-05-03T10:26:04.999Z</time></trkpt><trkpt lat="40.74120557089246" lon="17.533200269043363"><ele>186.5</ele><time>2026-05-03T10:26:06.999Z</time></trkpt><trkpt lat="40.74124560954436" lon="17.5332855738794"><ele>184.66666666666669</ele><time>2026-05-03T10:26:08.999Z</time></trkpt><trkpt lat="40.74129917147388" lon="17.53339369823979"><ele>182.83333333333334</ele><time>2026-05-03T10:26:10.999Z</time></trkpt><trkpt lat="40.741327977023296" lon="17.5334882205645"><ele>181.0</ele><time>2026-05-03T10:26:12.999Z</time></trkpt><trkpt lat="40.741387710936564" lon="17.533528358471536"><ele>181.0</ele><time>2026-05-03T10:26:15.999Z</time></trkpt><trkpt lat="40.741447115975845" lon="17.53356111520018"><ele>181.0</ele><time>2026-05-03T10:26:17.999Z</time></trkpt><trkpt lat="40.74151547500482" lon="17.533589729144133"><ele>181.0</ele><time>2026-05-03T10:26:19.999Z</time></trkpt><trkpt lat="40.741598986384695" lon="17.53362806204149"><ele>181.0</ele><time>2026-05-03T10:26:21.999Z</time></trkpt><trkpt lat="40.7416604862371" lon="17.53360528180859"><ele>181.0</ele><time>2026-05-03T10:26:23.999Z</time></trkpt><trkpt lat="40.74173295425496" lon="17.533567189211595"><ele>181.0</ele><time>2026-05-03T10:26:26.999Z</time></trkpt><trkpt lat="40.741752060104794" lon="17.53367801546029"><ele>180.4</ele><time>2026-05-03T10:26:30.999Z</time></trkpt><trkpt lat="40.741776905214444" lon="17.533841645533858"><ele>179.8</ele><time>2026-05-03T10:26:32.999Z</time></trkpt><trkpt lat="40.74180310700939" lon="17.53392777812183"><ele>179.20000000000002</ele><time>2026-05-03T10:26:33.999Z</time></trkpt><trkpt lat="40.74182951553371" lon="17.534017656551924"><ele>178.60000000000002</ele><time>2026-05-03T10:26:34.999Z</time></trkpt><trkpt lat="40.74186230110299" lon="17.53412609340318"><ele>178.0</ele><time>2026-05-03T10:26:35.999Z</time></trkpt><trkpt lat="40.74188968549103" lon="17.534249623213924"><ele>175.4</ele><time>2026-05-03T10:26:36.999Z</time></trkpt><trkpt lat="40.74192771442714" lon="17.53436100512183"><ele>172.8</ele><time>2026-05-03T10:26:37.999Z</time></trkpt><trkpt lat="40.741948481899286" lon="17.53447312870515"><ele>170.2</ele><time>2026-05-03T10:26:38.999Z</time></trkpt><trkpt lat="40.74198412819918" lon="17.534607132759863"><ele>167.6</ele><time>2026-05-03T10:26:39.999Z</time></trkpt><trkpt lat="40.74202952420594" lon="17.534705856288095"><ele>165.0</ele><time>2026-05-03T10:26:40.999Z</time></trkpt><trkpt lat="40.7420573593526" lon="17.53482298473003"><ele>164.8</ele><time>2026-05-03T10:26:41.999Z</time></trkpt><trkpt lat="40.74209356873136" lon="17.534928078137757"><ele>164.6</ele><time>2026-05-03T10:26:42.999Z</time></trkpt><trkpt lat="40.74213359734824" lon="17.53504480929137"><ele>164.39999999999998</ele><time>2026-05-03T10:26:43.999Z</time></trkpt><trkpt lat="40.74218218482864" lon="17.535149412082692"><ele>164.2</ele><time>2026-05-03T10:26:44.999Z</time></trkpt><trkpt lat="40.74221819212178" lon="17.535257370473907"><ele>164.0</ele><time>2026-05-03T10:26:45.999Z</time></trkpt><trkpt lat="40.74225096929613" lon="17.535361132573293"><ele>164.16666666666666</ele><time>2026-05-03T10:26:46.999Z</time></trkpt><trkpt lat="40.7423005934764" lon="17.535467533256227"><ele>164.33333333333331</ele><time>2026-05-03T10:26:47.999Z</time></trkpt><trkpt lat="40.74232793096835" lon="17.535576300523623"><ele>164.5</ele><time>2026-05-03T10:26:48.999Z</time></trkpt><trkpt lat="40.742363849418155" lon="17.53566694734364"><ele>164.66666666666666</ele><time>2026-05-03T10:26:49.999Z</time></trkpt><trkpt lat="40.74239576969328" lon="17.53576860751936"><ele>164.83333333333334</ele><time>2026-05-03T10:26:50.999Z</time></trkpt><trkpt lat="40.7424220332979" lon="17.53585688030998"><ele>165.0</ele><time>2026-05-03T10:26:51.999Z</time></trkpt><trkpt lat="40.74245525808082" lon="17.535948276025632"><ele>165.0</ele><time>2026-05-03T10:26:52.999Z</time></trkpt><trkpt lat="40.742493475287844" lon="17.536034558769472"><ele>165.0</ele><time>2026-05-03T10:26:53.999Z</time></trkpt><trkpt lat="40.742527877924196" lon="17.536120126220293"><ele>165.0</ele><time>2026-05-03T10:26:54.998Z</time></trkpt><trkpt lat="40.742560457830436" lon="17.53620498800893"><ele>165.0</ele><time>2026-05-03T10:26:55.998Z</time></trkpt><trkpt lat="40.7425853625372" lon="17.53628849491783"><ele>165.0</ele><time>2026-05-03T10:26:56.998Z</time></trkpt><trkpt lat="40.74264273143996" lon="17.53644072131615"><ele>165.0</ele><time>2026-05-03T10:26:58.998Z</time></trkpt><trkpt lat="40.742707402616944" lon="17.5365879888002"><ele>164.2</ele><time>2026-05-03T10:27:00.998Z</time></trkpt><trkpt lat="40.742764043471276" lon="17.536716855318616"><ele>163.4</ele><time>2026-05-03T10:27:02.998Z</time></trkpt><trkpt lat="40.74280968807795" lon="17.53686198945941"><ele>162.60000000000002</ele><time>2026-05-03T10:27:04.998Z</time></trkpt><trkpt lat="40.74284780020203" lon="17.537017312923094"><ele>161.8</ele><time>2026-05-03T10:27:07Z</time></trkpt><trkpt lat="40.74285618834868" lon="17.537103144899717"><ele>161.0</ele><time>2026-05-03T10:27:08Z</time></trkpt><trkpt lat="40.742871039054215" lon="17.537250180012197"><ele>161.0</ele><time>2026-05-03T10:27:10Z</time></trkpt><trkpt lat="40.74290086662513" lon="17.53738423253196"><ele>161.0</ele><time>2026-05-03T10:27:12Z</time></trkpt><trkpt lat="40.74291496005861" lon="17.537526233322705"><ele>161.0</ele><time>2026-05-03T10:27:14Z</time></trkpt><trkpt lat="40.74294365025958" lon="17.537664608306898"><ele>161.0</ele><time>2026-05-03T10:27:16Z</time></trkpt><trkpt lat="40.74296140274059" lon="17.53777962403872"><ele>161.0</ele><time>2026-05-03T10:27:18Z</time></trkpt><trkpt lat="40.74295351390679" lon="17.53787868376658"><ele>161.4</ele><time>2026-05-03T10:27:22Z</time></trkpt><trkpt lat="40.742998178142585" lon="17.53799369311704"><ele>161.8</ele><time>2026-05-03T10:27:25Z</time></trkpt><trkpt lat="40.74301624653679" lon="17.53811188954365"><ele>162.20000000000002</ele><time>2026-05-03T10:27:27Z</time></trkpt><trkpt lat="40.74303581016184" lon="17.538247097112226"><ele>162.60000000000002</ele><time>2026-05-03T10:27:29Z</time></trkpt><trkpt lat="40.7430612178998" lon="17.538380668436087"><ele>163.0</ele><time>2026-05-03T10:27:31Z</time></trkpt><trkpt lat="40.74309695577571" lon="17.53852412052606"><ele>163.0</ele><time>2026-05-03T10:27:33Z</time></trkpt><trkpt lat="40.7431380480786" lon="17.538670798858348"><ele>163.0</ele><time>2026-05-03T10:27:35Z</time></trkpt><trkpt lat="40.74314988492082" lon="17.538813328676564"><ele>163.0</ele><time>2026-05-03T10:27:37Z</time></trkpt><trkpt lat="40.743188436882704" lon="17.53892997890854"><ele>163.0</ele><time>2026-05-03T10:27:39Z</time></trkpt><trkpt lat="40.74323217643769" lon="17.539085009886854"><ele>163.0</ele><time>2026-05-03T10:27:41Z</time></trkpt><trkpt lat="40.743253403350614" lon="17.539246965598476"><ele>163.66666666666669</ele><time>2026-05-03T10:27:43Z</time></trkpt><trkpt lat="40.743295437861946" lon="17.539367652330462"><ele>164.33333333333334</ele><time>2026-05-03T10:27:45Z</time></trkpt><trkpt lat="40.74335804680479" lon="17.539476273199945"><ele>165.0</ele><time>2026-05-03T10:27:46.999Z</time></trkpt><trkpt lat="40.74340826084524" lon="17.53954101501064"><ele>165.66666666666666</ele><time>2026-05-03T10:27:48.999Z</time></trkpt><trkpt lat="40.743459226948175" lon="17.53961192669"><ele>166.33333333333331</ele><time>2026-05-03T10:27:50.999Z</time></trkpt><trkpt lat="40.74350080067214" lon="17.539685780174107"><ele>167.0</ele><time>2026-05-03T10:27:53.999Z</time></trkpt><trkpt lat="40.74351482851911" lon="17.539789306465423"><ele>167.71428571428572</ele><time>2026-05-03T10:27:57.999Z</time></trkpt><trkpt lat="40.74353637733218" lon="17.539869383555178"><ele>168.42857142857144</ele><time>2026-05-03T10:28:00.999Z</time></trkpt><trkpt lat="40.74356884135791" lon="17.539942109717586"><ele>169.14285714285717</ele><time>2026-05-03T10:28:03.999Z</time></trkpt><trkpt lat="40.74361513006067" lon="17.54003612885578"><ele>169.85714285714286</ele><time>2026-05-03T10:28:07.999Z</time></trkpt><trkpt lat="40.743674459472395" lon="17.540074232645665"><ele>170.57142857142858</ele><time>2026-05-03T10:28:11.999Z</time></trkpt><trkpt lat="40.74374639764634" lon="17.540052326530397"><ele>171.2857142857143</ele><time>2026-05-03T10:28:14.999Z</time></trkpt><trkpt lat="40.74381531742481" lon="17.540059684396795"><ele>172.0</ele><time>2026-05-03T10:28:16.999Z</time></trkpt><trkpt lat="40.74387295802377" lon="17.540105536936718"><ele>172.0</ele><time>2026-05-03T10:28:18.999Z</time></trkpt><trkpt lat="40.743924686525915" lon="17.540031425396585"><ele>172.0</ele><time>2026-05-03T10:28:22.999Z</time></trkpt><trkpt lat="40.744029169993475" lon="17.540061937270014"><ele>172.0</ele><time>2026-05-03T10:28:25.999Z</time></trkpt><trkpt lat="40.74412222107917" lon="17.540040898097764"><ele>172.0</ele><time>2026-05-03T10:28:27.999Z</time></trkpt><trkpt lat="40.74420008046605" lon="17.54007000123614"><ele>172.0</ele><time>2026-05-03T10:28:31.999Z</time></trkpt><trkpt lat="40.74428723884875" lon="17.540103190273282"><ele>172.0</ele><time>2026-05-03T10:28:34.999Z</time></trkpt><trkpt lat="40.7443433301653" lon="17.54014137940414"><ele>170.5</ele><time>2026-05-03T10:28:36.999Z</time></trkpt><trkpt lat="40.744407771393846" lon="17.54015831220403"><ele>169.0</ele><time>2026-05-03T10:28:38.999Z</time></trkpt><trkpt lat="40.74447719232361" lon="17.540157903735526"><ele>167.5</ele><time>2026-05-03T10:28:40.999Z</time></trkpt><trkpt lat="40.74454211912978" lon="17.54023388934556"><ele>166.0</ele><time>2026-05-03T10:28:43.999Z</time></trkpt><trkpt lat="40.74457405719614" lon="17.54032255553388"><ele>164.5</ele><time>2026-05-03T10:28:48.999Z</time></trkpt><trkpt lat="40.74463210861349" lon="17.5402776873608"><ele>163.0</ele><time>2026-05-03T10:29:23Z</time></trkpt><trkpt lat="40.74460217869449" lon="17.54016885715835"><ele>163.0</ele><time>2026-05-03T10:29:26Z</time></trkpt><trkpt lat="40.744609498128696" lon="17.54007109550134"><ele>163.0</ele><time>2026-05-03T10:29:28Z</time></trkpt><trkpt lat="40.74464518554375" lon="17.539963949696972"><ele>163.0</ele><time>2026-05-03T10:29:30Z</time></trkpt><trkpt lat="40.74473309948618" lon="17.539968898745315"><ele>163.0</ele><time>2026-05-03T10:29:32Z</time></trkpt><trkpt lat="40.74475091527428" lon="17.54005825451817"><ele>163.0</ele><time>2026-05-03T10:29:34Z</time></trkpt><trkpt lat="40.74482092731954" lon="17.5401401878426"><ele>163.0</ele><time>2026-05-03T10:29:36Z</time></trkpt><trkpt lat="40.74487442859803" lon="17.540210913273533"><ele>163.0</ele><time>2026-05-03T10:29:38Z</time></trkpt><trkpt lat="40.74492263744058" lon="17.540266802725178"><ele>163.0</ele><time>2026-05-03T10:29:40Z</time></trkpt><trkpt lat="40.74498289289874" lon="17.540310974276142"><ele>163.0</ele><time>2026-05-03T10:29:42Z</time></trkpt><trkpt lat="40.745052262769505" lon="17.5403741811935"><ele>163.0</ele><time>2026-05-03T10:29:45Z</time></trkpt><trkpt lat="40.745125685112484" lon="17.540418469664687"><ele>163.0</ele><time>2026-05-03T10:29:48Z</time></trkpt><trkpt lat="40.745198054122675" lon="17.540408045646267"><ele>163.0</ele><time>2026-05-03T10:29:51Z</time></trkpt><trkpt lat="40.74527249539483" lon="17.54043755522345"><ele>163.0</ele><time>2026-05-03T10:29:55Z</time></trkpt><trkpt lat="40.74532630151025" lon="17.540491816268418"><ele>162.16666666666669</ele><time>2026-05-03T10:29:56.999Z</time></trkpt><trkpt lat="40.745381071562" lon="17.54057110258108"><ele>161.33333333333334</ele><time>2026-05-03T10:30:00.999Z</time></trkpt><trkpt lat="40.745481184765254" lon="17.540587122835078"><ele>160.5</ele><time>2026-05-03T10:30:03.999Z</time></trkpt><trkpt lat="40.74553159081076" lon="17.54064837656574"><ele>159.66666666666666</ele><time>2026-05-03T10:30:05.999Z</time></trkpt><trkpt lat="40.745597530380614" lon="17.540686780270143"><ele>158.83333333333331</ele><time>2026-05-03T10:30:07.999Z</time></trkpt><trkpt lat="40.74566588409749" lon="17.540721006248965"><ele>158.0</ele><time>2026-05-03T10:30:09.999Z</time></trkpt><trkpt lat="40.74572301340075" lon="17.54077677484536"><ele>158.0</ele><time>2026-05-03T10:30:11.999Z</time></trkpt><trkpt lat="40.74578782252594" lon="17.540864168305706"><ele>158.0</ele><time>2026-05-03T10:30:14.999Z</time></trkpt><trkpt lat="40.7462484436901" lon="17.541030517731848"><ele>157.0</ele><time>2026-05-03T10:30:16.999Z</time></trkpt><trkpt lat="40.74630376878654" lon="17.54107289416297"><ele>156.0</ele><time>2026-05-03T10:30:17.999Z</time></trkpt><trkpt lat="40.74640078636567" lon="17.541151946947533"><ele>155.0</ele><time>2026-05-03T10:30:19.999Z</time></trkpt><trkpt lat="40.746466884692104" lon="17.541213644451357"><ele>154.0</ele><time>2026-05-03T10:30:20.999Z</time></trkpt><trkpt lat="40.74652968144759" lon="17.54125337264624"><ele>153.0</ele><time>2026-05-03T10:30:21.999Z</time></trkpt><trkpt lat="40.74659290155133" lon="17.541297618285906"><ele>152.0</ele><time>2026-05-03T10:30:22.999Z</time></trkpt><trkpt lat="40.746637548610146" lon="17.54136123667943"><ele>152.0</ele><time>2026-05-03T10:30:23.999Z</time></trkpt><trkpt lat="40.74668771209333" lon="17.541412326882135"><ele>152.0</ele><time>2026-05-03T10:30:24.999Z</time></trkpt><trkpt lat="40.74672007555442" lon="17.541485006796837"><ele>152.0</ele><time>2026-05-03T10:30:25.999Z</time></trkpt><trkpt lat="40.7467704330838" lon="17.54162755653069"><ele>152.0</ele><time>2026-05-03T10:30:27.999Z</time></trkpt><trkpt lat="40.74678277619765" lon="17.54171254012723"><ele>152.0</ele><time>2026-05-03T10:30:28.999Z</time></trkpt><trkpt lat="40.7468114234693" lon="17.541862383036182"><ele>152.0</ele><time>2026-05-03T10:30:30.999Z</time></trkpt><trkpt lat="40.746829977858425" lon="17.54201151001577"><ele>149.79999999999998</ele><time>2026-05-03T10:30:32.999Z</time></trkpt><trkpt lat="40.74684201080498" lon="17.542153111900458"><ele>147.6</ele><time>2026-05-03T10:30:34.999Z</time></trkpt><trkpt lat="40.7468749133084" lon="17.542307275360635"><ele>145.39999999999998</ele><time>2026-05-03T10:30:36.999Z</time></trkpt><trkpt lat="40.74689383939745" lon="17.542455108515785"><ele>143.2</ele><time>2026-05-03T10:30:38.999Z</time></trkpt><trkpt lat="40.746904647446506" lon="17.542588694396603"><ele>141.0</ele><time>2026-05-03T10:30:40.999Z</time></trkpt><trkpt lat="40.74694047890433" lon="17.542715282366657"><ele>141.0</ele><time>2026-05-03T10:30:42.999Z</time></trkpt><trkpt lat="40.7469704047141" lon="17.542847492695728"><ele>141.0</ele><time>2026-05-03T10:30:44.999Z</time></trkpt><trkpt lat="40.74700930035524" lon="17.542913847278385"><ele>141.0</ele><time>2026-05-03T10:30:45.999Z</time></trkpt><trkpt lat="40.74707961998512" lon="17.543046552596326"><ele>141.0</ele><time>2026-05-03T10:30:47.999Z</time></trkpt><trkpt lat="40.74714885082046" lon="17.543181112903607"><ele>141.0</ele><time>2026-05-03T10:30:49.999Z</time></trkpt><trkpt lat="40.74721598848802" lon="17.543304223278742"><ele>142.2</ele><time>2026-05-03T10:30:51.999Z</time></trkpt><trkpt lat="40.74727734906992" lon="17.543431817084223"><ele>143.39999999999998</ele><time>2026-05-03T10:30:53.999Z</time></trkpt><trkpt lat="40.747316997963004" lon="17.54354733850941"><ele>144.6</ele><time>2026-05-03T10:30:55.999Z</time></trkpt><trkpt lat="40.74737510737926" lon="17.54367177521536"><ele>145.79999999999998</ele><time>2026-05-03T10:30:57.999Z</time></trkpt><trkpt lat="40.74742662721854" lon="17.543790410095156"><ele>147.0</ele><time>2026-05-03T10:30:59.999Z</time></trkpt><trkpt lat="40.74748479155198" lon="17.54391642672487"><ele>144.6</ele><time>2026-05-03T10:31:01.999Z</time></trkpt><trkpt lat="40.74752233010587" lon="17.54398544109137"><ele>142.2</ele><time>2026-05-03T10:31:02.999Z</time></trkpt><trkpt lat="40.74756241177569" lon="17.544132865960954"><ele>139.8</ele><time>2026-05-03T10:31:04.999Z</time></trkpt><trkpt lat="40.747590086365825" lon="17.544211685141757"><ele>137.4</ele><time>2026-05-03T10:31:05.999Z</time></trkpt><trkpt lat="40.74764642421018" lon="17.544332773832547"><ele>135.0</ele><time>2026-05-03T10:31:07.998Z</time></trkpt><trkpt lat="40.74772198957928" lon="17.544470983789804"><ele>136.33333333333334</ele><time>2026-05-03T10:31:09.998Z</time></trkpt><trkpt lat="40.74774963532225" lon="17.544546310220518"><ele>137.66666666666666</ele><time>2026-05-03T10:31:10.998Z</time></trkpt><trkpt lat="40.74777227413048" lon="17.544627263945927"><ele>139.0</ele><time>2026-05-03T10:31:11.998Z</time></trkpt><trkpt lat="40.74779655339318" lon="17.54470814252463"><ele>140.33333333333331</ele><time>2026-05-03T10:31:12.998Z</time></trkpt><trkpt lat="40.74786159895624" lon="17.544847481970884"><ele>141.66666666666666</ele><time>2026-05-03T10:31:14.998Z</time></trkpt><trkpt lat="40.747904416265584" lon="17.54498791126462"><ele>143.0</ele><time>2026-05-03T10:31:16.998Z</time></trkpt><trkpt lat="40.74798896875126" lon="17.54508753972092"><ele>143.0</ele><time>2026-05-03T10:31:19Z</time></trkpt><trkpt lat="40.748050920531156" lon="17.54512302696147"><ele>143.0</ele><time>2026-05-03T10:31:20Z</time></trkpt><trkpt lat="40.748110155533055" lon="17.54515190012729"><ele>143.0</ele><time>2026-05-03T10:31:21Z</time></trkpt><trkpt lat="40.748220413191866" lon="17.54523982888274"><ele>143.0</ele><time>2026-05-03T10:31:23Z</time></trkpt><trkpt lat="40.74831175684905" lon="17.545314850213384"><ele>143.0</ele><time>2026-05-03T10:31:25Z</time></trkpt><trkpt lat="40.74841390318902" lon="17.54537210329336"><ele>144.5</ele><time>2026-05-03T10:31:27Z</time></trkpt><trkpt lat="40.7484900813765" lon="17.545438601008044"><ele>146.0</ele><time>2026-05-03T10:31:29Z</time></trkpt><trkpt lat="40.74850108480888" lon="17.545596530662163"><ele>147.5</ele><time>2026-05-03T10:31:31Z</time></trkpt><trkpt lat="40.748483742070384" lon="17.545762088974108"><ele>149.0</ele><time>2026-05-03T10:31:33Z</time></trkpt><trkpt lat="40.748456774913855" lon="17.54590798224227"><ele>149.0</ele><time>2026-05-03T10:31:35Z</time></trkpt><trkpt lat="40.74848062442285" lon="17.545996836565582"><ele>149.0</ele><time>2026-05-03T10:31:36Z</time></trkpt><trkpt lat="40.74851148392834" lon="17.546086518664644"><ele>149.0</ele><time>2026-05-03T10:31:37Z</time></trkpt><trkpt lat="40.748542856248754" lon="17.54617659314063"><ele>149.0</ele><time>2026-05-03T10:31:38Z</time></trkpt><trkpt lat="40.74856486312637" lon="17.546348929478544"><ele>149.0</ele><time>2026-05-03T10:31:40Z</time></trkpt><trkpt lat="40.7485791494198" lon="17.546431381707464"><ele>149.0</ele><time>2026-05-03T10:31:41Z</time></trkpt><trkpt lat="40.74859123114346" lon="17.546559602060867"><ele>147.5</ele><time>2026-05-03T10:31:43Z</time></trkpt><trkpt lat="40.748624390222346" lon="17.54670748953876"><ele>146.0</ele><time>2026-05-03T10:31:45Z</time></trkpt><trkpt lat="40.74868231311177" lon="17.546838753219845"><ele>144.5</ele><time>2026-05-03T10:31:47Z</time></trkpt><trkpt lat="40.748725823223936" lon="17.546996401345332"><ele>143.0</ele><time>2026-05-03T10:31:49Z</time></trkpt><trkpt lat="40.74869698447204" lon="17.547137053876437"><ele>143.0</ele><time>2026-05-03T10:31:51Z</time></trkpt><trkpt lat="40.74863702958831" lon="17.547258412253814"><ele>143.0</ele><time>2026-05-03T10:31:53Z</time></trkpt><trkpt lat="40.74860626987397" lon="17.547388947126056"><ele>143.0</ele><time>2026-05-03T10:31:55Z</time></trkpt><trkpt lat="40.7485886144691" lon="17.547488417838938"><ele>143.0</ele><time>2026-05-03T10:31:57Z</time></trkpt><trkpt lat="40.74857143404796" lon="17.547574951873294"><ele>143.0</ele><time>2026-05-03T10:31:59Z</time></trkpt><trkpt lat="40.74853839920876" lon="17.547673561450953"><ele>143.0</ele><time>2026-05-03T10:32:01Z</time></trkpt><trkpt lat="40.74850409707542" lon="17.54777946814182"><ele>144.6</ele><time>2026-05-03T10:32:03Z</time></trkpt><trkpt lat="40.74846935567923" lon="17.547880076882596"><ele>146.20000000000002</ele><time>2026-05-03T10:32:05Z</time></trkpt><trkpt lat="40.74843779523519" lon="17.548004816780338"><ele>147.8</ele><time>2026-05-03T10:32:06.999Z</time></trkpt><trkpt lat="40.74840059742778" lon="17.54810854777971"><ele>149.4</ele><time>2026-05-03T10:32:08.999Z</time></trkpt><trkpt lat="40.74837256280046" lon="17.548223815703075"><ele>151.0</ele><time>2026-05-03T10:32:10.999Z</time></trkpt><trkpt lat="40.74834295405861" lon="17.54834370634104"><ele>151.0</ele><time>2026-05-03T10:32:12.999Z</time></trkpt><trkpt lat="40.74831248448356" lon="17.548460972398892"><ele>151.0</ele><time>2026-05-03T10:32:14.999Z</time></trkpt><trkpt lat="40.74828822573306" lon="17.54856344709226"><ele>151.0</ele><time>2026-05-03T10:32:16.999Z</time></trkpt><trkpt lat="40.74825956005777" lon="17.54866197085171"><ele>151.0</ele><time>2026-05-03T10:32:18.999Z</time></trkpt><trkpt lat="40.748229002602564" lon="17.548779102354395"><ele>151.0</ele><time>2026-05-03T10:32:20.999Z</time></trkpt><trkpt lat="40.74819934837861" lon="17.548888400534274"><ele>151.0</ele><time>2026-05-03T10:32:22.999Z</time></trkpt><trkpt lat="40.74817244126319" lon="17.54899549705662"><ele>150.83333333333334</ele><time>2026-05-03T10:32:24.999Z</time></trkpt><trkpt lat="40.748135162566264" lon="17.54911348355667"><ele>150.66666666666669</ele><time>2026-05-03T10:32:26.999Z</time></trkpt><trkpt lat="40.748102766313" lon="17.54921956479757"><ele>150.5</ele><time>2026-05-03T10:32:28.999Z</time></trkpt><trkpt lat="40.748079752449385" lon="17.54932315750984"><ele>150.33333333333334</ele><time>2026-05-03T10:32:30.999Z</time></trkpt><trkpt lat="40.74804408669175" lon="17.549439781574307"><ele>150.16666666666666</ele><time>2026-05-03T10:32:32.999Z</time></trkpt><trkpt lat="40.748008171181525" lon="17.54954091049922"><ele>150.0</ele><time>2026-05-03T10:32:34.999Z</time></trkpt><trkpt lat="40.74798419088441" lon="17.549634979072135"><ele>149.66666666666666</ele><time>2026-05-03T10:32:36.999Z</time></trkpt><trkpt lat="40.74795992538863" lon="17.549738675563514"><ele>149.33333333333334</ele><time>2026-05-03T10:32:38.999Z</time></trkpt><trkpt lat="40.747932476976914" lon="17.549830971856444"><ele>149.0</ele><time>2026-05-03T10:32:40.999Z</time></trkpt><trkpt lat="40.747905371724286" lon="17.549924427556043"><ele>148.66666666666669</ele><time>2026-05-03T10:32:42.999Z</time></trkpt><trkpt lat="40.747872350492464" lon="17.550028306337847"><ele>148.33333333333334</ele><time>2026-05-03T10:32:44.999Z</time></trkpt><trkpt lat="40.74784233528811" lon="17.55010469003012"><ele>148.0</ele><time>2026-05-03T10:32:46.999Z</time></trkpt><trkpt lat="40.74780745644772" lon="17.55020443798964"><ele>148.0</ele><time>2026-05-03T10:32:48.999Z</time></trkpt><trkpt lat="40.74777556511318" lon="17.550317414647814"><ele>148.0</ele><time>2026-05-03T10:32:50.999Z</time></trkpt><trkpt lat="40.7477368100727" lon="17.55041194794996"><ele>148.0</ele><time>2026-05-03T10:32:52.999Z</time></trkpt><trkpt lat="40.74769035423355" lon="17.55052197131311"><ele>148.0</ele><time>2026-05-03T10:32:54.999Z</time></trkpt><trkpt lat="40.74765876930942" lon="17.55062599116846"><ele>148.0</ele><time>2026-05-03T10:32:56.999Z</time></trkpt><trkpt lat="40.74761511874527" lon="17.550735761500082"><ele>148.0</ele><time>2026-05-03T10:32:58.999Z</time></trkpt><trkpt lat="40.74757539570575" lon="17.55084608755702"><ele>147.8</ele><time>2026-05-03T10:33:00.999Z</time></trkpt><trkpt lat="40.74753539181463" lon="17.550968713410214"><ele>147.60000000000002</ele><time>2026-05-03T10:33:02.999Z</time></trkpt><trkpt lat="40.74750045566147" lon="17.551092446174923"><ele>147.39999999999998</ele><time>2026-05-03T10:33:04.999Z</time></trkpt><trkpt lat="40.747466936132994" lon="17.55120505980232"><ele>147.2</ele><time>2026-05-03T10:33:06.999Z</time></trkpt><trkpt lat="40.74742994676284" lon="17.55133111784166"><ele>147.0</ele><time>2026-05-03T10:33:08.999Z</time></trkpt><trkpt lat="40.74739711083072" lon="17.55143527317814"><ele>147.0</ele><time>2026-05-03T10:33:10.999Z</time></trkpt><trkpt lat="40.747361368249216" lon="17.551555234459293"><ele>147.0</ele><time>2026-05-03T10:33:12.999Z</time></trkpt><trkpt lat="40.74733326947352" lon="17.551662402826075"><ele>147.0</ele><time>2026-05-03T10:33:14.998Z</time></trkpt><trkpt lat="40.747301745903876" lon="17.55176900567735"><ele>147.0</ele><time>2026-05-03T10:33:16.998Z</time></trkpt><trkpt lat="40.74727396729402" lon="17.551893423322248"><ele>147.0</ele><time>2026-05-03T10:33:18.998Z</time></trkpt><trkpt lat="40.74724996257119" lon="17.551975613428006"><ele>147.0</ele><time>2026-05-03T10:33:20.998Z</time></trkpt><trkpt lat="40.74721281193571" lon="17.552075788678607"><ele>146.0</ele><time>2026-05-03T10:33:22.998Z</time></trkpt><trkpt lat="40.74717369220708" lon="17.552177516629555"><ele>145.0</ele><time>2026-05-03T10:33:25Z</time></trkpt><trkpt lat="40.74713336064183" lon="17.552279936387738"><ele>144.0</ele><time>2026-05-03T10:33:27Z</time></trkpt><trkpt lat="40.74710936184349" lon="17.552386335758673"><ele>143.0</ele><time>2026-05-03T10:33:29Z</time></trkpt><trkpt lat="40.74707136962855" lon="17.552508211244458"><ele>142.0</ele><time>2026-05-03T10:33:31Z</time></trkpt><trkpt lat="40.74701799477222" lon="17.552612138591485"><ele>142.0</ele><time>2026-05-03T10:33:33Z</time></trkpt><trkpt lat="40.74696409232141" lon="17.552704352144435"><ele>142.0</ele><time>2026-05-03T10:33:35Z</time></trkpt><trkpt lat="40.746918081427765" lon="17.552782841920454"><ele>142.0</ele><time>2026-05-03T10:33:37Z</time></trkpt><trkpt lat="40.74685871376307" lon="17.552867697543224"><ele>142.0</ele><time>2026-05-03T10:33:39Z</time></trkpt><trkpt lat="40.746803919166524" lon="17.55296175862285"><ele>142.0</ele><time>2026-05-03T10:33:41Z</time></trkpt><trkpt lat="40.746756094171495" lon="17.553046362032052"><ele>142.0</ele><time>2026-05-03T10:33:43Z</time></trkpt><trkpt lat="40.74670238749778" lon="17.553143436286778"><ele>143.83333333333334</ele><time>2026-05-03T10:33:45Z</time></trkpt><trkpt lat="40.74664632869024" lon="17.553230050550916"><ele>145.66666666666669</ele><time>2026-05-03T10:33:47Z</time></trkpt><trkpt lat="40.746600098965395" lon="17.55332712150798"><ele>147.5</ele><time>2026-05-03T10:33:49Z</time></trkpt><trkpt lat="40.746538905502554" lon="17.55340563845063"><ele>149.33333333333334</ele><time>2026-05-03T10:33:51Z</time></trkpt><trkpt lat="40.74650047664779" lon="17.553502726112868"><ele>151.16666666666666</ele><time>2026-05-03T10:33:53Z</time></trkpt><trkpt lat="40.74645029684399" lon="17.553573012196022"><ele>153.0</ele><time>2026-05-03T10:33:55Z</time></trkpt><trkpt lat="40.7463960414873" lon="17.553655600844362"><ele>152.8</ele><time>2026-05-03T10:33:57Z</time></trkpt><trkpt lat="40.74635180106856" lon="17.55375797547037"><ele>152.60000000000002</ele><time>2026-05-03T10:33:59Z</time></trkpt><trkpt lat="40.74630841947393" lon="17.553860575189244"><ele>152.39999999999998</ele><time>2026-05-03T10:34:01Z</time></trkpt><trkpt lat="40.74626822301939" lon="17.553966656628862"><ele>152.2</ele><time>2026-05-03T10:34:03Z</time></trkpt><trkpt lat="40.74622674023015" lon="17.554077145027428"><ele>152.0</ele><time>2026-05-03T10:34:05Z</time></trkpt><trkpt lat="40.74617747079487" lon="17.554183672822717"><ele>152.0</ele><time>2026-05-03T10:34:07Z</time></trkpt><trkpt lat="40.74612844334762" lon="17.554300422965603"><ele>152.0</ele><time>2026-05-03T10:34:09Z</time></trkpt><trkpt lat="40.74606582433728" lon="17.554407960388463"><ele>152.0</ele><time>2026-05-03T10:34:11Z</time></trkpt><trkpt lat="40.74599404234024" lon="17.55451335904026"><ele>152.0</ele><time>2026-05-03T10:34:13Z</time></trkpt><trkpt lat="40.7459173792484" lon="17.554623228316178"><ele>152.0</ele><time>2026-05-03T10:34:15Z</time></trkpt><trkpt lat="40.74587337306806" lon="17.55468311001877"><ele>151.42857142857142</ele><time>2026-05-03T10:34:16Z</time></trkpt><trkpt lat="40.745805565518374" lon="17.554709315769852"><ele>150.85714285714286</ele><time>2026-05-03T10:34:17Z</time></trkpt><trkpt lat="40.74576032430208" lon="17.554772374689833"><ele>150.28571428571428</ele><time>2026-05-03T10:34:18Z</time></trkpt><trkpt lat="40.745711495810056" lon="17.554840764009906"><ele>149.71428571428572</ele><time>2026-05-03T10:34:18.999Z</time></trkpt><trkpt lat="40.74566093667161" lon="17.5549053475118"><ele>149.14285714285714</ele><time>2026-05-03T10:34:19.999Z</time></trkpt><trkpt lat="40.74560309190812" lon="17.55495946282175"><ele>148.57142857142858</ele><time>2026-05-03T10:34:20.999Z</time></trkpt><trkpt lat="40.745530903484855" lon="17.55500892495541"><ele>148.0</ele><time>2026-05-03T10:34:21.999Z</time></trkpt><trkpt lat="40.74545911044745" lon="17.555057773060078"><ele>148.0</ele><time>2026-05-03T10:34:22.999Z</time></trkpt><trkpt lat="40.74538043214765" lon="17.555128179008946"><ele>148.0</ele><time>2026-05-03T10:34:23.999Z</time></trkpt><trkpt lat="40.745322366394745" lon="17.555228785633258"><ele>148.0</ele><time>2026-05-03T10:34:24.999Z</time></trkpt><trkpt lat="40.745252652081156" lon="17.555326666075313"><ele>148.0</ele><time>2026-05-03T10:34:25.999Z</time></trkpt><trkpt lat="40.74518082390595" lon="17.55541131129894"><ele>148.0</ele><time>2026-05-03T10:34:26.999Z</time></trkpt><trkpt lat="40.74512052837344" lon="17.55551379087067"><ele>145.8</ele><time>2026-05-03T10:34:27.999Z</time></trkpt><trkpt lat="40.74505886686217" lon="17.555631327219842"><ele>143.60000000000002</ele><time>2026-05-03T10:34:28.999Z</time></trkpt><trkpt lat="40.744998871481336" lon="17.555761229471848"><ele>141.39999999999998</ele><time>2026-05-03T10:34:29.999Z</time></trkpt><trkpt lat="40.74493976323545" lon="17.555893584271207"><ele>139.2</ele><time>2026-05-03T10:34:30.999Z</time></trkpt><trkpt lat="40.74488938360659" lon="17.556008337415754"><ele>137.0</ele><time>2026-05-03T10:34:31.999Z</time></trkpt><trkpt lat="40.74480404758444" lon="17.55612292013581"><ele>135.75</ele><time>2026-05-03T10:34:32.999Z</time></trkpt><trkpt lat="40.74470609895558" lon="17.55623218391688"><ele>134.5</ele><time>2026-05-03T10:34:33.999Z</time></trkpt><trkpt lat="40.74462724146117" lon="17.55634502376134"><ele>133.25</ele><time>2026-05-03T10:34:34.999Z</time></trkpt><trkpt lat="40.744548734714606" lon="17.556475923036512"><ele>132.0</ele><time>2026-05-03T10:34:35.999Z</time></trkpt><trkpt lat="40.74448485176095" lon="17.556590339280344"><ele>132.0</ele><time>2026-05-03T10:34:36.999Z</time></trkpt><trkpt lat="40.74442175421147" lon="17.55671874839142"><ele>132.0</ele><time>2026-05-03T10:34:37.999Z</time></trkpt><trkpt lat="40.744374596741274" lon="17.55685823290782"><ele>132.0</ele><time>2026-05-03T10:34:38.999Z</time></trkpt><trkpt lat="40.744302106896555" lon="17.556966460661638"><ele>132.0</ele><time>2026-05-03T10:34:39.999Z</time></trkpt><trkpt lat="40.74421279009841" lon="17.557061647429475"><ele>131.2</ele><time>2026-05-03T10:34:40.999Z</time></trkpt><trkpt lat="40.74410148457136" lon="17.55712479249419"><ele>130.39999999999998</ele><time>2026-05-03T10:34:41.999Z</time></trkpt><trkpt lat="40.74400103280399" lon="17.557151652449633"><ele>129.60000000000002</ele><time>2026-05-03T10:34:42.999Z</time></trkpt><trkpt lat="40.743907227142" lon="17.557202617755678"><ele>128.8</ele><time>2026-05-03T10:34:43.999Z</time></trkpt><trkpt lat="40.74380992639509" lon="17.55725311421608"><ele>128.0</ele><time>2026-05-03T10:34:44.999Z</time></trkpt><trkpt lat="40.74371956738831" lon="17.557308393114905"><ele>128.0</ele><time>2026-05-03T10:34:45.999Z</time></trkpt><trkpt lat="40.74363312514154" lon="17.557365965408273"><ele>128.0</ele><time>2026-05-03T10:34:46.999Z</time></trkpt><trkpt lat="40.74354348361204" lon="17.557419202800254"><ele>128.0</ele><time>2026-05-03T10:34:47.999Z</time></trkpt><trkpt lat="40.74345661076082" lon="17.557467869376783"><ele>128.0</ele><time>2026-05-03T10:34:48.999Z</time></trkpt><trkpt lat="40.74337941721809" lon="17.557506760565897"><ele>128.0</ele><time>2026-05-03T10:34:49.999Z</time></trkpt><trkpt lat="40.743301950257916" lon="17.55755023898017"><ele>127.71428571428571</ele><time>2026-05-03T10:34:50.999Z</time></trkpt><trkpt lat="40.74322438702645" lon="17.557587137683402"><ele>127.42857142857142</ele><time>2026-05-03T10:34:51.999Z</time></trkpt><trkpt lat="40.74314967811044" lon="17.557620469406583"><ele>127.14285714285714</ele><time>2026-05-03T10:34:52.999Z</time></trkpt><trkpt lat="40.74308429858188" lon="17.557670416410524"><ele>126.85714285714286</ele><time>2026-05-03T10:34:53.999Z</time></trkpt><trkpt lat="40.74301605609188" lon="17.557714375421362"><ele>126.57142857142857</ele><time>2026-05-03T10:34:54.999Z</time></trkpt><trkpt lat="40.742968641236956" lon="17.557773951764744"><ele>126.28571428571428</ele><time>2026-05-03T10:34:55.999Z</time></trkpt><trkpt lat="40.742909164399975" lon="17.557812381398282"><ele>126.0</ele><time>2026-05-03T10:34:56.999Z</time></trkpt><trkpt lat="40.742803686321025" lon="17.557884640719664"><ele>126.8</ele><time>2026-05-03T10:34:58.999Z</time></trkpt><trkpt lat="40.742704348971536" lon="17.557964099869125"><ele>127.6</ele><time>2026-05-03T10:35:00.999Z</time></trkpt><trkpt lat="40.74261869316333" lon="17.558028108046464"><ele>128.4</ele><time>2026-05-03T10:35:02.999Z</time></trkpt><trkpt lat="40.742534518751654" lon="17.55807133665666"><ele>129.2</ele><time>2026-05-03T10:35:04.999Z</time></trkpt><trkpt lat="40.74243653897013" lon="17.558121203896498"><ele>130.0</ele><time>2026-05-03T10:35:06.999Z</time></trkpt><trkpt lat="40.74234660461595" lon="17.55816572608229"><ele>130.0</ele><time>2026-05-03T10:35:08.999Z</time></trkpt><trkpt lat="40.7422698130073" lon="17.558209848014613"><ele>130.0</ele><time>2026-05-03T10:35:10.999Z</time></trkpt><trkpt lat="40.74219542039912" lon="17.558245360077443"><ele>130.0</ele><time>2026-05-03T10:35:12.999Z</time></trkpt><trkpt lat="40.742133708175096" lon="17.558282517589344"><ele>130.0</ele><time>2026-05-03T10:35:14.999Z</time></trkpt><trkpt lat="40.742061254727155" lon="17.55832173998627"><ele>130.0</ele><time>2026-05-03T10:35:17.999Z</time></trkpt><trkpt lat="40.741991922436085" lon="17.55838635056891"><ele>130.0</ele><time>2026-05-03T10:35:28.998Z</time></trkpt><trkpt lat="40.74192099705175" lon="17.558450146097297"><ele>130.4</ele><time>2026-05-03T10:35:32Z</time></trkpt><trkpt lat="40.74184847529819" lon="17.55853686787724"><ele>130.8</ele><time>2026-05-03T10:35:34Z</time></trkpt><trkpt lat="40.74175546596073" lon="17.558607652334594"><ele>131.2</ele><time>2026-05-03T10:35:36Z</time></trkpt><trkpt lat="40.741650470587366" lon="17.5586421070481"><ele>131.6</ele><time>2026-05-03T10:35:38Z</time></trkpt><trkpt lat="40.74158863193991" lon="17.558659459422028"><ele>132.0</ele><time>2026-05-03T10:35:39Z</time></trkpt><trkpt lat="40.741470854024385" lon="17.558724930337707"><ele>131.16666666666666</ele><time>2026-05-03T10:35:41Z</time></trkpt><trkpt lat="40.74140803375423" lon="17.558765595034853"><ele>130.33333333333334</ele><time>2026-05-03T10:35:42Z</time></trkpt><trkpt lat="40.741349471212054" lon="17.558806780869034"><ele>129.5</ele><time>2026-05-03T10:35:43Z</time></trkpt><trkpt lat="40.741269903348346" lon="17.55886988490466"><ele>128.66666666666669</ele><time>2026-05-03T10:35:45Z</time></trkpt><trkpt lat="40.74119954570258" lon="17.558962818184938"><ele>127.83333333333334</ele><time>2026-05-03T10:35:47Z</time></trkpt><trkpt lat="40.741134575436774" lon="17.559009449958847"><ele>127.0</ele><time>2026-05-03T10:35:49Z</time></trkpt><trkpt lat="40.741106026424994" lon="17.559136936436527"><ele>127.00000000000001</ele><time>2026-05-03T10:35:51Z</time></trkpt><trkpt lat="40.74107427976504" lon="17.559246390416675"><ele>127.0</ele><time>2026-05-03T10:35:53Z</time></trkpt><trkpt lat="40.741038048834795" lon="17.559356332967127"><ele>127.0</ele><time>2026-05-03T10:35:55Z</time></trkpt><trkpt lat="40.74100068908757" lon="17.55946479101961"><ele>127.0</ele><time>2026-05-03T10:35:57Z</time></trkpt><trkpt lat="40.74096377668988" lon="17.559562866454062"><ele>127.00000000000001</ele><time>2026-05-03T10:35:59Z</time></trkpt><trkpt lat="40.74094931591236" lon="17.559686368220426"><ele>127.0</ele><time>2026-05-03T10:36:01Z</time></trkpt><trkpt lat="40.740896792018" lon="17.55980021569945"><ele>127.39999999999999</ele><time>2026-05-03T10:36:03Z</time></trkpt><trkpt lat="40.74083785297038" lon="17.559930011842166"><ele>127.79999999999998</ele><time>2026-05-03T10:36:05Z</time></trkpt><trkpt lat="40.74078415096164" lon="17.560060313495498"><ele>128.2</ele><time>2026-05-03T10:36:07Z</time></trkpt><trkpt lat="40.74075206197896" lon="17.560138123770997"><ele>128.6</ele><time>2026-05-03T10:36:08Z</time></trkpt><trkpt lat="40.7406975751139" lon="17.560278568621115"><ele>129.0</ele><time>2026-05-03T10:36:10Z</time></trkpt><trkpt lat="40.74063681501596" lon="17.560409056464096"><ele>129.0</ele><time>2026-05-03T10:36:12Z</time></trkpt><trkpt lat="40.740576345487746" lon="17.56054391172336"><ele>129.0</ele><time>2026-05-03T10:36:14Z</time></trkpt><trkpt lat="40.74051643365984" lon="17.560671790584205"><ele>129.0</ele><time>2026-05-03T10:36:16Z</time></trkpt><trkpt lat="40.74045667366893" lon="17.560791608851066"><ele>129.0</ele><time>2026-05-03T10:36:17.999Z</time></trkpt><trkpt lat="40.7404062233773" lon="17.560918171707268"><ele>129.0</ele><time>2026-05-03T10:36:19.999Z</time></trkpt><trkpt lat="40.7403456586001" lon="17.561060265883146"><ele>129.0</ele><time>2026-05-03T10:36:21.999Z</time></trkpt><trkpt lat="40.74033338681717" lon="17.56121412869606"><ele>129.0</ele><time>2026-05-03T10:36:23.999Z</time></trkpt><trkpt lat="40.74027843313477" lon="17.561358332240125"><ele>129.0</ele><time>2026-05-03T10:36:25.999Z</time></trkpt><trkpt lat="40.74020062848279" lon="17.56147120042902"><ele>130.0</ele><time>2026-05-03T10:36:27.999Z</time></trkpt><trkpt lat="40.7401397929308" lon="17.56160667215419"><ele>131.0</ele><time>2026-05-03T10:36:29.999Z</time></trkpt><trkpt lat="40.74007030844782" lon="17.561736912776404"><ele>132.0</ele><time>2026-05-03T10:36:31.999Z</time></trkpt><trkpt lat="40.740002669674766" lon="17.56186755533145"><ele>133.0</ele><time>2026-05-03T10:36:33.999Z</time></trkpt><trkpt lat="40.739948229106936" lon="17.561996377653422"><ele>132.5</ele><time>2026-05-03T10:36:35.999Z</time></trkpt><trkpt lat="40.73988813300814" lon="17.56213709636143"><ele>132.0</ele><time>2026-05-03T10:36:37.999Z</time></trkpt><trkpt lat="40.739869049741074" lon="17.562284400630816"><ele>131.5</ele><time>2026-05-03T10:36:39.999Z</time></trkpt><trkpt lat="40.73985424269407" lon="17.56244281899765"><ele>131.0</ele><time>2026-05-03T10:36:41.999Z</time></trkpt><trkpt lat="40.7398378513495" lon="17.562604650001155"><ele>131.0</ele><time>2026-05-03T10:36:43.999Z</time></trkpt><trkpt lat="40.7398224002548" lon="17.562686327228178"><ele>131.0</ele><time>2026-05-03T10:36:44.999Z</time></trkpt><trkpt lat="40.73982642734985" lon="17.562803351600298"><ele>131.0</ele><time>2026-05-03T10:36:46.999Z</time></trkpt><trkpt lat="40.73986864368202" lon="17.562950007567984"><ele>131.0</ele><time>2026-05-03T10:36:48.999Z</time></trkpt><trkpt lat="40.73991430687284" lon="17.563089762625218"><ele>131.0</ele><time>2026-05-03T10:36:50.999Z</time></trkpt><trkpt lat="40.73991067256897" lon="17.563253400563017"><ele>131.0</ele><time>2026-05-03T10:36:52.999Z</time></trkpt><trkpt lat="40.739916559988096" lon="17.563391794390807"><ele>131.0</ele><time>2026-05-03T10:36:54.999Z</time></trkpt><trkpt lat="40.739914162380806" lon="17.563525090962226"><ele>131.0</ele><time>2026-05-03T10:36:56.999Z</time></trkpt><trkpt lat="40.73991966230025" lon="17.563672133789463"><ele>131.0</ele><time>2026-05-03T10:36:58.999Z</time></trkpt><trkpt lat="40.73991803226295" lon="17.563809023194366"><ele>131.0</ele><time>2026-05-03T10:37:00.999Z</time></trkpt><trkpt lat="40.7399131350873" lon="17.563938836694142"><ele>131.0</ele><time>2026-05-03T10:37:02.999Z</time></trkpt><trkpt lat="40.73989247151997" lon="17.564054413715446"><ele>131.0</ele><time>2026-05-03T10:37:04.999Z</time></trkpt><trkpt lat="40.739858088643935" lon="17.56415844243224"><ele>131.0</ele><time>2026-05-03T10:37:06.999Z</time></trkpt><trkpt lat="40.739813049393575" lon="17.56428299772997"><ele>131.0</ele><time>2026-05-03T10:37:08.999Z</time></trkpt><trkpt lat="40.739787448202975" lon="17.564359358330673"><ele>131.0</ele><time>2026-05-03T10:37:09.999Z</time></trkpt><trkpt lat="40.739763156961345" lon="17.564442955744134"><ele>131.0</ele><time>2026-05-03T10:37:10.999Z</time></trkpt><trkpt lat="40.73973535651024" lon="17.564530177727075"><ele>131.0</ele><time>2026-05-03T10:37:11.999Z</time></trkpt><trkpt lat="40.73968000232676" lon="17.564659924417416"><ele>131.0</ele><time>2026-05-03T10:37:13.999Z</time></trkpt><trkpt lat="40.73961124433428" lon="17.56478946867064"><ele>131.0</ele><time>2026-05-03T10:37:15.999Z</time></trkpt><trkpt lat="40.73957461656372" lon="17.56486387688518"><ele>131.0</ele><time>2026-05-03T10:37:16.999Z</time></trkpt><trkpt lat="40.73949342702271" lon="17.564981133363855"><ele>131.0</ele><time>2026-05-03T10:37:18.999Z</time></trkpt><trkpt lat="40.7394225342393" lon="17.565103135721245"><ele>131.4</ele><time>2026-05-03T10:37:20.999Z</time></trkpt><trkpt lat="40.7393828803908" lon="17.565171884233582"><ele>131.8</ele><time>2026-05-03T10:37:21.998Z</time></trkpt><trkpt lat="40.73930736983611" lon="17.56529239518913"><ele>132.20000000000002</ele><time>2026-05-03T10:37:23.998Z</time></trkpt><trkpt lat="40.739241303629676" lon="17.56541286167544"><ele>132.6</ele><time>2026-05-03T10:37:25.998Z</time></trkpt><trkpt lat="40.73916887813265" lon="17.565518745416515"><ele>133.0</ele><time>2026-05-03T10:37:27.998Z</time></trkpt><trkpt lat="40.73909035327416" lon="17.565607854049045"><ele>133.0</ele><time>2026-05-03T10:37:29.998Z</time></trkpt><trkpt lat="40.73904316285363" lon="17.565724557179003"><ele>133.0</ele><time>2026-05-03T10:37:31.998Z</time></trkpt><trkpt lat="40.73907862282235" lon="17.565809684412706"><ele>133.0</ele><time>2026-05-03T10:37:33.998Z</time></trkpt><trkpt lat="40.73915714450567" lon="17.565790702906728"><ele>133.0</ele><time>2026-05-03T10:37:36Z</time></trkpt><trkpt lat="40.73924155271108" lon="17.565755695549278"><ele>133.0</ele><time>2026-05-03T10:37:38Z</time></trkpt><trkpt lat="40.739334551358844" lon="17.565752321660668"><ele>133.0</ele><time>2026-05-03T10:37:40Z</time></trkpt><trkpt lat="40.73939863811646" lon="17.565735782746515"><ele>132.4</ele><time>2026-05-03T10:37:41Z</time></trkpt><trkpt lat="40.73952597786569" lon="17.565694790619382"><ele>131.8</ele><time>2026-05-03T10:37:43Z</time></trkpt><trkpt lat="40.739610763524055" lon="17.565679253369524"><ele>131.2</ele><time>2026-05-03T10:37:45Z</time></trkpt><trkpt lat="40.73967900094515" lon="17.565663088223115"><ele>130.6</ele><time>2026-05-03T10:37:46Z</time></trkpt><trkpt lat="40.7397801854717" lon="17.565647286066866"><ele>130.0</ele><time>2026-05-03T10:37:48Z</time></trkpt><trkpt lat="40.73985924110935" lon="17.565664080491924"><ele>130.0</ele><time>2026-05-03T10:37:50Z</time></trkpt><trkpt lat="40.739879485196326" lon="17.565772234596103"><ele>130.0</ele><time>2026-05-03T10:37:52Z</time></trkpt><trkpt lat="40.73985472673589" lon="17.565877458183426"><ele>130.0</ele><time>2026-05-03T10:37:54Z</time></trkpt><trkpt lat="40.73984456109368" lon="17.56599711407025"><ele>130.0</ele><time>2026-05-03T10:37:56Z</time></trkpt><trkpt lat="40.73985627239158" lon="17.56613759380462"><ele>130.0</ele><time>2026-05-03T10:37:58Z</time></trkpt><trkpt lat="40.739870767355974" lon="17.566272805470305"><ele>129.6</ele><time>2026-05-03T10:38:00Z</time></trkpt><trkpt lat="40.73984757425882" lon="17.566409380986574"><ele>129.2</ele><time>2026-05-03T10:38:02Z</time></trkpt><trkpt lat="40.73979194540253" lon="17.566524825780103"><ele>128.8</ele><time>2026-05-03T10:38:04Z</time></trkpt><trkpt lat="40.73970000851479" lon="17.566579204708404"><ele>128.4</ele><time>2026-05-03T10:38:06Z</time></trkpt><trkpt lat="40.73960663196617" lon="17.56665325461166"><ele>128.0</ele><time>2026-05-03T10:38:08Z</time></trkpt><trkpt lat="40.73954355124352" lon="17.566786022512304"><ele>128.0</ele><time>2026-05-03T10:38:10Z</time></trkpt><trkpt lat="40.73949837312196" lon="17.5669311250883"><ele>128.0</ele><time>2026-05-03T10:38:12Z</time></trkpt><trkpt lat="40.73945031175054" lon="17.567072882955756"><ele>128.0</ele><time>2026-05-03T10:38:14Z</time></trkpt><trkpt lat="40.739386481858205" lon="17.56719590699106"><ele>128.0</ele><time>2026-05-03T10:38:16Z</time></trkpt><trkpt lat="40.73932238580294" lon="17.5673081381328"><ele>128.8</ele><time>2026-05-03T10:38:18Z</time></trkpt><trkpt lat="40.73926522524754" lon="17.56740474776168"><ele>129.60000000000002</ele><time>2026-05-03T10:38:20Z</time></trkpt><trkpt lat="40.739210417595054" lon="17.567513428580238"><ele>130.39999999999998</ele><time>2026-05-03T10:38:22Z</time></trkpt><trkpt lat="40.73914374729129" lon="17.56766787693942"><ele>131.2</ele><time>2026-05-03T10:38:24Z</time></trkpt><trkpt lat="40.73909009759393" lon="17.567761184724475"><ele>132.0</ele><time>2026-05-03T10:38:25.999Z</time></trkpt><trkpt lat="40.73904048195414" lon="17.567862269224925"><ele>132.2</ele><time>2026-05-03T10:38:27.999Z</time></trkpt><trkpt lat="40.738993291271846" lon="17.567977783835108"><ele>132.39999999999998</ele><time>2026-05-03T10:38:29.999Z</time></trkpt><trkpt lat="40.738951826192185" lon="17.568099064933907"><ele>132.60000000000002</ele><time>2026-05-03T10:38:31.999Z</time></trkpt><trkpt lat="40.73890735245711" lon="17.568222255890305"><ele>132.8</ele><time>2026-05-03T10:38:33.999Z</time></trkpt><trkpt lat="40.73887512420338" lon="17.568340148060233"><ele>133.0</ele><time>2026-05-03T10:38:35.999Z</time></trkpt><trkpt lat="40.738841732743104" lon="17.568461959803354"><ele>133.0</ele><time>2026-05-03T10:38:37.999Z</time></trkpt><trkpt lat="40.73881360096348" lon="17.568599711535164"><ele>133.0</ele><time>2026-05-03T10:38:39.999Z</time></trkpt><trkpt lat="40.738783406040554" lon="17.568717769535116"><ele>133.0</ele><time>2026-05-03T10:38:41.999Z</time></trkpt><trkpt lat="40.73874688062747" lon="17.568855537232142"><ele>133.0</ele><time>2026-05-03T10:38:43.999Z</time></trkpt><trkpt lat="40.73870749854754" lon="17.56899597594405"><ele>133.0</ele><time>2026-05-03T10:38:45.999Z</time></trkpt><trkpt lat="40.738660681409975" lon="17.56912702058061"><ele>132.8</ele><time>2026-05-03T10:38:47.999Z</time></trkpt><trkpt lat="40.73861324556007" lon="17.56925402132184"><ele>132.60000000000002</ele><time>2026-05-03T10:38:49.999Z</time></trkpt><trkpt lat="40.738559912672095" lon="17.56938428119576"><ele>132.39999999999998</ele><time>2026-05-03T10:38:51.999Z</time></trkpt><trkpt lat="40.73849224123521" lon="17.56948370687247"><ele>132.2</ele><time>2026-05-03T10:38:53.999Z</time></trkpt><trkpt lat="40.73841263999974" lon="17.56958686101942"><ele>132.0</ele><time>2026-05-03T10:38:55.999Z</time></trkpt><trkpt lat="40.73834392727831" lon="17.569702323626288"><ele>133.2</ele><time>2026-05-03T10:38:57.999Z</time></trkpt><trkpt lat="40.73828639705587" lon="17.569822036105343"><ele>134.39999999999998</ele><time>2026-05-03T10:38:59.999Z</time></trkpt><trkpt lat="40.73824864982295" lon="17.569951522138208"><ele>135.60000000000002</ele><time>2026-05-03T10:39:01.999Z</time></trkpt><trkpt lat="40.738215787200325" lon="17.57008945215597"><ele>136.8</ele><time>2026-05-03T10:39:03.999Z</time></trkpt><trkpt lat="40.7381765592337" lon="17.57021840254185"><ele>138.0</ele><time>2026-05-03T10:39:05.999Z</time></trkpt><trkpt lat="40.73813824344977" lon="17.570353817960164"><ele>138.0</ele><time>2026-05-03T10:39:07.999Z</time></trkpt><trkpt lat="40.73810323144333" lon="17.57048515502339"><ele>138.0</ele><time>2026-05-03T10:39:09.999Z</time></trkpt><trkpt lat="40.738066291493936" lon="17.570622775540386"><ele>138.0</ele><time>2026-05-03T10:39:11.999Z</time></trkpt><trkpt lat="40.738030758629826" lon="17.570750773516707"><ele>138.0</ele><time>2026-05-03T10:39:13.999Z</time></trkpt><trkpt lat="40.73797891917313" lon="17.570897294828054"><ele>138.0</ele><time>2026-05-03T10:39:15.999Z</time></trkpt><trkpt lat="40.73792310605681" lon="17.570992472533163"><ele>138.0</ele><time>2026-05-03T10:39:17.999Z</time></trkpt><trkpt lat="40.737852410176" lon="17.571079167661193"><ele>138.0</ele><time>2026-05-03T10:39:19.999Z</time></trkpt><trkpt lat="40.73777906157044" lon="17.571182065189518"><ele>138.0</ele><time>2026-05-03T10:39:21.999Z</time></trkpt><trkpt lat="40.73771619826861" lon="17.571260340051193"><ele>138.0</ele><time>2026-05-03T10:39:23.999Z</time></trkpt><trkpt lat="40.73763760556628" lon="17.571340640495517"><ele>138.0</ele><time>2026-05-03T10:39:25.999Z</time></trkpt><trkpt lat="40.7375544060447" lon="17.571420326878762"><ele>140.20000000000002</ele><time>2026-05-03T10:39:27.998Z</time></trkpt><trkpt lat="40.737469391210254" lon="17.571479057611526"><ele>142.4</ele><time>2026-05-03T10:39:29.998Z</time></trkpt><trkpt lat="40.73739448687226" lon="17.571532039171817"><ele>144.60000000000002</ele><time>2026-05-03T10:39:31.998Z</time></trkpt><trkpt lat="40.7373185256537" lon="17.571607079832567"><ele>146.8</ele><time>2026-05-03T10:39:33.998Z</time></trkpt><trkpt lat="40.73723865462499" lon="17.571693605393474"><ele>149.0</ele><time>2026-05-03T10:39:35.998Z</time></trkpt><trkpt lat="40.73716386229458" lon="17.57177997737463"><ele>149.0</ele><time>2026-05-03T10:39:37.998Z</time></trkpt><trkpt lat="40.737087766507805" lon="17.57186187173105"><ele>149.0</ele><time>2026-05-03T10:39:39.998Z</time></trkpt><trkpt lat="40.737000150085514" lon="17.571925876896586"><ele>149.0</ele><time>2026-05-03T10:39:42Z</time></trkpt><trkpt lat="40.7369168370653" lon="17.571989098170953"><ele>149.0</ele><time>2026-05-03T10:39:44Z</time></trkpt><trkpt lat="40.73683787502198" lon="17.572057034690836"><ele>149.0</ele><time>2026-05-03T10:39:46Z</time></trkpt><trkpt lat="40.736762438573635" lon="17.57210952471759"><ele>150.5</ele><time>2026-05-03T10:39:48Z</time></trkpt><trkpt lat="40.736688538595274" lon="17.572129972205015"><ele>152.0</ele><time>2026-05-03T10:39:50Z</time></trkpt><trkpt lat="40.7366522089516" lon="17.572044761282225"><ele>153.5</ele><time>2026-05-03T10:39:52Z</time></trkpt><trkpt lat="40.73660805920266" lon="17.57197453688427"><ele>155.0</ele><time>2026-05-03T10:39:54Z</time></trkpt><trkpt lat="40.736541818628645" lon="17.57193616362823"><ele>156.5</ele><time>2026-05-03T10:39:56Z</time></trkpt><trkpt lat="40.73646076559169" lon="17.57191136169855"><ele>158.0</ele><time>2026-05-03T10:39:58Z</time></trkpt><trkpt lat="40.73637486896906" lon="17.571927785769205"><ele>158.0</ele><time>2026-05-03T10:40:00Z</time></trkpt><trkpt lat="40.73629823427581" lon="17.571989936032676"><ele>158.0</ele><time>2026-05-03T10:40:02Z</time></trkpt><trkpt lat="40.73624387706473" lon="17.572083264408676"><ele>158.0</ele><time>2026-05-03T10:40:04Z</time></trkpt><trkpt lat="40.73621910295127" lon="17.57218187276221"><ele>158.0</ele><time>2026-05-03T10:40:06Z</time></trkpt><trkpt lat="40.7362081506796" lon="17.572288801349192"><ele>158.0</ele><time>2026-05-03T10:40:08Z</time></trkpt><trkpt lat="40.73619478248553" lon="17.572406689332443"><ele>158.0</ele><time>2026-05-03T10:40:10Z</time></trkpt><trkpt lat="40.7361805112308" lon="17.572510186265973"><ele>158.16666666666666</ele><time>2026-05-03T10:40:12Z</time></trkpt><trkpt lat="40.73616696903527" lon="17.5726172626537"><ele>158.33333333333331</ele><time>2026-05-03T10:40:14Z</time></trkpt><trkpt lat="40.736151365446005" lon="17.572722195836096"><ele>158.5</ele><time>2026-05-03T10:40:16Z</time></trkpt><trkpt lat="40.736137058231435" lon="17.572825420036054"><ele>158.66666666666666</ele><time>2026-05-03T10:40:18Z</time></trkpt><trkpt lat="40.73611907757864" lon="17.572930022888034"><ele>158.83333333333334</ele><time>2026-05-03T10:40:20Z</time></trkpt><trkpt lat="40.73611014568989" lon="17.5730284297003"><ele>159.0</ele><time>2026-05-03T10:40:22Z</time></trkpt><trkpt lat="40.736091907250945" lon="17.573136047472858"><ele>159.33333333333334</ele><time>2026-05-03T10:40:24Z</time></trkpt><trkpt lat="40.73607808811585" lon="17.573247712364825"><ele>159.66666666666666</ele><time>2026-05-03T10:40:26Z</time></trkpt><trkpt lat="40.73606397686613" lon="17.573367176134678"><ele>160.0</ele><time>2026-05-03T10:40:28Z</time></trkpt><trkpt lat="40.73604526434924" lon="17.57348518149485"><ele>160.33333333333331</ele><time>2026-05-03T10:40:30Z</time></trkpt><trkpt lat="40.73602735290252" lon="17.573604095021775"><ele>160.66666666666666</ele><time>2026-05-03T10:40:31.999Z</time></trkpt><trkpt lat="40.73600920121682" lon="17.573718193341676"><ele>161.0</ele><time>2026-05-03T10:40:33.999Z</time></trkpt><trkpt lat="40.73599740592295" lon="17.573835182539923"><ele>162.33333333333331</ele><time>2026-05-03T10:40:35.999Z</time></trkpt><trkpt lat="40.73597970524504" lon="17.573951080221672"><ele>163.66666666666666</ele><time>2026-05-03T10:40:37.999Z</time></trkpt><trkpt lat="40.73596292432308" lon="17.574069908317362"><ele>165.0</ele><time>2026-05-03T10:40:39.999Z</time></trkpt><trkpt lat="40.73594915577545" lon="17.57418319836287"><ele>166.33333333333334</ele><time>2026-05-03T10:40:41.999Z</time></trkpt><trkpt lat="40.735937010444744" lon="17.574298080717625"><ele>167.66666666666669</ele><time>2026-05-03T10:40:43.999Z</time></trkpt><trkpt lat="40.73592169784011" lon="17.57440991205812"><ele>169.0</ele><time>2026-05-03T10:40:45.999Z</time></trkpt><trkpt lat="40.735901392369975" lon="17.574524815556238"><ele>169.39999999999998</ele><time>2026-05-03T10:40:47.999Z</time></trkpt><trkpt lat="40.735886455677026" lon="17.574642442119895"><ele>169.8</ele><time>2026-05-03T10:40:49.999Z</time></trkpt><trkpt lat="40.73586985863952" lon="17.574755494963682"><ele>170.2</ele><time>2026-05-03T10:40:51.999Z</time></trkpt><trkpt lat="40.73585334441721" lon="17.57487113839121"><ele>170.60000000000002</ele><time>2026-05-03T10:40:53.999Z</time></trkpt><trkpt lat="40.73583388771083" lon="17.574993842212184"><ele>171.0</ele><time>2026-05-03T10:40:55.999Z</time></trkpt><trkpt lat="40.73581388827987" lon="17.575109717759037"><ele>171.0</ele><time>2026-05-03T10:40:57.999Z</time></trkpt><trkpt lat="40.73579662134799" lon="17.57522718531855"><ele>171.0</ele><time>2026-05-03T10:40:59.999Z</time></trkpt><trkpt lat="40.73578005968845" lon="17.57533390202175"><ele>171.0</ele><time>2026-05-03T10:41:01.999Z</time></trkpt><trkpt lat="40.73575554631832" lon="17.57545120525528"><ele>171.0</ele><time>2026-05-03T10:41:03.999Z</time></trkpt><trkpt lat="40.735723566891586" lon="17.5755668798002"><ele>171.0</ele><time>2026-05-03T10:41:05.999Z</time></trkpt><trkpt lat="40.73568512106007" lon="17.5756845713501"><ele>171.8</ele><time>2026-05-03T10:41:07.999Z</time></trkpt><trkpt lat="40.735628167040076" lon="17.575782681634482"><ele>172.60000000000002</ele><time>2026-05-03T10:41:09.999Z</time></trkpt><trkpt lat="40.7355660610953" lon="17.57585218376406"><ele>173.4</ele><time>2026-05-03T10:41:11.999Z</time></trkpt><trkpt lat="40.73548420365478" lon="17.575927043486924"><ele>174.2</ele><time>2026-05-03T10:41:13.999Z</time></trkpt><trkpt lat="40.73539813266713" lon="17.575967561568874"><ele>175.0</ele><time>2026-05-03T10:41:15.999Z</time></trkpt><trkpt lat="40.73530504377522" lon="17.57599751948456"><ele>175.6</ele><time>2026-05-03T10:41:17.999Z</time></trkpt><trkpt lat="40.73521344048739" lon="17.576018892513137"><ele>176.2</ele><time>2026-05-03T10:41:19.999Z</time></trkpt><trkpt lat="40.735120509003835" lon="17.576034430570626"><ele>176.8</ele><time>2026-05-03T10:41:21.999Z</time></trkpt><trkpt lat="40.73503469665797" lon="17.57604502680008"><ele>177.4</ele><time>2026-05-03T10:41:23.999Z</time></trkpt><trkpt lat="40.734937853613985" lon="17.57606827462221"><ele>178.0</ele><time>2026-05-03T10:41:25.999Z</time></trkpt><trkpt lat="40.73484524796635" lon="17.57607784347863"><ele>178.0</ele><time>2026-05-03T10:41:27.999Z</time></trkpt><trkpt lat="40.73476536206199" lon="17.57608188791495"><ele>178.0</ele><time>2026-05-03T10:41:29.999Z</time></trkpt><trkpt lat="40.73468477223434" lon="17.576089717391135"><ele>178.0</ele><time>2026-05-03T10:41:31.998Z</time></trkpt><trkpt lat="40.73461142901675" lon="17.576073718188233"><ele>178.0</ele><time>2026-05-03T10:41:33.998Z</time></trkpt><trkpt lat="40.73452030035778" lon="17.576061441650502"><ele>178.0</ele><time>2026-05-03T10:41:35.998Z</time></trkpt><trkpt lat="40.734425373382344" lon="17.576032732586317"><ele>178.0</ele><time>2026-05-03T10:41:37.998Z</time></trkpt><trkpt lat="40.73432534619068" lon="17.576007847495113"><ele>179.4</ele><time>2026-05-03T10:41:39.998Z</time></trkpt><trkpt lat="40.73422506773237" lon="17.575983310535285"><ele>180.8</ele><time>2026-05-03T10:41:41.998Z</time></trkpt><trkpt lat="40.73412640885786" lon="17.575965025874073"><ele>182.2</ele><time>2026-05-03T10:41:43.998Z</time></trkpt><trkpt lat="40.734024729061865" lon="17.57595620926136"><ele>183.6</ele><time>2026-05-03T10:41:45.998Z</time></trkpt><trkpt lat="40.73392600091937" lon="17.5759405716882"><ele>185.0</ele><time>2026-05-03T10:41:48Z</time></trkpt><trkpt lat="40.73382983075173" lon="17.575957826516657"><ele>185.0</ele><time>2026-05-03T10:41:50Z</time></trkpt><trkpt lat="40.73372606783199" lon="17.57599613970661"><ele>185.0</ele><time>2026-05-03T10:41:52Z</time></trkpt><trkpt lat="40.733642629616945" lon="17.576037806461397"><ele>185.0</ele><time>2026-05-03T10:41:54Z</time></trkpt><trkpt lat="40.73356188122416" lon="17.576093329772423"><ele>185.0</ele><time>2026-05-03T10:41:56Z</time></trkpt><trkpt lat="40.733501056812834" lon="17.57615064776692"><ele>185.0</ele><time>2026-05-03T10:41:58Z</time></trkpt><trkpt lat="40.73343999624605" lon="17.576234360467904"><ele>186.99999999999997</ele><time>2026-05-03T10:42:01Z</time></trkpt><trkpt lat="40.73350595070796" lon="17.576259612594246"><ele>189.0</ele><time>2026-05-03T10:42:09Z</time></trkpt><trkpt lat="40.733560187144754" lon="17.576302526151203"><ele>191.0</ele><time>2026-05-03T10:42:17Z</time></trkpt><trkpt lat="40.73362290688666" lon="17.576290901626475"><ele>193.0</ele><time>2026-05-03T10:42:19Z</time></trkpt><trkpt lat="40.73368870893665" lon="17.576306234782763"><ele>195.0</ele><time>2026-05-03T10:42:21Z</time></trkpt><trkpt lat="40.73376589084488" lon="17.57634882947412"><ele>196.99999999999997</ele><time>2026-05-03T10:42:24Z</time></trkpt><trkpt lat="40.733854292789275" lon="17.57638696547738"><ele>199.0</ele><time>2026-05-03T10:42:27Z</time></trkpt><trkpt lat="40.733955940272565" lon="17.57642121856624"><ele>199.49999999999997</ele><time>2026-05-03T10:42:30Z</time></trkpt><trkpt lat="40.734028968476814" lon="17.576417929063027"><ele>200.0</ele><time>2026-05-03T10:42:32Z</time></trkpt><trkpt lat="40.73408367227818" lon="17.5764618996179"><ele>200.5</ele><time>2026-05-03T10:42:33.999Z</time></trkpt><trkpt lat="40.73415061302539" lon="17.576498438481508"><ele>201.0</ele><time>2026-05-03T10:42:35.999Z</time></trkpt><trkpt lat="40.7342333015971" lon="17.576538565116216"><ele>201.49999999999997</ele><time>2026-05-03T10:42:37.999Z</time></trkpt><trkpt lat="40.73430483738296" lon="17.576585132891076"><ele>202.0</ele><time>2026-05-03T10:42:39.999Z</time></trkpt><trkpt lat="40.73438108700258" lon="17.576634853827898"><ele>200.8</ele><time>2026-05-03T10:42:41.999Z</time></trkpt><trkpt lat="40.7344521091932" lon="17.576687167984"><ele>199.6</ele><time>2026-05-03T10:42:43.999Z</time></trkpt><trkpt lat="40.734515391273284" lon="17.576761169407572"><ele>198.4</ele><time>2026-05-03T10:42:45.999Z</time></trkpt><trkpt lat="40.73458387819455" lon="17.57684989411053"><ele>197.20000000000002</ele><time>2026-05-03T10:42:47.999Z</time></trkpt><trkpt lat="40.734654605528924" lon="17.576943265841972"><ele>196.0</ele><time>2026-05-03T10:42:49.999Z</time></trkpt><trkpt lat="40.73473281768458" lon="17.57703638061351"><ele>196.0</ele><time>2026-05-03T10:42:51.999Z</time></trkpt><trkpt lat="40.7347919300345" lon="17.57713712286343"><ele>196.0</ele><time>2026-05-03T10:42:53.999Z</time></trkpt><trkpt lat="40.73485056749626" lon="17.577236638105514"><ele>196.0</ele><time>2026-05-03T10:42:55.999Z</time></trkpt><trkpt lat="40.7348946202628" lon="17.57734176831174"><ele>196.0</ele><time>2026-05-03T10:42:57.999Z</time></trkpt><trkpt lat="40.73494115729535" lon="17.577455607580912"><ele>196.0</ele><time>2026-05-03T10:42:59.999Z</time></trkpt><trkpt lat="40.73499471209529" lon="17.577560773871543"><ele>196.0</ele><time>2026-05-03T10:43:01.999Z</time></trkpt><trkpt lat="40.73502872308545" lon="17.577675515614413"><ele>196.0</ele><time>2026-05-03T10:43:03.999Z</time></trkpt><trkpt lat="40.73505750343016" lon="17.577793547266786"><ele>196.0</ele><time>2026-05-03T10:43:05.999Z</time></trkpt><trkpt lat="40.73506394803449" lon="17.57791125343452"><ele>196.0</ele><time>2026-05-03T10:43:07.999Z</time></trkpt><trkpt lat="40.73507003223622" lon="17.578054489135138"><ele>196.0</ele><time>2026-05-03T10:43:09.999Z</time></trkpt><trkpt lat="40.73507292553892" lon="17.57819539994607"><ele>197.0</ele><time>2026-05-03T10:43:11.999Z</time></trkpt><trkpt lat="40.735083587885185" lon="17.578337612395707"><ele>198.0</ele><time>2026-05-03T10:43:13.999Z</time></trkpt><trkpt lat="40.73509236324214" lon="17.578468780629553"><ele>199.0</ele><time>2026-05-03T10:43:15.999Z</time></trkpt><trkpt lat="40.735110121325384" lon="17.578605466093723"><ele>200.0</ele><time>2026-05-03T10:43:17.999Z</time></trkpt><trkpt lat="40.735123466762126" lon="17.578745540494246"><ele>201.0</ele><time>2026-05-03T10:43:19.999Z</time></trkpt><trkpt lat="40.73513892144577" lon="17.578865144286905"><ele>201.20000000000002</ele><time>2026-05-03T10:43:21.999Z</time></trkpt><trkpt lat="40.73514046161051" lon="17.5789958163746"><ele>201.4</ele><time>2026-05-03T10:43:23.999Z</time></trkpt><trkpt lat="40.73516862071857" lon="17.579134178881745"><ele>201.6</ele><time>2026-05-03T10:43:25.999Z</time></trkpt><trkpt lat="40.735184426300904" lon="17.579276055136273"><ele>201.8</ele><time>2026-05-03T10:43:27.999Z</time></trkpt><trkpt lat="40.73517796889337" lon="17.579420224858993"><ele>202.0</ele><time>2026-05-03T10:43:29.999Z</time></trkpt><trkpt lat="40.735139757479516" lon="17.579563863500525"><ele>199.39999999999998</ele><time>2026-05-03T10:43:31.998Z</time></trkpt><trkpt lat="40.735115644882406" lon="17.57965237369056"><ele>196.79999999999998</ele><time>2026-05-03T10:43:32.998Z</time></trkpt><trkpt lat="40.73506051105487" lon="17.579793326178393"><ele>194.2</ele><time>2026-05-03T10:43:34.998Z</time></trkpt><trkpt lat="40.73496996368482" lon="17.579913040554032"><ele>191.6</ele><time>2026-05-03T10:43:36.998Z</time></trkpt><trkpt lat="40.734900957802374" lon="17.58003219132201"><ele>189.0</ele><time>2026-05-03T10:43:38.998Z</time></trkpt><trkpt lat="40.73484998999365" lon="17.580099976341682"><ele>189.0</ele><time>2026-05-03T10:43:39.998Z</time></trkpt><trkpt lat="40.73476600490833" lon="17.580193137168752"><ele>189.0</ele><time>2026-05-03T10:43:41.998Z</time></trkpt><trkpt lat="40.734681980123455" lon="17.58028158379441"><ele>189.0</ele><time>2026-05-03T10:43:43.998Z</time></trkpt><trkpt lat="40.73458808602212" lon="17.580332611107156"><ele>189.0</ele><time>2026-05-03T10:43:45.998Z</time></trkpt><trkpt lat="40.73451147097013" lon="17.580392410384498"><ele>189.0</ele><time>2026-05-03T10:43:47.998Z</time></trkpt><trkpt lat="40.73441276132098" lon="17.580397492316866"><ele>187.79999999999998</ele><time>2026-05-03T10:43:49.998Z</time></trkpt><trkpt lat="40.73430859506794" lon="17.58037166434283"><ele>186.6</ele><time>2026-05-03T10:43:51.998Z</time></trkpt><trkpt lat="40.73420295742501" lon="17.580409689688803"><ele>185.4</ele><time>2026-05-03T10:43:54Z</time></trkpt><trkpt lat="40.73409510818267" lon="17.580417563098916"><ele>184.2</ele><time>2026-05-03T10:43:56Z</time></trkpt><trkpt lat="40.733981226174215" lon="17.580420861412325"><ele>183.0</ele><time>2026-05-03T10:43:58Z</time></trkpt><trkpt lat="40.733873772206266" lon="17.580424172431226"><ele>183.0</ele><time>2026-05-03T10:44:00Z</time></trkpt><trkpt lat="40.73377236497944" lon="17.58041623366671"><ele>183.0</ele><time>2026-05-03T10:44:02Z</time></trkpt><trkpt lat="40.73365825379914" lon="17.580401120053484"><ele>183.0</ele><time>2026-05-03T10:44:04Z</time></trkpt><trkpt lat="40.73356054794277" lon="17.580348539429902"><ele>183.0</ele><time>2026-05-03T10:44:06Z</time></trkpt><trkpt lat="40.73347700716516" lon="17.580275951449483"><ele>183.0</ele><time>2026-05-03T10:44:08Z</time></trkpt><trkpt lat="40.733402480787525" lon="17.580164061759586"><ele>187.0</ele><time>2026-05-03T10:44:10Z</time></trkpt><trkpt lat="40.73334157262825" lon="17.580047883171606"><ele>191.0</ele><time>2026-05-03T10:44:12Z</time></trkpt><trkpt lat="40.73327531020258" lon="17.579930460238753"><ele>195.0</ele><time>2026-05-03T10:44:14Z</time></trkpt><trkpt lat="40.73321305429248" lon="17.579825272747573"><ele>199.0</ele><time>2026-05-03T10:44:16Z</time></trkpt><trkpt lat="40.73316748282702" lon="17.579731508925406"><ele>203.0</ele><time>2026-05-03T10:44:18Z</time></trkpt><trkpt lat="40.73311446395354" lon="17.57964144222468"><ele>203.0</ele><time>2026-05-03T10:44:20Z</time></trkpt><trkpt lat="40.733064376512424" lon="17.579582861012618"><ele>203.0</ele><time>2026-05-03T10:44:22Z</time></trkpt><trkpt lat="40.73299789508421" lon="17.579550667078102"><ele>203.0</ele><time>2026-05-03T10:44:24Z</time></trkpt><trkpt lat="40.73297737589599" lon="17.579470262690982"><ele>203.0</ele><time>2026-05-03T10:44:28Z</time></trkpt><trkpt lat="40.732918153244825" lon="17.579422122082576"><ele>203.0</ele><time>2026-05-03T10:44:32Z</time></trkpt><trkpt lat="40.73285240374261" lon="17.579382625416706"><ele>203.0</ele><time>2026-05-03T10:44:35Z</time></trkpt><trkpt lat="40.73279267782113" lon="17.579326541327532"><ele>203.0</ele><time>2026-05-03T10:44:38Z</time></trkpt><trkpt lat="40.73277035808675" lon="17.579223302866342"><ele>203.50000000000003</ele><time>2026-05-03T10:44:40Z</time></trkpt><trkpt lat="40.73270479847343" lon="17.579209558380523"><ele>204.0</ele><time>2026-05-03T10:44:41.999Z</time></trkpt><trkpt lat="40.73264320808259" lon="17.579129478554528"><ele>204.5</ele><time>2026-05-03T10:44:44.999Z</time></trkpt><trkpt lat="40.73262307561891" lon="17.579017772797624"><ele>205.0</ele><time>2026-05-03T10:44:47.999Z</time></trkpt><trkpt lat="40.73256877804727" lon="17.578929534924455"><ele>205.50000000000003</ele><time>2026-05-03T10:44:50.999Z</time></trkpt><trkpt lat="40.73249382032187" lon="17.578851360083615"><ele>206.0</ele><time>2026-05-03T10:44:54.999Z</time></trkpt><trkpt lat="40.73243252270212" lon="17.578799991381135"><ele>206.00000000000003</ele><time>2026-05-03T10:45:01.999Z</time></trkpt><trkpt lat="40.73238982345927" lon="17.57871952911281"><ele>206.0</ele><time>2026-05-03T10:45:06.999Z</time></trkpt><trkpt lat="40.73231652774756" lon="17.57863825203532"><ele>206.0</ele><time>2026-05-03T10:45:12.999Z</time></trkpt><trkpt lat="40.73225268552507" lon="17.57859555223041"><ele>206.0</ele><time>2026-05-03T10:45:14.999Z</time></trkpt><trkpt lat="40.732205239276304" lon="17.578526979559445"><ele>206.00000000000003</ele><time>2026-05-03T10:45:16.999Z</time></trkpt><trkpt lat="40.73214030798496" lon="17.57847727852261"><ele>206.0</ele><time>2026-05-03T10:45:19.999Z</time></trkpt><trkpt lat="40.732086030252184" lon="17.57852842811102"><ele>206.00000000000003</ele><time>2026-05-03T10:45:24.999Z</time></trkpt><trkpt lat="40.73201906802468" lon="17.578606764829974"><ele>206.0</ele><time>2026-05-03T10:45:27.999Z</time></trkpt><trkpt lat="40.731978301037856" lon="17.57867154952176"><ele>206.0</ele><time>2026-05-03T10:45:29.999Z</time></trkpt><trkpt lat="40.73191990571818" lon="17.57873667123096"><ele>206.0</ele><time>2026-05-03T10:45:32.999Z</time></trkpt><trkpt lat="40.73186717237306" lon="17.57880004144949"><ele>206.00000000000003</ele><time>2026-05-03T10:45:35.999Z</time></trkpt><trkpt lat="40.73181596045862" lon="17.578872175522715"><ele>206.0</ele><time>2026-05-03T10:45:38.999Z</time></trkpt><trkpt lat="40.73175400592391" lon="17.578942751180357"><ele>207.50000000000003</ele><time>2026-05-03T10:45:41.998Z</time></trkpt><trkpt lat="40.73167807626178" lon="17.57898903992561"><ele>209.0</ele><time>2026-05-03T10:45:44.998Z</time></trkpt><trkpt lat="40.73159955298231" lon="17.579039950887022"><ele>210.5</ele><time>2026-05-03T10:45:47.998Z</time></trkpt><trkpt lat="40.731514590268446" lon="17.57909659562322"><ele>212.0</ele><time>2026-05-03T10:45:50.998Z</time></trkpt><trkpt lat="40.73144219285797" lon="17.57914066851832"><ele>213.50000000000003</ele><time>2026-05-03T10:45:52.998Z</time></trkpt><trkpt lat="40.73135911481962" lon="17.57918311669105"><ele>215.0</ele><time>2026-05-03T10:45:55.998Z</time></trkpt><trkpt lat="40.73128358776136" lon="17.579237282446357"><ele>215.0</ele><time>2026-05-03T10:45:58.998Z</time></trkpt><trkpt lat="40.73123677837861" lon="17.57930649018979"><ele>215.0</ele><time>2026-05-03T10:46:01Z</time></trkpt><trkpt lat="40.731159520179716" lon="17.57935588269735"><ele>215.0</ele><time>2026-05-03T10:46:04Z</time></trkpt><trkpt lat="40.731100647614554" lon="17.57938637381492"><ele>215.0</ele><time>2026-05-03T10:46:07Z</time></trkpt><trkpt lat="40.731019505610035" lon="17.579442636230553"><ele>215.0</ele><time>2026-05-03T10:46:09Z</time></trkpt><trkpt lat="40.730960133479996" lon="17.57948248497921"><ele>215.0</ele><time>2026-05-03T10:46:11Z</time></trkpt><trkpt lat="40.73090425918417" lon="17.5794312120105"><ele>215.0</ele><time>2026-05-03T10:46:12Z</time></trkpt><trkpt lat="40.73082140077865" lon="17.579469073883104"><ele>215.83333333333334</ele><time>2026-05-03T10:46:14Z</time></trkpt><trkpt lat="40.73074529346014" lon="17.579536483183325"><ele>216.66666666666669</ele><time>2026-05-03T10:46:16Z</time></trkpt><trkpt lat="40.73070244164552" lon="17.579636852468035"><ele>217.5</ele><time>2026-05-03T10:46:18Z</time></trkpt><trkpt lat="40.73064956187797" lon="17.57969082589401"><ele>218.33333333333331</ele><time>2026-05-03T10:46:19Z</time></trkpt><trkpt lat="40.73055430574303" lon="17.579709986704053"><ele>219.16666666666666</ele><time>2026-05-03T10:46:21Z</time></trkpt><trkpt lat="40.730462764429525" lon="17.57975377885548"><ele>220.0</ele><time>2026-05-03T10:46:23Z</time></trkpt><trkpt lat="40.730381511269144" lon="17.579767384492456"><ele>219.99999999999997</ele><time>2026-05-03T10:46:25Z</time></trkpt><trkpt lat="40.73030083986383" lon="17.57978240779501"><ele>220.0</ele><time>2026-05-03T10:46:27Z</time></trkpt><trkpt lat="40.73022447163525" lon="17.579786657776694"><ele>220.0</ele><time>2026-05-03T10:46:29Z</time></trkpt><trkpt lat="40.730163017034755" lon="17.579725678008266"><ele>220.0</ele><time>2026-05-03T10:46:32Z</time></trkpt><trkpt lat="40.73010735494683" lon="17.579618292475995"><ele>219.99999999999997</ele><time>2026-05-03T10:46:35Z</time></trkpt><trkpt lat="40.73005718839597" lon="17.579544268646412"><ele>220.0</ele><time>2026-05-03T10:46:37Z</time></trkpt><trkpt lat="40.73002313993211" lon="17.57944438578328"><ele>220.8</ele><time>2026-05-03T10:46:39Z</time></trkpt><trkpt lat="40.72997710907963" lon="17.57934300812259"><ele>221.6</ele><time>2026-05-03T10:46:41Z</time></trkpt><trkpt lat="40.729927339760586" lon="17.579239050083316"><ele>222.39999999999998</ele><time>2026-05-03T10:46:42.999Z</time></trkpt><trkpt lat="40.72987245197329" lon="17.579130808491804"><ele>223.2</ele><time>2026-05-03T10:46:44.999Z</time></trkpt><trkpt lat="40.72983295397394" lon="17.579036285870473"><ele>224.0</ele><time>2026-05-03T10:46:46.999Z</time></trkpt><trkpt lat="40.729781886717824" lon="17.578930741329415"><ele>224.00000000000003</ele><time>2026-05-03T10:46:48.999Z</time></trkpt><trkpt lat="40.7297461750351" lon="17.578831081952263"><ele>224.0</ele><time>2026-05-03T10:46:50.999Z</time></trkpt><trkpt lat="40.72970822574103" lon="17.57873295614261"><ele>224.0</ele><time>2026-05-03T10:46:52.999Z</time></trkpt><trkpt lat="40.72966547133149" lon="17.578645243050744"><ele>224.0</ele><time>2026-05-03T10:46:54.999Z</time></trkpt><trkpt lat="40.729617939323084" lon="17.57855102658513"><ele>224.00000000000003</ele><time>2026-05-03T10:46:56.999Z</time></trkpt><trkpt lat="40.7295872825129" lon="17.578471217435"><ele>224.0</ele><time>2026-05-03T10:46:58.999Z</time></trkpt><trkpt lat="40.7295375254698" lon="17.578379314220587"><ele>225.00000000000003</ele><time>2026-05-03T10:47:00.999Z</time></trkpt><trkpt lat="40.729478829215566" lon="17.578308829775718"><ele>226.0</ele><time>2026-05-03T10:47:02.999Z</time></trkpt><trkpt lat="40.72940041081876" lon="17.57827631452213"><ele>227.0</ele><time>2026-05-03T10:47:04.999Z</time></trkpt><trkpt lat="40.72933987074069" lon="17.578339511206565"><ele>228.0</ele><time>2026-05-03T10:47:06.999Z</time></trkpt><trkpt lat="40.72927407026052" lon="17.57837358352095"><ele>229.00000000000003</ele><time>2026-05-03T10:47:08.999Z</time></trkpt><trkpt lat="40.72923041743842" lon="17.57845964965706"><ele>230.0</ele><time>2026-05-03T10:47:09.999Z</time></trkpt><trkpt lat="40.72915106065535" lon="17.578491988016943"><ele>230.0</ele><time>2026-05-03T10:47:12.999Z</time></trkpt><trkpt lat="40.729078283736065" lon="17.57856571972856"><ele>230.0</ele><time>2026-05-03T10:47:14.999Z</time></trkpt><trkpt lat="40.72901153752815" lon="17.578627845915328"><ele>230.0</ele><time>2026-05-03T10:47:16.999Z</time></trkpt><trkpt lat="40.72892529241822" lon="17.57867066596359"><ele>230.0</ele><time>2026-05-03T10:47:19.999Z</time></trkpt><trkpt lat="40.728849295215014" lon="17.57875642516732"><ele>230.0</ele><time>2026-05-03T10:47:21.999Z</time></trkpt><trkpt lat="40.72876565247424" lon="17.578817145932177"><ele>230.2</ele><time>2026-05-03T10:47:23.999Z</time></trkpt><trkpt lat="40.7286865299039" lon="17.57888165942854"><ele>230.4</ele><time>2026-05-03T10:47:25.999Z</time></trkpt><trkpt lat="40.7286040213936" lon="17.578956864958116"><ele>230.60000000000002</ele><time>2026-05-03T10:47:27.999Z</time></trkpt><trkpt lat="40.72851554461062" lon="17.5790123134111"><ele>230.8</ele><time>2026-05-03T10:47:29.999Z</time></trkpt><trkpt lat="40.728433368521245" lon="17.5790592795127"><ele>231.0</ele><time>2026-05-03T10:47:31.999Z</time></trkpt><trkpt lat="40.72836391792039" lon="17.579132412279776"><ele>231.0</ele><time>2026-05-03T10:47:33.999Z</time></trkpt><trkpt lat="40.72827994640735" lon="17.579199519398916"><ele>231.00000000000003</ele><time>2026-05-03T10:47:35.999Z</time></trkpt><trkpt lat="40.72819610561119" lon="17.57926610163302"><ele>231.00000000000003</ele><time>2026-05-03T10:47:37.999Z</time></trkpt><trkpt lat="40.72812070440773" lon="17.57932754129142"><ele>231.0</ele><time>2026-05-03T10:47:39.999Z</time></trkpt><trkpt lat="40.72803031569965" lon="17.57938848096268"><ele>231.0</ele><time>2026-05-03T10:47:41.998Z</time></trkpt><trkpt lat="40.727943286953675" lon="17.57946317426999"><ele>230.66666666666666</ele><time>2026-05-03T10:47:43.998Z</time></trkpt><trkpt lat="40.72787341447511" lon="17.579540476294834"><ele>230.33333333333331</ele><time>2026-05-03T10:47:45.998Z</time></trkpt><trkpt lat="40.72781598406349" lon="17.57961339665398"><ele>230.0</ele><time>2026-05-03T10:47:47.998Z</time></trkpt><trkpt lat="40.727774521819136" lon="17.579720920318874"><ele>229.66666666666666</ele><time>2026-05-03T10:47:49.998Z</time></trkpt><trkpt lat="40.72771423031303" lon="17.57979474552919"><ele>229.33333333333331</ele><time>2026-05-03T10:47:51.998Z</time></trkpt><trkpt lat="40.727652634556506" lon="17.579835710989084"><ele>229.0</ele><time>2026-05-03T10:47:53.998Z</time></trkpt><trkpt lat="40.72759793368462" lon="17.579907031992136"><ele>230.33333333333331</ele><time>2026-05-03T10:47:55.998Z</time></trkpt><trkpt lat="40.72752516976048" lon="17.579954889813084"><ele>231.66666666666666</ele><time>2026-05-03T10:47:57.998Z</time></trkpt><trkpt lat="40.72745237758926" lon="17.579975556871297"><ele>233.0</ele><time>2026-05-03T10:47:59.998Z</time></trkpt><trkpt lat="40.727376365430636" lon="17.580005804611215"><ele>234.33333333333331</ele><time>2026-05-03T10:48:01.998Z</time></trkpt><trkpt lat="40.727280623319714" lon="17.58000334359862"><ele>235.66666666666666</ele><time>2026-05-03T10:48:03.998Z</time></trkpt><trkpt lat="40.72719136218894" lon="17.57997968920777"><ele>237.0</ele><time>2026-05-03T10:48:06Z</time></trkpt><trkpt lat="40.72713920768256" lon="17.579932965517187"><ele>237.0</ele><time>2026-05-03T10:48:08Z</time></trkpt><trkpt lat="40.727052860241336" lon="17.5798970042241"><ele>237.0</ele><time>2026-05-03T10:48:11Z</time></trkpt><trkpt lat="40.727000191139844" lon="17.579849797751308"><ele>237.0</ele><time>2026-05-03T10:48:13Z</time></trkpt><trkpt lat="40.72694147737213" lon="17.579815760133226"><ele>237.0</ele><time>2026-05-03T10:48:15Z</time></trkpt><trkpt lat="40.72687730146502" lon="17.579773601029107"><ele>237.0</ele><time>2026-05-03T10:48:17Z</time></trkpt><trkpt lat="40.7267902697146" lon="17.579714209401022"><ele>237.0</ele><time>2026-05-03T10:48:20Z</time></trkpt><trkpt lat="40.72672758378979" lon="17.57966442003579"><ele>239.0</ele><time>2026-05-03T10:48:22Z</time></trkpt><trkpt lat="40.72667022176354" lon="17.579614601737543"><ele>239.0</ele><time>2026-05-03T10:48:24Z</time></trkpt><trkpt lat="40.72660447394284" lon="17.57956252770733"><ele>239.0</ele><time>2026-05-03T10:48:26Z</time></trkpt><trkpt lat="40.726539644847044" lon="17.57953921078732"><ele>239.0</ele><time>2026-05-03T10:48:28Z</time></trkpt><trkpt lat="40.726536268094605" lon="17.579445808773183"><ele>240.0</ele><time>2026-05-03T10:48:31Z</time></trkpt></trkseg></trk></gpx>